<?xml version="1.0" encoding="UTF-8" standalone="no" ?>
<gpx xmlns="http://www.topografix.com/GPX/1/1" xmlns:xsi="http://www.w3.org/2001/XMLSchema-instance" xsi:schemaLocation="http://www.topografix.com/GPX/1/1 http://www.topografix.com/GPX/1/1/gpx.xsd" version="1.1" creator="VisuGPX - https://www.visugpx.com">
  <metadata>
    <name>CAMINO PRIMITIVO&quot; LUGO - FEREIRA&quot;</name>
    <desc><![CDATA[C'est l'albergue de NAVE DE FEREIRA qui nous a amené à prolonger cette étape qui aurait due se terminer à SAN ROMAN DE RETORTA. Elle est récente et très bien conçue, le repas est très agréable. Il faudra prendre garde  que les hébergements entre SAN ROMAN et MELIDE sont très rares quasiment inexistant.]]></desc>
  </metadata>
  <trk>
    <name><![CDATA[2016-07-16-01]]></name>
    <trkseg>
      <trkpt lat="43.01041" lon="-7.5536">
        <ele>515.4</ele>
        <time>2016-07-16T03:58:26Z</time>
      </trkpt>
      <trkpt lat="43.01043" lon="-7.55368">
        <ele>515</ele>
        <time>2016-07-16T03:58:33Z</time>
      </trkpt>
      <trkpt lat="43.01036" lon="-7.55386">
        <ele>515</ele>
        <time>2016-07-16T03:58:49Z</time>
      </trkpt>
      <trkpt lat="43.01048" lon="-7.55416">
        <ele>516</ele>
        <time>2016-07-16T03:59:05Z</time>
      </trkpt>
      <trkpt lat="43.01047" lon="-7.55433">
        <ele>516</ele>
        <time>2016-07-16T03:59:21Z</time>
      </trkpt>
      <trkpt lat="43.01045" lon="-7.55457">
        <ele>517</ele>
        <time>2016-07-16T03:59:37Z</time>
      </trkpt>
      <trkpt lat="43.01035" lon="-7.55478">
        <ele>517</ele>
        <time>2016-07-16T03:59:53Z</time>
      </trkpt>
      <trkpt lat="43.01036" lon="-7.55497">
        <ele>517</ele>
        <time>2016-07-16T04:00:09Z</time>
      </trkpt>
      <trkpt lat="43.01017" lon="-7.55517">
        <ele>517</ele>
        <time>2016-07-16T04:00:27Z</time>
      </trkpt>
      <trkpt lat="43.01003" lon="-7.55567">
        <ele>517</ele>
        <time>2016-07-16T04:00:48Z</time>
      </trkpt>
      <trkpt lat="43.01009" lon="-7.55583">
        <ele>516</ele>
        <time>2016-07-16T04:01:04Z</time>
      </trkpt>
      <trkpt lat="43.00942" lon="-7.55566">
        <ele>515</ele>
        <time>2016-07-16T04:01:20Z</time>
      </trkpt>
      <trkpt lat="43.00978" lon="-7.55622">
        <ele>514</ele>
        <time>2016-07-16T04:01:36Z</time>
      </trkpt>
      <trkpt lat="43.00929" lon="-7.55618">
        <ele>513</ele>
        <time>2016-07-16T04:01:52Z</time>
      </trkpt>
      <trkpt lat="43.00997" lon="-7.55681">
        <ele>512</ele>
        <time>2016-07-16T04:02:08Z</time>
      </trkpt>
      <trkpt lat="43.00998" lon="-7.55709">
        <ele>511</ele>
        <time>2016-07-16T04:02:24Z</time>
      </trkpt>
      <trkpt lat="43.01" lon="-7.55726">
        <ele>511</ele>
        <time>2016-07-16T04:02:34Z</time>
      </trkpt>
      <trkpt lat="43.00988" lon="-7.55731">
        <ele>511</ele>
        <time>2016-07-16T04:02:38Z</time>
      </trkpt>
      <trkpt lat="43.00994" lon="-7.55747">
        <ele>511</ele>
        <time>2016-07-16T04:02:46Z</time>
      </trkpt>
      <trkpt lat="43.00991" lon="-7.55734">
        <ele>511</ele>
        <time>2016-07-16T04:02:50Z</time>
      </trkpt>
      <trkpt lat="43.0098" lon="-7.55742">
        <ele>510</ele>
        <time>2016-07-16T04:03:02Z</time>
      </trkpt>
      <trkpt lat="43.00969" lon="-7.55752">
        <ele>509</ele>
        <time>2016-07-16T04:03:14Z</time>
      </trkpt>
      <trkpt lat="43.0096" lon="-7.55757">
        <ele>508</ele>
        <time>2016-07-16T04:03:22Z</time>
      </trkpt>
      <trkpt lat="43.00954" lon="-7.55767">
        <ele>507</ele>
        <time>2016-07-16T04:03:30Z</time>
      </trkpt>
      <trkpt lat="43.00956" lon="-7.55782">
        <ele>507</ele>
        <time>2016-07-16T04:03:38Z</time>
      </trkpt>
      <trkpt lat="43.00954" lon="-7.55796">
        <ele>507</ele>
        <time>2016-07-16T04:03:46Z</time>
      </trkpt>
      <trkpt lat="43.00951" lon="-7.55807">
        <ele>506</ele>
        <time>2016-07-16T04:03:54Z</time>
      </trkpt>
      <trkpt lat="43.00947" lon="-7.55822">
        <ele>507</ele>
        <time>2016-07-16T04:04:06Z</time>
      </trkpt>
      <trkpt lat="43.00938" lon="-7.55835">
        <ele>507</ele>
        <time>2016-07-16T04:04:18Z</time>
      </trkpt>
      <trkpt lat="43.00937" lon="-7.55849">
        <ele>506</ele>
        <time>2016-07-16T04:04:26Z</time>
      </trkpt>
      <trkpt lat="43.00932" lon="-7.55862">
        <ele>506</ele>
        <time>2016-07-16T04:04:34Z</time>
      </trkpt>
      <trkpt lat="43.00927" lon="-7.55874">
        <ele>506</ele>
        <time>2016-07-16T04:04:42Z</time>
      </trkpt>
      <trkpt lat="43.00918" lon="-7.55884">
        <ele>505</ele>
        <time>2016-07-16T04:04:50Z</time>
      </trkpt>
      <trkpt lat="43.00912" lon="-7.55893">
        <ele>505</ele>
        <time>2016-07-16T04:05:02Z</time>
      </trkpt>
      <trkpt lat="43.00903" lon="-7.55896">
        <ele>504.2</ele>
        <time>2016-07-16T04:05:25Z</time>
      </trkpt>
      <trkpt lat="43.00893" lon="-7.55897">
        <ele>503.9</ele>
        <time>2016-07-16T04:05:31Z</time>
      </trkpt>
      <trkpt lat="43.00884" lon="-7.55896">
        <ele>503.6</ele>
        <time>2016-07-16T04:05:37Z</time>
      </trkpt>
      <trkpt lat="43.00875" lon="-7.55897">
        <ele>502</ele>
        <time>2016-07-16T04:05:43Z</time>
      </trkpt>
      <trkpt lat="43.00876" lon="-7.5591">
        <ele>502.3</ele>
        <time>2016-07-16T04:05:54Z</time>
      </trkpt>
      <trkpt lat="43.00876" lon="-7.55923">
        <ele>501.6</ele>
        <time>2016-07-16T04:06:05Z</time>
      </trkpt>
      <trkpt lat="43.00868" lon="-7.55929">
        <ele>500.3</ele>
        <time>2016-07-16T04:06:13Z</time>
      </trkpt>
      <trkpt lat="43.00858" lon="-7.5593">
        <ele>499.8</ele>
        <time>2016-07-16T04:06:20Z</time>
      </trkpt>
      <trkpt lat="43.00849" lon="-7.55934">
        <ele>499.3</ele>
        <time>2016-07-16T04:06:29Z</time>
      </trkpt>
      <trkpt lat="43.00842" lon="-7.55946">
        <ele>498</ele>
        <time>2016-07-16T04:06:42Z</time>
      </trkpt>
      <trkpt lat="43.00843" lon="-7.55958">
        <ele>498</ele>
        <time>2016-07-16T04:06:50Z</time>
      </trkpt>
      <trkpt lat="43.00837" lon="-7.55969">
        <ele>498.4</ele>
        <time>2016-07-16T04:06:58Z</time>
      </trkpt>
      <trkpt lat="43.00835" lon="-7.55981">
        <ele>497.3</ele>
        <time>2016-07-16T04:07:06Z</time>
      </trkpt>
      <trkpt lat="43.0083" lon="-7.55992">
        <ele>496.7</ele>
        <time>2016-07-16T04:07:14Z</time>
      </trkpt>
      <trkpt lat="43.00828" lon="-7.56005">
        <ele>496.2</ele>
        <time>2016-07-16T04:07:22Z</time>
      </trkpt>
      <trkpt lat="43.00822" lon="-7.56015">
        <ele>495.1</ele>
        <time>2016-07-16T04:07:30Z</time>
      </trkpt>
      <trkpt lat="43.00814" lon="-7.56024">
        <ele>494.6</ele>
        <time>2016-07-16T04:07:37Z</time>
      </trkpt>
      <trkpt lat="43.00806" lon="-7.56033">
        <ele>493</ele>
        <time>2016-07-16T04:07:45Z</time>
      </trkpt>
      <trkpt lat="43.00798" lon="-7.5604">
        <ele>492.8</ele>
        <time>2016-07-16T04:07:55Z</time>
      </trkpt>
      <trkpt lat="43.00791" lon="-7.5605">
        <ele>491.8</ele>
        <time>2016-07-16T04:08:04Z</time>
      </trkpt>
      <trkpt lat="43.00786" lon="-7.56062">
        <ele>491.1</ele>
        <time>2016-07-16T04:08:12Z</time>
      </trkpt>
      <trkpt lat="43.00776" lon="-7.56071">
        <ele>490</ele>
        <time>2016-07-16T04:08:19Z</time>
      </trkpt>
      <trkpt lat="43.00764" lon="-7.56073">
        <ele>490</ele>
        <time>2016-07-16T04:08:23Z</time>
      </trkpt>
      <trkpt lat="43.00752" lon="-7.56075">
        <ele>489</ele>
        <time>2016-07-16T04:08:27Z</time>
      </trkpt>
      <trkpt lat="43.0074" lon="-7.56087">
        <ele>489</ele>
        <time>2016-07-16T04:08:35Z</time>
      </trkpt>
      <trkpt lat="43.00742" lon="-7.561">
        <ele>488.8</ele>
        <time>2016-07-16T04:08:42Z</time>
      </trkpt>
      <trkpt lat="43.00747" lon="-7.56112">
        <ele>488.3</ele>
        <time>2016-07-16T04:08:47Z</time>
      </trkpt>
      <trkpt lat="43.00749" lon="-7.56125">
        <ele>487.3</ele>
        <time>2016-07-16T04:08:55Z</time>
      </trkpt>
      <trkpt lat="43.00746" lon="-7.56137">
        <ele>486.7</ele>
        <time>2016-07-16T04:09:06Z</time>
      </trkpt>
      <trkpt lat="43.00742" lon="-7.5615">
        <ele>486.1</ele>
        <time>2016-07-16T04:09:16Z</time>
      </trkpt>
      <trkpt lat="43.00733" lon="-7.56153">
        <ele>485.6</ele>
        <time>2016-07-16T04:09:24Z</time>
      </trkpt>
      <trkpt lat="43.00724" lon="-7.56156">
        <ele>485</ele>
        <time>2016-07-16T04:09:34Z</time>
      </trkpt>
      <trkpt lat="43.00717" lon="-7.56163">
        <ele>484.6</ele>
        <time>2016-07-16T04:09:43Z</time>
      </trkpt>
      <trkpt lat="43.00711" lon="-7.56174">
        <ele>484.2</ele>
        <time>2016-07-16T04:09:50Z</time>
      </trkpt>
      <trkpt lat="43.00701" lon="-7.56176">
        <ele>483.6</ele>
        <time>2016-07-16T04:09:58Z</time>
      </trkpt>
      <trkpt lat="43.00692" lon="-7.56175">
        <ele>483</ele>
        <time>2016-07-16T04:10:07Z</time>
      </trkpt>
      <trkpt lat="43.00682" lon="-7.56179">
        <ele>482.2</ele>
        <time>2016-07-16T04:10:15Z</time>
      </trkpt>
      <trkpt lat="43.00672" lon="-7.56183">
        <ele>481.7</ele>
        <time>2016-07-16T04:10:23Z</time>
      </trkpt>
      <trkpt lat="43.00666" lon="-7.56192">
        <ele>481.2</ele>
        <time>2016-07-16T04:10:32Z</time>
      </trkpt>
      <trkpt lat="43.0067" lon="-7.56203">
        <ele>480.7</ele>
        <time>2016-07-16T04:10:38Z</time>
      </trkpt>
      <trkpt lat="43.00673" lon="-7.56216">
        <ele>480.3</ele>
        <time>2016-07-16T04:10:44Z</time>
      </trkpt>
      <trkpt lat="43.00673" lon="-7.5623">
        <ele>479.9</ele>
        <time>2016-07-16T04:10:51Z</time>
      </trkpt>
      <trkpt lat="43.00667" lon="-7.56241">
        <ele>479.2</ele>
        <time>2016-07-16T04:10:59Z</time>
      </trkpt>
      <trkpt lat="43.00664" lon="-7.56255">
        <ele>478.1</ele>
        <time>2016-07-16T04:11:05Z</time>
      </trkpt>
      <trkpt lat="43.0066" lon="-7.56266">
        <ele>477</ele>
        <time>2016-07-16T04:11:11Z</time>
      </trkpt>
      <trkpt lat="43.00656" lon="-7.56278">
        <ele>475.9</ele>
        <time>2016-07-16T04:11:18Z</time>
      </trkpt>
      <trkpt lat="43.00652" lon="-7.5629">
        <ele>475.2</ele>
        <time>2016-07-16T04:11:25Z</time>
      </trkpt>
      <trkpt lat="43.00646" lon="-7.563">
        <ele>474.4</ele>
        <time>2016-07-16T04:11:33Z</time>
      </trkpt>
      <trkpt lat="43.00638" lon="-7.5631">
        <ele>472.9</ele>
        <time>2016-07-16T04:11:43Z</time>
      </trkpt>
      <trkpt lat="43.0063" lon="-7.56315">
        <ele>472.1</ele>
        <time>2016-07-16T04:11:50Z</time>
      </trkpt>
      <trkpt lat="43.00626" lon="-7.56327">
        <ele>470.7</ele>
        <time>2016-07-16T04:11:59Z</time>
      </trkpt>
      <trkpt lat="43.00621" lon="-7.56338">
        <ele>469.3</ele>
        <time>2016-07-16T04:12:07Z</time>
      </trkpt>
      <trkpt lat="43.00615" lon="-7.56348">
        <ele>468.2</ele>
        <time>2016-07-16T04:12:15Z</time>
      </trkpt>
      <trkpt lat="43.00614" lon="-7.56363">
        <ele>466</ele>
        <time>2016-07-16T04:12:24Z</time>
      </trkpt>
      <trkpt lat="43.00617" lon="-7.56376">
        <ele>465.9</ele>
        <time>2016-07-16T04:12:32Z</time>
      </trkpt>
      <trkpt lat="43.00611" lon="-7.56387">
        <ele>464.1</ele>
        <time>2016-07-16T04:12:41Z</time>
      </trkpt>
      <trkpt lat="43.00602" lon="-7.56394">
        <ele>462.7</ele>
        <time>2016-07-16T04:12:49Z</time>
      </trkpt>
      <trkpt lat="43.00595" lon="-7.56401">
        <ele>461.8</ele>
        <time>2016-07-16T04:12:55Z</time>
      </trkpt>
      <trkpt lat="43.00586" lon="-7.56396">
        <ele>460.4</ele>
        <time>2016-07-16T04:13:02Z</time>
      </trkpt>
      <trkpt lat="43.00576" lon="-7.56393">
        <ele>458.9</ele>
        <time>2016-07-16T04:13:09Z</time>
      </trkpt>
      <trkpt lat="43.00578" lon="-7.56407">
        <ele>457.6</ele>
        <time>2016-07-16T04:13:16Z</time>
      </trkpt>
      <trkpt lat="43.00585" lon="-7.56414">
        <ele>457</ele>
        <time>2016-07-16T04:13:20Z</time>
      </trkpt>
      <trkpt lat="43.00575" lon="-7.56414">
        <ele>456</ele>
        <time>2016-07-16T04:13:26Z</time>
      </trkpt>
      <trkpt lat="43.00565" lon="-7.56418">
        <ele>455.3</ele>
        <time>2016-07-16T04:13:31Z</time>
      </trkpt>
      <trkpt lat="43.00556" lon="-7.56424">
        <ele>454.6</ele>
        <time>2016-07-16T04:13:36Z</time>
      </trkpt>
      <trkpt lat="43.00546" lon="-7.56428">
        <ele>453.7</ele>
        <time>2016-07-16T04:13:41Z</time>
      </trkpt>
      <trkpt lat="43.00537" lon="-7.56434">
        <ele>452.4</ele>
        <time>2016-07-16T04:13:47Z</time>
      </trkpt>
      <trkpt lat="43.00527" lon="-7.56439">
        <ele>451.3</ele>
        <time>2016-07-16T04:13:53Z</time>
      </trkpt>
      <trkpt lat="43.00518" lon="-7.56444">
        <ele>450.3</ele>
        <time>2016-07-16T04:13:59Z</time>
      </trkpt>
      <trkpt lat="43.00509" lon="-7.56448">
        <ele>449.2</ele>
        <time>2016-07-16T04:14:07Z</time>
      </trkpt>
      <trkpt lat="43.00501" lon="-7.56453">
        <ele>448.4</ele>
        <time>2016-07-16T04:14:13Z</time>
      </trkpt>
      <trkpt lat="43.00492" lon="-7.56454">
        <ele>447.6</ele>
        <time>2016-07-16T04:14:19Z</time>
      </trkpt>
      <trkpt lat="43.00482" lon="-7.5645">
        <ele>446</ele>
        <time>2016-07-16T04:14:31Z</time>
      </trkpt>
      <trkpt lat="43.00473" lon="-7.56447">
        <ele>443.9</ele>
        <time>2016-07-16T04:14:42Z</time>
      </trkpt>
      <trkpt lat="43.00464" lon="-7.56444">
        <ele>442.1</ele>
        <time>2016-07-16T04:14:51Z</time>
      </trkpt>
      <trkpt lat="43.00454" lon="-7.56442">
        <ele>439.9</ele>
        <time>2016-07-16T04:15:03Z</time>
      </trkpt>
      <trkpt lat="43.00445" lon="-7.56438">
        <ele>438.4</ele>
        <time>2016-07-16T04:15:12Z</time>
      </trkpt>
      <trkpt lat="43.00437" lon="-7.56433">
        <ele>436.1</ele>
        <time>2016-07-16T04:15:25Z</time>
      </trkpt>
      <trkpt lat="43.00429" lon="-7.56427">
        <ele>435.4</ele>
        <time>2016-07-16T04:15:32Z</time>
      </trkpt>
      <trkpt lat="43.00422" lon="-7.56418">
        <ele>434.3</ele>
        <time>2016-07-16T04:15:41Z</time>
      </trkpt>
      <trkpt lat="43.00415" lon="-7.56408">
        <ele>433.5</ele>
        <time>2016-07-16T04:15:50Z</time>
      </trkpt>
      <trkpt lat="43.00407" lon="-7.56401">
        <ele>432.4</ele>
        <time>2016-07-16T04:16:01Z</time>
      </trkpt>
      <trkpt lat="43.00398" lon="-7.56396">
        <ele>431.4</ele>
        <time>2016-07-16T04:16:09Z</time>
      </trkpt>
      <trkpt lat="43.00389" lon="-7.5639">
        <ele>430</ele>
        <time>2016-07-16T04:16:20Z</time>
      </trkpt>
      <trkpt lat="43.00379" lon="-7.56386">
        <ele>428.8</ele>
        <time>2016-07-16T04:16:30Z</time>
      </trkpt>
      <trkpt lat="43.00369" lon="-7.56384">
        <ele>428.4</ele>
        <time>2016-07-16T04:16:34Z</time>
      </trkpt>
      <trkpt lat="43.00359" lon="-7.56384">
        <ele>427.6</ele>
        <time>2016-07-16T04:16:39Z</time>
      </trkpt>
      <trkpt lat="43.00349" lon="-7.56383">
        <ele>426.6</ele>
        <time>2016-07-16T04:16:47Z</time>
      </trkpt>
      <trkpt lat="43.0034" lon="-7.56381">
        <ele>425.9</ele>
        <time>2016-07-16T04:16:56Z</time>
      </trkpt>
      <trkpt lat="43.00328" lon="-7.56377">
        <ele>424</ele>
        <time>2016-07-16T04:17:07Z</time>
      </trkpt>
      <trkpt lat="43.00319" lon="-7.56374">
        <ele>424.2</ele>
        <time>2016-07-16T04:17:17Z</time>
      </trkpt>
      <trkpt lat="43.0031" lon="-7.56371">
        <ele>423.4</ele>
        <time>2016-07-16T04:17:26Z</time>
      </trkpt>
      <trkpt lat="43.003" lon="-7.56369">
        <ele>423.1</ele>
        <time>2016-07-16T04:17:34Z</time>
      </trkpt>
      <trkpt lat="43.00291" lon="-7.56367">
        <ele>422.2</ele>
        <time>2016-07-16T04:17:43Z</time>
      </trkpt>
      <trkpt lat="43.00282" lon="-7.56363">
        <ele>421.7</ele>
        <time>2016-07-16T04:17:51Z</time>
      </trkpt>
      <trkpt lat="43.00273" lon="-7.56359">
        <ele>420</ele>
        <time>2016-07-16T04:17:58Z</time>
      </trkpt>
      <trkpt lat="43.00263" lon="-7.56352">
        <ele>420.1</ele>
        <time>2016-07-16T04:18:09Z</time>
      </trkpt>
      <trkpt lat="43.00254" lon="-7.56354">
        <ele>419.6</ele>
        <time>2016-07-16T04:18:21Z</time>
      </trkpt>
      <trkpt lat="43.00247" lon="-7.56362">
        <ele>420</ele>
        <time>2016-07-16T04:18:34Z</time>
      </trkpt>
      <trkpt lat="43.00243" lon="-7.56351">
        <ele>420.9</ele>
        <time>2016-07-16T04:19:01Z</time>
      </trkpt>
      <trkpt lat="43.00247" lon="-7.56339">
        <ele>419.1</ele>
        <time>2016-07-16T04:19:36Z</time>
      </trkpt>
      <trkpt lat="43.00247" lon="-7.56352">
        <ele>405.3</ele>
        <time>2016-07-16T04:20:12Z</time>
      </trkpt>
      <trkpt lat="43.00242" lon="-7.56363">
        <ele>388.5</ele>
        <time>2016-07-16T04:20:33Z</time>
      </trkpt>
      <trkpt lat="43.00233" lon="-7.56362">
        <ele>385.6</ele>
        <time>2016-07-16T04:20:44Z</time>
      </trkpt>
      <trkpt lat="43.00224" lon="-7.56361">
        <ele>384.7</ele>
        <time>2016-07-16T04:20:55Z</time>
      </trkpt>
      <trkpt lat="43.00214" lon="-7.56359">
        <ele>384.2</ele>
        <time>2016-07-16T04:21:05Z</time>
      </trkpt>
      <trkpt lat="43.00205" lon="-7.56357">
        <ele>384.1</ele>
        <time>2016-07-16T04:21:15Z</time>
      </trkpt>
      <trkpt lat="43.00196" lon="-7.56355">
        <ele>384.2</ele>
        <time>2016-07-16T04:21:24Z</time>
      </trkpt>
      <trkpt lat="43.00186" lon="-7.56353">
        <ele>384.6</ele>
        <time>2016-07-16T04:21:33Z</time>
      </trkpt>
      <trkpt lat="43.00176" lon="-7.56351">
        <ele>385</ele>
        <time>2016-07-16T04:21:42Z</time>
      </trkpt>
      <trkpt lat="43.00167" lon="-7.56349">
        <ele>385.3</ele>
        <time>2016-07-16T04:21:51Z</time>
      </trkpt>
      <trkpt lat="43.00158" lon="-7.56348">
        <ele>385.4</ele>
        <time>2016-07-16T04:21:59Z</time>
      </trkpt>
      <trkpt lat="43.00148" lon="-7.56347">
        <ele>385.5</ele>
        <time>2016-07-16T04:22:07Z</time>
      </trkpt>
      <trkpt lat="43.00141" lon="-7.56355">
        <ele>385.4</ele>
        <time>2016-07-16T04:22:16Z</time>
      </trkpt>
      <trkpt lat="43.00134" lon="-7.56364">
        <ele>385.5</ele>
        <time>2016-07-16T04:22:25Z</time>
      </trkpt>
      <trkpt lat="43.00127" lon="-7.56373">
        <ele>385.6</ele>
        <time>2016-07-16T04:22:33Z</time>
      </trkpt>
      <trkpt lat="43.00124" lon="-7.56385">
        <ele>385.6</ele>
        <time>2016-07-16T04:22:43Z</time>
      </trkpt>
      <trkpt lat="43.00127" lon="-7.56397">
        <ele>385.6</ele>
        <time>2016-07-16T04:22:50Z</time>
      </trkpt>
      <trkpt lat="43.0013" lon="-7.5641">
        <ele>385.6</ele>
        <time>2016-07-16T04:22:57Z</time>
      </trkpt>
      <trkpt lat="43.00132" lon="-7.56422">
        <ele>385.5</ele>
        <time>2016-07-16T04:23:05Z</time>
      </trkpt>
      <trkpt lat="43.00132" lon="-7.56435">
        <ele>384.9</ele>
        <time>2016-07-16T04:23:51Z</time>
      </trkpt>
      <trkpt lat="43.00129" lon="-7.56447">
        <ele>384.9</ele>
        <time>2016-07-16T04:23:59Z</time>
      </trkpt>
      <trkpt lat="43.00125" lon="-7.5646">
        <ele>385</ele>
        <time>2016-07-16T04:24:07Z</time>
      </trkpt>
      <trkpt lat="43.00121" lon="-7.56471">
        <ele>385.2</ele>
        <time>2016-07-16T04:24:15Z</time>
      </trkpt>
      <trkpt lat="43.00117" lon="-7.56482">
        <ele>385.5</ele>
        <time>2016-07-16T04:24:23Z</time>
      </trkpt>
      <trkpt lat="43.00113" lon="-7.56494">
        <ele>385.4</ele>
        <time>2016-07-16T04:24:31Z</time>
      </trkpt>
      <trkpt lat="43.00108" lon="-7.56504">
        <ele>385.7</ele>
        <time>2016-07-16T04:24:39Z</time>
      </trkpt>
      <trkpt lat="43.00104" lon="-7.56517">
        <ele>386.3</ele>
        <time>2016-07-16T04:24:48Z</time>
      </trkpt>
      <trkpt lat="43.001" lon="-7.56529">
        <ele>387</ele>
        <time>2016-07-16T04:24:57Z</time>
      </trkpt>
      <trkpt lat="43.00098" lon="-7.56542">
        <ele>387.3</ele>
        <time>2016-07-16T04:25:06Z</time>
      </trkpt>
      <trkpt lat="43.00093" lon="-7.56554">
        <ele>387.6</ele>
        <time>2016-07-16T04:25:14Z</time>
      </trkpt>
      <trkpt lat="43.00088" lon="-7.56565">
        <ele>388.1</ele>
        <time>2016-07-16T04:25:22Z</time>
      </trkpt>
      <trkpt lat="43.00082" lon="-7.56575">
        <ele>388.3</ele>
        <time>2016-07-16T04:25:29Z</time>
      </trkpt>
      <trkpt lat="43.00077" lon="-7.56585">
        <ele>388.5</ele>
        <time>2016-07-16T04:25:36Z</time>
      </trkpt>
      <trkpt lat="43.00073" lon="-7.56597">
        <ele>388.6</ele>
        <time>2016-07-16T04:25:44Z</time>
      </trkpt>
      <trkpt lat="43.00072" lon="-7.5661">
        <ele>389.2</ele>
        <time>2016-07-16T04:25:53Z</time>
      </trkpt>
      <trkpt lat="43.0007" lon="-7.56623">
        <ele>389.4</ele>
        <time>2016-07-16T04:26:02Z</time>
      </trkpt>
      <trkpt lat="43.0007" lon="-7.56637">
        <ele>389.6</ele>
        <time>2016-07-16T04:26:10Z</time>
      </trkpt>
      <trkpt lat="43.00069" lon="-7.56651">
        <ele>389.7</ele>
        <time>2016-07-16T04:26:18Z</time>
      </trkpt>
      <trkpt lat="43.00067" lon="-7.56664">
        <ele>389.6</ele>
        <time>2016-07-16T04:26:26Z</time>
      </trkpt>
      <trkpt lat="43.00064" lon="-7.56677">
        <ele>389.3</ele>
        <time>2016-07-16T04:26:34Z</time>
      </trkpt>
      <trkpt lat="43.00063" lon="-7.5669">
        <ele>389.2</ele>
        <time>2016-07-16T04:26:42Z</time>
      </trkpt>
      <trkpt lat="43.00061" lon="-7.56703">
        <ele>389.3</ele>
        <time>2016-07-16T04:26:50Z</time>
      </trkpt>
      <trkpt lat="43.00059" lon="-7.56715">
        <ele>389.2</ele>
        <time>2016-07-16T04:26:58Z</time>
      </trkpt>
      <trkpt lat="43.00057" lon="-7.56728">
        <ele>389</ele>
        <time>2016-07-16T04:27:06Z</time>
      </trkpt>
      <trkpt lat="43.00052" lon="-7.56739">
        <ele>388.7</ele>
        <time>2016-07-16T04:27:15Z</time>
      </trkpt>
      <trkpt lat="43.0005" lon="-7.56752">
        <ele>388.9</ele>
        <time>2016-07-16T04:27:24Z</time>
      </trkpt>
      <trkpt lat="43.00047" lon="-7.56765">
        <ele>389</ele>
        <time>2016-07-16T04:27:33Z</time>
      </trkpt>
      <trkpt lat="43.00045" lon="-7.56778">
        <ele>388.8</ele>
        <time>2016-07-16T04:27:41Z</time>
      </trkpt>
      <trkpt lat="43.00043" lon="-7.56791">
        <ele>388.8</ele>
        <time>2016-07-16T04:27:49Z</time>
      </trkpt>
      <trkpt lat="43.0004" lon="-7.56805">
        <ele>388.8</ele>
        <time>2016-07-16T04:27:57Z</time>
      </trkpt>
      <trkpt lat="43.00041" lon="-7.56818">
        <ele>388.4</ele>
        <time>2016-07-16T04:28:04Z</time>
      </trkpt>
      <trkpt lat="43.0004" lon="-7.5683">
        <ele>388.4</ele>
        <time>2016-07-16T04:28:11Z</time>
      </trkpt>
      <trkpt lat="43.00041" lon="-7.56844">
        <ele>388.1</ele>
        <time>2016-07-16T04:28:19Z</time>
      </trkpt>
      <trkpt lat="43.00039" lon="-7.56858">
        <ele>387.8</ele>
        <time>2016-07-16T04:28:27Z</time>
      </trkpt>
      <trkpt lat="43.00039" lon="-7.56871">
        <ele>387.6</ele>
        <time>2016-07-16T04:28:35Z</time>
      </trkpt>
      <trkpt lat="43.00038" lon="-7.56884">
        <ele>387.4</ele>
        <time>2016-07-16T04:28:44Z</time>
      </trkpt>
      <trkpt lat="43.00037" lon="-7.56897">
        <ele>387.6</ele>
        <time>2016-07-16T04:28:54Z</time>
      </trkpt>
      <trkpt lat="43.00035" lon="-7.5691">
        <ele>387.9</ele>
        <time>2016-07-16T04:29:03Z</time>
      </trkpt>
      <trkpt lat="43.00034" lon="-7.56923">
        <ele>388.4</ele>
        <time>2016-07-16T04:29:12Z</time>
      </trkpt>
      <trkpt lat="43.00032" lon="-7.56935">
        <ele>388.5</ele>
        <time>2016-07-16T04:29:20Z</time>
      </trkpt>
      <trkpt lat="43.0003" lon="-7.56947">
        <ele>388.4</ele>
        <time>2016-07-16T04:29:28Z</time>
      </trkpt>
      <trkpt lat="43.00027" lon="-7.56959">
        <ele>388.5</ele>
        <time>2016-07-16T04:29:36Z</time>
      </trkpt>
      <trkpt lat="43.00029" lon="-7.56972">
        <ele>388.7</ele>
        <time>2016-07-16T04:29:44Z</time>
      </trkpt>
      <trkpt lat="43.0003" lon="-7.56985">
        <ele>388.9</ele>
        <time>2016-07-16T04:29:52Z</time>
      </trkpt>
      <trkpt lat="43.00032" lon="-7.56998">
        <ele>389</ele>
        <time>2016-07-16T04:29:59Z</time>
      </trkpt>
      <trkpt lat="43.00033" lon="-7.57011">
        <ele>389.1</ele>
        <time>2016-07-16T04:30:06Z</time>
      </trkpt>
      <trkpt lat="43.00033" lon="-7.57024">
        <ele>388.9</ele>
        <time>2016-07-16T04:30:14Z</time>
      </trkpt>
      <trkpt lat="43.00029" lon="-7.57036">
        <ele>388.7</ele>
        <time>2016-07-16T04:30:22Z</time>
      </trkpt>
      <trkpt lat="43.00028" lon="-7.57048">
        <ele>388.5</ele>
        <time>2016-07-16T04:30:30Z</time>
      </trkpt>
      <trkpt lat="43.00029" lon="-7.57063">
        <ele>388.5</ele>
        <time>2016-07-16T04:30:38Z</time>
      </trkpt>
      <trkpt lat="43.00028" lon="-7.57076">
        <ele>388.5</ele>
        <time>2016-07-16T04:30:46Z</time>
      </trkpt>
      <trkpt lat="43.00027" lon="-7.57089">
        <ele>388.4</ele>
        <time>2016-07-16T04:30:54Z</time>
      </trkpt>
      <trkpt lat="43.00026" lon="-7.57102">
        <ele>388.3</ele>
        <time>2016-07-16T04:31:02Z</time>
      </trkpt>
      <trkpt lat="43.00026" lon="-7.57115">
        <ele>388</ele>
        <time>2016-07-16T04:31:10Z</time>
      </trkpt>
      <trkpt lat="43.00027" lon="-7.57128">
        <ele>387.9</ele>
        <time>2016-07-16T04:31:18Z</time>
      </trkpt>
      <trkpt lat="43.00028" lon="-7.5714">
        <ele>387.7</ele>
        <time>2016-07-16T04:31:27Z</time>
      </trkpt>
      <trkpt lat="43.00027" lon="-7.57153">
        <ele>387.4</ele>
        <time>2016-07-16T04:31:35Z</time>
      </trkpt>
      <trkpt lat="43.00026" lon="-7.57166">
        <ele>387.5</ele>
        <time>2016-07-16T04:31:44Z</time>
      </trkpt>
      <trkpt lat="43.00024" lon="-7.5718">
        <ele>387.5</ele>
        <time>2016-07-16T04:31:52Z</time>
      </trkpt>
      <trkpt lat="43.00022" lon="-7.57193">
        <ele>387.6</ele>
        <time>2016-07-16T04:32:01Z</time>
      </trkpt>
      <trkpt lat="43.0002" lon="-7.57206">
        <ele>387.5</ele>
        <time>2016-07-16T04:32:10Z</time>
      </trkpt>
      <trkpt lat="43.00016" lon="-7.57217">
        <ele>387.8</ele>
        <time>2016-07-16T04:32:22Z</time>
      </trkpt>
      <trkpt lat="43.00012" lon="-7.5723">
        <ele>387.9</ele>
        <time>2016-07-16T04:32:31Z</time>
      </trkpt>
      <trkpt lat="43.00009" lon="-7.57242">
        <ele>387.9</ele>
        <time>2016-07-16T04:32:39Z</time>
      </trkpt>
      <trkpt lat="43.00006" lon="-7.57255">
        <ele>388.1</ele>
        <time>2016-07-16T04:32:49Z</time>
      </trkpt>
      <trkpt lat="43.00003" lon="-7.57267">
        <ele>388.4</ele>
        <time>2016-07-16T04:32:57Z</time>
      </trkpt>
      <trkpt lat="43.00008" lon="-7.57279">
        <ele>388.7</ele>
        <time>2016-07-16T04:33:06Z</time>
      </trkpt>
      <trkpt lat="43.00015" lon="-7.57288">
        <ele>388.6</ele>
        <time>2016-07-16T04:33:14Z</time>
      </trkpt>
      <trkpt lat="43.0002" lon="-7.573">
        <ele>388.9</ele>
        <time>2016-07-16T04:33:22Z</time>
      </trkpt>
      <trkpt lat="43.00017" lon="-7.57311">
        <ele>389.6</ele>
        <time>2016-07-16T04:33:33Z</time>
      </trkpt>
      <trkpt lat="43.00011" lon="-7.57323">
        <ele>391.2</ele>
        <time>2016-07-16T04:33:44Z</time>
      </trkpt>
      <trkpt lat="43.00007" lon="-7.57335">
        <ele>392.9</ele>
        <time>2016-07-16T04:33:55Z</time>
      </trkpt>
      <trkpt lat="43.00005" lon="-7.57348">
        <ele>394.5</ele>
        <time>2016-07-16T04:34:05Z</time>
      </trkpt>
      <trkpt lat="43.00005" lon="-7.57362">
        <ele>395.3</ele>
        <time>2016-07-16T04:34:14Z</time>
      </trkpt>
      <trkpt lat="43.00004" lon="-7.57376">
        <ele>396.4</ele>
        <time>2016-07-16T04:34:23Z</time>
      </trkpt>
      <trkpt lat="43.00006" lon="-7.57388">
        <ele>397.3</ele>
        <time>2016-07-16T04:34:31Z</time>
      </trkpt>
      <trkpt lat="43.00006" lon="-7.57401">
        <ele>398.4</ele>
        <time>2016-07-16T04:34:40Z</time>
      </trkpt>
      <trkpt lat="43.00007" lon="-7.57414">
        <ele>399.5</ele>
        <time>2016-07-16T04:34:49Z</time>
      </trkpt>
      <trkpt lat="43.00008" lon="-7.57427">
        <ele>400.2</ele>
        <time>2016-07-16T04:34:58Z</time>
      </trkpt>
      <trkpt lat="43.0001" lon="-7.5744">
        <ele>401.1</ele>
        <time>2016-07-16T04:35:09Z</time>
      </trkpt>
      <trkpt lat="43.00009" lon="-7.57454">
        <ele>402.3</ele>
        <time>2016-07-16T04:35:20Z</time>
      </trkpt>
      <trkpt lat="43.00008" lon="-7.57467">
        <ele>403.5</ele>
        <time>2016-07-16T04:35:31Z</time>
      </trkpt>
      <trkpt lat="43.00007" lon="-7.5748">
        <ele>404.9</ele>
        <time>2016-07-16T04:35:41Z</time>
      </trkpt>
      <trkpt lat="43.00004" lon="-7.57492">
        <ele>406.3</ele>
        <time>2016-07-16T04:35:51Z</time>
      </trkpt>
      <trkpt lat="42.99999" lon="-7.57504">
        <ele>407.9</ele>
        <time>2016-07-16T04:36:01Z</time>
      </trkpt>
      <trkpt lat="42.99992" lon="-7.57512">
        <ele>409.1</ele>
        <time>2016-07-16T04:36:10Z</time>
      </trkpt>
      <trkpt lat="42.99984" lon="-7.57518">
        <ele>410.7</ele>
        <time>2016-07-16T04:36:19Z</time>
      </trkpt>
      <trkpt lat="42.99975" lon="-7.5752">
        <ele>412</ele>
        <time>2016-07-16T04:36:28Z</time>
      </trkpt>
      <trkpt lat="42.99966" lon="-7.57524">
        <ele>412.9</ele>
        <time>2016-07-16T04:36:37Z</time>
      </trkpt>
      <trkpt lat="42.99957" lon="-7.57528">
        <ele>413.5</ele>
        <time>2016-07-16T04:36:46Z</time>
      </trkpt>
      <trkpt lat="42.99949" lon="-7.57536">
        <ele>414.6</ele>
        <time>2016-07-16T04:36:56Z</time>
      </trkpt>
      <trkpt lat="42.99946" lon="-7.57548">
        <ele>415.6</ele>
        <time>2016-07-16T04:37:05Z</time>
      </trkpt>
      <trkpt lat="42.99945" lon="-7.5756">
        <ele>416.8</ele>
        <time>2016-07-16T04:37:14Z</time>
      </trkpt>
      <trkpt lat="42.99945" lon="-7.57573">
        <ele>418.6</ele>
        <time>2016-07-16T04:37:25Z</time>
      </trkpt>
      <trkpt lat="42.99945" lon="-7.57586">
        <ele>419.8</ele>
        <time>2016-07-16T04:37:35Z</time>
      </trkpt>
      <trkpt lat="42.99945" lon="-7.57598">
        <ele>420.5</ele>
        <time>2016-07-16T04:37:44Z</time>
      </trkpt>
      <trkpt lat="42.99944" lon="-7.57611">
        <ele>421.7</ele>
        <time>2016-07-16T04:37:54Z</time>
      </trkpt>
      <trkpt lat="42.99944" lon="-7.57623">
        <ele>423</ele>
        <time>2016-07-16T04:38:04Z</time>
      </trkpt>
      <trkpt lat="42.99944" lon="-7.57636">
        <ele>424.6</ele>
        <time>2016-07-16T04:38:15Z</time>
      </trkpt>
      <trkpt lat="42.99944" lon="-7.57649">
        <ele>426</ele>
        <time>2016-07-16T04:38:26Z</time>
      </trkpt>
      <trkpt lat="42.99945" lon="-7.57663">
        <ele>427.7</ele>
        <time>2016-07-16T04:38:36Z</time>
      </trkpt>
      <trkpt lat="42.99944" lon="-7.57676">
        <ele>429.2</ele>
        <time>2016-07-16T04:38:48Z</time>
      </trkpt>
      <trkpt lat="42.99944" lon="-7.5769">
        <ele>431.1</ele>
        <time>2016-07-16T04:38:58Z</time>
      </trkpt>
      <trkpt lat="42.99943" lon="-7.57703">
        <ele>432.2</ele>
        <time>2016-07-16T04:39:07Z</time>
      </trkpt>
      <trkpt lat="42.99952" lon="-7.57701">
        <ele>435.3</ele>
        <time>2016-07-16T04:39:36Z</time>
      </trkpt>
      <trkpt lat="42.99951" lon="-7.57714">
        <ele>435.2</ele>
        <time>2016-07-16T04:39:56Z</time>
      </trkpt>
      <trkpt lat="42.99944" lon="-7.57721">
        <ele>435.6</ele>
        <time>2016-07-16T04:40:04Z</time>
      </trkpt>
      <trkpt lat="42.99936" lon="-7.57728">
        <ele>436.3</ele>
        <time>2016-07-16T04:40:12Z</time>
      </trkpt>
      <trkpt lat="42.99927" lon="-7.57733">
        <ele>437</ele>
        <time>2016-07-16T04:40:20Z</time>
      </trkpt>
      <trkpt lat="42.99919" lon="-7.57741">
        <ele>437.7</ele>
        <time>2016-07-16T04:40:28Z</time>
      </trkpt>
      <trkpt lat="42.99912" lon="-7.5775">
        <ele>438.4</ele>
        <time>2016-07-16T04:40:36Z</time>
      </trkpt>
      <trkpt lat="42.99905" lon="-7.5776">
        <ele>439.9</ele>
        <time>2016-07-16T04:40:45Z</time>
      </trkpt>
      <trkpt lat="42.99901" lon="-7.57771">
        <ele>441</ele>
        <time>2016-07-16T04:40:55Z</time>
      </trkpt>
      <trkpt lat="42.99894" lon="-7.57781">
        <ele>441.9</ele>
        <time>2016-07-16T04:41:03Z</time>
      </trkpt>
      <trkpt lat="42.99886" lon="-7.5779">
        <ele>442.9</ele>
        <time>2016-07-16T04:41:12Z</time>
      </trkpt>
      <trkpt lat="42.99881" lon="-7.578">
        <ele>444.2</ele>
        <time>2016-07-16T04:41:23Z</time>
      </trkpt>
      <trkpt lat="42.99875" lon="-7.57809">
        <ele>445.5</ele>
        <time>2016-07-16T04:41:31Z</time>
      </trkpt>
      <trkpt lat="42.99868" lon="-7.57818">
        <ele>446.4</ele>
        <time>2016-07-16T04:41:39Z</time>
      </trkpt>
      <trkpt lat="42.9986" lon="-7.57826">
        <ele>447.6</ele>
        <time>2016-07-16T04:41:49Z</time>
      </trkpt>
      <trkpt lat="42.99852" lon="-7.57834">
        <ele>448.4</ele>
        <time>2016-07-16T04:41:58Z</time>
      </trkpt>
      <trkpt lat="42.99845" lon="-7.57841">
        <ele>449.3</ele>
        <time>2016-07-16T04:42:07Z</time>
      </trkpt>
      <trkpt lat="42.99838" lon="-7.57849">
        <ele>450.5</ele>
        <time>2016-07-16T04:42:15Z</time>
      </trkpt>
      <trkpt lat="42.99831" lon="-7.57858">
        <ele>451.5</ele>
        <time>2016-07-16T04:42:22Z</time>
      </trkpt>
      <trkpt lat="42.99825" lon="-7.57867">
        <ele>451.9</ele>
        <time>2016-07-16T04:42:29Z</time>
      </trkpt>
      <trkpt lat="42.99817" lon="-7.57874">
        <ele>452.2</ele>
        <time>2016-07-16T04:42:37Z</time>
      </trkpt>
      <trkpt lat="42.99808" lon="-7.5788">
        <ele>452.7</ele>
        <time>2016-07-16T04:42:45Z</time>
      </trkpt>
      <trkpt lat="42.99802" lon="-7.57889">
        <ele>453</ele>
        <time>2016-07-16T04:42:52Z</time>
      </trkpt>
      <trkpt lat="42.99796" lon="-7.57899">
        <ele>453.4</ele>
        <time>2016-07-16T04:43:01Z</time>
      </trkpt>
      <trkpt lat="42.9979" lon="-7.57909">
        <ele>454.2</ele>
        <time>2016-07-16T04:43:11Z</time>
      </trkpt>
      <trkpt lat="42.99784" lon="-7.57919">
        <ele>455.7</ele>
        <time>2016-07-16T04:43:28Z</time>
      </trkpt>
      <trkpt lat="42.99779" lon="-7.5793">
        <ele>456.3</ele>
        <time>2016-07-16T04:43:37Z</time>
      </trkpt>
      <trkpt lat="42.99774" lon="-7.57941">
        <ele>456.9</ele>
        <time>2016-07-16T04:43:47Z</time>
      </trkpt>
      <trkpt lat="42.99768" lon="-7.57951">
        <ele>457.4</ele>
        <time>2016-07-16T04:43:55Z</time>
      </trkpt>
      <trkpt lat="42.99764" lon="-7.57963">
        <ele>458.3</ele>
        <time>2016-07-16T04:44:04Z</time>
      </trkpt>
      <trkpt lat="42.99757" lon="-7.57974">
        <ele>459.1</ele>
        <time>2016-07-16T04:44:13Z</time>
      </trkpt>
      <trkpt lat="42.99751" lon="-7.57984">
        <ele>459.5</ele>
        <time>2016-07-16T04:44:22Z</time>
      </trkpt>
      <trkpt lat="42.99746" lon="-7.57994">
        <ele>459.9</ele>
        <time>2016-07-16T04:44:30Z</time>
      </trkpt>
      <trkpt lat="42.99741" lon="-7.58005">
        <ele>460.3</ele>
        <time>2016-07-16T04:44:39Z</time>
      </trkpt>
      <trkpt lat="42.99736" lon="-7.58017">
        <ele>460.6</ele>
        <time>2016-07-16T04:44:48Z</time>
      </trkpt>
      <trkpt lat="42.99729" lon="-7.58027">
        <ele>460.7</ele>
        <time>2016-07-16T04:44:56Z</time>
      </trkpt>
      <trkpt lat="42.99722" lon="-7.58036">
        <ele>460.7</ele>
        <time>2016-07-16T04:45:03Z</time>
      </trkpt>
      <trkpt lat="42.99716" lon="-7.58045">
        <ele>460.7</ele>
        <time>2016-07-16T04:45:10Z</time>
      </trkpt>
      <trkpt lat="42.9971" lon="-7.58054">
        <ele>461.2</ele>
        <time>2016-07-16T04:45:17Z</time>
      </trkpt>
      <trkpt lat="42.99704" lon="-7.58066">
        <ele>461.5</ele>
        <time>2016-07-16T04:45:25Z</time>
      </trkpt>
      <trkpt lat="42.99699" lon="-7.58077">
        <ele>461.6</ele>
        <time>2016-07-16T04:45:33Z</time>
      </trkpt>
      <trkpt lat="42.99694" lon="-7.58088">
        <ele>461.6</ele>
        <time>2016-07-16T04:45:41Z</time>
      </trkpt>
      <trkpt lat="42.99689" lon="-7.58098">
        <ele>461.5</ele>
        <time>2016-07-16T04:45:49Z</time>
      </trkpt>
      <trkpt lat="42.99684" lon="-7.58109">
        <ele>461.7</ele>
        <time>2016-07-16T04:45:57Z</time>
      </trkpt>
      <trkpt lat="42.99679" lon="-7.5812">
        <ele>461.8</ele>
        <time>2016-07-16T04:46:05Z</time>
      </trkpt>
      <trkpt lat="42.99673" lon="-7.58131">
        <ele>461.9</ele>
        <time>2016-07-16T04:46:13Z</time>
      </trkpt>
      <trkpt lat="42.99668" lon="-7.58142">
        <ele>462.1</ele>
        <time>2016-07-16T04:46:21Z</time>
      </trkpt>
      <trkpt lat="42.99663" lon="-7.58153">
        <ele>462.4</ele>
        <time>2016-07-16T04:46:29Z</time>
      </trkpt>
      <trkpt lat="42.99656" lon="-7.58163">
        <ele>462.8</ele>
        <time>2016-07-16T04:46:37Z</time>
      </trkpt>
      <trkpt lat="42.99651" lon="-7.58173">
        <ele>463</ele>
        <time>2016-07-16T04:46:45Z</time>
      </trkpt>
      <trkpt lat="42.99645" lon="-7.58183">
        <ele>463.1</ele>
        <time>2016-07-16T04:46:53Z</time>
      </trkpt>
      <trkpt lat="42.99639" lon="-7.58194">
        <ele>463</ele>
        <time>2016-07-16T04:47:01Z</time>
      </trkpt>
      <trkpt lat="42.99633" lon="-7.58204">
        <ele>462.7</ele>
        <time>2016-07-16T04:47:09Z</time>
      </trkpt>
      <trkpt lat="42.99628" lon="-7.58214">
        <ele>463.1</ele>
        <time>2016-07-16T04:47:17Z</time>
      </trkpt>
      <trkpt lat="42.99622" lon="-7.58224">
        <ele>463.4</ele>
        <time>2016-07-16T04:47:25Z</time>
      </trkpt>
      <trkpt lat="42.99616" lon="-7.58235">
        <ele>463.4</ele>
        <time>2016-07-16T04:47:33Z</time>
      </trkpt>
      <trkpt lat="42.99611" lon="-7.58245">
        <ele>463.3</ele>
        <time>2016-07-16T04:47:41Z</time>
      </trkpt>
      <trkpt lat="42.99606" lon="-7.58257">
        <ele>463</ele>
        <time>2016-07-16T04:47:49Z</time>
      </trkpt>
      <trkpt lat="42.99601" lon="-7.58268">
        <ele>462.8</ele>
        <time>2016-07-16T04:47:57Z</time>
      </trkpt>
      <trkpt lat="42.99597" lon="-7.5828">
        <ele>462.4</ele>
        <time>2016-07-16T04:48:05Z</time>
      </trkpt>
      <trkpt lat="42.99598" lon="-7.58293">
        <ele>461.9</ele>
        <time>2016-07-16T04:48:13Z</time>
      </trkpt>
      <trkpt lat="42.99602" lon="-7.58306">
        <ele>461.4</ele>
        <time>2016-07-16T04:48:20Z</time>
      </trkpt>
      <trkpt lat="42.99605" lon="-7.58318">
        <ele>460.9</ele>
        <time>2016-07-16T04:48:27Z</time>
      </trkpt>
      <trkpt lat="42.99606" lon="-7.58331">
        <ele>460</ele>
        <time>2016-07-16T04:48:35Z</time>
      </trkpt>
      <trkpt lat="42.99606" lon="-7.58343">
        <ele>459.1</ele>
        <time>2016-07-16T04:48:43Z</time>
      </trkpt>
      <trkpt lat="42.99606" lon="-7.58357">
        <ele>458.2</ele>
        <time>2016-07-16T04:48:51Z</time>
      </trkpt>
      <trkpt lat="42.99606" lon="-7.58371">
        <ele>457.5</ele>
        <time>2016-07-16T04:48:59Z</time>
      </trkpt>
      <trkpt lat="42.99606" lon="-7.58383">
        <ele>456.4</ele>
        <time>2016-07-16T04:49:07Z</time>
      </trkpt>
      <trkpt lat="42.99608" lon="-7.58397">
        <ele>455.4</ele>
        <time>2016-07-16T04:49:15Z</time>
      </trkpt>
      <trkpt lat="42.9961" lon="-7.58409">
        <ele>454.1</ele>
        <time>2016-07-16T04:49:23Z</time>
      </trkpt>
      <trkpt lat="42.99613" lon="-7.58421">
        <ele>453.3</ele>
        <time>2016-07-16T04:49:31Z</time>
      </trkpt>
      <trkpt lat="42.99614" lon="-7.58434">
        <ele>452.4</ele>
        <time>2016-07-16T04:49:40Z</time>
      </trkpt>
      <trkpt lat="42.99616" lon="-7.58448">
        <ele>451.2</ele>
        <time>2016-07-16T04:49:48Z</time>
      </trkpt>
      <trkpt lat="42.99618" lon="-7.5846">
        <ele>450.4</ele>
        <time>2016-07-16T04:49:55Z</time>
      </trkpt>
      <trkpt lat="42.9962" lon="-7.58473">
        <ele>449.6</ele>
        <time>2016-07-16T04:50:02Z</time>
      </trkpt>
      <trkpt lat="42.99623" lon="-7.58486">
        <ele>449.1</ele>
        <time>2016-07-16T04:50:09Z</time>
      </trkpt>
      <trkpt lat="42.99625" lon="-7.58499">
        <ele>448.6</ele>
        <time>2016-07-16T04:50:16Z</time>
      </trkpt>
      <trkpt lat="42.99627" lon="-7.58512">
        <ele>448.1</ele>
        <time>2016-07-16T04:50:24Z</time>
      </trkpt>
      <trkpt lat="42.99629" lon="-7.58524">
        <ele>447.2</ele>
        <time>2016-07-16T04:50:32Z</time>
      </trkpt>
      <trkpt lat="42.99629" lon="-7.58537">
        <ele>446.5</ele>
        <time>2016-07-16T04:50:39Z</time>
      </trkpt>
      <trkpt lat="42.99629" lon="-7.58551">
        <ele>446.2</ele>
        <time>2016-07-16T04:50:47Z</time>
      </trkpt>
      <trkpt lat="42.9963" lon="-7.58564">
        <ele>445.7</ele>
        <time>2016-07-16T04:50:55Z</time>
      </trkpt>
      <trkpt lat="42.9963" lon="-7.58576">
        <ele>445.3</ele>
        <time>2016-07-16T04:51:03Z</time>
      </trkpt>
      <trkpt lat="42.99631" lon="-7.58589">
        <ele>445.3</ele>
        <time>2016-07-16T04:51:11Z</time>
      </trkpt>
      <trkpt lat="42.9963" lon="-7.58602">
        <ele>445.2</ele>
        <time>2016-07-16T04:51:19Z</time>
      </trkpt>
      <trkpt lat="42.9963" lon="-7.58616">
        <ele>444.9</ele>
        <time>2016-07-16T04:51:28Z</time>
      </trkpt>
      <trkpt lat="42.99629" lon="-7.58629">
        <ele>444.9</ele>
        <time>2016-07-16T04:51:36Z</time>
      </trkpt>
      <trkpt lat="42.9963" lon="-7.58641">
        <ele>445</ele>
        <time>2016-07-16T04:51:43Z</time>
      </trkpt>
      <trkpt lat="42.99632" lon="-7.58655">
        <ele>445.1</ele>
        <time>2016-07-16T04:51:51Z</time>
      </trkpt>
      <trkpt lat="42.99634" lon="-7.58668">
        <ele>445.4</ele>
        <time>2016-07-16T04:52:00Z</time>
      </trkpt>
      <trkpt lat="42.99633" lon="-7.5868">
        <ele>445.6</ele>
        <time>2016-07-16T04:52:08Z</time>
      </trkpt>
      <trkpt lat="42.99632" lon="-7.58693">
        <ele>445.7</ele>
        <time>2016-07-16T04:52:15Z</time>
      </trkpt>
      <trkpt lat="42.99633" lon="-7.58707">
        <ele>445.7</ele>
        <time>2016-07-16T04:52:23Z</time>
      </trkpt>
      <trkpt lat="42.99633" lon="-7.58719">
        <ele>445.2</ele>
        <time>2016-07-16T04:53:07Z</time>
      </trkpt>
      <trkpt lat="42.99625" lon="-7.58708">
        <ele>445</ele>
        <time>2016-07-16T04:53:20Z</time>
      </trkpt>
      <trkpt lat="42.99617" lon="-7.58716">
        <ele>445.2</ele>
        <time>2016-07-16T04:53:30Z</time>
      </trkpt>
      <trkpt lat="42.99614" lon="-7.5873">
        <ele>445.5</ele>
        <time>2016-07-16T04:53:35Z</time>
      </trkpt>
      <trkpt lat="42.99612" lon="-7.58744">
        <ele>445.9</ele>
        <time>2016-07-16T04:53:41Z</time>
      </trkpt>
      <trkpt lat="42.99609" lon="-7.58756">
        <ele>446.3</ele>
        <time>2016-07-16T04:53:47Z</time>
      </trkpt>
      <trkpt lat="42.99606" lon="-7.58768">
        <ele>446.7</ele>
        <time>2016-07-16T04:53:54Z</time>
      </trkpt>
      <trkpt lat="42.99601" lon="-7.5878">
        <ele>447.9</ele>
        <time>2016-07-16T04:54:02Z</time>
      </trkpt>
      <trkpt lat="42.99596" lon="-7.58792">
        <ele>448.8</ele>
        <time>2016-07-16T04:54:10Z</time>
      </trkpt>
      <trkpt lat="42.99592" lon="-7.58805">
        <ele>449.9</ele>
        <time>2016-07-16T04:54:19Z</time>
      </trkpt>
      <trkpt lat="42.9959" lon="-7.58817">
        <ele>450.8</ele>
        <time>2016-07-16T04:54:27Z</time>
      </trkpt>
      <trkpt lat="42.99588" lon="-7.58829">
        <ele>451.8</ele>
        <time>2016-07-16T04:54:35Z</time>
      </trkpt>
      <trkpt lat="42.99586" lon="-7.58842">
        <ele>452.8</ele>
        <time>2016-07-16T04:54:43Z</time>
      </trkpt>
      <trkpt lat="42.99584" lon="-7.58855">
        <ele>453.8</ele>
        <time>2016-07-16T04:54:52Z</time>
      </trkpt>
      <trkpt lat="42.99581" lon="-7.58867">
        <ele>454.8</ele>
        <time>2016-07-16T04:55:02Z</time>
      </trkpt>
      <trkpt lat="42.99574" lon="-7.58875">
        <ele>456.9</ele>
        <time>2016-07-16T04:55:54Z</time>
      </trkpt>
      <trkpt lat="42.9957" lon="-7.58886">
        <ele>456.8</ele>
        <time>2016-07-16T04:56:03Z</time>
      </trkpt>
      <trkpt lat="42.99564" lon="-7.58895">
        <ele>456.9</ele>
        <time>2016-07-16T04:56:12Z</time>
      </trkpt>
      <trkpt lat="42.99556" lon="-7.58902">
        <ele>457.6</ele>
        <time>2016-07-16T04:56:21Z</time>
      </trkpt>
      <trkpt lat="42.99548" lon="-7.5891">
        <ele>458.5</ele>
        <time>2016-07-16T04:56:31Z</time>
      </trkpt>
      <trkpt lat="42.9954" lon="-7.58918">
        <ele>460.1</ele>
        <time>2016-07-16T04:56:42Z</time>
      </trkpt>
      <trkpt lat="42.99533" lon="-7.58926">
        <ele>460.4</ele>
        <time>2016-07-16T04:56:52Z</time>
      </trkpt>
      <trkpt lat="42.99525" lon="-7.58934">
        <ele>462.1</ele>
        <time>2016-07-16T04:57:02Z</time>
      </trkpt>
      <trkpt lat="42.99518" lon="-7.58942">
        <ele>463.4</ele>
        <time>2016-07-16T04:57:12Z</time>
      </trkpt>
      <trkpt lat="42.9951" lon="-7.58949">
        <ele>464.3</ele>
        <time>2016-07-16T04:57:22Z</time>
      </trkpt>
      <trkpt lat="42.99502" lon="-7.58955">
        <ele>465.1</ele>
        <time>2016-07-16T04:57:31Z</time>
      </trkpt>
      <trkpt lat="42.99494" lon="-7.58962">
        <ele>465.4</ele>
        <time>2016-07-16T04:57:40Z</time>
      </trkpt>
      <trkpt lat="42.99485" lon="-7.58969">
        <ele>466.2</ele>
        <time>2016-07-16T04:57:49Z</time>
      </trkpt>
      <trkpt lat="42.99477" lon="-7.58975">
        <ele>466.9</ele>
        <time>2016-07-16T04:57:58Z</time>
      </trkpt>
      <trkpt lat="42.99468" lon="-7.5898">
        <ele>467.7</ele>
        <time>2016-07-16T04:58:06Z</time>
      </trkpt>
      <trkpt lat="42.9946" lon="-7.58986">
        <ele>468.3</ele>
        <time>2016-07-16T04:58:14Z</time>
      </trkpt>
      <trkpt lat="42.99451" lon="-7.58992">
        <ele>468.8</ele>
        <time>2016-07-16T04:58:23Z</time>
      </trkpt>
      <trkpt lat="42.99443" lon="-7.59">
        <ele>469.2</ele>
        <time>2016-07-16T04:58:31Z</time>
      </trkpt>
      <trkpt lat="42.99436" lon="-7.59006">
        <ele>469.7</ele>
        <time>2016-07-16T04:58:40Z</time>
      </trkpt>
      <trkpt lat="42.99427" lon="-7.59013">
        <ele>470.1</ele>
        <time>2016-07-16T04:58:49Z</time>
      </trkpt>
      <trkpt lat="42.99418" lon="-7.5902">
        <ele>470.6</ele>
        <time>2016-07-16T04:58:59Z</time>
      </trkpt>
      <trkpt lat="42.9941" lon="-7.59026">
        <ele>471</ele>
        <time>2016-07-16T04:59:07Z</time>
      </trkpt>
      <trkpt lat="42.99402" lon="-7.59033">
        <ele>471</ele>
        <time>2016-07-16T04:59:15Z</time>
      </trkpt>
      <trkpt lat="42.99393" lon="-7.59039">
        <ele>471.7</ele>
        <time>2016-07-16T04:59:23Z</time>
      </trkpt>
      <trkpt lat="42.99385" lon="-7.59044">
        <ele>472.3</ele>
        <time>2016-07-16T04:59:31Z</time>
      </trkpt>
      <trkpt lat="42.99377" lon="-7.59051">
        <ele>472.7</ele>
        <time>2016-07-16T04:59:39Z</time>
      </trkpt>
      <trkpt lat="42.99369" lon="-7.59059">
        <ele>472.5</ele>
        <time>2016-07-16T04:59:47Z</time>
      </trkpt>
      <trkpt lat="42.99361" lon="-7.59067">
        <ele>472.4</ele>
        <time>2016-07-16T04:59:55Z</time>
      </trkpt>
      <trkpt lat="42.99355" lon="-7.59077">
        <ele>472.3</ele>
        <time>2016-07-16T05:00:03Z</time>
      </trkpt>
      <trkpt lat="42.9935" lon="-7.59089">
        <ele>472.1</ele>
        <time>2016-07-16T05:00:12Z</time>
      </trkpt>
      <trkpt lat="42.99345" lon="-7.59101">
        <ele>471.9</ele>
        <time>2016-07-16T05:00:20Z</time>
      </trkpt>
      <trkpt lat="42.9934" lon="-7.59112">
        <ele>471.8</ele>
        <time>2016-07-16T05:00:29Z</time>
      </trkpt>
      <trkpt lat="42.99335" lon="-7.59124">
        <ele>471.9</ele>
        <time>2016-07-16T05:00:38Z</time>
      </trkpt>
      <trkpt lat="42.99331" lon="-7.59135">
        <ele>472</ele>
        <time>2016-07-16T05:00:46Z</time>
      </trkpt>
      <trkpt lat="42.99327" lon="-7.59148">
        <ele>472.4</ele>
        <time>2016-07-16T05:00:55Z</time>
      </trkpt>
      <trkpt lat="42.99323" lon="-7.5916">
        <ele>472.4</ele>
        <time>2016-07-16T05:01:04Z</time>
      </trkpt>
      <trkpt lat="42.9932" lon="-7.59172">
        <ele>472.4</ele>
        <time>2016-07-16T05:01:13Z</time>
      </trkpt>
      <trkpt lat="42.99316" lon="-7.59184">
        <ele>472.8</ele>
        <time>2016-07-16T05:01:21Z</time>
      </trkpt>
      <trkpt lat="42.99312" lon="-7.59197">
        <ele>473.1</ele>
        <time>2016-07-16T05:01:30Z</time>
      </trkpt>
      <trkpt lat="42.99309" lon="-7.59209">
        <ele>473.2</ele>
        <time>2016-07-16T05:01:38Z</time>
      </trkpt>
      <trkpt lat="42.99305" lon="-7.5922">
        <ele>473.3</ele>
        <time>2016-07-16T05:01:46Z</time>
      </trkpt>
      <trkpt lat="42.99301" lon="-7.59233">
        <ele>473.6</ele>
        <time>2016-07-16T05:01:55Z</time>
      </trkpt>
      <trkpt lat="42.99296" lon="-7.59245">
        <ele>474.1</ele>
        <time>2016-07-16T05:02:04Z</time>
      </trkpt>
      <trkpt lat="42.99291" lon="-7.59257">
        <ele>474.5</ele>
        <time>2016-07-16T05:02:13Z</time>
      </trkpt>
      <trkpt lat="42.99288" lon="-7.59268">
        <ele>474.9</ele>
        <time>2016-07-16T05:02:21Z</time>
      </trkpt>
      <trkpt lat="42.99284" lon="-7.5928">
        <ele>475.2</ele>
        <time>2016-07-16T05:02:29Z</time>
      </trkpt>
      <trkpt lat="42.99281" lon="-7.59292">
        <ele>475.7</ele>
        <time>2016-07-16T05:02:38Z</time>
      </trkpt>
      <trkpt lat="42.99277" lon="-7.59303">
        <ele>476.9</ele>
        <time>2016-07-16T05:02:48Z</time>
      </trkpt>
      <trkpt lat="42.99273" lon="-7.59315">
        <ele>477.4</ele>
        <time>2016-07-16T05:02:57Z</time>
      </trkpt>
      <trkpt lat="42.99268" lon="-7.59327">
        <ele>477.7</ele>
        <time>2016-07-16T05:03:07Z</time>
      </trkpt>
      <trkpt lat="42.99264" lon="-7.59339">
        <ele>478</ele>
        <time>2016-07-16T05:03:16Z</time>
      </trkpt>
      <trkpt lat="42.9926" lon="-7.59351">
        <ele>478.9</ele>
        <time>2016-07-16T05:03:25Z</time>
      </trkpt>
      <trkpt lat="42.99255" lon="-7.59363">
        <ele>479.4</ele>
        <time>2016-07-16T05:03:34Z</time>
      </trkpt>
      <trkpt lat="42.99251" lon="-7.59374">
        <ele>479.7</ele>
        <time>2016-07-16T05:03:42Z</time>
      </trkpt>
      <trkpt lat="42.99247" lon="-7.59385">
        <ele>480</ele>
        <time>2016-07-16T05:03:50Z</time>
      </trkpt>
      <trkpt lat="42.99243" lon="-7.59397">
        <ele>480.2</ele>
        <time>2016-07-16T05:03:58Z</time>
      </trkpt>
      <trkpt lat="42.99239" lon="-7.59408">
        <ele>480.7</ele>
        <time>2016-07-16T05:04:06Z</time>
      </trkpt>
      <trkpt lat="42.99234" lon="-7.59419">
        <ele>481.2</ele>
        <time>2016-07-16T05:04:14Z</time>
      </trkpt>
      <trkpt lat="42.9923" lon="-7.5943">
        <ele>481.2</ele>
        <time>2016-07-16T05:04:23Z</time>
      </trkpt>
      <trkpt lat="42.99226" lon="-7.59442">
        <ele>481.4</ele>
        <time>2016-07-16T05:04:31Z</time>
      </trkpt>
      <trkpt lat="42.99222" lon="-7.59454">
        <ele>481.8</ele>
        <time>2016-07-16T05:04:39Z</time>
      </trkpt>
      <trkpt lat="42.99218" lon="-7.59465">
        <ele>482.2</ele>
        <time>2016-07-16T05:04:47Z</time>
      </trkpt>
      <trkpt lat="42.99215" lon="-7.59478">
        <ele>482.6</ele>
        <time>2016-07-16T05:04:55Z</time>
      </trkpt>
      <trkpt lat="42.99212" lon="-7.59491">
        <ele>482.9</ele>
        <time>2016-07-16T05:05:04Z</time>
      </trkpt>
      <trkpt lat="42.9921" lon="-7.59504">
        <ele>483.7</ele>
        <time>2016-07-16T05:05:13Z</time>
      </trkpt>
      <trkpt lat="42.99207" lon="-7.59517">
        <ele>484.5</ele>
        <time>2016-07-16T05:05:22Z</time>
      </trkpt>
      <trkpt lat="42.99203" lon="-7.59529">
        <ele>485</ele>
        <time>2016-07-16T05:05:30Z</time>
      </trkpt>
      <trkpt lat="42.99201" lon="-7.59542">
        <ele>485.5</ele>
        <time>2016-07-16T05:05:39Z</time>
      </trkpt>
      <trkpt lat="42.992" lon="-7.59554">
        <ele>485.5</ele>
        <time>2016-07-16T05:05:48Z</time>
      </trkpt>
      <trkpt lat="42.99197" lon="-7.59566">
        <ele>485.7</ele>
        <time>2016-07-16T05:05:56Z</time>
      </trkpt>
      <trkpt lat="42.99192" lon="-7.59577">
        <ele>486.1</ele>
        <time>2016-07-16T05:06:04Z</time>
      </trkpt>
      <trkpt lat="42.9919" lon="-7.5959">
        <ele>486.6</ele>
        <time>2016-07-16T05:06:12Z</time>
      </trkpt>
      <trkpt lat="42.99187" lon="-7.59602">
        <ele>486.8</ele>
        <time>2016-07-16T05:06:20Z</time>
      </trkpt>
      <trkpt lat="42.99185" lon="-7.59614">
        <ele>487.6</ele>
        <time>2016-07-16T05:06:28Z</time>
      </trkpt>
      <trkpt lat="42.99182" lon="-7.59628">
        <ele>487.8</ele>
        <time>2016-07-16T05:06:37Z</time>
      </trkpt>
      <trkpt lat="42.99181" lon="-7.5964">
        <ele>488.2</ele>
        <time>2016-07-16T05:06:46Z</time>
      </trkpt>
      <trkpt lat="42.9918" lon="-7.59653">
        <ele>488.5</ele>
        <time>2016-07-16T05:06:55Z</time>
      </trkpt>
      <trkpt lat="42.99181" lon="-7.59666">
        <ele>488.7</ele>
        <time>2016-07-16T05:07:03Z</time>
      </trkpt>
      <trkpt lat="42.99183" lon="-7.5968">
        <ele>488.9</ele>
        <time>2016-07-16T05:07:11Z</time>
      </trkpt>
      <trkpt lat="42.99185" lon="-7.59693">
        <ele>488.9</ele>
        <time>2016-07-16T05:07:19Z</time>
      </trkpt>
      <trkpt lat="42.99187" lon="-7.59706">
        <ele>489</ele>
        <time>2016-07-16T05:07:27Z</time>
      </trkpt>
      <trkpt lat="42.99188" lon="-7.59719">
        <ele>489.2</ele>
        <time>2016-07-16T05:07:35Z</time>
      </trkpt>
      <trkpt lat="42.99188" lon="-7.59732">
        <ele>489.6</ele>
        <time>2016-07-16T05:07:43Z</time>
      </trkpt>
      <trkpt lat="42.99187" lon="-7.59744">
        <ele>489.8</ele>
        <time>2016-07-16T05:07:51Z</time>
      </trkpt>
      <trkpt lat="42.99184" lon="-7.59757">
        <ele>490.1</ele>
        <time>2016-07-16T05:07:59Z</time>
      </trkpt>
      <trkpt lat="42.99179" lon="-7.59767">
        <ele>490</ele>
        <time>2016-07-16T05:08:06Z</time>
      </trkpt>
      <trkpt lat="42.99174" lon="-7.59778">
        <ele>490.1</ele>
        <time>2016-07-16T05:08:14Z</time>
      </trkpt>
      <trkpt lat="42.99171" lon="-7.59791">
        <ele>490.1</ele>
        <time>2016-07-16T05:08:22Z</time>
      </trkpt>
      <trkpt lat="42.99171" lon="-7.59805">
        <ele>490.1</ele>
        <time>2016-07-16T05:08:31Z</time>
      </trkpt>
      <trkpt lat="42.99167" lon="-7.59817">
        <ele>490.2</ele>
        <time>2016-07-16T05:08:40Z</time>
      </trkpt>
      <trkpt lat="42.99163" lon="-7.59828">
        <ele>490.6</ele>
        <time>2016-07-16T05:08:48Z</time>
      </trkpt>
      <trkpt lat="42.99159" lon="-7.59841">
        <ele>490.8</ele>
        <time>2016-07-16T05:08:56Z</time>
      </trkpt>
      <trkpt lat="42.99155" lon="-7.59852">
        <ele>490.8</ele>
        <time>2016-07-16T05:09:04Z</time>
      </trkpt>
      <trkpt lat="42.9915" lon="-7.59863">
        <ele>490.7</ele>
        <time>2016-07-16T05:09:12Z</time>
      </trkpt>
      <trkpt lat="42.99146" lon="-7.59875">
        <ele>490.8</ele>
        <time>2016-07-16T05:09:20Z</time>
      </trkpt>
      <trkpt lat="42.99141" lon="-7.59887">
        <ele>490.6</ele>
        <time>2016-07-16T05:09:28Z</time>
      </trkpt>
      <trkpt lat="42.99137" lon="-7.59899">
        <ele>490.5</ele>
        <time>2016-07-16T05:09:37Z</time>
      </trkpt>
      <trkpt lat="42.99133" lon="-7.5991">
        <ele>490.5</ele>
        <time>2016-07-16T05:09:46Z</time>
      </trkpt>
      <trkpt lat="42.99129" lon="-7.59921">
        <ele>490.6</ele>
        <time>2016-07-16T05:09:55Z</time>
      </trkpt>
      <trkpt lat="42.99124" lon="-7.59932">
        <ele>490.7</ele>
        <time>2016-07-16T05:10:03Z</time>
      </trkpt>
      <trkpt lat="42.9912" lon="-7.59945">
        <ele>490.7</ele>
        <time>2016-07-16T05:10:12Z</time>
      </trkpt>
      <trkpt lat="42.99116" lon="-7.59956">
        <ele>491</ele>
        <time>2016-07-16T05:10:20Z</time>
      </trkpt>
      <trkpt lat="42.99112" lon="-7.59967">
        <ele>490.8</ele>
        <time>2016-07-16T05:10:28Z</time>
      </trkpt>
      <trkpt lat="42.99109" lon="-7.59979">
        <ele>490.8</ele>
        <time>2016-07-16T05:10:36Z</time>
      </trkpt>
      <trkpt lat="42.99105" lon="-7.59992">
        <ele>490.9</ele>
        <time>2016-07-16T05:10:44Z</time>
      </trkpt>
      <trkpt lat="42.99101" lon="-7.60005">
        <ele>491</ele>
        <time>2016-07-16T05:10:52Z</time>
      </trkpt>
      <trkpt lat="42.99099" lon="-7.60017">
        <ele>490.9</ele>
        <time>2016-07-16T05:10:59Z</time>
      </trkpt>
      <trkpt lat="42.99097" lon="-7.6003">
        <ele>491.1</ele>
        <time>2016-07-16T05:11:07Z</time>
      </trkpt>
      <trkpt lat="42.99095" lon="-7.60043">
        <ele>491.4</ele>
        <time>2016-07-16T05:11:15Z</time>
      </trkpt>
      <trkpt lat="42.99094" lon="-7.60055">
        <ele>491.8</ele>
        <time>2016-07-16T05:11:24Z</time>
      </trkpt>
      <trkpt lat="42.99092" lon="-7.60068">
        <ele>492.4</ele>
        <time>2016-07-16T05:11:33Z</time>
      </trkpt>
      <trkpt lat="42.99091" lon="-7.60081">
        <ele>492.8</ele>
        <time>2016-07-16T05:11:42Z</time>
      </trkpt>
      <trkpt lat="42.9909" lon="-7.60095">
        <ele>493.2</ele>
        <time>2016-07-16T05:11:51Z</time>
      </trkpt>
      <trkpt lat="42.99088" lon="-7.60108">
        <ele>493.9</ele>
        <time>2016-07-16T05:12:00Z</time>
      </trkpt>
      <trkpt lat="42.99087" lon="-7.60121">
        <ele>494.3</ele>
        <time>2016-07-16T05:12:09Z</time>
      </trkpt>
      <trkpt lat="42.99085" lon="-7.60133">
        <ele>494.8</ele>
        <time>2016-07-16T05:12:18Z</time>
      </trkpt>
      <trkpt lat="42.99084" lon="-7.60146">
        <ele>495.3</ele>
        <time>2016-07-16T05:12:27Z</time>
      </trkpt>
      <trkpt lat="42.99083" lon="-7.6016">
        <ele>495.8</ele>
        <time>2016-07-16T05:12:36Z</time>
      </trkpt>
      <trkpt lat="42.99084" lon="-7.60173">
        <ele>496.1</ele>
        <time>2016-07-16T05:12:44Z</time>
      </trkpt>
      <trkpt lat="42.99085" lon="-7.60185">
        <ele>496.4</ele>
        <time>2016-07-16T05:12:52Z</time>
      </trkpt>
      <trkpt lat="42.99086" lon="-7.60198">
        <ele>497.3</ele>
        <time>2016-07-16T05:13:01Z</time>
      </trkpt>
      <trkpt lat="42.99089" lon="-7.6021">
        <ele>497.8</ele>
        <time>2016-07-16T05:13:09Z</time>
      </trkpt>
      <trkpt lat="42.99091" lon="-7.60222">
        <ele>498.2</ele>
        <time>2016-07-16T05:13:18Z</time>
      </trkpt>
      <trkpt lat="42.99093" lon="-7.60234">
        <ele>498.5</ele>
        <time>2016-07-16T05:13:27Z</time>
      </trkpt>
      <trkpt lat="42.99096" lon="-7.60247">
        <ele>498.6</ele>
        <time>2016-07-16T05:13:36Z</time>
      </trkpt>
      <trkpt lat="42.99098" lon="-7.6026">
        <ele>498.8</ele>
        <time>2016-07-16T05:13:45Z</time>
      </trkpt>
      <trkpt lat="42.99099" lon="-7.60274">
        <ele>499</ele>
        <time>2016-07-16T05:13:54Z</time>
      </trkpt>
      <trkpt lat="42.991" lon="-7.60287">
        <ele>499.1</ele>
        <time>2016-07-16T05:14:02Z</time>
      </trkpt>
      <trkpt lat="42.991" lon="-7.603">
        <ele>499.2</ele>
        <time>2016-07-16T05:14:10Z</time>
      </trkpt>
      <trkpt lat="42.99101" lon="-7.60313">
        <ele>499.4</ele>
        <time>2016-07-16T05:14:18Z</time>
      </trkpt>
      <trkpt lat="42.99101" lon="-7.60326">
        <ele>499.7</ele>
        <time>2016-07-16T05:14:26Z</time>
      </trkpt>
      <trkpt lat="42.99102" lon="-7.60339">
        <ele>499.8</ele>
        <time>2016-07-16T05:14:34Z</time>
      </trkpt>
      <trkpt lat="42.99102" lon="-7.60351">
        <ele>500</ele>
        <time>2016-07-16T05:14:42Z</time>
      </trkpt>
      <trkpt lat="42.99103" lon="-7.60364">
        <ele>500.3</ele>
        <time>2016-07-16T05:14:50Z</time>
      </trkpt>
      <trkpt lat="42.99103" lon="-7.60378">
        <ele>500.4</ele>
        <time>2016-07-16T05:14:59Z</time>
      </trkpt>
      <trkpt lat="42.99103" lon="-7.60391">
        <ele>500.6</ele>
        <time>2016-07-16T05:15:08Z</time>
      </trkpt>
      <trkpt lat="42.99102" lon="-7.60404">
        <ele>500.9</ele>
        <time>2016-07-16T05:15:17Z</time>
      </trkpt>
      <trkpt lat="42.99102" lon="-7.60418">
        <ele>500.9</ele>
        <time>2016-07-16T05:15:26Z</time>
      </trkpt>
      <trkpt lat="42.99101" lon="-7.60431">
        <ele>500.7</ele>
        <time>2016-07-16T05:15:35Z</time>
      </trkpt>
      <trkpt lat="42.99099" lon="-7.60444">
        <ele>501.2</ele>
        <time>2016-07-16T05:15:43Z</time>
      </trkpt>
      <trkpt lat="42.99096" lon="-7.60456">
        <ele>501.5</ele>
        <time>2016-07-16T05:15:51Z</time>
      </trkpt>
      <trkpt lat="42.99093" lon="-7.60468">
        <ele>501.9</ele>
        <time>2016-07-16T05:15:59Z</time>
      </trkpt>
      <trkpt lat="42.99089" lon="-7.6048">
        <ele>502</ele>
        <time>2016-07-16T05:16:07Z</time>
      </trkpt>
      <trkpt lat="42.99086" lon="-7.60493">
        <ele>502.2</ele>
        <time>2016-07-16T05:16:16Z</time>
      </trkpt>
      <trkpt lat="42.99082" lon="-7.60505">
        <ele>502.4</ele>
        <time>2016-07-16T05:16:24Z</time>
      </trkpt>
      <trkpt lat="42.99078" lon="-7.60516">
        <ele>502.8</ele>
        <time>2016-07-16T05:16:32Z</time>
      </trkpt>
      <trkpt lat="42.99073" lon="-7.60528">
        <ele>503.1</ele>
        <time>2016-07-16T05:16:40Z</time>
      </trkpt>
      <trkpt lat="42.99069" lon="-7.6054">
        <ele>503.2</ele>
        <time>2016-07-16T05:16:49Z</time>
      </trkpt>
      <trkpt lat="42.99066" lon="-7.60553">
        <ele>503.6</ele>
        <time>2016-07-16T05:16:58Z</time>
      </trkpt>
      <trkpt lat="42.99062" lon="-7.60564">
        <ele>503.7</ele>
        <time>2016-07-16T05:17:06Z</time>
      </trkpt>
      <trkpt lat="42.99057" lon="-7.60576">
        <ele>503.9</ele>
        <time>2016-07-16T05:17:15Z</time>
      </trkpt>
      <trkpt lat="42.99053" lon="-7.60588">
        <ele>504.1</ele>
        <time>2016-07-16T05:17:23Z</time>
      </trkpt>
      <trkpt lat="42.99049" lon="-7.60599">
        <ele>504.2</ele>
        <time>2016-07-16T05:17:31Z</time>
      </trkpt>
      <trkpt lat="42.99045" lon="-7.60611">
        <ele>504.2</ele>
        <time>2016-07-16T05:17:39Z</time>
      </trkpt>
      <trkpt lat="42.99042" lon="-7.60623">
        <ele>504.4</ele>
        <time>2016-07-16T05:17:47Z</time>
      </trkpt>
      <trkpt lat="42.99038" lon="-7.60635">
        <ele>504.5</ele>
        <time>2016-07-16T05:17:55Z</time>
      </trkpt>
      <trkpt lat="42.99034" lon="-7.60647">
        <ele>504.6</ele>
        <time>2016-07-16T05:18:03Z</time>
      </trkpt>
      <trkpt lat="42.9903" lon="-7.60659">
        <ele>504.6</ele>
        <time>2016-07-16T05:18:11Z</time>
      </trkpt>
      <trkpt lat="42.99026" lon="-7.60672">
        <ele>504.8</ele>
        <time>2016-07-16T05:18:20Z</time>
      </trkpt>
      <trkpt lat="42.99023" lon="-7.60684">
        <ele>504.9</ele>
        <time>2016-07-16T05:18:28Z</time>
      </trkpt>
      <trkpt lat="42.99019" lon="-7.60696">
        <ele>505</ele>
        <time>2016-07-16T05:18:36Z</time>
      </trkpt>
      <trkpt lat="42.99016" lon="-7.60707">
        <ele>504.9</ele>
        <time>2016-07-16T05:18:44Z</time>
      </trkpt>
      <trkpt lat="42.99012" lon="-7.60719">
        <ele>505.3</ele>
        <time>2016-07-16T05:18:52Z</time>
      </trkpt>
      <trkpt lat="42.99009" lon="-7.60731">
        <ele>505.3</ele>
        <time>2016-07-16T05:19:00Z</time>
      </trkpt>
      <trkpt lat="42.99005" lon="-7.60742">
        <ele>505.4</ele>
        <time>2016-07-16T05:19:08Z</time>
      </trkpt>
      <trkpt lat="42.99001" lon="-7.60755">
        <ele>505.7</ele>
        <time>2016-07-16T05:19:17Z</time>
      </trkpt>
      <trkpt lat="42.98997" lon="-7.60767">
        <ele>506</ele>
        <time>2016-07-16T05:19:26Z</time>
      </trkpt>
      <trkpt lat="42.98994" lon="-7.60779">
        <ele>505.9</ele>
        <time>2016-07-16T05:19:34Z</time>
      </trkpt>
      <trkpt lat="42.9899" lon="-7.60791">
        <ele>505.8</ele>
        <time>2016-07-16T05:19:43Z</time>
      </trkpt>
      <trkpt lat="42.98986" lon="-7.60803">
        <ele>505.9</ele>
        <time>2016-07-16T05:19:52Z</time>
      </trkpt>
      <trkpt lat="42.98983" lon="-7.60816">
        <ele>506.2</ele>
        <time>2016-07-16T05:20:01Z</time>
      </trkpt>
      <trkpt lat="42.98979" lon="-7.60828">
        <ele>506.5</ele>
        <time>2016-07-16T05:20:10Z</time>
      </trkpt>
      <trkpt lat="42.98975" lon="-7.6084">
        <ele>506.8</ele>
        <time>2016-07-16T05:20:19Z</time>
      </trkpt>
      <trkpt lat="42.98971" lon="-7.60852">
        <ele>507.1</ele>
        <time>2016-07-16T05:20:28Z</time>
      </trkpt>
      <trkpt lat="42.98968" lon="-7.60864">
        <ele>507.3</ele>
        <time>2016-07-16T05:20:36Z</time>
      </trkpt>
      <trkpt lat="42.98964" lon="-7.60876">
        <ele>507.4</ele>
        <time>2016-07-16T05:20:44Z</time>
      </trkpt>
      <trkpt lat="42.98961" lon="-7.60887">
        <ele>507.4</ele>
        <time>2016-07-16T05:20:52Z</time>
      </trkpt>
      <trkpt lat="42.98957" lon="-7.60899">
        <ele>507.7</ele>
        <time>2016-07-16T05:21:00Z</time>
      </trkpt>
      <trkpt lat="42.98954" lon="-7.60911">
        <ele>507.8</ele>
        <time>2016-07-16T05:21:08Z</time>
      </trkpt>
      <trkpt lat="42.9895" lon="-7.60923">
        <ele>507.8</ele>
        <time>2016-07-16T05:21:16Z</time>
      </trkpt>
      <trkpt lat="42.98946" lon="-7.60934">
        <ele>508.2</ele>
        <time>2016-07-16T05:21:24Z</time>
      </trkpt>
      <trkpt lat="42.98942" lon="-7.60945">
        <ele>508.5</ele>
        <time>2016-07-16T05:21:32Z</time>
      </trkpt>
      <trkpt lat="42.98938" lon="-7.60956">
        <ele>508.6</ele>
        <time>2016-07-16T05:21:40Z</time>
      </trkpt>
      <trkpt lat="42.98931" lon="-7.60966">
        <ele>508.8</ele>
        <time>2016-07-16T05:21:48Z</time>
      </trkpt>
      <trkpt lat="42.98925" lon="-7.60977">
        <ele>508.9</ele>
        <time>2016-07-16T05:21:57Z</time>
      </trkpt>
      <trkpt lat="42.98919" lon="-7.60987">
        <ele>509.4</ele>
        <time>2016-07-16T05:22:05Z</time>
      </trkpt>
      <trkpt lat="42.98913" lon="-7.60996">
        <ele>509.3</ele>
        <time>2016-07-16T05:22:13Z</time>
      </trkpt>
      <trkpt lat="42.98906" lon="-7.61007">
        <ele>509.2</ele>
        <time>2016-07-16T05:22:22Z</time>
      </trkpt>
      <trkpt lat="42.989" lon="-7.61017">
        <ele>509.2</ele>
        <time>2016-07-16T05:22:31Z</time>
      </trkpt>
      <trkpt lat="42.98894" lon="-7.61028">
        <ele>509.5</ele>
        <time>2016-07-16T05:22:40Z</time>
      </trkpt>
      <trkpt lat="42.98888" lon="-7.61038">
        <ele>509.5</ele>
        <time>2016-07-16T05:22:48Z</time>
      </trkpt>
      <trkpt lat="42.98882" lon="-7.61048">
        <ele>509.5</ele>
        <time>2016-07-16T05:22:56Z</time>
      </trkpt>
      <trkpt lat="42.98876" lon="-7.61058">
        <ele>509.9</ele>
        <time>2016-07-16T05:23:04Z</time>
      </trkpt>
      <trkpt lat="42.9887" lon="-7.61068">
        <ele>509.9</ele>
        <time>2016-07-16T05:23:12Z</time>
      </trkpt>
      <trkpt lat="42.98864" lon="-7.61078">
        <ele>509.9</ele>
        <time>2016-07-16T05:23:20Z</time>
      </trkpt>
      <trkpt lat="42.98858" lon="-7.61088">
        <ele>510</ele>
        <time>2016-07-16T05:23:28Z</time>
      </trkpt>
      <trkpt lat="42.98852" lon="-7.61097">
        <ele>510</ele>
        <time>2016-07-16T05:23:36Z</time>
      </trkpt>
      <trkpt lat="42.98845" lon="-7.61107">
        <ele>510</ele>
        <time>2016-07-16T05:23:44Z</time>
      </trkpt>
      <trkpt lat="42.9884" lon="-7.61118">
        <ele>510</ele>
        <time>2016-07-16T05:23:53Z</time>
      </trkpt>
      <trkpt lat="42.98833" lon="-7.61128">
        <ele>510.1</ele>
        <time>2016-07-16T05:24:02Z</time>
      </trkpt>
      <trkpt lat="42.98827" lon="-7.61139">
        <ele>510.2</ele>
        <time>2016-07-16T05:24:11Z</time>
      </trkpt>
      <trkpt lat="42.98821" lon="-7.61148">
        <ele>510.4</ele>
        <time>2016-07-16T05:24:19Z</time>
      </trkpt>
      <trkpt lat="42.98814" lon="-7.61157">
        <ele>510.9</ele>
        <time>2016-07-16T05:24:27Z</time>
      </trkpt>
      <trkpt lat="42.98807" lon="-7.61166">
        <ele>511.2</ele>
        <time>2016-07-16T05:24:35Z</time>
      </trkpt>
      <trkpt lat="42.988" lon="-7.61175">
        <ele>511.3</ele>
        <time>2016-07-16T05:24:44Z</time>
      </trkpt>
      <trkpt lat="42.98792" lon="-7.61183">
        <ele>511.4</ele>
        <time>2016-07-16T05:24:52Z</time>
      </trkpt>
      <trkpt lat="42.98784" lon="-7.61189">
        <ele>511.4</ele>
        <time>2016-07-16T05:25:01Z</time>
      </trkpt>
      <trkpt lat="42.98775" lon="-7.61195">
        <ele>511.5</ele>
        <time>2016-07-16T05:25:09Z</time>
      </trkpt>
      <trkpt lat="42.98766" lon="-7.612">
        <ele>511.6</ele>
        <time>2016-07-16T05:25:17Z</time>
      </trkpt>
      <trkpt lat="42.98757" lon="-7.61205">
        <ele>511.6</ele>
        <time>2016-07-16T05:25:25Z</time>
      </trkpt>
      <trkpt lat="42.98748" lon="-7.6121">
        <ele>511.9</ele>
        <time>2016-07-16T05:25:33Z</time>
      </trkpt>
      <trkpt lat="42.9874" lon="-7.61215">
        <ele>512.1</ele>
        <time>2016-07-16T05:25:41Z</time>
      </trkpt>
      <trkpt lat="42.98731" lon="-7.61219">
        <ele>512.4</ele>
        <time>2016-07-16T05:25:49Z</time>
      </trkpt>
      <trkpt lat="42.98722" lon="-7.61224">
        <ele>512.4</ele>
        <time>2016-07-16T05:25:58Z</time>
      </trkpt>
      <trkpt lat="42.98713" lon="-7.61229">
        <ele>512.3</ele>
        <time>2016-07-16T05:26:06Z</time>
      </trkpt>
      <trkpt lat="42.98704" lon="-7.61232">
        <ele>512.3</ele>
        <time>2016-07-16T05:26:14Z</time>
      </trkpt>
      <trkpt lat="42.98695" lon="-7.61236">
        <ele>512.6</ele>
        <time>2016-07-16T05:26:23Z</time>
      </trkpt>
      <trkpt lat="42.98685" lon="-7.61238">
        <ele>513.3</ele>
        <time>2016-07-16T05:26:32Z</time>
      </trkpt>
      <trkpt lat="42.98675" lon="-7.6124">
        <ele>513.6</ele>
        <time>2016-07-16T05:26:41Z</time>
      </trkpt>
      <trkpt lat="42.98665" lon="-7.61242">
        <ele>514.1</ele>
        <time>2016-07-16T05:26:50Z</time>
      </trkpt>
      <trkpt lat="42.98656" lon="-7.61245">
        <ele>514.4</ele>
        <time>2016-07-16T05:26:59Z</time>
      </trkpt>
      <trkpt lat="42.98646" lon="-7.61246">
        <ele>514.3</ele>
        <time>2016-07-16T05:27:07Z</time>
      </trkpt>
      <trkpt lat="42.98637" lon="-7.61247">
        <ele>514.2</ele>
        <time>2016-07-16T05:27:15Z</time>
      </trkpt>
      <trkpt lat="42.98628" lon="-7.61249">
        <ele>514.3</ele>
        <time>2016-07-16T05:27:23Z</time>
      </trkpt>
      <trkpt lat="42.98618" lon="-7.61252">
        <ele>514.6</ele>
        <time>2016-07-16T05:27:31Z</time>
      </trkpt>
      <trkpt lat="42.98609" lon="-7.61255">
        <ele>514.9</ele>
        <time>2016-07-16T05:27:40Z</time>
      </trkpt>
      <trkpt lat="42.98599" lon="-7.61257">
        <ele>514.9</ele>
        <time>2016-07-16T05:27:48Z</time>
      </trkpt>
      <trkpt lat="42.9859" lon="-7.6126">
        <ele>514.9</ele>
        <time>2016-07-16T05:27:55Z</time>
      </trkpt>
      <trkpt lat="42.98581" lon="-7.61263">
        <ele>515.1</ele>
        <time>2016-07-16T05:28:03Z</time>
      </trkpt>
      <trkpt lat="42.98571" lon="-7.61267">
        <ele>515.2</ele>
        <time>2016-07-16T05:28:11Z</time>
      </trkpt>
      <trkpt lat="42.98562" lon="-7.6127">
        <ele>515</ele>
        <time>2016-07-16T05:28:19Z</time>
      </trkpt>
      <trkpt lat="42.98553" lon="-7.61273">
        <ele>515.2</ele>
        <time>2016-07-16T05:28:27Z</time>
      </trkpt>
      <trkpt lat="42.98544" lon="-7.61277">
        <ele>515.4</ele>
        <time>2016-07-16T05:28:36Z</time>
      </trkpt>
      <trkpt lat="42.98535" lon="-7.61283">
        <ele>515.6</ele>
        <time>2016-07-16T05:28:44Z</time>
      </trkpt>
      <trkpt lat="42.98527" lon="-7.61288">
        <ele>516.1</ele>
        <time>2016-07-16T05:28:52Z</time>
      </trkpt>
      <trkpt lat="42.98518" lon="-7.61294">
        <ele>516.3</ele>
        <time>2016-07-16T05:29:00Z</time>
      </trkpt>
      <trkpt lat="42.9851" lon="-7.61302">
        <ele>516.3</ele>
        <time>2016-07-16T05:29:09Z</time>
      </trkpt>
      <trkpt lat="42.98503" lon="-7.6131">
        <ele>516</ele>
        <time>2016-07-16T05:29:17Z</time>
      </trkpt>
      <trkpt lat="42.98496" lon="-7.61317">
        <ele>515.9</ele>
        <time>2016-07-16T05:29:25Z</time>
      </trkpt>
      <trkpt lat="42.98488" lon="-7.61326">
        <ele>515.7</ele>
        <time>2016-07-16T05:29:33Z</time>
      </trkpt>
      <trkpt lat="42.98481" lon="-7.61336">
        <ele>515.7</ele>
        <time>2016-07-16T05:29:42Z</time>
      </trkpt>
      <trkpt lat="42.98476" lon="-7.61346">
        <ele>515.7</ele>
        <time>2016-07-16T05:29:50Z</time>
      </trkpt>
      <trkpt lat="42.98471" lon="-7.61356">
        <ele>515.6</ele>
        <time>2016-07-16T05:29:58Z</time>
      </trkpt>
      <trkpt lat="42.98465" lon="-7.61368">
        <ele>515.6</ele>
        <time>2016-07-16T05:30:07Z</time>
      </trkpt>
      <trkpt lat="42.98459" lon="-7.61379">
        <ele>516.1</ele>
        <time>2016-07-16T05:30:16Z</time>
      </trkpt>
      <trkpt lat="42.98453" lon="-7.61388">
        <ele>516.4</ele>
        <time>2016-07-16T05:30:24Z</time>
      </trkpt>
      <trkpt lat="42.98446" lon="-7.61399">
        <ele>516.4</ele>
        <time>2016-07-16T05:30:33Z</time>
      </trkpt>
      <trkpt lat="42.98441" lon="-7.61409">
        <ele>516.5</ele>
        <time>2016-07-16T05:30:41Z</time>
      </trkpt>
      <trkpt lat="42.98435" lon="-7.6142">
        <ele>516.5</ele>
        <time>2016-07-16T05:30:50Z</time>
      </trkpt>
      <trkpt lat="42.98431" lon="-7.61432">
        <ele>517.4</ele>
        <time>2016-07-16T05:30:59Z</time>
      </trkpt>
      <trkpt lat="42.98427" lon="-7.61443">
        <ele>518.2</ele>
        <time>2016-07-16T05:31:07Z</time>
      </trkpt>
      <trkpt lat="42.98423" lon="-7.61455">
        <ele>518.6</ele>
        <time>2016-07-16T05:31:16Z</time>
      </trkpt>
      <trkpt lat="42.98419" lon="-7.61467">
        <ele>519.6</ele>
        <time>2016-07-16T05:31:25Z</time>
      </trkpt>
      <trkpt lat="42.98415" lon="-7.61478">
        <ele>520.2</ele>
        <time>2016-07-16T05:31:34Z</time>
      </trkpt>
      <trkpt lat="42.98411" lon="-7.61489">
        <ele>520.7</ele>
        <time>2016-07-16T05:31:43Z</time>
      </trkpt>
      <trkpt lat="42.98407" lon="-7.61501">
        <ele>521.2</ele>
        <time>2016-07-16T05:31:52Z</time>
      </trkpt>
      <trkpt lat="42.98403" lon="-7.61512">
        <ele>522.3</ele>
        <time>2016-07-16T05:32:01Z</time>
      </trkpt>
      <trkpt lat="42.98398" lon="-7.61524">
        <ele>523.5</ele>
        <time>2016-07-16T05:32:11Z</time>
      </trkpt>
      <trkpt lat="42.98393" lon="-7.61535">
        <ele>524.4</ele>
        <time>2016-07-16T05:32:19Z</time>
      </trkpt>
      <trkpt lat="42.9839" lon="-7.61546">
        <ele>525.2</ele>
        <time>2016-07-16T05:32:28Z</time>
      </trkpt>
      <trkpt lat="42.98387" lon="-7.61558">
        <ele>526.2</ele>
        <time>2016-07-16T05:32:37Z</time>
      </trkpt>
      <trkpt lat="42.98382" lon="-7.6157">
        <ele>526.9</ele>
        <time>2016-07-16T05:32:47Z</time>
      </trkpt>
      <trkpt lat="42.98378" lon="-7.61583">
        <ele>527.4</ele>
        <time>2016-07-16T05:32:56Z</time>
      </trkpt>
      <trkpt lat="42.98374" lon="-7.61595">
        <ele>527.9</ele>
        <time>2016-07-16T05:33:05Z</time>
      </trkpt>
      <trkpt lat="42.98369" lon="-7.61606">
        <ele>528.2</ele>
        <time>2016-07-16T05:33:14Z</time>
      </trkpt>
      <trkpt lat="42.98364" lon="-7.61618">
        <ele>528.6</ele>
        <time>2016-07-16T05:33:23Z</time>
      </trkpt>
      <trkpt lat="42.9836" lon="-7.61629">
        <ele>529.6</ele>
        <time>2016-07-16T05:33:31Z</time>
      </trkpt>
      <trkpt lat="42.98356" lon="-7.61641">
        <ele>530</ele>
        <time>2016-07-16T05:33:39Z</time>
      </trkpt>
      <trkpt lat="42.9835" lon="-7.61651">
        <ele>530.2</ele>
        <time>2016-07-16T05:33:47Z</time>
      </trkpt>
      <trkpt lat="42.98345" lon="-7.61663">
        <ele>530.9</ele>
        <time>2016-07-16T05:33:56Z</time>
      </trkpt>
      <trkpt lat="42.98337" lon="-7.6167">
        <ele>531.2</ele>
        <time>2016-07-16T05:34:05Z</time>
      </trkpt>
      <trkpt lat="42.98331" lon="-7.6168">
        <ele>531.3</ele>
        <time>2016-07-16T05:34:15Z</time>
      </trkpt>
      <trkpt lat="42.98324" lon="-7.61688">
        <ele>531.3</ele>
        <time>2016-07-16T05:34:33Z</time>
      </trkpt>
      <trkpt lat="42.9832" lon="-7.617">
        <ele>531.4</ele>
        <time>2016-07-16T05:34:45Z</time>
      </trkpt>
      <trkpt lat="42.98313" lon="-7.6171">
        <ele>531.5</ele>
        <time>2016-07-16T05:34:55Z</time>
      </trkpt>
      <trkpt lat="42.98307" lon="-7.61719">
        <ele>532</ele>
        <time>2016-07-16T05:35:04Z</time>
      </trkpt>
      <trkpt lat="42.98301" lon="-7.6173">
        <ele>533</ele>
        <time>2016-07-16T05:35:30Z</time>
      </trkpt>
      <trkpt lat="42.98293" lon="-7.61737">
        <ele>533.1</ele>
        <time>2016-07-16T05:35:39Z</time>
      </trkpt>
      <trkpt lat="42.98284" lon="-7.61738">
        <ele>533.1</ele>
        <time>2016-07-16T05:35:48Z</time>
      </trkpt>
      <trkpt lat="42.98274" lon="-7.61736">
        <ele>533.1</ele>
        <time>2016-07-16T05:35:57Z</time>
      </trkpt>
      <trkpt lat="42.98264" lon="-7.61732">
        <ele>533.5</ele>
        <time>2016-07-16T05:36:05Z</time>
      </trkpt>
      <trkpt lat="42.98255" lon="-7.61729">
        <ele>533.8</ele>
        <time>2016-07-16T05:36:12Z</time>
      </trkpt>
      <trkpt lat="42.98245" lon="-7.61728">
        <ele>534</ele>
        <time>2016-07-16T05:36:19Z</time>
      </trkpt>
      <trkpt lat="42.98236" lon="-7.6173">
        <ele>534.3</ele>
        <time>2016-07-16T05:36:27Z</time>
      </trkpt>
      <trkpt lat="42.98227" lon="-7.61734">
        <ele>534.5</ele>
        <time>2016-07-16T05:36:35Z</time>
      </trkpt>
      <trkpt lat="42.98218" lon="-7.61737">
        <ele>534.8</ele>
        <time>2016-07-16T05:36:43Z</time>
      </trkpt>
      <trkpt lat="42.98209" lon="-7.61741">
        <ele>535.4</ele>
        <time>2016-07-16T05:36:51Z</time>
      </trkpt>
      <trkpt lat="42.982" lon="-7.61745">
        <ele>535.6</ele>
        <time>2016-07-16T05:36:59Z</time>
      </trkpt>
      <trkpt lat="42.98192" lon="-7.61748">
        <ele>535.8</ele>
        <time>2016-07-16T05:37:07Z</time>
      </trkpt>
      <trkpt lat="42.98183" lon="-7.61752">
        <ele>535.6</ele>
        <time>2016-07-16T05:37:15Z</time>
      </trkpt>
      <trkpt lat="42.98174" lon="-7.61757">
        <ele>535.5</ele>
        <time>2016-07-16T05:37:23Z</time>
      </trkpt>
      <trkpt lat="42.98166" lon="-7.61762">
        <ele>535.6</ele>
        <time>2016-07-16T05:37:31Z</time>
      </trkpt>
      <trkpt lat="42.98157" lon="-7.61768">
        <ele>536</ele>
        <time>2016-07-16T05:37:39Z</time>
      </trkpt>
      <trkpt lat="42.98149" lon="-7.61775">
        <ele>536.3</ele>
        <time>2016-07-16T05:37:47Z</time>
      </trkpt>
      <trkpt lat="42.98142" lon="-7.61783">
        <ele>536.4</ele>
        <time>2016-07-16T05:37:55Z</time>
      </trkpt>
      <trkpt lat="42.98134" lon="-7.61791">
        <ele>536.8</ele>
        <time>2016-07-16T05:38:04Z</time>
      </trkpt>
      <trkpt lat="42.98126" lon="-7.61798">
        <ele>537</ele>
        <time>2016-07-16T05:38:12Z</time>
      </trkpt>
      <trkpt lat="42.98118" lon="-7.61805">
        <ele>537.3</ele>
        <time>2016-07-16T05:38:22Z</time>
      </trkpt>
      <trkpt lat="42.98111" lon="-7.61813">
        <ele>537.6</ele>
        <time>2016-07-16T05:38:30Z</time>
      </trkpt>
      <trkpt lat="42.98105" lon="-7.61823">
        <ele>538.1</ele>
        <time>2016-07-16T05:38:38Z</time>
      </trkpt>
      <trkpt lat="42.98098" lon="-7.61833">
        <ele>538.4</ele>
        <time>2016-07-16T05:38:47Z</time>
      </trkpt>
      <trkpt lat="42.98092" lon="-7.61842">
        <ele>538.3</ele>
        <time>2016-07-16T05:38:55Z</time>
      </trkpt>
      <trkpt lat="42.98085" lon="-7.61851">
        <ele>538.8</ele>
        <time>2016-07-16T05:39:04Z</time>
      </trkpt>
      <trkpt lat="42.98078" lon="-7.6186">
        <ele>539.4</ele>
        <time>2016-07-16T05:39:12Z</time>
      </trkpt>
      <trkpt lat="42.98071" lon="-7.6187">
        <ele>539.8</ele>
        <time>2016-07-16T05:39:21Z</time>
      </trkpt>
      <trkpt lat="42.98064" lon="-7.61878">
        <ele>540.2</ele>
        <time>2016-07-16T05:39:29Z</time>
      </trkpt>
      <trkpt lat="42.98056" lon="-7.61885">
        <ele>540.4</ele>
        <time>2016-07-16T05:39:37Z</time>
      </trkpt>
      <trkpt lat="42.98049" lon="-7.61893">
        <ele>540.6</ele>
        <time>2016-07-16T05:39:45Z</time>
      </trkpt>
      <trkpt lat="42.98041" lon="-7.619">
        <ele>540.9</ele>
        <time>2016-07-16T05:39:54Z</time>
      </trkpt>
      <trkpt lat="42.98034" lon="-7.6191">
        <ele>541</ele>
        <time>2016-07-16T05:40:03Z</time>
      </trkpt>
      <trkpt lat="42.98027" lon="-7.61919">
        <ele>541.4</ele>
        <time>2016-07-16T05:40:13Z</time>
      </trkpt>
      <trkpt lat="42.9802" lon="-7.61928">
        <ele>542.1</ele>
        <time>2016-07-16T05:40:23Z</time>
      </trkpt>
      <trkpt lat="42.98012" lon="-7.61936">
        <ele>542.4</ele>
        <time>2016-07-16T05:40:31Z</time>
      </trkpt>
      <trkpt lat="42.98004" lon="-7.61944">
        <ele>543.2</ele>
        <time>2016-07-16T05:40:40Z</time>
      </trkpt>
      <trkpt lat="42.97996" lon="-7.61952">
        <ele>543.7</ele>
        <time>2016-07-16T05:40:49Z</time>
      </trkpt>
      <trkpt lat="42.9799" lon="-7.61962">
        <ele>544.4</ele>
        <time>2016-07-16T05:40:58Z</time>
      </trkpt>
      <trkpt lat="42.97985" lon="-7.61972">
        <ele>545</ele>
        <time>2016-07-16T05:41:08Z</time>
      </trkpt>
      <trkpt lat="42.97981" lon="-7.61985">
        <ele>545.6</ele>
        <time>2016-07-16T05:41:21Z</time>
      </trkpt>
      <trkpt lat="42.97981" lon="-7.61997">
        <ele>547.6</ele>
        <time>2016-07-16T05:42:02Z</time>
      </trkpt>
      <trkpt lat="42.97977" lon="-7.62009">
        <ele>547.3</ele>
        <time>2016-07-16T05:42:32Z</time>
      </trkpt>
      <trkpt lat="42.97971" lon="-7.62021">
        <ele>547.4</ele>
        <time>2016-07-16T05:42:42Z</time>
      </trkpt>
      <trkpt lat="42.97967" lon="-7.62032">
        <ele>548</ele>
        <time>2016-07-16T05:42:55Z</time>
      </trkpt>
      <trkpt lat="42.97963" lon="-7.62043">
        <ele>548.2</ele>
        <time>2016-07-16T05:43:03Z</time>
      </trkpt>
      <trkpt lat="42.97959" lon="-7.62055">
        <ele>548.5</ele>
        <time>2016-07-16T05:43:12Z</time>
      </trkpt>
      <trkpt lat="42.97955" lon="-7.62068">
        <ele>549</ele>
        <time>2016-07-16T05:43:21Z</time>
      </trkpt>
      <trkpt lat="42.97952" lon="-7.6208">
        <ele>549.3</ele>
        <time>2016-07-16T05:43:30Z</time>
      </trkpt>
      <trkpt lat="42.97947" lon="-7.62092">
        <ele>550</ele>
        <time>2016-07-16T05:43:44Z</time>
      </trkpt>
      <trkpt lat="42.97943" lon="-7.62104">
        <ele>550.7</ele>
        <time>2016-07-16T05:43:53Z</time>
      </trkpt>
      <trkpt lat="42.97939" lon="-7.62115">
        <ele>551.1</ele>
        <time>2016-07-16T05:44:01Z</time>
      </trkpt>
      <trkpt lat="42.97934" lon="-7.62125">
        <ele>551.3</ele>
        <time>2016-07-16T05:44:08Z</time>
      </trkpt>
      <trkpt lat="42.97929" lon="-7.62138">
        <ele>551.5</ele>
        <time>2016-07-16T05:44:16Z</time>
      </trkpt>
      <trkpt lat="42.97925" lon="-7.62149">
        <ele>551.6</ele>
        <time>2016-07-16T05:44:24Z</time>
      </trkpt>
      <trkpt lat="42.97919" lon="-7.62159">
        <ele>551.7</ele>
        <time>2016-07-16T05:44:32Z</time>
      </trkpt>
      <trkpt lat="42.97914" lon="-7.6217">
        <ele>552</ele>
        <time>2016-07-16T05:44:41Z</time>
      </trkpt>
      <trkpt lat="42.97907" lon="-7.6218">
        <ele>552</ele>
        <time>2016-07-16T05:44:50Z</time>
      </trkpt>
      <trkpt lat="42.979" lon="-7.62187">
        <ele>551.7</ele>
        <time>2016-07-16T05:44:58Z</time>
      </trkpt>
      <trkpt lat="42.97892" lon="-7.62196">
        <ele>551.6</ele>
        <time>2016-07-16T05:45:06Z</time>
      </trkpt>
      <trkpt lat="42.97884" lon="-7.62203">
        <ele>551.3</ele>
        <time>2016-07-16T05:45:13Z</time>
      </trkpt>
      <trkpt lat="42.97878" lon="-7.62211">
        <ele>550.6</ele>
        <time>2016-07-16T05:45:20Z</time>
      </trkpt>
      <trkpt lat="42.97871" lon="-7.62221">
        <ele>550.7</ele>
        <time>2016-07-16T05:45:28Z</time>
      </trkpt>
      <trkpt lat="42.97864" lon="-7.62229">
        <ele>550.8</ele>
        <time>2016-07-16T05:45:35Z</time>
      </trkpt>
      <trkpt lat="42.97857" lon="-7.62238">
        <ele>550.5</ele>
        <time>2016-07-16T05:45:43Z</time>
      </trkpt>
      <trkpt lat="42.9785" lon="-7.62247">
        <ele>550.3</ele>
        <time>2016-07-16T05:45:51Z</time>
      </trkpt>
      <trkpt lat="42.97843" lon="-7.62256">
        <ele>550.2</ele>
        <time>2016-07-16T05:45:59Z</time>
      </trkpt>
      <trkpt lat="42.97835" lon="-7.62265">
        <ele>550.3</ele>
        <time>2016-07-16T05:46:07Z</time>
      </trkpt>
      <trkpt lat="42.97827" lon="-7.62273">
        <ele>550.4</ele>
        <time>2016-07-16T05:46:15Z</time>
      </trkpt>
      <trkpt lat="42.9782" lon="-7.62281">
        <ele>550.6</ele>
        <time>2016-07-16T05:46:23Z</time>
      </trkpt>
      <trkpt lat="42.97813" lon="-7.62289">
        <ele>550.2</ele>
        <time>2016-07-16T05:46:31Z</time>
      </trkpt>
      <trkpt lat="42.97805" lon="-7.62297">
        <ele>550.3</ele>
        <time>2016-07-16T05:46:39Z</time>
      </trkpt>
      <trkpt lat="42.97797" lon="-7.62305">
        <ele>550.3</ele>
        <time>2016-07-16T05:46:48Z</time>
      </trkpt>
      <trkpt lat="42.97791" lon="-7.62314">
        <ele>549.9</ele>
        <time>2016-07-16T05:46:57Z</time>
      </trkpt>
      <trkpt lat="42.97784" lon="-7.62323">
        <ele>550</ele>
        <time>2016-07-16T05:47:06Z</time>
      </trkpt>
      <trkpt lat="42.97776" lon="-7.62331">
        <ele>549.9</ele>
        <time>2016-07-16T05:47:15Z</time>
      </trkpt>
      <trkpt lat="42.97768" lon="-7.62338">
        <ele>549.4</ele>
        <time>2016-07-16T05:47:23Z</time>
      </trkpt>
      <trkpt lat="42.9776" lon="-7.62345">
        <ele>549.2</ele>
        <time>2016-07-16T05:47:31Z</time>
      </trkpt>
      <trkpt lat="42.97753" lon="-7.62353">
        <ele>549.2</ele>
        <time>2016-07-16T05:47:39Z</time>
      </trkpt>
      <trkpt lat="42.97746" lon="-7.62362">
        <ele>549.2</ele>
        <time>2016-07-16T05:47:47Z</time>
      </trkpt>
      <trkpt lat="42.97739" lon="-7.6237">
        <ele>549.1</ele>
        <time>2016-07-16T05:47:55Z</time>
      </trkpt>
      <trkpt lat="42.97733" lon="-7.62378">
        <ele>548.9</ele>
        <time>2016-07-16T05:48:03Z</time>
      </trkpt>
      <trkpt lat="42.97726" lon="-7.62386">
        <ele>548.8</ele>
        <time>2016-07-16T05:48:13Z</time>
      </trkpt>
      <trkpt lat="42.97719" lon="-7.62394">
        <ele>548.5</ele>
        <time>2016-07-16T05:48:22Z</time>
      </trkpt>
      <trkpt lat="42.97711" lon="-7.62402">
        <ele>548.3</ele>
        <time>2016-07-16T05:48:30Z</time>
      </trkpt>
      <trkpt lat="42.97703" lon="-7.6241">
        <ele>548.3</ele>
        <time>2016-07-16T05:48:38Z</time>
      </trkpt>
      <trkpt lat="42.97695" lon="-7.62418">
        <ele>548.3</ele>
        <time>2016-07-16T05:48:46Z</time>
      </trkpt>
      <trkpt lat="42.97688" lon="-7.62426">
        <ele>548.2</ele>
        <time>2016-07-16T05:48:54Z</time>
      </trkpt>
      <trkpt lat="42.97681" lon="-7.62435">
        <ele>548.4</ele>
        <time>2016-07-16T05:49:03Z</time>
      </trkpt>
      <trkpt lat="42.97674" lon="-7.62444">
        <ele>547.9</ele>
        <time>2016-07-16T05:49:12Z</time>
      </trkpt>
      <trkpt lat="42.97667" lon="-7.62453">
        <ele>547.6</ele>
        <time>2016-07-16T05:49:21Z</time>
      </trkpt>
      <trkpt lat="42.97661" lon="-7.62463">
        <ele>547.5</ele>
        <time>2016-07-16T05:49:31Z</time>
      </trkpt>
      <trkpt lat="42.97653" lon="-7.62471">
        <ele>547.4</ele>
        <time>2016-07-16T05:49:40Z</time>
      </trkpt>
      <trkpt lat="42.97646" lon="-7.6248">
        <ele>547.4</ele>
        <time>2016-07-16T05:49:49Z</time>
      </trkpt>
      <trkpt lat="42.97639" lon="-7.62489">
        <ele>547.4</ele>
        <time>2016-07-16T05:49:58Z</time>
      </trkpt>
      <trkpt lat="42.97631" lon="-7.62498">
        <ele>547.4</ele>
        <time>2016-07-16T05:50:07Z</time>
      </trkpt>
      <trkpt lat="42.97625" lon="-7.62506">
        <ele>547.2</ele>
        <time>2016-07-16T05:50:15Z</time>
      </trkpt>
      <trkpt lat="42.97617" lon="-7.62514">
        <ele>547.1</ele>
        <time>2016-07-16T05:50:23Z</time>
      </trkpt>
      <trkpt lat="42.97608" lon="-7.62521">
        <ele>546.9</ele>
        <time>2016-07-16T05:50:31Z</time>
      </trkpt>
      <trkpt lat="42.976" lon="-7.62529">
        <ele>546.5</ele>
        <time>2016-07-16T05:50:40Z</time>
      </trkpt>
      <trkpt lat="42.97594" lon="-7.62539">
        <ele>546.4</ele>
        <time>2016-07-16T05:50:49Z</time>
      </trkpt>
      <trkpt lat="42.97587" lon="-7.62548">
        <ele>546.5</ele>
        <time>2016-07-16T05:50:58Z</time>
      </trkpt>
      <trkpt lat="42.9758" lon="-7.62557">
        <ele>546.5</ele>
        <time>2016-07-16T05:51:07Z</time>
      </trkpt>
      <trkpt lat="42.97572" lon="-7.62566">
        <ele>546.9</ele>
        <time>2016-07-16T05:51:16Z</time>
      </trkpt>
      <trkpt lat="42.97566" lon="-7.62576">
        <ele>547.2</ele>
        <time>2016-07-16T05:51:24Z</time>
      </trkpt>
      <trkpt lat="42.97561" lon="-7.62586">
        <ele>547.3</ele>
        <time>2016-07-16T05:51:32Z</time>
      </trkpt>
      <trkpt lat="42.97556" lon="-7.62598">
        <ele>547.5</ele>
        <time>2016-07-16T05:51:41Z</time>
      </trkpt>
      <trkpt lat="42.97552" lon="-7.62611">
        <ele>547.7</ele>
        <time>2016-07-16T05:51:50Z</time>
      </trkpt>
      <trkpt lat="42.97549" lon="-7.62623">
        <ele>547.6</ele>
        <time>2016-07-16T05:51:59Z</time>
      </trkpt>
      <trkpt lat="42.97547" lon="-7.62636">
        <ele>547.6</ele>
        <time>2016-07-16T05:52:08Z</time>
      </trkpt>
      <trkpt lat="42.97544" lon="-7.62649">
        <ele>547.5</ele>
        <time>2016-07-16T05:52:17Z</time>
      </trkpt>
      <trkpt lat="42.9754" lon="-7.62661">
        <ele>547.3</ele>
        <time>2016-07-16T05:52:25Z</time>
      </trkpt>
      <trkpt lat="42.97537" lon="-7.62673">
        <ele>547.6</ele>
        <time>2016-07-16T05:52:33Z</time>
      </trkpt>
      <trkpt lat="42.97534" lon="-7.62685">
        <ele>547.8</ele>
        <time>2016-07-16T05:52:41Z</time>
      </trkpt>
      <trkpt lat="42.97525" lon="-7.6269">
        <ele>547.7</ele>
        <time>2016-07-16T05:52:49Z</time>
      </trkpt>
      <trkpt lat="42.9752" lon="-7.62702">
        <ele>547.5</ele>
        <time>2016-07-16T05:52:58Z</time>
      </trkpt>
      <trkpt lat="42.97516" lon="-7.62714">
        <ele>548</ele>
        <time>2016-07-16T05:53:06Z</time>
      </trkpt>
      <trkpt lat="42.97512" lon="-7.62726">
        <ele>547.8</ele>
        <time>2016-07-16T05:53:15Z</time>
      </trkpt>
      <trkpt lat="42.97507" lon="-7.62738">
        <ele>547.8</ele>
        <time>2016-07-16T05:53:24Z</time>
      </trkpt>
      <trkpt lat="42.97504" lon="-7.6275">
        <ele>547.9</ele>
        <time>2016-07-16T05:53:42Z</time>
      </trkpt>
      <trkpt lat="42.975" lon="-7.62763">
        <ele>547.9</ele>
        <time>2016-07-16T05:54:17Z</time>
      </trkpt>
      <trkpt lat="42.97495" lon="-7.62774">
        <ele>548</ele>
        <time>2016-07-16T05:54:25Z</time>
      </trkpt>
      <trkpt lat="42.9749" lon="-7.62785">
        <ele>547.7</ele>
        <time>2016-07-16T05:54:34Z</time>
      </trkpt>
      <trkpt lat="42.97485" lon="-7.62796">
        <ele>547.6</ele>
        <time>2016-07-16T05:54:43Z</time>
      </trkpt>
      <trkpt lat="42.97479" lon="-7.62807">
        <ele>548</ele>
        <time>2016-07-16T05:54:51Z</time>
      </trkpt>
      <trkpt lat="42.97474" lon="-7.62818">
        <ele>548.1</ele>
        <time>2016-07-16T05:54:59Z</time>
      </trkpt>
      <trkpt lat="42.97467" lon="-7.62828">
        <ele>548.1</ele>
        <time>2016-07-16T05:55:07Z</time>
      </trkpt>
      <trkpt lat="42.9746" lon="-7.62838">
        <ele>548.1</ele>
        <time>2016-07-16T05:55:15Z</time>
      </trkpt>
      <trkpt lat="42.97453" lon="-7.62847">
        <ele>548.4</ele>
        <time>2016-07-16T05:55:23Z</time>
      </trkpt>
      <trkpt lat="42.97446" lon="-7.62856">
        <ele>549</ele>
        <time>2016-07-16T05:55:31Z</time>
      </trkpt>
      <trkpt lat="42.97438" lon="-7.62863">
        <ele>549.3</ele>
        <time>2016-07-16T05:55:39Z</time>
      </trkpt>
      <trkpt lat="42.97431" lon="-7.62872">
        <ele>549.6</ele>
        <time>2016-07-16T05:55:47Z</time>
      </trkpt>
      <trkpt lat="42.97425" lon="-7.6288">
        <ele>549.9</ele>
        <time>2016-07-16T05:55:55Z</time>
      </trkpt>
      <trkpt lat="42.97419" lon="-7.62889">
        <ele>550.2</ele>
        <time>2016-07-16T05:56:09Z</time>
      </trkpt>
      <trkpt lat="42.97413" lon="-7.62899">
        <ele>550.4</ele>
        <time>2016-07-16T05:56:19Z</time>
      </trkpt>
      <trkpt lat="42.97405" lon="-7.62907">
        <ele>550.7</ele>
        <time>2016-07-16T05:56:30Z</time>
      </trkpt>
      <trkpt lat="42.97398" lon="-7.62917">
        <ele>549.7</ele>
        <time>2016-07-16T05:56:39Z</time>
      </trkpt>
      <trkpt lat="42.9739" lon="-7.62924">
        <ele>545.6</ele>
        <time>2016-07-16T05:56:47Z</time>
      </trkpt>
      <trkpt lat="42.97383" lon="-7.62933">
        <ele>549.4</ele>
        <time>2016-07-16T05:56:54Z</time>
      </trkpt>
      <trkpt lat="42.97378" lon="-7.62944">
        <ele>549.7</ele>
        <time>2016-07-16T05:57:05Z</time>
      </trkpt>
      <trkpt lat="42.9737" lon="-7.62952">
        <ele>552.9</ele>
        <time>2016-07-16T05:57:13Z</time>
      </trkpt>
      <trkpt lat="42.97363" lon="-7.62959">
        <ele>552.3</ele>
        <time>2016-07-16T05:57:21Z</time>
      </trkpt>
      <trkpt lat="42.97355" lon="-7.62967">
        <ele>552.6</ele>
        <time>2016-07-16T05:57:31Z</time>
      </trkpt>
      <trkpt lat="42.97348" lon="-7.62975">
        <ele>552.3</ele>
        <time>2016-07-16T05:57:42Z</time>
      </trkpt>
      <trkpt lat="42.9734" lon="-7.62983">
        <ele>551.9</ele>
        <time>2016-07-16T05:57:51Z</time>
      </trkpt>
      <trkpt lat="42.97334" lon="-7.62992">
        <ele>551.6</ele>
        <time>2016-07-16T05:57:59Z</time>
      </trkpt>
      <trkpt lat="42.97327" lon="-7.63001">
        <ele>551.8</ele>
        <time>2016-07-16T05:58:06Z</time>
      </trkpt>
      <trkpt lat="42.97319" lon="-7.6301">
        <ele>551.9</ele>
        <time>2016-07-16T05:58:14Z</time>
      </trkpt>
      <trkpt lat="42.97313" lon="-7.63019">
        <ele>551.9</ele>
        <time>2016-07-16T05:58:21Z</time>
      </trkpt>
      <trkpt lat="42.97306" lon="-7.6303">
        <ele>551.9</ele>
        <time>2016-07-16T05:58:28Z</time>
      </trkpt>
      <trkpt lat="42.97301" lon="-7.6304">
        <ele>552</ele>
        <time>2016-07-16T05:58:35Z</time>
      </trkpt>
      <trkpt lat="42.97295" lon="-7.63049">
        <ele>552.2</ele>
        <time>2016-07-16T05:58:43Z</time>
      </trkpt>
      <trkpt lat="42.97289" lon="-7.63061">
        <ele>552.3</ele>
        <time>2016-07-16T05:58:52Z</time>
      </trkpt>
      <trkpt lat="42.97284" lon="-7.63072">
        <ele>552.7</ele>
        <time>2016-07-16T05:59:00Z</time>
      </trkpt>
      <trkpt lat="42.97278" lon="-7.63082">
        <ele>553</ele>
        <time>2016-07-16T05:59:08Z</time>
      </trkpt>
      <trkpt lat="42.97273" lon="-7.63091">
        <ele>553.1</ele>
        <time>2016-07-16T05:59:16Z</time>
      </trkpt>
      <trkpt lat="42.97267" lon="-7.63103">
        <ele>553.1</ele>
        <time>2016-07-16T05:59:25Z</time>
      </trkpt>
      <trkpt lat="42.97261" lon="-7.63113">
        <ele>553.4</ele>
        <time>2016-07-16T05:59:34Z</time>
      </trkpt>
      <trkpt lat="42.97254" lon="-7.63124">
        <ele>553.9</ele>
        <time>2016-07-16T05:59:43Z</time>
      </trkpt>
      <trkpt lat="42.97249" lon="-7.63136">
        <ele>554.4</ele>
        <time>2016-07-16T05:59:52Z</time>
      </trkpt>
      <trkpt lat="42.97242" lon="-7.63146">
        <ele>554.7</ele>
        <time>2016-07-16T06:00:00Z</time>
      </trkpt>
      <trkpt lat="42.97237" lon="-7.63156">
        <ele>554.8</ele>
        <time>2016-07-16T06:00:08Z</time>
      </trkpt>
      <trkpt lat="42.97232" lon="-7.63167">
        <ele>554.5</ele>
        <time>2016-07-16T06:00:16Z</time>
      </trkpt>
      <trkpt lat="42.97227" lon="-7.63177">
        <ele>553.7</ele>
        <time>2016-07-16T06:00:25Z</time>
      </trkpt>
      <trkpt lat="42.97222" lon="-7.63188">
        <ele>553</ele>
        <time>2016-07-16T06:00:33Z</time>
      </trkpt>
      <trkpt lat="42.97217" lon="-7.63199">
        <ele>552.2</ele>
        <time>2016-07-16T06:00:42Z</time>
      </trkpt>
      <trkpt lat="42.97211" lon="-7.6321">
        <ele>551.7</ele>
        <time>2016-07-16T06:00:52Z</time>
      </trkpt>
      <trkpt lat="42.97206" lon="-7.63221">
        <ele>551.4</ele>
        <time>2016-07-16T06:01:03Z</time>
      </trkpt>
      <trkpt lat="42.97201" lon="-7.63231">
        <ele>550.7</ele>
        <time>2016-07-16T06:01:14Z</time>
      </trkpt>
      <trkpt lat="42.97197" lon="-7.63243">
        <ele>550.3</ele>
        <time>2016-07-16T06:01:24Z</time>
      </trkpt>
      <trkpt lat="42.97194" lon="-7.63256">
        <ele>549.7</ele>
        <time>2016-07-16T06:01:33Z</time>
      </trkpt>
      <trkpt lat="42.97188" lon="-7.63266">
        <ele>549.2</ele>
        <time>2016-07-16T06:01:41Z</time>
      </trkpt>
      <trkpt lat="42.97183" lon="-7.63278">
        <ele>548.9</ele>
        <time>2016-07-16T06:01:49Z</time>
      </trkpt>
      <trkpt lat="42.97179" lon="-7.6329">
        <ele>548.2</ele>
        <time>2016-07-16T06:01:58Z</time>
      </trkpt>
      <trkpt lat="42.97176" lon="-7.63302">
        <ele>547.9</ele>
        <time>2016-07-16T06:02:05Z</time>
      </trkpt>
      <trkpt lat="42.97173" lon="-7.63315">
        <ele>547.6</ele>
        <time>2016-07-16T06:02:13Z</time>
      </trkpt>
      <trkpt lat="42.97168" lon="-7.63327">
        <ele>547.3</ele>
        <time>2016-07-16T06:02:21Z</time>
      </trkpt>
      <trkpt lat="42.97164" lon="-7.63339">
        <ele>547.1</ele>
        <time>2016-07-16T06:02:29Z</time>
      </trkpt>
      <trkpt lat="42.97158" lon="-7.63351">
        <ele>547.1</ele>
        <time>2016-07-16T06:02:36Z</time>
      </trkpt>
      <trkpt lat="42.97155" lon="-7.63362">
        <ele>547</ele>
        <time>2016-07-16T06:02:43Z</time>
      </trkpt>
      <trkpt lat="42.97151" lon="-7.63374">
        <ele>546.8</ele>
        <time>2016-07-16T06:02:50Z</time>
      </trkpt>
      <trkpt lat="42.97148" lon="-7.63386">
        <ele>546.6</ele>
        <time>2016-07-16T06:02:57Z</time>
      </trkpt>
      <trkpt lat="42.97143" lon="-7.63397">
        <ele>546.5</ele>
        <time>2016-07-16T06:03:05Z</time>
      </trkpt>
      <trkpt lat="42.97139" lon="-7.6341">
        <ele>546.6</ele>
        <time>2016-07-16T06:03:13Z</time>
      </trkpt>
      <trkpt lat="42.97134" lon="-7.63421">
        <ele>546.4</ele>
        <time>2016-07-16T06:03:21Z</time>
      </trkpt>
      <trkpt lat="42.97129" lon="-7.63431">
        <ele>546.1</ele>
        <time>2016-07-16T06:03:29Z</time>
      </trkpt>
      <trkpt lat="42.97123" lon="-7.63442">
        <ele>545.8</ele>
        <time>2016-07-16T06:03:38Z</time>
      </trkpt>
      <trkpt lat="42.97117" lon="-7.63452">
        <ele>545.8</ele>
        <time>2016-07-16T06:03:46Z</time>
      </trkpt>
      <trkpt lat="42.9711" lon="-7.63462">
        <ele>546</ele>
        <time>2016-07-16T06:03:54Z</time>
      </trkpt>
      <trkpt lat="42.97104" lon="-7.63472">
        <ele>545.7</ele>
        <time>2016-07-16T06:04:03Z</time>
      </trkpt>
      <trkpt lat="42.97099" lon="-7.63483">
        <ele>546</ele>
        <time>2016-07-16T06:04:13Z</time>
      </trkpt>
      <trkpt lat="42.97092" lon="-7.63494">
        <ele>546.1</ele>
        <time>2016-07-16T06:04:22Z</time>
      </trkpt>
      <trkpt lat="42.97086" lon="-7.63504">
        <ele>546.4</ele>
        <time>2016-07-16T06:04:31Z</time>
      </trkpt>
      <trkpt lat="42.9708" lon="-7.63515">
        <ele>546.1</ele>
        <time>2016-07-16T06:04:40Z</time>
      </trkpt>
      <trkpt lat="42.97074" lon="-7.63524">
        <ele>545.8</ele>
        <time>2016-07-16T06:04:48Z</time>
      </trkpt>
      <trkpt lat="42.97069" lon="-7.63534">
        <ele>545.7</ele>
        <time>2016-07-16T06:04:56Z</time>
      </trkpt>
      <trkpt lat="42.97062" lon="-7.63543">
        <ele>545.7</ele>
        <time>2016-07-16T06:05:05Z</time>
      </trkpt>
      <trkpt lat="42.97056" lon="-7.63553">
        <ele>545.4</ele>
        <time>2016-07-16T06:05:13Z</time>
      </trkpt>
      <trkpt lat="42.97049" lon="-7.63561">
        <ele>545.2</ele>
        <time>2016-07-16T06:05:21Z</time>
      </trkpt>
      <trkpt lat="42.97043" lon="-7.63571">
        <ele>544.9</ele>
        <time>2016-07-16T06:05:30Z</time>
      </trkpt>
      <trkpt lat="42.97037" lon="-7.63582">
        <ele>544.9</ele>
        <time>2016-07-16T06:05:38Z</time>
      </trkpt>
      <trkpt lat="42.97032" lon="-7.63593">
        <ele>545</ele>
        <time>2016-07-16T06:05:46Z</time>
      </trkpt>
      <trkpt lat="42.9703" lon="-7.63605">
        <ele>545.1</ele>
        <time>2016-07-16T06:05:55Z</time>
      </trkpt>
      <trkpt lat="42.97026" lon="-7.63617">
        <ele>544.9</ele>
        <time>2016-07-16T06:06:04Z</time>
      </trkpt>
      <trkpt lat="42.97024" lon="-7.6363">
        <ele>544.4</ele>
        <time>2016-07-16T06:06:12Z</time>
      </trkpt>
      <trkpt lat="42.97021" lon="-7.63642">
        <ele>544</ele>
        <time>2016-07-16T06:06:20Z</time>
      </trkpt>
      <trkpt lat="42.97015" lon="-7.63653">
        <ele>543.5</ele>
        <time>2016-07-16T06:06:29Z</time>
      </trkpt>
      <trkpt lat="42.97009" lon="-7.63662">
        <ele>543.1</ele>
        <time>2016-07-16T06:06:38Z</time>
      </trkpt>
      <trkpt lat="42.97003" lon="-7.63672">
        <ele>542.6</ele>
        <time>2016-07-16T06:06:48Z</time>
      </trkpt>
      <trkpt lat="42.96998" lon="-7.63683">
        <ele>542.1</ele>
        <time>2016-07-16T06:06:57Z</time>
      </trkpt>
      <trkpt lat="42.96993" lon="-7.63693">
        <ele>541.9</ele>
        <time>2016-07-16T06:07:06Z</time>
      </trkpt>
      <trkpt lat="42.96988" lon="-7.63705">
        <ele>541.8</ele>
        <time>2016-07-16T06:07:13Z</time>
      </trkpt>
      <trkpt lat="42.96983" lon="-7.63717">
        <ele>541.7</ele>
        <time>2016-07-16T06:07:21Z</time>
      </trkpt>
      <trkpt lat="42.96979" lon="-7.63729">
        <ele>541.7</ele>
        <time>2016-07-16T06:07:29Z</time>
      </trkpt>
      <trkpt lat="42.96975" lon="-7.6374">
        <ele>541.5</ele>
        <time>2016-07-16T06:07:36Z</time>
      </trkpt>
      <trkpt lat="42.96971" lon="-7.63751">
        <ele>541.5</ele>
        <time>2016-07-16T06:07:44Z</time>
      </trkpt>
      <trkpt lat="42.96968" lon="-7.63763">
        <ele>541.5</ele>
        <time>2016-07-16T06:07:52Z</time>
      </trkpt>
      <trkpt lat="42.96963" lon="-7.63775">
        <ele>541.5</ele>
        <time>2016-07-16T06:08:00Z</time>
      </trkpt>
      <trkpt lat="42.96959" lon="-7.63786">
        <ele>541.2</ele>
        <time>2016-07-16T06:08:07Z</time>
      </trkpt>
      <trkpt lat="42.96956" lon="-7.63799">
        <ele>540.8</ele>
        <time>2016-07-16T06:08:15Z</time>
      </trkpt>
      <trkpt lat="42.96953" lon="-7.63811">
        <ele>540.8</ele>
        <time>2016-07-16T06:08:24Z</time>
      </trkpt>
      <trkpt lat="42.96949" lon="-7.63823">
        <ele>541</ele>
        <time>2016-07-16T06:08:34Z</time>
      </trkpt>
      <trkpt lat="42.96946" lon="-7.63835">
        <ele>541.1</ele>
        <time>2016-07-16T06:08:42Z</time>
      </trkpt>
      <trkpt lat="42.96942" lon="-7.63847">
        <ele>541.1</ele>
        <time>2016-07-16T06:08:49Z</time>
      </trkpt>
      <trkpt lat="42.96938" lon="-7.6386">
        <ele>540.6</ele>
        <time>2016-07-16T06:08:56Z</time>
      </trkpt>
      <trkpt lat="42.96935" lon="-7.63871">
        <ele>540.8</ele>
        <time>2016-07-16T06:09:03Z</time>
      </trkpt>
      <trkpt lat="42.96931" lon="-7.63883">
        <ele>541.1</ele>
        <time>2016-07-16T06:09:10Z</time>
      </trkpt>
      <trkpt lat="42.96927" lon="-7.63895">
        <ele>541.3</ele>
        <time>2016-07-16T06:09:18Z</time>
      </trkpt>
      <trkpt lat="42.96925" lon="-7.63907">
        <ele>541.1</ele>
        <time>2016-07-16T06:09:26Z</time>
      </trkpt>
      <trkpt lat="42.96921" lon="-7.6392">
        <ele>541.1</ele>
        <time>2016-07-16T06:09:34Z</time>
      </trkpt>
      <trkpt lat="42.96918" lon="-7.63931">
        <ele>541.1</ele>
        <time>2016-07-16T06:09:41Z</time>
      </trkpt>
      <trkpt lat="42.96916" lon="-7.63943">
        <ele>541.1</ele>
        <time>2016-07-16T06:09:49Z</time>
      </trkpt>
      <trkpt lat="42.96913" lon="-7.63956">
        <ele>541.2</ele>
        <time>2016-07-16T06:09:57Z</time>
      </trkpt>
      <trkpt lat="42.96909" lon="-7.63967">
        <ele>541.1</ele>
        <time>2016-07-16T06:10:05Z</time>
      </trkpt>
      <trkpt lat="42.96907" lon="-7.63979">
        <ele>541</ele>
        <time>2016-07-16T06:10:14Z</time>
      </trkpt>
      <trkpt lat="42.96904" lon="-7.63991">
        <ele>540.9</ele>
        <time>2016-07-16T06:10:23Z</time>
      </trkpt>
      <trkpt lat="42.96903" lon="-7.64004">
        <ele>540.3</ele>
        <time>2016-07-16T06:10:32Z</time>
      </trkpt>
      <trkpt lat="42.969" lon="-7.64016">
        <ele>539.8</ele>
        <time>2016-07-16T06:10:40Z</time>
      </trkpt>
      <trkpt lat="42.96897" lon="-7.64029">
        <ele>538.3</ele>
        <time>2016-07-16T06:10:55Z</time>
      </trkpt>
      <trkpt lat="42.96895" lon="-7.64041">
        <ele>537.6</ele>
        <time>2016-07-16T06:11:04Z</time>
      </trkpt>
      <trkpt lat="42.96895" lon="-7.64053">
        <ele>537.3</ele>
        <time>2016-07-16T06:11:12Z</time>
      </trkpt>
      <trkpt lat="42.96894" lon="-7.64066">
        <ele>537</ele>
        <time>2016-07-16T06:11:21Z</time>
      </trkpt>
      <trkpt lat="42.96895" lon="-7.64079">
        <ele>536.3</ele>
        <time>2016-07-16T06:11:29Z</time>
      </trkpt>
      <trkpt lat="42.96894" lon="-7.64092">
        <ele>536.2</ele>
        <time>2016-07-16T06:11:38Z</time>
      </trkpt>
      <trkpt lat="42.96894" lon="-7.64105">
        <ele>536.1</ele>
        <time>2016-07-16T06:11:47Z</time>
      </trkpt>
      <trkpt lat="42.96892" lon="-7.64117">
        <ele>536.1</ele>
        <time>2016-07-16T06:11:55Z</time>
      </trkpt>
      <trkpt lat="42.96889" lon="-7.64129">
        <ele>535.9</ele>
        <time>2016-07-16T06:12:05Z</time>
      </trkpt>
      <trkpt lat="42.96886" lon="-7.64142">
        <ele>535.3</ele>
        <time>2016-07-16T06:12:15Z</time>
      </trkpt>
      <trkpt lat="42.96884" lon="-7.64154">
        <ele>535.3</ele>
        <time>2016-07-16T06:12:24Z</time>
      </trkpt>
      <trkpt lat="42.96883" lon="-7.64167">
        <ele>535.3</ele>
        <time>2016-07-16T06:12:32Z</time>
      </trkpt>
      <trkpt lat="42.96881" lon="-7.64179">
        <ele>535.2</ele>
        <time>2016-07-16T06:12:40Z</time>
      </trkpt>
      <trkpt lat="42.96879" lon="-7.64192">
        <ele>535.2</ele>
        <time>2016-07-16T06:12:50Z</time>
      </trkpt>
      <trkpt lat="42.96876" lon="-7.64204">
        <ele>535.7</ele>
        <time>2016-07-16T06:13:00Z</time>
      </trkpt>
      <trkpt lat="42.96873" lon="-7.64216">
        <ele>536.3</ele>
        <time>2016-07-16T06:13:08Z</time>
      </trkpt>
      <trkpt lat="42.9687" lon="-7.64229">
        <ele>537.6</ele>
        <time>2016-07-16T06:13:17Z</time>
      </trkpt>
      <trkpt lat="42.96869" lon="-7.64242">
        <ele>539</ele>
        <time>2016-07-16T06:13:28Z</time>
      </trkpt>
      <trkpt lat="42.96867" lon="-7.64254">
        <ele>539.7</ele>
        <time>2016-07-16T06:13:37Z</time>
      </trkpt>
      <trkpt lat="42.96866" lon="-7.64267">
        <ele>541</ele>
        <time>2016-07-16T06:13:48Z</time>
      </trkpt>
      <trkpt lat="42.96866" lon="-7.64281">
        <ele>542</ele>
        <time>2016-07-16T06:13:58Z</time>
      </trkpt>
      <trkpt lat="42.96867" lon="-7.64294">
        <ele>542.8</ele>
        <time>2016-07-16T06:14:07Z</time>
      </trkpt>
      <trkpt lat="42.96867" lon="-7.64307">
        <ele>543.5</ele>
        <time>2016-07-16T06:14:16Z</time>
      </trkpt>
      <trkpt lat="42.96865" lon="-7.64321">
        <ele>544.3</ele>
        <time>2016-07-16T06:14:25Z</time>
      </trkpt>
      <trkpt lat="42.96862" lon="-7.64332">
        <ele>545</ele>
        <time>2016-07-16T06:14:32Z</time>
      </trkpt>
      <trkpt lat="42.96859" lon="-7.64345">
        <ele>545.6</ele>
        <time>2016-07-16T06:14:40Z</time>
      </trkpt>
      <trkpt lat="42.96857" lon="-7.64359">
        <ele>546.6</ele>
        <time>2016-07-16T06:14:50Z</time>
      </trkpt>
      <trkpt lat="42.96858" lon="-7.64372">
        <ele>547.3</ele>
        <time>2016-07-16T06:15:00Z</time>
      </trkpt>
      <trkpt lat="42.96859" lon="-7.64385">
        <ele>547.8</ele>
        <time>2016-07-16T06:15:09Z</time>
      </trkpt>
      <trkpt lat="42.96861" lon="-7.64398">
        <ele>547.7</ele>
        <time>2016-07-16T06:15:18Z</time>
      </trkpt>
      <trkpt lat="42.96864" lon="-7.6441">
        <ele>547.7</ele>
        <time>2016-07-16T06:15:26Z</time>
      </trkpt>
      <trkpt lat="42.96866" lon="-7.64422">
        <ele>547.8</ele>
        <time>2016-07-16T06:15:34Z</time>
      </trkpt>
      <trkpt lat="42.96869" lon="-7.64434">
        <ele>547.8</ele>
        <time>2016-07-16T06:15:42Z</time>
      </trkpt>
      <trkpt lat="42.96873" lon="-7.64446">
        <ele>547.8</ele>
        <time>2016-07-16T06:15:50Z</time>
      </trkpt>
      <trkpt lat="42.96877" lon="-7.64457">
        <ele>547.7</ele>
        <time>2016-07-16T06:15:58Z</time>
      </trkpt>
      <trkpt lat="42.9688" lon="-7.6447">
        <ele>547.4</ele>
        <time>2016-07-16T06:16:07Z</time>
      </trkpt>
      <trkpt lat="42.96882" lon="-7.64483">
        <ele>547.3</ele>
        <time>2016-07-16T06:16:16Z</time>
      </trkpt>
      <trkpt lat="42.96886" lon="-7.64495">
        <ele>547.1</ele>
        <time>2016-07-16T06:16:24Z</time>
      </trkpt>
      <trkpt lat="42.96888" lon="-7.64508">
        <ele>546.9</ele>
        <time>2016-07-16T06:16:32Z</time>
      </trkpt>
      <trkpt lat="42.96888" lon="-7.6452">
        <ele>546.9</ele>
        <time>2016-07-16T06:16:46Z</time>
      </trkpt>
      <trkpt lat="42.96897" lon="-7.64516">
        <ele>547.2</ele>
        <time>2016-07-16T06:17:03Z</time>
      </trkpt>
      <trkpt lat="42.96906" lon="-7.64511">
        <ele>547.1</ele>
        <time>2016-07-16T06:17:13Z</time>
      </trkpt>
      <trkpt lat="42.96915" lon="-7.64507">
        <ele>546.5</ele>
        <time>2016-07-16T06:17:20Z</time>
      </trkpt>
      <trkpt lat="42.96925" lon="-7.64503">
        <ele>546</ele>
        <time>2016-07-16T06:17:28Z</time>
      </trkpt>
      <trkpt lat="42.96934" lon="-7.64499">
        <ele>545.9</ele>
        <time>2016-07-16T06:17:36Z</time>
      </trkpt>
      <trkpt lat="42.96943" lon="-7.64498">
        <ele>545.7</ele>
        <time>2016-07-16T06:17:44Z</time>
      </trkpt>
      <trkpt lat="42.96953" lon="-7.64496">
        <ele>545.4</ele>
        <time>2016-07-16T06:17:53Z</time>
      </trkpt>
      <trkpt lat="42.96962" lon="-7.64493">
        <ele>545.2</ele>
        <time>2016-07-16T06:18:02Z</time>
      </trkpt>
      <trkpt lat="42.96971" lon="-7.6449">
        <ele>544.9</ele>
        <time>2016-07-16T06:18:10Z</time>
      </trkpt>
      <trkpt lat="42.9698" lon="-7.64496">
        <ele>544.6</ele>
        <time>2016-07-16T06:18:19Z</time>
      </trkpt>
      <trkpt lat="42.96989" lon="-7.64501">
        <ele>544.5</ele>
        <time>2016-07-16T06:18:29Z</time>
      </trkpt>
      <trkpt lat="42.96996" lon="-7.6451">
        <ele>543.9</ele>
        <time>2016-07-16T06:18:39Z</time>
      </trkpt>
      <trkpt lat="42.97002" lon="-7.6452">
        <ele>543.5</ele>
        <time>2016-07-16T06:18:48Z</time>
      </trkpt>
      <trkpt lat="42.97007" lon="-7.6453">
        <ele>543.1</ele>
        <time>2016-07-16T06:19:00Z</time>
      </trkpt>
      <trkpt lat="42.97004" lon="-7.64542">
        <ele>542.2</ele>
        <time>2016-07-16T06:19:38Z</time>
      </trkpt>
      <trkpt lat="42.97014" lon="-7.64539">
        <ele>541.3</ele>
        <time>2016-07-16T06:21:53Z</time>
      </trkpt>
      <trkpt lat="42.97007" lon="-7.64528">
        <ele>541</ele>
        <time>2016-07-16T06:22:14Z</time>
      </trkpt>
      <trkpt lat="42.96998" lon="-7.64521">
        <ele>541</ele>
        <time>2016-07-16T06:22:24Z</time>
      </trkpt>
      <trkpt lat="42.97008" lon="-7.64544">
        <ele>541</ele>
        <time>2016-07-16T06:22:32Z</time>
      </trkpt>
      <trkpt lat="42.97012" lon="-7.64567">
        <ele>541</ele>
        <time>2016-07-16T06:22:36Z</time>
      </trkpt>
      <trkpt lat="42.97013" lon="-7.64554">
        <ele>541</ele>
        <time>2016-07-16T06:22:40Z</time>
      </trkpt>
      <trkpt lat="42.97005" lon="-7.64564">
        <ele>540</ele>
        <time>2016-07-16T06:23:00Z</time>
      </trkpt>
      <trkpt lat="42.96999" lon="-7.64552">
        <ele>541</ele>
        <time>2016-07-16T06:23:10Z</time>
      </trkpt>
      <trkpt lat="42.97009" lon="-7.64553">
        <ele>541</ele>
        <time>2016-07-16T06:23:18Z</time>
      </trkpt>
      <trkpt lat="42.97016" lon="-7.64566">
        <ele>541</ele>
        <time>2016-07-16T06:23:30Z</time>
      </trkpt>
      <trkpt lat="42.97005" lon="-7.64562">
        <ele>541.8</ele>
        <time>2016-07-16T06:23:55Z</time>
      </trkpt>
      <trkpt lat="42.96999" lon="-7.64545">
        <ele>540</ele>
        <time>2016-07-16T06:24:20Z</time>
      </trkpt>
      <trkpt lat="42.96992" lon="-7.64537">
        <ele>540.4</ele>
        <time>2016-07-16T06:24:24Z</time>
      </trkpt>
      <trkpt lat="42.97003" lon="-7.64547">
        <ele>541.7</ele>
        <time>2016-07-16T06:24:48Z</time>
      </trkpt>
      <trkpt lat="42.97006" lon="-7.64535">
        <ele>542</ele>
        <time>2016-07-16T06:25:52Z</time>
      </trkpt>
      <trkpt lat="42.97006" lon="-7.64547">
        <ele>541.8</ele>
        <time>2016-07-16T06:26:48Z</time>
      </trkpt>
      <trkpt lat="42.97004" lon="-7.64534">
        <ele>542.2</ele>
        <time>2016-07-16T06:29:17Z</time>
      </trkpt>
      <trkpt lat="42.97002" lon="-7.64522">
        <ele>542.3</ele>
        <time>2016-07-16T06:29:27Z</time>
      </trkpt>
      <trkpt lat="42.97" lon="-7.6451">
        <ele>542.6</ele>
        <time>2016-07-16T06:29:38Z</time>
      </trkpt>
      <trkpt lat="42.96993" lon="-7.64501">
        <ele>542.7</ele>
        <time>2016-07-16T06:29:49Z</time>
      </trkpt>
      <trkpt lat="42.96984" lon="-7.64495">
        <ele>542.6</ele>
        <time>2016-07-16T06:29:58Z</time>
      </trkpt>
      <trkpt lat="42.96975" lon="-7.64489">
        <ele>543.3</ele>
        <time>2016-07-16T06:30:07Z</time>
      </trkpt>
      <trkpt lat="42.96966" lon="-7.64489">
        <ele>543.5</ele>
        <time>2016-07-16T06:30:16Z</time>
      </trkpt>
      <trkpt lat="42.96957" lon="-7.64493">
        <ele>544</ele>
        <time>2016-07-16T06:30:31Z</time>
      </trkpt>
      <trkpt lat="42.96948" lon="-7.64497">
        <ele>544.5</ele>
        <time>2016-07-16T06:30:40Z</time>
      </trkpt>
      <trkpt lat="42.96938" lon="-7.64499">
        <ele>545</ele>
        <time>2016-07-16T06:30:50Z</time>
      </trkpt>
      <trkpt lat="42.96928" lon="-7.64503">
        <ele>545.2</ele>
        <time>2016-07-16T06:30:59Z</time>
      </trkpt>
      <trkpt lat="42.96918" lon="-7.64506">
        <ele>545.5</ele>
        <time>2016-07-16T06:31:08Z</time>
      </trkpt>
      <trkpt lat="42.96909" lon="-7.64509">
        <ele>545.9</ele>
        <time>2016-07-16T06:31:17Z</time>
      </trkpt>
      <trkpt lat="42.96899" lon="-7.64511">
        <ele>546.2</ele>
        <time>2016-07-16T06:31:26Z</time>
      </trkpt>
      <trkpt lat="42.9689" lon="-7.64513">
        <ele>546.2</ele>
        <time>2016-07-16T06:31:36Z</time>
      </trkpt>
      <trkpt lat="42.96885" lon="-7.64525">
        <ele>546.7</ele>
        <time>2016-07-16T06:31:45Z</time>
      </trkpt>
      <trkpt lat="42.96883" lon="-7.64538">
        <ele>546.8</ele>
        <time>2016-07-16T06:31:53Z</time>
      </trkpt>
      <trkpt lat="42.96882" lon="-7.64552">
        <ele>546.6</ele>
        <time>2016-07-16T06:32:01Z</time>
      </trkpt>
      <trkpt lat="42.96882" lon="-7.64564">
        <ele>546.5</ele>
        <time>2016-07-16T06:32:13Z</time>
      </trkpt>
      <trkpt lat="42.96884" lon="-7.64577">
        <ele>546</ele>
        <time>2016-07-16T06:32:21Z</time>
      </trkpt>
      <trkpt lat="42.96886" lon="-7.64589">
        <ele>546</ele>
        <time>2016-07-16T06:32:30Z</time>
      </trkpt>
      <trkpt lat="42.96888" lon="-7.64601">
        <ele>546</ele>
        <time>2016-07-16T06:32:41Z</time>
      </trkpt>
      <trkpt lat="42.9689" lon="-7.64615">
        <ele>546</ele>
        <time>2016-07-16T06:32:49Z</time>
      </trkpt>
      <trkpt lat="42.96893" lon="-7.64628">
        <ele>545.9</ele>
        <time>2016-07-16T06:32:58Z</time>
      </trkpt>
      <trkpt lat="42.96895" lon="-7.64641">
        <ele>545.8</ele>
        <time>2016-07-16T06:33:06Z</time>
      </trkpt>
      <trkpt lat="42.96896" lon="-7.64655">
        <ele>545.5</ele>
        <time>2016-07-16T06:33:14Z</time>
      </trkpt>
      <trkpt lat="42.96898" lon="-7.64668">
        <ele>545.2</ele>
        <time>2016-07-16T06:33:22Z</time>
      </trkpt>
      <trkpt lat="42.969" lon="-7.64681">
        <ele>545.2</ele>
        <time>2016-07-16T06:33:30Z</time>
      </trkpt>
      <trkpt lat="42.96902" lon="-7.64693">
        <ele>545</ele>
        <time>2016-07-16T06:33:38Z</time>
      </trkpt>
      <trkpt lat="42.96904" lon="-7.64707">
        <ele>545</ele>
        <time>2016-07-16T06:33:47Z</time>
      </trkpt>
      <trkpt lat="42.96906" lon="-7.64719">
        <ele>544.8</ele>
        <time>2016-07-16T06:33:55Z</time>
      </trkpt>
      <trkpt lat="42.9691" lon="-7.6473">
        <ele>544.6</ele>
        <time>2016-07-16T06:34:03Z</time>
      </trkpt>
      <trkpt lat="42.96914" lon="-7.64742">
        <ele>544.5</ele>
        <time>2016-07-16T06:34:11Z</time>
      </trkpt>
      <trkpt lat="42.9692" lon="-7.64753">
        <ele>544</ele>
        <time>2016-07-16T06:34:19Z</time>
      </trkpt>
      <trkpt lat="42.96925" lon="-7.64763">
        <ele>543.9</ele>
        <time>2016-07-16T06:34:27Z</time>
      </trkpt>
      <trkpt lat="42.9693" lon="-7.64774">
        <ele>543.2</ele>
        <time>2016-07-16T06:34:36Z</time>
      </trkpt>
      <trkpt lat="42.96934" lon="-7.64787">
        <ele>542.5</ele>
        <time>2016-07-16T06:34:45Z</time>
      </trkpt>
      <trkpt lat="42.96938" lon="-7.64798">
        <ele>542.1</ele>
        <time>2016-07-16T06:34:54Z</time>
      </trkpt>
      <trkpt lat="42.96945" lon="-7.64808">
        <ele>541.4</ele>
        <time>2016-07-16T06:35:03Z</time>
      </trkpt>
      <trkpt lat="42.96951" lon="-7.64818">
        <ele>540.6</ele>
        <time>2016-07-16T06:35:11Z</time>
      </trkpt>
      <trkpt lat="42.96956" lon="-7.64829">
        <ele>539.7</ele>
        <time>2016-07-16T06:35:19Z</time>
      </trkpt>
      <trkpt lat="42.96958" lon="-7.64842">
        <ele>538.6</ele>
        <time>2016-07-16T06:35:28Z</time>
      </trkpt>
      <trkpt lat="42.96958" lon="-7.64855">
        <ele>537.5</ele>
        <time>2016-07-16T06:35:37Z</time>
      </trkpt>
      <trkpt lat="42.96957" lon="-7.64868">
        <ele>536.7</ele>
        <time>2016-07-16T06:35:46Z</time>
      </trkpt>
      <trkpt lat="42.96956" lon="-7.64881">
        <ele>535.9</ele>
        <time>2016-07-16T06:35:55Z</time>
      </trkpt>
      <trkpt lat="42.96955" lon="-7.64894">
        <ele>534.9</ele>
        <time>2016-07-16T06:36:04Z</time>
      </trkpt>
      <trkpt lat="42.96953" lon="-7.64907">
        <ele>534.4</ele>
        <time>2016-07-16T06:36:13Z</time>
      </trkpt>
      <trkpt lat="42.96951" lon="-7.6492">
        <ele>534</ele>
        <time>2016-07-16T06:36:21Z</time>
      </trkpt>
      <trkpt lat="42.96946" lon="-7.6493">
        <ele>533.6</ele>
        <time>2016-07-16T06:36:29Z</time>
      </trkpt>
      <trkpt lat="42.96943" lon="-7.64942">
        <ele>533.4</ele>
        <time>2016-07-16T06:36:37Z</time>
      </trkpt>
      <trkpt lat="42.9694" lon="-7.64955">
        <ele>533.4</ele>
        <time>2016-07-16T06:36:45Z</time>
      </trkpt>
      <trkpt lat="42.96939" lon="-7.64968">
        <ele>533.7</ele>
        <time>2016-07-16T06:36:53Z</time>
      </trkpt>
      <trkpt lat="42.96938" lon="-7.64981">
        <ele>534.6</ele>
        <time>2016-07-16T06:37:01Z</time>
      </trkpt>
      <trkpt lat="42.96939" lon="-7.64993">
        <ele>535.1</ele>
        <time>2016-07-16T06:37:10Z</time>
      </trkpt>
      <trkpt lat="42.9694" lon="-7.65005">
        <ele>536.4</ele>
        <time>2016-07-16T06:37:40Z</time>
      </trkpt>
      <trkpt lat="42.96934" lon="-7.65016">
        <ele>536</ele>
        <time>2016-07-16T06:38:17Z</time>
      </trkpt>
      <trkpt lat="42.9693" lon="-7.65027">
        <ele>536.3</ele>
        <time>2016-07-16T06:38:28Z</time>
      </trkpt>
      <trkpt lat="42.96929" lon="-7.6504">
        <ele>536.5</ele>
        <time>2016-07-16T06:38:38Z</time>
      </trkpt>
      <trkpt lat="42.96929" lon="-7.65053">
        <ele>537.2</ele>
        <time>2016-07-16T06:38:47Z</time>
      </trkpt>
      <trkpt lat="42.96928" lon="-7.65066">
        <ele>538.2</ele>
        <time>2016-07-16T06:38:56Z</time>
      </trkpt>
      <trkpt lat="42.96927" lon="-7.65079">
        <ele>539.1</ele>
        <time>2016-07-16T06:39:05Z</time>
      </trkpt>
      <trkpt lat="42.96926" lon="-7.65091">
        <ele>539.7</ele>
        <time>2016-07-16T06:39:14Z</time>
      </trkpt>
      <trkpt lat="42.96925" lon="-7.65104">
        <ele>540.3</ele>
        <time>2016-07-16T06:39:23Z</time>
      </trkpt>
      <trkpt lat="42.96923" lon="-7.65116">
        <ele>540.5</ele>
        <time>2016-07-16T06:39:32Z</time>
      </trkpt>
      <trkpt lat="42.96922" lon="-7.65129">
        <ele>541.7</ele>
        <time>2016-07-16T06:39:41Z</time>
      </trkpt>
      <trkpt lat="42.96921" lon="-7.65142">
        <ele>542.1</ele>
        <time>2016-07-16T06:39:50Z</time>
      </trkpt>
      <trkpt lat="42.96919" lon="-7.65155">
        <ele>542.2</ele>
        <time>2016-07-16T06:39:59Z</time>
      </trkpt>
      <trkpt lat="42.96918" lon="-7.65168">
        <ele>542.7</ele>
        <time>2016-07-16T06:40:08Z</time>
      </trkpt>
      <trkpt lat="42.96916" lon="-7.6518">
        <ele>543.3</ele>
        <time>2016-07-16T06:40:16Z</time>
      </trkpt>
      <trkpt lat="42.96916" lon="-7.65193">
        <ele>543.6</ele>
        <time>2016-07-16T06:40:24Z</time>
      </trkpt>
      <trkpt lat="42.96914" lon="-7.65206">
        <ele>543.7</ele>
        <time>2016-07-16T06:40:32Z</time>
      </trkpt>
      <trkpt lat="42.96912" lon="-7.65219">
        <ele>543.7</ele>
        <time>2016-07-16T06:40:40Z</time>
      </trkpt>
      <trkpt lat="42.96911" lon="-7.65232">
        <ele>543.8</ele>
        <time>2016-07-16T06:40:49Z</time>
      </trkpt>
      <trkpt lat="42.96909" lon="-7.65245">
        <ele>544</ele>
        <time>2016-07-16T06:40:58Z</time>
      </trkpt>
      <trkpt lat="42.96908" lon="-7.65258">
        <ele>544.3</ele>
        <time>2016-07-16T06:41:07Z</time>
      </trkpt>
      <trkpt lat="42.96908" lon="-7.65271">
        <ele>544.7</ele>
        <time>2016-07-16T06:41:16Z</time>
      </trkpt>
      <trkpt lat="42.96907" lon="-7.65283">
        <ele>544.8</ele>
        <time>2016-07-16T06:41:24Z</time>
      </trkpt>
      <trkpt lat="42.96905" lon="-7.65296">
        <ele>544.5</ele>
        <time>2016-07-16T06:41:32Z</time>
      </trkpt>
      <trkpt lat="42.96904" lon="-7.65309">
        <ele>544.4</ele>
        <time>2016-07-16T06:41:39Z</time>
      </trkpt>
      <trkpt lat="42.96902" lon="-7.65322">
        <ele>545.2</ele>
        <time>2016-07-16T06:41:47Z</time>
      </trkpt>
      <trkpt lat="42.96902" lon="-7.65335">
        <ele>545.4</ele>
        <time>2016-07-16T06:41:55Z</time>
      </trkpt>
      <trkpt lat="42.96902" lon="-7.65349">
        <ele>545.3</ele>
        <time>2016-07-16T06:42:04Z</time>
      </trkpt>
      <trkpt lat="42.96902" lon="-7.65363">
        <ele>545.2</ele>
        <time>2016-07-16T06:42:13Z</time>
      </trkpt>
      <trkpt lat="42.96901" lon="-7.65376">
        <ele>545</ele>
        <time>2016-07-16T06:42:21Z</time>
      </trkpt>
      <trkpt lat="42.969" lon="-7.65389">
        <ele>544.3</ele>
        <time>2016-07-16T06:42:29Z</time>
      </trkpt>
      <trkpt lat="42.96898" lon="-7.65402">
        <ele>543.9</ele>
        <time>2016-07-16T06:42:37Z</time>
      </trkpt>
      <trkpt lat="42.96896" lon="-7.65415">
        <ele>543.3</ele>
        <time>2016-07-16T06:42:45Z</time>
      </trkpt>
      <trkpt lat="42.96894" lon="-7.65427">
        <ele>543</ele>
        <time>2016-07-16T06:42:52Z</time>
      </trkpt>
      <trkpt lat="42.96893" lon="-7.6544">
        <ele>542.4</ele>
        <time>2016-07-16T06:43:00Z</time>
      </trkpt>
      <trkpt lat="42.96892" lon="-7.65452">
        <ele>542</ele>
        <time>2016-07-16T06:43:08Z</time>
      </trkpt>
      <trkpt lat="42.96892" lon="-7.65466">
        <ele>541.3</ele>
        <time>2016-07-16T06:43:16Z</time>
      </trkpt>
      <trkpt lat="42.96891" lon="-7.65478">
        <ele>541</ele>
        <time>2016-07-16T06:43:23Z</time>
      </trkpt>
      <trkpt lat="42.96891" lon="-7.65492">
        <ele>540.6</ele>
        <time>2016-07-16T06:43:31Z</time>
      </trkpt>
      <trkpt lat="42.96889" lon="-7.65505">
        <ele>540</ele>
        <time>2016-07-16T06:43:39Z</time>
      </trkpt>
      <trkpt lat="42.96887" lon="-7.65518">
        <ele>539.5</ele>
        <time>2016-07-16T06:43:47Z</time>
      </trkpt>
      <trkpt lat="42.96885" lon="-7.6553">
        <ele>538.8</ele>
        <time>2016-07-16T06:43:54Z</time>
      </trkpt>
      <trkpt lat="42.96884" lon="-7.65543">
        <ele>538.2</ele>
        <time>2016-07-16T06:44:01Z</time>
      </trkpt>
      <trkpt lat="42.96882" lon="-7.65555">
        <ele>537.7</ele>
        <time>2016-07-16T06:44:08Z</time>
      </trkpt>
      <trkpt lat="42.9688" lon="-7.65568">
        <ele>537.3</ele>
        <time>2016-07-16T06:44:16Z</time>
      </trkpt>
      <trkpt lat="42.96879" lon="-7.65581">
        <ele>537.1</ele>
        <time>2016-07-16T06:44:24Z</time>
      </trkpt>
      <trkpt lat="42.96877" lon="-7.65594">
        <ele>536.4</ele>
        <time>2016-07-16T06:44:32Z</time>
      </trkpt>
      <trkpt lat="42.96875" lon="-7.65607">
        <ele>536</ele>
        <time>2016-07-16T06:44:41Z</time>
      </trkpt>
      <trkpt lat="42.96873" lon="-7.65619">
        <ele>535.6</ele>
        <time>2016-07-16T06:44:49Z</time>
      </trkpt>
      <trkpt lat="42.96872" lon="-7.65632">
        <ele>535.6</ele>
        <time>2016-07-16T06:44:57Z</time>
      </trkpt>
      <trkpt lat="42.9687" lon="-7.65645">
        <ele>535.5</ele>
        <time>2016-07-16T06:45:05Z</time>
      </trkpt>
      <trkpt lat="42.96869" lon="-7.65658">
        <ele>535.6</ele>
        <time>2016-07-16T06:45:13Z</time>
      </trkpt>
      <trkpt lat="42.96868" lon="-7.65672">
        <ele>535.8</ele>
        <time>2016-07-16T06:45:22Z</time>
      </trkpt>
      <trkpt lat="42.96867" lon="-7.65686">
        <ele>536</ele>
        <time>2016-07-16T06:45:31Z</time>
      </trkpt>
      <trkpt lat="42.96866" lon="-7.65699">
        <ele>536.8</ele>
        <time>2016-07-16T06:45:40Z</time>
      </trkpt>
      <trkpt lat="42.96864" lon="-7.65712">
        <ele>537.1</ele>
        <time>2016-07-16T06:45:49Z</time>
      </trkpt>
      <trkpt lat="42.96862" lon="-7.65725">
        <ele>537.4</ele>
        <time>2016-07-16T06:45:58Z</time>
      </trkpt>
      <trkpt lat="42.96861" lon="-7.65737">
        <ele>537.6</ele>
        <time>2016-07-16T06:46:06Z</time>
      </trkpt>
      <trkpt lat="42.96859" lon="-7.6575">
        <ele>538.1</ele>
        <time>2016-07-16T06:46:14Z</time>
      </trkpt>
      <trkpt lat="42.96858" lon="-7.65763">
        <ele>539</ele>
        <time>2016-07-16T06:46:22Z</time>
      </trkpt>
      <trkpt lat="42.96857" lon="-7.65775">
        <ele>539.5</ele>
        <time>2016-07-16T06:46:30Z</time>
      </trkpt>
      <trkpt lat="42.96856" lon="-7.65788">
        <ele>539.7</ele>
        <time>2016-07-16T06:46:38Z</time>
      </trkpt>
      <trkpt lat="42.96855" lon="-7.65801">
        <ele>540</ele>
        <time>2016-07-16T06:46:46Z</time>
      </trkpt>
      <trkpt lat="42.96854" lon="-7.65813">
        <ele>540.4</ele>
        <time>2016-07-16T06:46:54Z</time>
      </trkpt>
      <trkpt lat="42.96853" lon="-7.65826">
        <ele>540.7</ele>
        <time>2016-07-16T06:47:02Z</time>
      </trkpt>
      <trkpt lat="42.96852" lon="-7.65839">
        <ele>541.1</ele>
        <time>2016-07-16T06:47:10Z</time>
      </trkpt>
      <trkpt lat="42.96851" lon="-7.65852">
        <ele>541.7</ele>
        <time>2016-07-16T06:47:19Z</time>
      </trkpt>
      <trkpt lat="42.96849" lon="-7.65865">
        <ele>542.2</ele>
        <time>2016-07-16T06:47:27Z</time>
      </trkpt>
      <trkpt lat="42.96847" lon="-7.65877">
        <ele>542.4</ele>
        <time>2016-07-16T06:47:35Z</time>
      </trkpt>
      <trkpt lat="42.96846" lon="-7.65891">
        <ele>542.9</ele>
        <time>2016-07-16T06:47:43Z</time>
      </trkpt>
      <trkpt lat="42.96844" lon="-7.65903">
        <ele>543</ele>
        <time>2016-07-16T06:47:51Z</time>
      </trkpt>
      <trkpt lat="42.96842" lon="-7.65916">
        <ele>542.9</ele>
        <time>2016-07-16T06:48:00Z</time>
      </trkpt>
      <trkpt lat="42.9684" lon="-7.65929">
        <ele>542.8</ele>
        <time>2016-07-16T06:48:08Z</time>
      </trkpt>
      <trkpt lat="42.96837" lon="-7.65941">
        <ele>542.4</ele>
        <time>2016-07-16T06:48:16Z</time>
      </trkpt>
      <trkpt lat="42.96833" lon="-7.65953">
        <ele>542.2</ele>
        <time>2016-07-16T06:48:24Z</time>
      </trkpt>
      <trkpt lat="42.96829" lon="-7.65965">
        <ele>541.9</ele>
        <time>2016-07-16T06:48:32Z</time>
      </trkpt>
      <trkpt lat="42.96824" lon="-7.65976">
        <ele>541.8</ele>
        <time>2016-07-16T06:48:40Z</time>
      </trkpt>
      <trkpt lat="42.96819" lon="-7.65988">
        <ele>541.6</ele>
        <time>2016-07-16T06:48:48Z</time>
      </trkpt>
      <trkpt lat="42.96816" lon="-7.66">
        <ele>541.3</ele>
        <time>2016-07-16T06:48:56Z</time>
      </trkpt>
      <trkpt lat="42.96811" lon="-7.66011">
        <ele>541</ele>
        <time>2016-07-16T06:49:04Z</time>
      </trkpt>
      <trkpt lat="42.96807" lon="-7.66023">
        <ele>540.9</ele>
        <time>2016-07-16T06:49:12Z</time>
      </trkpt>
      <trkpt lat="42.96803" lon="-7.66034">
        <ele>540.8</ele>
        <time>2016-07-16T06:49:21Z</time>
      </trkpt>
      <trkpt lat="42.96798" lon="-7.66046">
        <ele>540.8</ele>
        <time>2016-07-16T06:49:29Z</time>
      </trkpt>
      <trkpt lat="42.96793" lon="-7.66058">
        <ele>540.4</ele>
        <time>2016-07-16T06:49:38Z</time>
      </trkpt>
      <trkpt lat="42.96789" lon="-7.6607">
        <ele>540.1</ele>
        <time>2016-07-16T06:49:47Z</time>
      </trkpt>
      <trkpt lat="42.96785" lon="-7.66082">
        <ele>540</ele>
        <time>2016-07-16T06:49:56Z</time>
      </trkpt>
      <trkpt lat="42.96781" lon="-7.66094">
        <ele>539.6</ele>
        <time>2016-07-16T06:50:05Z</time>
      </trkpt>
      <trkpt lat="42.96777" lon="-7.66106">
        <ele>539.1</ele>
        <time>2016-07-16T06:50:14Z</time>
      </trkpt>
      <trkpt lat="42.96776" lon="-7.66119">
        <ele>539.1</ele>
        <time>2016-07-16T06:50:24Z</time>
      </trkpt>
      <trkpt lat="42.96772" lon="-7.6613">
        <ele>538.4</ele>
        <time>2016-07-16T06:51:00Z</time>
      </trkpt>
      <trkpt lat="42.96769" lon="-7.66143">
        <ele>538.1</ele>
        <time>2016-07-16T06:51:27Z</time>
      </trkpt>
      <trkpt lat="42.96765" lon="-7.66154">
        <ele>538.2</ele>
        <time>2016-07-16T06:51:36Z</time>
      </trkpt>
      <trkpt lat="42.96757" lon="-7.6616">
        <ele>538.1</ele>
        <time>2016-07-16T06:51:45Z</time>
      </trkpt>
      <trkpt lat="42.9675" lon="-7.66169">
        <ele>537.9</ele>
        <time>2016-07-16T06:51:54Z</time>
      </trkpt>
      <trkpt lat="42.96744" lon="-7.66178">
        <ele>537.6</ele>
        <time>2016-07-16T06:52:02Z</time>
      </trkpt>
      <trkpt lat="42.96737" lon="-7.66188">
        <ele>538</ele>
        <time>2016-07-16T06:52:11Z</time>
      </trkpt>
      <trkpt lat="42.9673" lon="-7.66198">
        <ele>538.2</ele>
        <time>2016-07-16T06:52:20Z</time>
      </trkpt>
      <trkpt lat="42.96724" lon="-7.66208">
        <ele>538.3</ele>
        <time>2016-07-16T06:52:29Z</time>
      </trkpt>
      <trkpt lat="42.96717" lon="-7.66217">
        <ele>538.6</ele>
        <time>2016-07-16T06:52:38Z</time>
      </trkpt>
      <trkpt lat="42.96711" lon="-7.66226">
        <ele>538.8</ele>
        <time>2016-07-16T06:52:46Z</time>
      </trkpt>
      <trkpt lat="42.96704" lon="-7.66235">
        <ele>539.2</ele>
        <time>2016-07-16T06:52:54Z</time>
      </trkpt>
      <trkpt lat="42.96697" lon="-7.66244">
        <ele>539.5</ele>
        <time>2016-07-16T06:53:03Z</time>
      </trkpt>
      <trkpt lat="42.9669" lon="-7.66252">
        <ele>540.1</ele>
        <time>2016-07-16T06:53:11Z</time>
      </trkpt>
      <trkpt lat="42.96684" lon="-7.66262">
        <ele>540.7</ele>
        <time>2016-07-16T06:53:20Z</time>
      </trkpt>
      <trkpt lat="42.96677" lon="-7.66271">
        <ele>541.1</ele>
        <time>2016-07-16T06:53:28Z</time>
      </trkpt>
      <trkpt lat="42.9667" lon="-7.66281">
        <ele>541.3</ele>
        <time>2016-07-16T06:53:37Z</time>
      </trkpt>
      <trkpt lat="42.96664" lon="-7.66291">
        <ele>541.9</ele>
        <time>2016-07-16T06:53:46Z</time>
      </trkpt>
      <trkpt lat="42.96658" lon="-7.663">
        <ele>542.2</ele>
        <time>2016-07-16T06:53:55Z</time>
      </trkpt>
      <trkpt lat="42.96651" lon="-7.66309">
        <ele>542.6</ele>
        <time>2016-07-16T06:54:04Z</time>
      </trkpt>
      <trkpt lat="42.96644" lon="-7.66319">
        <ele>543.4</ele>
        <time>2016-07-16T06:54:13Z</time>
      </trkpt>
      <trkpt lat="42.96637" lon="-7.66328">
        <ele>543.9</ele>
        <time>2016-07-16T06:54:22Z</time>
      </trkpt>
      <trkpt lat="42.9663" lon="-7.66337">
        <ele>544.2</ele>
        <time>2016-07-16T06:54:31Z</time>
      </trkpt>
      <trkpt lat="42.96623" lon="-7.66346">
        <ele>544.6</ele>
        <time>2016-07-16T06:54:40Z</time>
      </trkpt>
      <trkpt lat="42.96616" lon="-7.66354">
        <ele>545</ele>
        <time>2016-07-16T06:54:48Z</time>
      </trkpt>
      <trkpt lat="42.96609" lon="-7.66361">
        <ele>545.3</ele>
        <time>2016-07-16T06:54:56Z</time>
      </trkpt>
      <trkpt lat="42.96601" lon="-7.66371">
        <ele>545.4</ele>
        <time>2016-07-16T06:55:05Z</time>
      </trkpt>
      <trkpt lat="42.96595" lon="-7.66379">
        <ele>545.8</ele>
        <time>2016-07-16T06:55:14Z</time>
      </trkpt>
      <trkpt lat="42.96588" lon="-7.66388">
        <ele>546.8</ele>
        <time>2016-07-16T06:55:23Z</time>
      </trkpt>
      <trkpt lat="42.96581" lon="-7.66397">
        <ele>547.3</ele>
        <time>2016-07-16T06:55:32Z</time>
      </trkpt>
      <trkpt lat="42.96574" lon="-7.66407">
        <ele>547.6</ele>
        <time>2016-07-16T06:55:41Z</time>
      </trkpt>
      <trkpt lat="42.96568" lon="-7.66418">
        <ele>547.8</ele>
        <time>2016-07-16T06:55:49Z</time>
      </trkpt>
      <trkpt lat="42.96563" lon="-7.66428">
        <ele>548.1</ele>
        <time>2016-07-16T06:55:57Z</time>
      </trkpt>
      <trkpt lat="42.96559" lon="-7.66439">
        <ele>548.4</ele>
        <time>2016-07-16T06:56:06Z</time>
      </trkpt>
      <trkpt lat="42.96554" lon="-7.6645">
        <ele>548.7</ele>
        <time>2016-07-16T06:56:15Z</time>
      </trkpt>
      <trkpt lat="42.9655" lon="-7.66462">
        <ele>549.1</ele>
        <time>2016-07-16T06:56:23Z</time>
      </trkpt>
      <trkpt lat="42.96546" lon="-7.66474">
        <ele>549.5</ele>
        <time>2016-07-16T06:56:31Z</time>
      </trkpt>
      <trkpt lat="42.96541" lon="-7.66485">
        <ele>549.8</ele>
        <time>2016-07-16T06:56:39Z</time>
      </trkpt>
      <trkpt lat="42.96537" lon="-7.66497">
        <ele>550.1</ele>
        <time>2016-07-16T06:56:48Z</time>
      </trkpt>
      <trkpt lat="42.96532" lon="-7.66509">
        <ele>550.9</ele>
        <time>2016-07-16T06:56:57Z</time>
      </trkpt>
      <trkpt lat="42.96527" lon="-7.6652">
        <ele>551.4</ele>
        <time>2016-07-16T06:57:06Z</time>
      </trkpt>
      <trkpt lat="42.96523" lon="-7.66532">
        <ele>551.9</ele>
        <time>2016-07-16T06:57:15Z</time>
      </trkpt>
      <trkpt lat="42.96518" lon="-7.66543">
        <ele>552.2</ele>
        <time>2016-07-16T06:57:24Z</time>
      </trkpt>
      <trkpt lat="42.96515" lon="-7.66555">
        <ele>552.7</ele>
        <time>2016-07-16T06:57:32Z</time>
      </trkpt>
      <trkpt lat="42.9651" lon="-7.66567">
        <ele>552.9</ele>
        <time>2016-07-16T06:57:41Z</time>
      </trkpt>
      <trkpt lat="42.96507" lon="-7.66579">
        <ele>553.2</ele>
        <time>2016-07-16T06:57:50Z</time>
      </trkpt>
      <trkpt lat="42.96502" lon="-7.6659">
        <ele>553.6</ele>
        <time>2016-07-16T06:58:00Z</time>
      </trkpt>
      <trkpt lat="42.96498" lon="-7.66602">
        <ele>553.8</ele>
        <time>2016-07-16T06:58:10Z</time>
      </trkpt>
      <trkpt lat="42.96494" lon="-7.66613">
        <ele>554.9</ele>
        <time>2016-07-16T06:58:19Z</time>
      </trkpt>
      <trkpt lat="42.9649" lon="-7.66625">
        <ele>555.3</ele>
        <time>2016-07-16T06:58:28Z</time>
      </trkpt>
      <trkpt lat="42.96485" lon="-7.66635">
        <ele>555.3</ele>
        <time>2016-07-16T06:58:36Z</time>
      </trkpt>
      <trkpt lat="42.9648" lon="-7.66646">
        <ele>556</ele>
        <time>2016-07-16T06:58:44Z</time>
      </trkpt>
      <trkpt lat="42.96476" lon="-7.66658">
        <ele>556.6</ele>
        <time>2016-07-16T06:58:53Z</time>
      </trkpt>
      <trkpt lat="42.96471" lon="-7.6667">
        <ele>556.7</ele>
        <time>2016-07-16T06:59:02Z</time>
      </trkpt>
      <trkpt lat="42.96467" lon="-7.66681">
        <ele>557.3</ele>
        <time>2016-07-16T06:59:10Z</time>
      </trkpt>
      <trkpt lat="42.96463" lon="-7.66693">
        <ele>557.6</ele>
        <time>2016-07-16T06:59:19Z</time>
      </trkpt>
      <trkpt lat="42.96459" lon="-7.66706">
        <ele>557.9</ele>
        <time>2016-07-16T06:59:28Z</time>
      </trkpt>
      <trkpt lat="42.96455" lon="-7.66718">
        <ele>558.8</ele>
        <time>2016-07-16T06:59:37Z</time>
      </trkpt>
      <trkpt lat="42.96451" lon="-7.66729">
        <ele>559.5</ele>
        <time>2016-07-16T06:59:46Z</time>
      </trkpt>
      <trkpt lat="42.96446" lon="-7.66739">
        <ele>561.9</ele>
        <time>2016-07-16T07:00:29Z</time>
      </trkpt>
      <trkpt lat="42.96442" lon="-7.66751">
        <ele>561.9</ele>
        <time>2016-07-16T07:02:14Z</time>
      </trkpt>
      <trkpt lat="42.96437" lon="-7.66762">
        <ele>562</ele>
        <time>2016-07-16T07:02:22Z</time>
      </trkpt>
      <trkpt lat="42.96433" lon="-7.66773">
        <ele>562.1</ele>
        <time>2016-07-16T07:02:30Z</time>
      </trkpt>
      <trkpt lat="42.96428" lon="-7.66785">
        <ele>562.3</ele>
        <time>2016-07-16T07:02:38Z</time>
      </trkpt>
      <trkpt lat="42.96423" lon="-7.66796">
        <ele>562.8</ele>
        <time>2016-07-16T07:02:46Z</time>
      </trkpt>
      <trkpt lat="42.96419" lon="-7.66807">
        <ele>563.3</ele>
        <time>2016-07-16T07:02:54Z</time>
      </trkpt>
      <trkpt lat="42.96414" lon="-7.66818">
        <ele>563.7</ele>
        <time>2016-07-16T07:03:02Z</time>
      </trkpt>
      <trkpt lat="42.96408" lon="-7.66829">
        <ele>564.2</ele>
        <time>2016-07-16T07:03:10Z</time>
      </trkpt>
      <trkpt lat="42.96404" lon="-7.66841">
        <ele>565.1</ele>
        <time>2016-07-16T07:03:19Z</time>
      </trkpt>
      <trkpt lat="42.964" lon="-7.66853">
        <ele>565.7</ele>
        <time>2016-07-16T07:03:28Z</time>
      </trkpt>
      <trkpt lat="42.96396" lon="-7.66865">
        <ele>565.6</ele>
        <time>2016-07-16T07:03:37Z</time>
      </trkpt>
      <trkpt lat="42.96391" lon="-7.66876">
        <ele>566.2</ele>
        <time>2016-07-16T07:03:45Z</time>
      </trkpt>
      <trkpt lat="42.96387" lon="-7.66887">
        <ele>566.9</ele>
        <time>2016-07-16T07:03:53Z</time>
      </trkpt>
      <trkpt lat="42.96382" lon="-7.66899">
        <ele>567.7</ele>
        <time>2016-07-16T07:04:02Z</time>
      </trkpt>
      <trkpt lat="42.96378" lon="-7.66911">
        <ele>568.4</ele>
        <time>2016-07-16T07:04:10Z</time>
      </trkpt>
      <trkpt lat="42.96374" lon="-7.66922">
        <ele>569</ele>
        <time>2016-07-16T07:04:18Z</time>
      </trkpt>
      <trkpt lat="42.96369" lon="-7.66934">
        <ele>568.9</ele>
        <time>2016-07-16T07:04:26Z</time>
      </trkpt>
      <trkpt lat="42.96364" lon="-7.66945">
        <ele>568.9</ele>
        <time>2016-07-16T07:04:34Z</time>
      </trkpt>
      <trkpt lat="42.9636" lon="-7.66958">
        <ele>569.1</ele>
        <time>2016-07-16T07:04:43Z</time>
      </trkpt>
      <trkpt lat="42.96356" lon="-7.6697">
        <ele>569.6</ele>
        <time>2016-07-16T07:04:51Z</time>
      </trkpt>
      <trkpt lat="42.96352" lon="-7.66981">
        <ele>570.4</ele>
        <time>2016-07-16T07:04:59Z</time>
      </trkpt>
      <trkpt lat="42.96348" lon="-7.66992">
        <ele>570.7</ele>
        <time>2016-07-16T07:05:07Z</time>
      </trkpt>
      <trkpt lat="42.96343" lon="-7.67003">
        <ele>570.9</ele>
        <time>2016-07-16T07:05:15Z</time>
      </trkpt>
      <trkpt lat="42.96339" lon="-7.67015">
        <ele>571.2</ele>
        <time>2016-07-16T07:05:24Z</time>
      </trkpt>
      <trkpt lat="42.96334" lon="-7.67027">
        <ele>571.8</ele>
        <time>2016-07-16T07:05:33Z</time>
      </trkpt>
      <trkpt lat="42.9633" lon="-7.67038">
        <ele>572.1</ele>
        <time>2016-07-16T07:05:41Z</time>
      </trkpt>
      <trkpt lat="42.96324" lon="-7.67049">
        <ele>572.5</ele>
        <time>2016-07-16T07:05:53Z</time>
      </trkpt>
      <trkpt lat="42.9632" lon="-7.67061">
        <ele>572.7</ele>
        <time>2016-07-16T07:06:02Z</time>
      </trkpt>
      <trkpt lat="42.96316" lon="-7.67073">
        <ele>573.2</ele>
        <time>2016-07-16T07:06:11Z</time>
      </trkpt>
      <trkpt lat="42.96311" lon="-7.67084">
        <ele>573.8</ele>
        <time>2016-07-16T07:06:20Z</time>
      </trkpt>
      <trkpt lat="42.96306" lon="-7.67095">
        <ele>574.5</ele>
        <time>2016-07-16T07:06:29Z</time>
      </trkpt>
      <trkpt lat="42.96301" lon="-7.67106">
        <ele>574.8</ele>
        <time>2016-07-16T07:06:37Z</time>
      </trkpt>
      <trkpt lat="42.96296" lon="-7.67118">
        <ele>574.9</ele>
        <time>2016-07-16T07:06:46Z</time>
      </trkpt>
      <trkpt lat="42.96292" lon="-7.6713">
        <ele>575.6</ele>
        <time>2016-07-16T07:06:54Z</time>
      </trkpt>
      <trkpt lat="42.96287" lon="-7.67141">
        <ele>576.2</ele>
        <time>2016-07-16T07:07:03Z</time>
      </trkpt>
      <trkpt lat="42.96283" lon="-7.67152">
        <ele>577.1</ele>
        <time>2016-07-16T07:07:14Z</time>
      </trkpt>
      <trkpt lat="42.96279" lon="-7.67164">
        <ele>577.5</ele>
        <time>2016-07-16T07:07:24Z</time>
      </trkpt>
      <trkpt lat="42.96275" lon="-7.67175">
        <ele>578.4</ele>
        <time>2016-07-16T07:07:34Z</time>
      </trkpt>
      <trkpt lat="42.96269" lon="-7.67186">
        <ele>578.8</ele>
        <time>2016-07-16T07:07:43Z</time>
      </trkpt>
      <trkpt lat="42.96266" lon="-7.67198">
        <ele>579.2</ele>
        <time>2016-07-16T07:07:52Z</time>
      </trkpt>
      <trkpt lat="42.9626" lon="-7.67208">
        <ele>579.7</ele>
        <time>2016-07-16T07:08:01Z</time>
      </trkpt>
      <trkpt lat="42.96256" lon="-7.67219">
        <ele>580.2</ele>
        <time>2016-07-16T07:08:11Z</time>
      </trkpt>
      <trkpt lat="42.96254" lon="-7.67232">
        <ele>581.4</ele>
        <time>2016-07-16T07:08:20Z</time>
      </trkpt>
      <trkpt lat="42.96253" lon="-7.67244">
        <ele>582.1</ele>
        <time>2016-07-16T07:08:29Z</time>
      </trkpt>
      <trkpt lat="42.96252" lon="-7.67258">
        <ele>582.7</ele>
        <time>2016-07-16T07:08:39Z</time>
      </trkpt>
      <trkpt lat="42.9625" lon="-7.67271">
        <ele>583.5</ele>
        <time>2016-07-16T07:08:48Z</time>
      </trkpt>
      <trkpt lat="42.96248" lon="-7.67285">
        <ele>584.3</ele>
        <time>2016-07-16T07:08:57Z</time>
      </trkpt>
      <trkpt lat="42.96246" lon="-7.67298">
        <ele>584.8</ele>
        <time>2016-07-16T07:09:06Z</time>
      </trkpt>
      <trkpt lat="42.96244" lon="-7.67311">
        <ele>585.5</ele>
        <time>2016-07-16T07:09:14Z</time>
      </trkpt>
      <trkpt lat="42.96241" lon="-7.67324">
        <ele>586.2</ele>
        <time>2016-07-16T07:09:22Z</time>
      </trkpt>
      <trkpt lat="42.96237" lon="-7.67336">
        <ele>587</ele>
        <time>2016-07-16T07:09:29Z</time>
      </trkpt>
      <trkpt lat="42.96234" lon="-7.67347">
        <ele>587.4</ele>
        <time>2016-07-16T07:09:36Z</time>
      </trkpt>
      <trkpt lat="42.96232" lon="-7.6736">
        <ele>587.8</ele>
        <time>2016-07-16T07:09:44Z</time>
      </trkpt>
      <trkpt lat="42.9623" lon="-7.67372">
        <ele>588.4</ele>
        <time>2016-07-16T07:09:52Z</time>
      </trkpt>
      <trkpt lat="42.96228" lon="-7.67384">
        <ele>588.9</ele>
        <time>2016-07-16T07:10:00Z</time>
      </trkpt>
      <trkpt lat="42.96225" lon="-7.67396">
        <ele>589.5</ele>
        <time>2016-07-16T07:10:08Z</time>
      </trkpt>
      <trkpt lat="42.96222" lon="-7.6741">
        <ele>590</ele>
        <time>2016-07-16T07:10:16Z</time>
      </trkpt>
      <trkpt lat="42.9622" lon="-7.67423">
        <ele>590.4</ele>
        <time>2016-07-16T07:10:25Z</time>
      </trkpt>
      <trkpt lat="42.96219" lon="-7.67435">
        <ele>590.5</ele>
        <time>2016-07-16T07:10:33Z</time>
      </trkpt>
      <trkpt lat="42.96216" lon="-7.67448">
        <ele>590.8</ele>
        <time>2016-07-16T07:10:41Z</time>
      </trkpt>
      <trkpt lat="42.96214" lon="-7.6746">
        <ele>590.7</ele>
        <time>2016-07-16T07:10:49Z</time>
      </trkpt>
      <trkpt lat="42.96213" lon="-7.67473">
        <ele>590.5</ele>
        <time>2016-07-16T07:10:58Z</time>
      </trkpt>
      <trkpt lat="42.96211" lon="-7.67486">
        <ele>590.8</ele>
        <time>2016-07-16T07:11:06Z</time>
      </trkpt>
      <trkpt lat="42.9621" lon="-7.67499">
        <ele>591</ele>
        <time>2016-07-16T07:11:14Z</time>
      </trkpt>
      <trkpt lat="42.96208" lon="-7.67512">
        <ele>591</ele>
        <time>2016-07-16T07:11:22Z</time>
      </trkpt>
      <trkpt lat="42.96207" lon="-7.67525">
        <ele>591</ele>
        <time>2016-07-16T07:11:31Z</time>
      </trkpt>
      <trkpt lat="42.96205" lon="-7.67538">
        <ele>591.2</ele>
        <time>2016-07-16T07:11:39Z</time>
      </trkpt>
      <trkpt lat="42.96206" lon="-7.67551">
        <ele>590.9</ele>
        <time>2016-07-16T07:11:47Z</time>
      </trkpt>
      <trkpt lat="42.96206" lon="-7.67565">
        <ele>590.7</ele>
        <time>2016-07-16T07:11:56Z</time>
      </trkpt>
      <trkpt lat="42.96206" lon="-7.67577">
        <ele>590.9</ele>
        <time>2016-07-16T07:12:04Z</time>
      </trkpt>
      <trkpt lat="42.96207" lon="-7.67591">
        <ele>591.1</ele>
        <time>2016-07-16T07:12:12Z</time>
      </trkpt>
      <trkpt lat="42.96206" lon="-7.67604">
        <ele>591.3</ele>
        <time>2016-07-16T07:12:20Z</time>
      </trkpt>
      <trkpt lat="42.96208" lon="-7.67617">
        <ele>591</ele>
        <time>2016-07-16T07:12:33Z</time>
      </trkpt>
      <trkpt lat="42.96208" lon="-7.67631">
        <ele>590.8</ele>
        <time>2016-07-16T07:12:42Z</time>
      </trkpt>
      <trkpt lat="42.96207" lon="-7.67643">
        <ele>590.5</ele>
        <time>2016-07-16T07:12:52Z</time>
      </trkpt>
      <trkpt lat="42.96206" lon="-7.67656">
        <ele>589.7</ele>
        <time>2016-07-16T07:13:01Z</time>
      </trkpt>
      <trkpt lat="42.96205" lon="-7.6767">
        <ele>589.8</ele>
        <time>2016-07-16T07:13:14Z</time>
      </trkpt>
      <trkpt lat="42.96207" lon="-7.67683">
        <ele>589.8</ele>
        <time>2016-07-16T07:13:25Z</time>
      </trkpt>
      <trkpt lat="42.96207" lon="-7.67697">
        <ele>589</ele>
        <time>2016-07-16T07:13:35Z</time>
      </trkpt>
      <trkpt lat="42.96206" lon="-7.67709">
        <ele>588.3</ele>
        <time>2016-07-16T07:13:45Z</time>
      </trkpt>
      <trkpt lat="42.96208" lon="-7.67722">
        <ele>587.7</ele>
        <time>2016-07-16T07:13:54Z</time>
      </trkpt>
      <trkpt lat="42.96209" lon="-7.67734">
        <ele>586.6</ele>
        <time>2016-07-16T07:14:02Z</time>
      </trkpt>
      <trkpt lat="42.9621" lon="-7.67747">
        <ele>585.7</ele>
        <time>2016-07-16T07:14:10Z</time>
      </trkpt>
      <trkpt lat="42.96211" lon="-7.6776">
        <ele>584.8</ele>
        <time>2016-07-16T07:14:18Z</time>
      </trkpt>
      <trkpt lat="42.96215" lon="-7.67772">
        <ele>584.4</ele>
        <time>2016-07-16T07:14:27Z</time>
      </trkpt>
      <trkpt lat="42.96219" lon="-7.67785">
        <ele>584.2</ele>
        <time>2016-07-16T07:14:35Z</time>
      </trkpt>
      <trkpt lat="42.96221" lon="-7.67798">
        <ele>584.6</ele>
        <time>2016-07-16T07:14:43Z</time>
      </trkpt>
      <trkpt lat="42.96225" lon="-7.67811">
        <ele>584.4</ele>
        <time>2016-07-16T07:14:51Z</time>
      </trkpt>
      <trkpt lat="42.9623" lon="-7.67821">
        <ele>584.1</ele>
        <time>2016-07-16T07:14:59Z</time>
      </trkpt>
      <trkpt lat="42.96235" lon="-7.67834">
        <ele>583.6</ele>
        <time>2016-07-16T07:15:07Z</time>
      </trkpt>
      <trkpt lat="42.96241" lon="-7.67845">
        <ele>583.4</ele>
        <time>2016-07-16T07:15:15Z</time>
      </trkpt>
      <trkpt lat="42.96245" lon="-7.67856">
        <ele>583.2</ele>
        <time>2016-07-16T07:15:23Z</time>
      </trkpt>
      <trkpt lat="42.9625" lon="-7.67868">
        <ele>582.7</ele>
        <time>2016-07-16T07:15:32Z</time>
      </trkpt>
      <trkpt lat="42.96253" lon="-7.6788">
        <ele>582.3</ele>
        <time>2016-07-16T07:15:40Z</time>
      </trkpt>
      <trkpt lat="42.96256" lon="-7.67891">
        <ele>581.9</ele>
        <time>2016-07-16T07:15:49Z</time>
      </trkpt>
      <trkpt lat="42.96259" lon="-7.67904">
        <ele>581.1</ele>
        <time>2016-07-16T07:15:58Z</time>
      </trkpt>
      <trkpt lat="42.96262" lon="-7.67916">
        <ele>580.4</ele>
        <time>2016-07-16T07:16:06Z</time>
      </trkpt>
      <trkpt lat="42.96266" lon="-7.67928">
        <ele>579.9</ele>
        <time>2016-07-16T07:16:13Z</time>
      </trkpt>
      <trkpt lat="42.9627" lon="-7.6794">
        <ele>579.7</ele>
        <time>2016-07-16T07:16:21Z</time>
      </trkpt>
      <trkpt lat="42.96272" lon="-7.67952">
        <ele>579.4</ele>
        <time>2016-07-16T07:16:30Z</time>
      </trkpt>
      <trkpt lat="42.96274" lon="-7.67965">
        <ele>578.7</ele>
        <time>2016-07-16T07:16:39Z</time>
      </trkpt>
      <trkpt lat="42.96276" lon="-7.67977">
        <ele>578.2</ele>
        <time>2016-07-16T07:16:48Z</time>
      </trkpt>
      <trkpt lat="42.96279" lon="-7.6799">
        <ele>577.9</ele>
        <time>2016-07-16T07:16:56Z</time>
      </trkpt>
      <trkpt lat="42.96284" lon="-7.68001">
        <ele>577.7</ele>
        <time>2016-07-16T07:17:03Z</time>
      </trkpt>
      <trkpt lat="42.96288" lon="-7.68013">
        <ele>576.8</ele>
        <time>2016-07-16T07:17:11Z</time>
      </trkpt>
      <trkpt lat="42.96291" lon="-7.68025">
        <ele>576.2</ele>
        <time>2016-07-16T07:17:21Z</time>
      </trkpt>
      <trkpt lat="42.96297" lon="-7.68036">
        <ele>575.7</ele>
        <time>2016-07-16T07:17:28Z</time>
      </trkpt>
      <trkpt lat="42.96301" lon="-7.68048">
        <ele>575.1</ele>
        <time>2016-07-16T07:17:37Z</time>
      </trkpt>
      <trkpt lat="42.96306" lon="-7.68059">
        <ele>574.8</ele>
        <time>2016-07-16T07:17:44Z</time>
      </trkpt>
      <trkpt lat="42.96311" lon="-7.68071">
        <ele>574.4</ele>
        <time>2016-07-16T07:17:52Z</time>
      </trkpt>
      <trkpt lat="42.96316" lon="-7.68082">
        <ele>574.1</ele>
        <time>2016-07-16T07:18:01Z</time>
      </trkpt>
      <trkpt lat="42.9632" lon="-7.68095">
        <ele>573.7</ele>
        <time>2016-07-16T07:18:10Z</time>
      </trkpt>
      <trkpt lat="42.96325" lon="-7.68105">
        <ele>573.2</ele>
        <time>2016-07-16T07:18:18Z</time>
      </trkpt>
      <trkpt lat="42.9633" lon="-7.68117">
        <ele>572.7</ele>
        <time>2016-07-16T07:18:27Z</time>
      </trkpt>
      <trkpt lat="42.96335" lon="-7.68128">
        <ele>572.3</ele>
        <time>2016-07-16T07:18:35Z</time>
      </trkpt>
      <trkpt lat="42.96338" lon="-7.6814">
        <ele>571.6</ele>
        <time>2016-07-16T07:18:44Z</time>
      </trkpt>
      <trkpt lat="42.96341" lon="-7.68152">
        <ele>571.2</ele>
        <time>2016-07-16T07:18:52Z</time>
      </trkpt>
      <trkpt lat="42.96345" lon="-7.68164">
        <ele>571</ele>
        <time>2016-07-16T07:19:00Z</time>
      </trkpt>
      <trkpt lat="42.96348" lon="-7.68176">
        <ele>570.7</ele>
        <time>2016-07-16T07:19:09Z</time>
      </trkpt>
      <trkpt lat="42.96351" lon="-7.68189">
        <ele>570.5</ele>
        <time>2016-07-16T07:19:18Z</time>
      </trkpt>
      <trkpt lat="42.96353" lon="-7.68201">
        <ele>570.3</ele>
        <time>2016-07-16T07:19:26Z</time>
      </trkpt>
      <trkpt lat="42.96354" lon="-7.68213">
        <ele>570.1</ele>
        <time>2016-07-16T07:19:33Z</time>
      </trkpt>
      <trkpt lat="42.96352" lon="-7.68226">
        <ele>569.8</ele>
        <time>2016-07-16T07:19:42Z</time>
      </trkpt>
      <trkpt lat="42.96356" lon="-7.68237">
        <ele>569.4</ele>
        <time>2016-07-16T07:19:53Z</time>
      </trkpt>
      <trkpt lat="42.96359" lon="-7.68249">
        <ele>569</ele>
        <time>2016-07-16T07:20:03Z</time>
      </trkpt>
      <trkpt lat="42.96364" lon="-7.6826">
        <ele>568.7</ele>
        <time>2016-07-16T07:20:12Z</time>
      </trkpt>
      <trkpt lat="42.96369" lon="-7.68271">
        <ele>568.4</ele>
        <time>2016-07-16T07:20:22Z</time>
      </trkpt>
      <trkpt lat="42.96374" lon="-7.68283">
        <ele>568.3</ele>
        <time>2016-07-16T07:20:31Z</time>
      </trkpt>
      <trkpt lat="42.9638" lon="-7.68294">
        <ele>568.3</ele>
        <time>2016-07-16T07:20:39Z</time>
      </trkpt>
      <trkpt lat="42.96385" lon="-7.68306">
        <ele>568.4</ele>
        <time>2016-07-16T07:20:47Z</time>
      </trkpt>
      <trkpt lat="42.96388" lon="-7.68318">
        <ele>568.7</ele>
        <time>2016-07-16T07:20:56Z</time>
      </trkpt>
      <trkpt lat="42.96394" lon="-7.68328">
        <ele>569.5</ele>
        <time>2016-07-16T07:21:05Z</time>
      </trkpt>
      <trkpt lat="42.96402" lon="-7.68336">
        <ele>570.1</ele>
        <time>2016-07-16T07:21:14Z</time>
      </trkpt>
      <trkpt lat="42.9641" lon="-7.68343">
        <ele>570.7</ele>
        <time>2016-07-16T07:21:24Z</time>
      </trkpt>
      <trkpt lat="42.96417" lon="-7.68353">
        <ele>571.4</ele>
        <time>2016-07-16T07:21:34Z</time>
      </trkpt>
      <trkpt lat="42.96422" lon="-7.68364">
        <ele>571.7</ele>
        <time>2016-07-16T07:21:44Z</time>
      </trkpt>
      <trkpt lat="42.96426" lon="-7.68376">
        <ele>572.6</ele>
        <time>2016-07-16T07:21:52Z</time>
      </trkpt>
      <trkpt lat="42.96431" lon="-7.68387">
        <ele>573.1</ele>
        <time>2016-07-16T07:22:01Z</time>
      </trkpt>
      <trkpt lat="42.96434" lon="-7.68399">
        <ele>573.5</ele>
        <time>2016-07-16T07:22:10Z</time>
      </trkpt>
      <trkpt lat="42.96436" lon="-7.68412">
        <ele>573.9</ele>
        <time>2016-07-16T07:22:19Z</time>
      </trkpt>
      <trkpt lat="42.96437" lon="-7.68424">
        <ele>574.4</ele>
        <time>2016-07-16T07:22:28Z</time>
      </trkpt>
      <trkpt lat="42.96438" lon="-7.68437">
        <ele>574.9</ele>
        <time>2016-07-16T07:22:37Z</time>
      </trkpt>
      <trkpt lat="42.96437" lon="-7.68451">
        <ele>575.2</ele>
        <time>2016-07-16T07:22:47Z</time>
      </trkpt>
      <trkpt lat="42.96437" lon="-7.68464">
        <ele>575.6</ele>
        <time>2016-07-16T07:22:55Z</time>
      </trkpt>
      <trkpt lat="42.96439" lon="-7.68477">
        <ele>575.8</ele>
        <time>2016-07-16T07:23:03Z</time>
      </trkpt>
      <trkpt lat="42.9644" lon="-7.6849">
        <ele>575.9</ele>
        <time>2016-07-16T07:23:11Z</time>
      </trkpt>
      <trkpt lat="42.9644" lon="-7.68503">
        <ele>576</ele>
        <time>2016-07-16T07:23:28Z</time>
      </trkpt>
      <trkpt lat="42.96441" lon="-7.68516">
        <ele>575.8</ele>
        <time>2016-07-16T07:23:37Z</time>
      </trkpt>
      <trkpt lat="42.96443" lon="-7.68528">
        <ele>575.5</ele>
        <time>2016-07-16T07:23:46Z</time>
      </trkpt>
      <trkpt lat="42.96444" lon="-7.68541">
        <ele>575.6</ele>
        <time>2016-07-16T07:23:55Z</time>
      </trkpt>
      <trkpt lat="42.96443" lon="-7.68554">
        <ele>575.6</ele>
        <time>2016-07-16T07:24:05Z</time>
      </trkpt>
      <trkpt lat="42.96441" lon="-7.68566">
        <ele>575.3</ele>
        <time>2016-07-16T07:24:13Z</time>
      </trkpt>
      <trkpt lat="42.96437" lon="-7.68578">
        <ele>574.1</ele>
        <time>2016-07-16T07:24:35Z</time>
      </trkpt>
      <trkpt lat="42.96438" lon="-7.6859">
        <ele>573.4</ele>
        <time>2016-07-16T07:24:45Z</time>
      </trkpt>
      <trkpt lat="42.96444" lon="-7.68601">
        <ele>572.7</ele>
        <time>2016-07-16T07:24:54Z</time>
      </trkpt>
      <trkpt lat="42.96452" lon="-7.68608">
        <ele>571.9</ele>
        <time>2016-07-16T07:25:03Z</time>
      </trkpt>
      <trkpt lat="42.96459" lon="-7.68614">
        <ele>571.3</ele>
        <time>2016-07-16T07:25:11Z</time>
      </trkpt>
      <trkpt lat="42.96469" lon="-7.68618">
        <ele>570.2</ele>
        <time>2016-07-16T07:25:20Z</time>
      </trkpt>
      <trkpt lat="42.96477" lon="-7.68622">
        <ele>569.7</ele>
        <time>2016-07-16T07:25:43Z</time>
      </trkpt>
      <trkpt lat="42.96485" lon="-7.68628">
        <ele>568.1</ele>
        <time>2016-07-16T07:26:16Z</time>
      </trkpt>
      <trkpt lat="42.96493" lon="-7.68634">
        <ele>567.5</ele>
        <time>2016-07-16T07:26:36Z</time>
      </trkpt>
      <trkpt lat="42.96489" lon="-7.68623">
        <ele>567.1</ele>
        <time>2016-07-16T07:27:44Z</time>
      </trkpt>
      <trkpt lat="42.96494" lon="-7.68634">
        <ele>567</ele>
        <time>2016-07-16T07:28:05Z</time>
      </trkpt>
      <trkpt lat="42.96498" lon="-7.68645">
        <ele>566.4</ele>
        <time>2016-07-16T07:28:15Z</time>
      </trkpt>
      <trkpt lat="42.96501" lon="-7.68658">
        <ele>565.7</ele>
        <time>2016-07-16T07:28:29Z</time>
      </trkpt>
      <trkpt lat="42.96507" lon="-7.68669">
        <ele>564.6</ele>
        <time>2016-07-16T07:28:38Z</time>
      </trkpt>
      <trkpt lat="42.96514" lon="-7.68678">
        <ele>563.6</ele>
        <time>2016-07-16T07:28:46Z</time>
      </trkpt>
      <trkpt lat="42.96522" lon="-7.68687">
        <ele>562.6</ele>
        <time>2016-07-16T07:28:57Z</time>
      </trkpt>
      <trkpt lat="42.9653" lon="-7.68693">
        <ele>561.9</ele>
        <time>2016-07-16T07:29:06Z</time>
      </trkpt>
      <trkpt lat="42.96539" lon="-7.68697">
        <ele>561.1</ele>
        <time>2016-07-16T07:29:14Z</time>
      </trkpt>
      <trkpt lat="42.96548" lon="-7.687">
        <ele>559.4</ele>
        <time>2016-07-16T07:29:25Z</time>
      </trkpt>
      <trkpt lat="42.96557" lon="-7.68704">
        <ele>558.5</ele>
        <time>2016-07-16T07:29:34Z</time>
      </trkpt>
      <trkpt lat="42.96566" lon="-7.68708">
        <ele>557.1</ele>
        <time>2016-07-16T07:29:50Z</time>
      </trkpt>
      <trkpt lat="42.96575" lon="-7.68707">
        <ele>556.5</ele>
        <time>2016-07-16T07:29:59Z</time>
      </trkpt>
      <trkpt lat="42.96584" lon="-7.68707">
        <ele>555.6</ele>
        <time>2016-07-16T07:30:09Z</time>
      </trkpt>
      <trkpt lat="42.96593" lon="-7.68706">
        <ele>554.7</ele>
        <time>2016-07-16T07:30:18Z</time>
      </trkpt>
      <trkpt lat="42.96603" lon="-7.68706">
        <ele>553.7</ele>
        <time>2016-07-16T07:30:27Z</time>
      </trkpt>
      <trkpt lat="42.96613" lon="-7.68709">
        <ele>552.7</ele>
        <time>2016-07-16T07:30:35Z</time>
      </trkpt>
      <trkpt lat="42.96622" lon="-7.68712">
        <ele>552</ele>
        <time>2016-07-16T07:30:43Z</time>
      </trkpt>
      <trkpt lat="42.9663" lon="-7.68716">
        <ele>551.6</ele>
        <time>2016-07-16T07:30:50Z</time>
      </trkpt>
      <trkpt lat="42.96639" lon="-7.68721">
        <ele>551.2</ele>
        <time>2016-07-16T07:30:57Z</time>
      </trkpt>
      <trkpt lat="42.96647" lon="-7.68726">
        <ele>550.4</ele>
        <time>2016-07-16T07:31:04Z</time>
      </trkpt>
      <trkpt lat="42.96656" lon="-7.68731">
        <ele>549.7</ele>
        <time>2016-07-16T07:31:13Z</time>
      </trkpt>
      <trkpt lat="42.96664" lon="-7.68736">
        <ele>549</ele>
        <time>2016-07-16T07:31:20Z</time>
      </trkpt>
      <trkpt lat="42.96673" lon="-7.68739">
        <ele>548.3</ele>
        <time>2016-07-16T07:31:27Z</time>
      </trkpt>
      <trkpt lat="42.96682" lon="-7.68742">
        <ele>547.7</ele>
        <time>2016-07-16T07:31:36Z</time>
      </trkpt>
      <trkpt lat="42.96692" lon="-7.68748">
        <ele>547.3</ele>
        <time>2016-07-16T07:31:45Z</time>
      </trkpt>
      <trkpt lat="42.967" lon="-7.68752">
        <ele>547.3</ele>
        <time>2016-07-16T07:31:52Z</time>
      </trkpt>
      <trkpt lat="42.96709" lon="-7.68758">
        <ele>546.9</ele>
        <time>2016-07-16T07:31:59Z</time>
      </trkpt>
      <trkpt lat="42.96717" lon="-7.68764">
        <ele>546.4</ele>
        <time>2016-07-16T07:32:08Z</time>
      </trkpt>
      <trkpt lat="42.96724" lon="-7.68773">
        <ele>545.8</ele>
        <time>2016-07-16T07:32:17Z</time>
      </trkpt>
      <trkpt lat="42.96726" lon="-7.68786">
        <ele>544.7</ele>
        <time>2016-07-16T07:32:29Z</time>
      </trkpt>
      <trkpt lat="42.96725" lon="-7.68799">
        <ele>544</ele>
        <time>2016-07-16T07:32:39Z</time>
      </trkpt>
      <trkpt lat="42.96722" lon="-7.68811">
        <ele>543.2</ele>
        <time>2016-07-16T07:32:47Z</time>
      </trkpt>
      <trkpt lat="42.96719" lon="-7.68823">
        <ele>542.4</ele>
        <time>2016-07-16T07:32:54Z</time>
      </trkpt>
      <trkpt lat="42.96711" lon="-7.68832">
        <ele>541.7</ele>
        <time>2016-07-16T07:33:03Z</time>
      </trkpt>
      <trkpt lat="42.96704" lon="-7.6884">
        <ele>541.1</ele>
        <time>2016-07-16T07:33:11Z</time>
      </trkpt>
      <trkpt lat="42.96699" lon="-7.6885">
        <ele>540.5</ele>
        <time>2016-07-16T07:33:22Z</time>
      </trkpt>
      <trkpt lat="42.96696" lon="-7.68861">
        <ele>538.8</ele>
        <time>2016-07-16T07:33:37Z</time>
      </trkpt>
      <trkpt lat="42.96689" lon="-7.6887">
        <ele>538.1</ele>
        <time>2016-07-16T07:33:48Z</time>
      </trkpt>
      <trkpt lat="42.96682" lon="-7.68877">
        <ele>537</ele>
        <time>2016-07-16T07:33:59Z</time>
      </trkpt>
      <trkpt lat="42.96673" lon="-7.68882">
        <ele>536.2</ele>
        <time>2016-07-16T07:34:09Z</time>
      </trkpt>
      <trkpt lat="42.96665" lon="-7.68891">
        <ele>535.6</ele>
        <time>2016-07-16T07:34:19Z</time>
      </trkpt>
      <trkpt lat="42.96659" lon="-7.68901">
        <ele>534.6</ele>
        <time>2016-07-16T07:34:29Z</time>
      </trkpt>
      <trkpt lat="42.96652" lon="-7.68911">
        <ele>533.7</ele>
        <time>2016-07-16T07:34:38Z</time>
      </trkpt>
      <trkpt lat="42.96645" lon="-7.68921">
        <ele>532.7</ele>
        <time>2016-07-16T07:34:47Z</time>
      </trkpt>
      <trkpt lat="42.96638" lon="-7.6893">
        <ele>532.1</ele>
        <time>2016-07-16T07:34:56Z</time>
      </trkpt>
      <trkpt lat="42.96631" lon="-7.68938">
        <ele>531.6</ele>
        <time>2016-07-16T07:35:04Z</time>
      </trkpt>
      <trkpt lat="42.96622" lon="-7.68942">
        <ele>531.2</ele>
        <time>2016-07-16T07:35:14Z</time>
      </trkpt>
      <trkpt lat="42.96615" lon="-7.6895">
        <ele>530.6</ele>
        <time>2016-07-16T07:35:23Z</time>
      </trkpt>
      <trkpt lat="42.96613" lon="-7.68963">
        <ele>529.7</ele>
        <time>2016-07-16T07:35:34Z</time>
      </trkpt>
      <trkpt lat="42.96614" lon="-7.68975">
        <ele>529.4</ele>
        <time>2016-07-16T07:35:42Z</time>
      </trkpt>
      <trkpt lat="42.96614" lon="-7.68988">
        <ele>529.3</ele>
        <time>2016-07-16T07:35:51Z</time>
      </trkpt>
      <trkpt lat="42.96613" lon="-7.69">
        <ele>529.5</ele>
        <time>2016-07-16T07:36:01Z</time>
      </trkpt>
      <trkpt lat="42.9661" lon="-7.69013">
        <ele>529.8</ele>
        <time>2016-07-16T07:36:10Z</time>
      </trkpt>
      <trkpt lat="42.96608" lon="-7.69026">
        <ele>530.2</ele>
        <time>2016-07-16T07:36:19Z</time>
      </trkpt>
      <trkpt lat="42.96603" lon="-7.69037">
        <ele>530.5</ele>
        <time>2016-07-16T07:36:28Z</time>
      </trkpt>
      <trkpt lat="42.966" lon="-7.69049">
        <ele>531.1</ele>
        <time>2016-07-16T07:36:37Z</time>
      </trkpt>
      <trkpt lat="42.96598" lon="-7.69062">
        <ele>531.9</ele>
        <time>2016-07-16T07:36:46Z</time>
      </trkpt>
      <trkpt lat="42.96594" lon="-7.69074">
        <ele>532.5</ele>
        <time>2016-07-16T07:36:55Z</time>
      </trkpt>
      <trkpt lat="42.9659" lon="-7.69086">
        <ele>533.1</ele>
        <time>2016-07-16T07:37:04Z</time>
      </trkpt>
      <trkpt lat="42.96587" lon="-7.69097">
        <ele>533.5</ele>
        <time>2016-07-16T07:37:14Z</time>
      </trkpt>
      <trkpt lat="42.96582" lon="-7.69108">
        <ele>534</ele>
        <time>2016-07-16T07:37:24Z</time>
      </trkpt>
      <trkpt lat="42.96578" lon="-7.69121">
        <ele>534.7</ele>
        <time>2016-07-16T07:37:34Z</time>
      </trkpt>
      <trkpt lat="42.96576" lon="-7.69133">
        <ele>535.5</ele>
        <time>2016-07-16T07:37:43Z</time>
      </trkpt>
      <trkpt lat="42.96573" lon="-7.69146">
        <ele>536</ele>
        <time>2016-07-16T07:37:55Z</time>
      </trkpt>
      <trkpt lat="42.96571" lon="-7.69158">
        <ele>536.5</ele>
        <time>2016-07-16T07:38:06Z</time>
      </trkpt>
      <trkpt lat="42.96568" lon="-7.69172">
        <ele>536.7</ele>
        <time>2016-07-16T07:38:15Z</time>
      </trkpt>
      <trkpt lat="42.96566" lon="-7.69184">
        <ele>536.9</ele>
        <time>2016-07-16T07:38:24Z</time>
      </trkpt>
      <trkpt lat="42.96564" lon="-7.69196">
        <ele>537</ele>
        <time>2016-07-16T07:38:36Z</time>
      </trkpt>
      <trkpt lat="42.9656" lon="-7.69208">
        <ele>537.3</ele>
        <time>2016-07-16T07:38:48Z</time>
      </trkpt>
      <trkpt lat="42.96556" lon="-7.69219">
        <ele>537.2</ele>
        <time>2016-07-16T07:38:57Z</time>
      </trkpt>
      <trkpt lat="42.96553" lon="-7.6923">
        <ele>537.4</ele>
        <time>2016-07-16T07:39:06Z</time>
      </trkpt>
      <trkpt lat="42.96552" lon="-7.69243">
        <ele>537.6</ele>
        <time>2016-07-16T07:39:17Z</time>
      </trkpt>
      <trkpt lat="42.96554" lon="-7.69256">
        <ele>537.7</ele>
        <time>2016-07-16T07:39:27Z</time>
      </trkpt>
      <trkpt lat="42.96553" lon="-7.69269">
        <ele>538.1</ele>
        <time>2016-07-16T07:39:37Z</time>
      </trkpt>
      <trkpt lat="42.96549" lon="-7.6928">
        <ele>538.5</ele>
        <time>2016-07-16T07:39:45Z</time>
      </trkpt>
      <trkpt lat="42.96545" lon="-7.69292">
        <ele>538.7</ele>
        <time>2016-07-16T07:39:53Z</time>
      </trkpt>
      <trkpt lat="42.96543" lon="-7.69305">
        <ele>538.9</ele>
        <time>2016-07-16T07:40:02Z</time>
      </trkpt>
      <trkpt lat="42.96541" lon="-7.69318">
        <ele>538.9</ele>
        <time>2016-07-16T07:40:10Z</time>
      </trkpt>
      <trkpt lat="42.96538" lon="-7.69331">
        <ele>538.9</ele>
        <time>2016-07-16T07:40:18Z</time>
      </trkpt>
      <trkpt lat="42.96535" lon="-7.69344">
        <ele>538.8</ele>
        <time>2016-07-16T07:40:26Z</time>
      </trkpt>
      <trkpt lat="42.96532" lon="-7.69355">
        <ele>539</ele>
        <time>2016-07-16T07:40:35Z</time>
      </trkpt>
      <trkpt lat="42.9653" lon="-7.69368">
        <ele>539.5</ele>
        <time>2016-07-16T07:40:47Z</time>
      </trkpt>
      <trkpt lat="42.96527" lon="-7.6938">
        <ele>539.6</ele>
        <time>2016-07-16T07:40:58Z</time>
      </trkpt>
      <trkpt lat="42.96524" lon="-7.69393">
        <ele>539.7</ele>
        <time>2016-07-16T07:41:06Z</time>
      </trkpt>
      <trkpt lat="42.9652" lon="-7.69404">
        <ele>539.9</ele>
        <time>2016-07-16T07:41:15Z</time>
      </trkpt>
      <trkpt lat="42.96517" lon="-7.69417">
        <ele>540.6</ele>
        <time>2016-07-16T07:41:24Z</time>
      </trkpt>
      <trkpt lat="42.96515" lon="-7.6943">
        <ele>541.6</ele>
        <time>2016-07-16T07:41:33Z</time>
      </trkpt>
      <trkpt lat="42.96511" lon="-7.69441">
        <ele>542.3</ele>
        <time>2016-07-16T07:41:42Z</time>
      </trkpt>
      <trkpt lat="42.96506" lon="-7.69453">
        <ele>543</ele>
        <time>2016-07-16T07:41:51Z</time>
      </trkpt>
      <trkpt lat="42.965" lon="-7.69463">
        <ele>543.6</ele>
        <time>2016-07-16T07:42:00Z</time>
      </trkpt>
      <trkpt lat="42.96493" lon="-7.69473">
        <ele>544</ele>
        <time>2016-07-16T07:42:09Z</time>
      </trkpt>
      <trkpt lat="42.96486" lon="-7.69482">
        <ele>544.7</ele>
        <time>2016-07-16T07:42:21Z</time>
      </trkpt>
      <trkpt lat="42.96478" lon="-7.69489">
        <ele>546.1</ele>
        <time>2016-07-16T07:42:34Z</time>
      </trkpt>
      <trkpt lat="42.9647" lon="-7.69496">
        <ele>547.4</ele>
        <time>2016-07-16T07:42:45Z</time>
      </trkpt>
      <trkpt lat="42.96462" lon="-7.69501">
        <ele>548.4</ele>
        <time>2016-07-16T07:42:55Z</time>
      </trkpt>
      <trkpt lat="42.96452" lon="-7.69505">
        <ele>548.9</ele>
        <time>2016-07-16T07:43:05Z</time>
      </trkpt>
      <trkpt lat="42.96443" lon="-7.69511">
        <ele>549.2</ele>
        <time>2016-07-16T07:43:13Z</time>
      </trkpt>
      <trkpt lat="42.96436" lon="-7.69519">
        <ele>549.7</ele>
        <time>2016-07-16T07:43:25Z</time>
      </trkpt>
      <trkpt lat="42.96429" lon="-7.69526">
        <ele>550.6</ele>
        <time>2016-07-16T07:43:45Z</time>
      </trkpt>
      <trkpt lat="42.9642" lon="-7.69529">
        <ele>550.3</ele>
        <time>2016-07-16T07:44:10Z</time>
      </trkpt>
      <trkpt lat="42.96412" lon="-7.69523">
        <ele>550.6</ele>
        <time>2016-07-16T07:44:22Z</time>
      </trkpt>
      <trkpt lat="42.96407" lon="-7.69512">
        <ele>551</ele>
        <time>2016-07-16T07:44:34Z</time>
      </trkpt>
      <trkpt lat="42.96402" lon="-7.69501">
        <ele>551.8</ele>
        <time>2016-07-16T07:44:46Z</time>
      </trkpt>
      <trkpt lat="42.96396" lon="-7.69489">
        <ele>552.7</ele>
        <time>2016-07-16T07:44:57Z</time>
      </trkpt>
      <trkpt lat="42.96391" lon="-7.69479">
        <ele>553.5</ele>
        <time>2016-07-16T07:45:06Z</time>
      </trkpt>
      <trkpt lat="42.96386" lon="-7.69468">
        <ele>554.3</ele>
        <time>2016-07-16T07:45:17Z</time>
      </trkpt>
      <trkpt lat="42.96377" lon="-7.69463">
        <ele>555.3</ele>
        <time>2016-07-16T07:45:29Z</time>
      </trkpt>
      <trkpt lat="42.96368" lon="-7.69465">
        <ele>556.2</ele>
        <time>2016-07-16T07:45:40Z</time>
      </trkpt>
      <trkpt lat="42.96359" lon="-7.6947">
        <ele>557.5</ele>
        <time>2016-07-16T07:45:52Z</time>
      </trkpt>
      <trkpt lat="42.96353" lon="-7.69481">
        <ele>558.4</ele>
        <time>2016-07-16T07:46:02Z</time>
      </trkpt>
      <trkpt lat="42.96346" lon="-7.69492">
        <ele>558.6</ele>
        <time>2016-07-16T07:46:13Z</time>
      </trkpt>
      <trkpt lat="42.96342" lon="-7.69503">
        <ele>558.4</ele>
        <time>2016-07-16T07:46:22Z</time>
      </trkpt>
      <trkpt lat="42.96337" lon="-7.69515">
        <ele>558.7</ele>
        <time>2016-07-16T07:46:31Z</time>
      </trkpt>
      <trkpt lat="42.96331" lon="-7.69526">
        <ele>559.2</ele>
        <time>2016-07-16T07:46:41Z</time>
      </trkpt>
      <trkpt lat="42.96326" lon="-7.69536">
        <ele>559.6</ele>
        <time>2016-07-16T07:46:50Z</time>
      </trkpt>
      <trkpt lat="42.96319" lon="-7.69546">
        <ele>559.7</ele>
        <time>2016-07-16T07:46:59Z</time>
      </trkpt>
      <trkpt lat="42.96312" lon="-7.69554">
        <ele>560</ele>
        <time>2016-07-16T07:47:09Z</time>
      </trkpt>
      <trkpt lat="42.96308" lon="-7.69567">
        <ele>560.6</ele>
        <time>2016-07-16T07:47:19Z</time>
      </trkpt>
      <trkpt lat="42.96302" lon="-7.69577">
        <ele>561.3</ele>
        <time>2016-07-16T07:47:33Z</time>
      </trkpt>
      <trkpt lat="42.96296" lon="-7.69586">
        <ele>561.1</ele>
        <time>2016-07-16T07:48:18Z</time>
      </trkpt>
      <trkpt lat="42.96293" lon="-7.69599">
        <ele>560.4</ele>
        <time>2016-07-16T07:48:43Z</time>
      </trkpt>
      <trkpt lat="42.96291" lon="-7.69611">
        <ele>560.3</ele>
        <time>2016-07-16T07:48:55Z</time>
      </trkpt>
      <trkpt lat="42.96284" lon="-7.69621">
        <ele>560.3</ele>
        <time>2016-07-16T07:49:10Z</time>
      </trkpt>
      <trkpt lat="42.96284" lon="-7.69634">
        <ele>560.2</ele>
        <time>2016-07-16T07:49:21Z</time>
      </trkpt>
      <trkpt lat="42.96284" lon="-7.69647">
        <ele>560.4</ele>
        <time>2016-07-16T07:49:29Z</time>
      </trkpt>
      <trkpt lat="42.96282" lon="-7.6966">
        <ele>549.3</ele>
        <time>2016-07-16T07:49:37Z</time>
      </trkpt>
      <trkpt lat="42.96281" lon="-7.69674">
        <ele>558.7</ele>
        <time>2016-07-16T07:49:46Z</time>
      </trkpt>
      <trkpt lat="42.96277" lon="-7.69686">
        <ele>564</ele>
        <time>2016-07-16T07:49:53Z</time>
      </trkpt>
      <trkpt lat="42.96278" lon="-7.69699">
        <ele>571.3</ele>
        <time>2016-07-16T07:50:04Z</time>
      </trkpt>
      <trkpt lat="42.96277" lon="-7.69712">
        <ele>569.2</ele>
        <time>2016-07-16T07:50:16Z</time>
      </trkpt>
      <trkpt lat="42.96277" lon="-7.69725">
        <ele>569.1</ele>
        <time>2016-07-16T07:50:28Z</time>
      </trkpt>
      <trkpt lat="42.96277" lon="-7.69737">
        <ele>567.9</ele>
        <time>2016-07-16T07:50:38Z</time>
      </trkpt>
      <trkpt lat="42.96279" lon="-7.69751">
        <ele>567.3</ele>
        <time>2016-07-16T07:50:48Z</time>
      </trkpt>
      <trkpt lat="42.9628" lon="-7.69764">
        <ele>567.3</ele>
        <time>2016-07-16T07:50:58Z</time>
      </trkpt>
      <trkpt lat="42.9628" lon="-7.69777">
        <ele>567.4</ele>
        <time>2016-07-16T07:51:08Z</time>
      </trkpt>
      <trkpt lat="42.96277" lon="-7.6979">
        <ele>567.5</ele>
        <time>2016-07-16T07:51:18Z</time>
      </trkpt>
      <trkpt lat="42.96276" lon="-7.69802">
        <ele>568.1</ele>
        <time>2016-07-16T07:51:27Z</time>
      </trkpt>
      <trkpt lat="42.96275" lon="-7.69816">
        <ele>568.8</ele>
        <time>2016-07-16T07:51:36Z</time>
      </trkpt>
      <trkpt lat="42.96274" lon="-7.69829">
        <ele>569.2</ele>
        <time>2016-07-16T07:51:44Z</time>
      </trkpt>
      <trkpt lat="42.96274" lon="-7.69842">
        <ele>569.6</ele>
        <time>2016-07-16T07:51:53Z</time>
      </trkpt>
      <trkpt lat="42.96273" lon="-7.69855">
        <ele>569.9</ele>
        <time>2016-07-16T07:52:00Z</time>
      </trkpt>
      <trkpt lat="42.96271" lon="-7.69868">
        <ele>570.1</ele>
        <time>2016-07-16T07:52:07Z</time>
      </trkpt>
      <trkpt lat="42.96266" lon="-7.69879">
        <ele>570.6</ele>
        <time>2016-07-16T07:52:15Z</time>
      </trkpt>
      <trkpt lat="42.96261" lon="-7.6989">
        <ele>571.1</ele>
        <time>2016-07-16T07:52:23Z</time>
      </trkpt>
      <trkpt lat="42.96259" lon="-7.69902">
        <ele>571.5</ele>
        <time>2016-07-16T07:52:34Z</time>
      </trkpt>
      <trkpt lat="42.96256" lon="-7.69914">
        <ele>572.3</ele>
        <time>2016-07-16T07:52:48Z</time>
      </trkpt>
      <trkpt lat="42.96249" lon="-7.69923">
        <ele>572.5</ele>
        <time>2016-07-16T07:52:57Z</time>
      </trkpt>
      <trkpt lat="42.96243" lon="-7.69934">
        <ele>572.7</ele>
        <time>2016-07-16T07:53:06Z</time>
      </trkpt>
      <trkpt lat="42.96238" lon="-7.69945">
        <ele>572.7</ele>
        <time>2016-07-16T07:53:15Z</time>
      </trkpt>
      <trkpt lat="42.96234" lon="-7.69956">
        <ele>572.9</ele>
        <time>2016-07-16T07:53:24Z</time>
      </trkpt>
      <trkpt lat="42.9623" lon="-7.69968">
        <ele>572.9</ele>
        <time>2016-07-16T07:53:34Z</time>
      </trkpt>
      <trkpt lat="42.96227" lon="-7.6998">
        <ele>573.1</ele>
        <time>2016-07-16T07:53:46Z</time>
      </trkpt>
      <trkpt lat="42.96231" lon="-7.69991">
        <ele>572.7</ele>
        <time>2016-07-16T07:56:02Z</time>
      </trkpt>
      <trkpt lat="42.96229" lon="-7.69979">
        <ele>572.9</ele>
        <time>2016-07-16T07:57:39Z</time>
      </trkpt>
      <trkpt lat="42.96222" lon="-7.69988">
        <ele>573.4</ele>
        <time>2016-07-16T08:01:10Z</time>
      </trkpt>
      <trkpt lat="42.96224" lon="-7.70001">
        <ele>573.4</ele>
        <time>2016-07-16T08:04:02Z</time>
      </trkpt>
      <trkpt lat="42.96222" lon="-7.70014">
        <ele>573.3</ele>
        <time>2016-07-16T08:04:11Z</time>
      </trkpt>
      <trkpt lat="42.96219" lon="-7.70026">
        <ele>573</ele>
        <time>2016-07-16T08:04:20Z</time>
      </trkpt>
      <trkpt lat="42.96216" lon="-7.70038">
        <ele>573.3</ele>
        <time>2016-07-16T08:04:29Z</time>
      </trkpt>
      <trkpt lat="42.96213" lon="-7.70051">
        <ele>574.1</ele>
        <time>2016-07-16T08:04:38Z</time>
      </trkpt>
      <trkpt lat="42.96211" lon="-7.70064">
        <ele>573.6</ele>
        <time>2016-07-16T08:04:47Z</time>
      </trkpt>
      <trkpt lat="42.96209" lon="-7.70076">
        <ele>575.5</ele>
        <time>2016-07-16T08:04:57Z</time>
      </trkpt>
      <trkpt lat="42.96207" lon="-7.7009">
        <ele>575.8</ele>
        <time>2016-07-16T08:05:08Z</time>
      </trkpt>
      <trkpt lat="42.96205" lon="-7.70102">
        <ele>575.6</ele>
        <time>2016-07-16T08:05:17Z</time>
      </trkpt>
      <trkpt lat="42.96203" lon="-7.70114">
        <ele>575.5</ele>
        <time>2016-07-16T08:05:26Z</time>
      </trkpt>
      <trkpt lat="42.96201" lon="-7.70127">
        <ele>575.2</ele>
        <time>2016-07-16T08:05:36Z</time>
      </trkpt>
      <trkpt lat="42.96199" lon="-7.7014">
        <ele>575.1</ele>
        <time>2016-07-16T08:05:45Z</time>
      </trkpt>
      <trkpt lat="42.96198" lon="-7.70152">
        <ele>575.2</ele>
        <time>2016-07-16T08:05:55Z</time>
      </trkpt>
      <trkpt lat="42.96197" lon="-7.70165">
        <ele>575.6</ele>
        <time>2016-07-16T08:06:05Z</time>
      </trkpt>
      <trkpt lat="42.96195" lon="-7.70178">
        <ele>576.2</ele>
        <time>2016-07-16T08:06:15Z</time>
      </trkpt>
      <trkpt lat="42.96194" lon="-7.70191">
        <ele>577.2</ele>
        <time>2016-07-16T08:06:24Z</time>
      </trkpt>
      <trkpt lat="42.96191" lon="-7.70204">
        <ele>577.8</ele>
        <time>2016-07-16T08:06:33Z</time>
      </trkpt>
      <trkpt lat="42.9619" lon="-7.70217">
        <ele>578.4</ele>
        <time>2016-07-16T08:06:42Z</time>
      </trkpt>
      <trkpt lat="42.9619" lon="-7.7023">
        <ele>578.9</ele>
        <time>2016-07-16T08:06:51Z</time>
      </trkpt>
      <trkpt lat="42.96188" lon="-7.70244">
        <ele>579.2</ele>
        <time>2016-07-16T08:06:59Z</time>
      </trkpt>
      <trkpt lat="42.96187" lon="-7.70256">
        <ele>579.6</ele>
        <time>2016-07-16T08:07:07Z</time>
      </trkpt>
      <trkpt lat="42.96187" lon="-7.70269">
        <ele>580.3</ele>
        <time>2016-07-16T08:07:15Z</time>
      </trkpt>
      <trkpt lat="42.96187" lon="-7.70282">
        <ele>581</ele>
        <time>2016-07-16T08:07:23Z</time>
      </trkpt>
      <trkpt lat="42.96185" lon="-7.70294">
        <ele>581.4</ele>
        <time>2016-07-16T08:07:30Z</time>
      </trkpt>
      <trkpt lat="42.96184" lon="-7.70308">
        <ele>581.8</ele>
        <time>2016-07-16T08:07:38Z</time>
      </trkpt>
      <trkpt lat="42.96182" lon="-7.70321">
        <ele>582.3</ele>
        <time>2016-07-16T08:07:46Z</time>
      </trkpt>
      <trkpt lat="42.9618" lon="-7.70334">
        <ele>582.7</ele>
        <time>2016-07-16T08:07:54Z</time>
      </trkpt>
      <trkpt lat="42.96178" lon="-7.70346">
        <ele>582.7</ele>
        <time>2016-07-16T08:08:02Z</time>
      </trkpt>
      <trkpt lat="42.96177" lon="-7.70359">
        <ele>582.7</ele>
        <time>2016-07-16T08:08:11Z</time>
      </trkpt>
      <trkpt lat="42.96176" lon="-7.70372">
        <ele>583</ele>
        <time>2016-07-16T08:08:21Z</time>
      </trkpt>
      <trkpt lat="42.96175" lon="-7.70386">
        <ele>583.2</ele>
        <time>2016-07-16T08:08:31Z</time>
      </trkpt>
      <trkpt lat="42.96173" lon="-7.70399">
        <ele>583.4</ele>
        <time>2016-07-16T08:08:41Z</time>
      </trkpt>
      <trkpt lat="42.96173" lon="-7.70412">
        <ele>583.6</ele>
        <time>2016-07-16T08:08:50Z</time>
      </trkpt>
      <trkpt lat="42.96171" lon="-7.70426">
        <ele>583.8</ele>
        <time>2016-07-16T08:08:59Z</time>
      </trkpt>
      <trkpt lat="42.9617" lon="-7.70439">
        <ele>584.1</ele>
        <time>2016-07-16T08:09:08Z</time>
      </trkpt>
      <trkpt lat="42.96167" lon="-7.70452">
        <ele>584.5</ele>
        <time>2016-07-16T08:09:17Z</time>
      </trkpt>
      <trkpt lat="42.96164" lon="-7.70464">
        <ele>584.7</ele>
        <time>2016-07-16T08:09:26Z</time>
      </trkpt>
      <trkpt lat="42.96162" lon="-7.70478">
        <ele>584.8</ele>
        <time>2016-07-16T08:09:35Z</time>
      </trkpt>
      <trkpt lat="42.9616" lon="-7.70491">
        <ele>584.7</ele>
        <time>2016-07-16T08:09:44Z</time>
      </trkpt>
      <trkpt lat="42.96157" lon="-7.70504">
        <ele>584</ele>
        <time>2016-07-16T08:09:53Z</time>
      </trkpt>
      <trkpt lat="42.96155" lon="-7.70516">
        <ele>583.4</ele>
        <time>2016-07-16T08:10:06Z</time>
      </trkpt>
      <trkpt lat="42.96154" lon="-7.70529">
        <ele>583.3</ele>
        <time>2016-07-16T08:10:15Z</time>
      </trkpt>
      <trkpt lat="42.96153" lon="-7.70541">
        <ele>583.2</ele>
        <time>2016-07-16T08:10:24Z</time>
      </trkpt>
      <trkpt lat="42.96152" lon="-7.70553">
        <ele>583</ele>
        <time>2016-07-16T08:10:32Z</time>
      </trkpt>
      <trkpt lat="42.96152" lon="-7.70566">
        <ele>582.8</ele>
        <time>2016-07-16T08:10:40Z</time>
      </trkpt>
      <trkpt lat="42.9615" lon="-7.70579">
        <ele>582.4</ele>
        <time>2016-07-16T08:10:49Z</time>
      </trkpt>
      <trkpt lat="42.96147" lon="-7.70592">
        <ele>581.6</ele>
        <time>2016-07-16T08:10:58Z</time>
      </trkpt>
      <trkpt lat="42.96148" lon="-7.70605">
        <ele>581.1</ele>
        <time>2016-07-16T08:11:08Z</time>
      </trkpt>
      <trkpt lat="42.9615" lon="-7.70618">
        <ele>580.2</ele>
        <time>2016-07-16T08:11:18Z</time>
      </trkpt>
      <trkpt lat="42.96151" lon="-7.70631">
        <ele>579.5</ele>
        <time>2016-07-16T08:11:27Z</time>
      </trkpt>
      <trkpt lat="42.96153" lon="-7.70644">
        <ele>578.7</ele>
        <time>2016-07-16T08:11:36Z</time>
      </trkpt>
      <trkpt lat="42.96156" lon="-7.70657">
        <ele>578.3</ele>
        <time>2016-07-16T08:11:44Z</time>
      </trkpt>
      <trkpt lat="42.96159" lon="-7.70669">
        <ele>577.9</ele>
        <time>2016-07-16T08:11:52Z</time>
      </trkpt>
      <trkpt lat="42.96162" lon="-7.70682">
        <ele>577.4</ele>
        <time>2016-07-16T08:12:00Z</time>
      </trkpt>
      <trkpt lat="42.96164" lon="-7.70695">
        <ele>576.9</ele>
        <time>2016-07-16T08:12:09Z</time>
      </trkpt>
      <trkpt lat="42.96167" lon="-7.70707">
        <ele>577.2</ele>
        <time>2016-07-16T08:12:17Z</time>
      </trkpt>
      <trkpt lat="42.96168" lon="-7.7072">
        <ele>577.6</ele>
        <time>2016-07-16T08:12:26Z</time>
      </trkpt>
      <trkpt lat="42.96168" lon="-7.70733">
        <ele>578.2</ele>
        <time>2016-07-16T08:12:36Z</time>
      </trkpt>
      <trkpt lat="42.96169" lon="-7.70746">
        <ele>578.5</ele>
        <time>2016-07-16T08:12:48Z</time>
      </trkpt>
      <trkpt lat="42.96172" lon="-7.70759">
        <ele>579</ele>
        <time>2016-07-16T08:12:58Z</time>
      </trkpt>
      <trkpt lat="42.96173" lon="-7.70771">
        <ele>579.4</ele>
        <time>2016-07-16T08:13:07Z</time>
      </trkpt>
      <trkpt lat="42.96172" lon="-7.70784">
        <ele>579.6</ele>
        <time>2016-07-16T08:13:15Z</time>
      </trkpt>
      <trkpt lat="42.96172" lon="-7.70797">
        <ele>579.9</ele>
        <time>2016-07-16T08:13:23Z</time>
      </trkpt>
      <trkpt lat="42.96171" lon="-7.70809">
        <ele>580.5</ele>
        <time>2016-07-16T08:13:32Z</time>
      </trkpt>
      <trkpt lat="42.96171" lon="-7.70821">
        <ele>580.9</ele>
        <time>2016-07-16T08:13:41Z</time>
      </trkpt>
      <trkpt lat="42.96172" lon="-7.70834">
        <ele>581.3</ele>
        <time>2016-07-16T08:13:49Z</time>
      </trkpt>
      <trkpt lat="42.96174" lon="-7.70846">
        <ele>581.8</ele>
        <time>2016-07-16T08:13:57Z</time>
      </trkpt>
      <trkpt lat="42.96175" lon="-7.70859">
        <ele>582.2</ele>
        <time>2016-07-16T08:14:05Z</time>
      </trkpt>
      <trkpt lat="42.96177" lon="-7.70873">
        <ele>582.2</ele>
        <time>2016-07-16T08:14:14Z</time>
      </trkpt>
      <trkpt lat="42.9618" lon="-7.70885">
        <ele>582</ele>
        <time>2016-07-16T08:14:23Z</time>
      </trkpt>
      <trkpt lat="42.96185" lon="-7.70896">
        <ele>581.7</ele>
        <time>2016-07-16T08:14:32Z</time>
      </trkpt>
      <trkpt lat="42.9619" lon="-7.70907">
        <ele>581.4</ele>
        <time>2016-07-16T08:14:41Z</time>
      </trkpt>
      <trkpt lat="42.96194" lon="-7.70918">
        <ele>581.1</ele>
        <time>2016-07-16T08:14:49Z</time>
      </trkpt>
      <trkpt lat="42.96199" lon="-7.70929">
        <ele>580.7</ele>
        <time>2016-07-16T08:14:58Z</time>
      </trkpt>
      <trkpt lat="42.96202" lon="-7.70941">
        <ele>580.3</ele>
        <time>2016-07-16T08:15:06Z</time>
      </trkpt>
      <trkpt lat="42.96204" lon="-7.70953">
        <ele>579.9</ele>
        <time>2016-07-16T08:15:14Z</time>
      </trkpt>
      <trkpt lat="42.96205" lon="-7.70966">
        <ele>579.2</ele>
        <time>2016-07-16T08:15:22Z</time>
      </trkpt>
      <trkpt lat="42.96204" lon="-7.70979">
        <ele>578.3</ele>
        <time>2016-07-16T08:15:30Z</time>
      </trkpt>
      <trkpt lat="42.96202" lon="-7.70992">
        <ele>577.7</ele>
        <time>2016-07-16T08:15:38Z</time>
      </trkpt>
      <trkpt lat="42.96198" lon="-7.71004">
        <ele>577.2</ele>
        <time>2016-07-16T08:15:46Z</time>
      </trkpt>
      <trkpt lat="42.96194" lon="-7.71017">
        <ele>576.7</ele>
        <time>2016-07-16T08:15:54Z</time>
      </trkpt>
      <trkpt lat="42.96192" lon="-7.71029">
        <ele>576.1</ele>
        <time>2016-07-16T08:16:01Z</time>
      </trkpt>
      <trkpt lat="42.96193" lon="-7.71042">
        <ele>575.5</ele>
        <time>2016-07-16T08:16:10Z</time>
      </trkpt>
      <trkpt lat="42.96196" lon="-7.71054">
        <ele>575</ele>
        <time>2016-07-16T08:16:19Z</time>
      </trkpt>
      <trkpt lat="42.96199" lon="-7.71066">
        <ele>574.8</ele>
        <time>2016-07-16T08:16:27Z</time>
      </trkpt>
      <trkpt lat="42.96204" lon="-7.71077">
        <ele>574.6</ele>
        <time>2016-07-16T08:16:36Z</time>
      </trkpt>
      <trkpt lat="42.9621" lon="-7.71087">
        <ele>574.8</ele>
        <time>2016-07-16T08:16:44Z</time>
      </trkpt>
      <trkpt lat="42.96214" lon="-7.71098">
        <ele>575.3</ele>
        <time>2016-07-16T08:16:53Z</time>
      </trkpt>
      <trkpt lat="42.96219" lon="-7.71109">
        <ele>575.9</ele>
        <time>2016-07-16T08:17:02Z</time>
      </trkpt>
      <trkpt lat="42.96223" lon="-7.7112">
        <ele>576.6</ele>
        <time>2016-07-16T08:17:11Z</time>
      </trkpt>
      <trkpt lat="42.96227" lon="-7.71131">
        <ele>577</ele>
        <time>2016-07-16T08:17:20Z</time>
      </trkpt>
      <trkpt lat="42.96229" lon="-7.71143">
        <ele>577.8</ele>
        <time>2016-07-16T08:17:29Z</time>
      </trkpt>
      <trkpt lat="42.96233" lon="-7.71156">
        <ele>578.5</ele>
        <time>2016-07-16T08:17:39Z</time>
      </trkpt>
      <trkpt lat="42.96237" lon="-7.71167">
        <ele>579.1</ele>
        <time>2016-07-16T08:17:48Z</time>
      </trkpt>
      <trkpt lat="42.9624" lon="-7.7118">
        <ele>580</ele>
        <time>2016-07-16T08:17:57Z</time>
      </trkpt>
      <trkpt lat="42.96244" lon="-7.71192">
        <ele>580.7</ele>
        <time>2016-07-16T08:18:06Z</time>
      </trkpt>
      <trkpt lat="42.96248" lon="-7.71204">
        <ele>581.2</ele>
        <time>2016-07-16T08:18:14Z</time>
      </trkpt>
      <trkpt lat="42.96254" lon="-7.71213">
        <ele>581.8</ele>
        <time>2016-07-16T08:18:23Z</time>
      </trkpt>
      <trkpt lat="42.96262" lon="-7.71222">
        <ele>582.5</ele>
        <time>2016-07-16T08:18:32Z</time>
      </trkpt>
      <trkpt lat="42.9627" lon="-7.71228">
        <ele>584</ele>
        <time>2016-07-16T08:18:42Z</time>
      </trkpt>
      <trkpt lat="42.96279" lon="-7.71233">
        <ele>584.5</ele>
        <time>2016-07-16T08:18:51Z</time>
      </trkpt>
      <trkpt lat="42.96288" lon="-7.71238">
        <ele>584.9</ele>
        <time>2016-07-16T08:19:01Z</time>
      </trkpt>
      <trkpt lat="42.96296" lon="-7.71244">
        <ele>585.2</ele>
        <time>2016-07-16T08:19:10Z</time>
      </trkpt>
      <trkpt lat="42.96304" lon="-7.71253">
        <ele>585.4</ele>
        <time>2016-07-16T08:19:19Z</time>
      </trkpt>
      <trkpt lat="42.96311" lon="-7.71261">
        <ele>585.7</ele>
        <time>2016-07-16T08:19:28Z</time>
      </trkpt>
      <trkpt lat="42.96317" lon="-7.71272">
        <ele>585.8</ele>
        <time>2016-07-16T08:19:38Z</time>
      </trkpt>
      <trkpt lat="42.9632" lon="-7.71283">
        <ele>586.1</ele>
        <time>2016-07-16T08:19:47Z</time>
      </trkpt>
      <trkpt lat="42.96323" lon="-7.71296">
        <ele>586.5</ele>
        <time>2016-07-16T08:19:57Z</time>
      </trkpt>
      <trkpt lat="42.96322" lon="-7.71309">
        <ele>586.7</ele>
        <time>2016-07-16T08:20:05Z</time>
      </trkpt>
      <trkpt lat="42.96319" lon="-7.71321">
        <ele>587.3</ele>
        <time>2016-07-16T08:20:13Z</time>
      </trkpt>
      <trkpt lat="42.96316" lon="-7.71333">
        <ele>587.8</ele>
        <time>2016-07-16T08:20:21Z</time>
      </trkpt>
      <trkpt lat="42.96311" lon="-7.71345">
        <ele>588.1</ele>
        <time>2016-07-16T08:20:29Z</time>
      </trkpt>
      <trkpt lat="42.96306" lon="-7.71356">
        <ele>588.3</ele>
        <time>2016-07-16T08:20:39Z</time>
      </trkpt>
      <trkpt lat="42.96301" lon="-7.71367">
        <ele>588.5</ele>
        <time>2016-07-16T08:20:48Z</time>
      </trkpt>
      <trkpt lat="42.96293" lon="-7.71375">
        <ele>589.3</ele>
        <time>2016-07-16T08:20:58Z</time>
      </trkpt>
      <trkpt lat="42.96286" lon="-7.71382">
        <ele>589.4</ele>
        <time>2016-07-16T08:21:07Z</time>
      </trkpt>
      <trkpt lat="42.96278" lon="-7.71392">
        <ele>589.4</ele>
        <time>2016-07-16T08:21:16Z</time>
      </trkpt>
      <trkpt lat="42.96271" lon="-7.71401">
        <ele>589.6</ele>
        <time>2016-07-16T08:21:25Z</time>
      </trkpt>
      <trkpt lat="42.96263" lon="-7.7141">
        <ele>589.8</ele>
        <time>2016-07-16T08:21:34Z</time>
      </trkpt>
      <trkpt lat="42.96256" lon="-7.71419">
        <ele>589.9</ele>
        <time>2016-07-16T08:21:43Z</time>
      </trkpt>
      <trkpt lat="42.96249" lon="-7.71428">
        <ele>590.1</ele>
        <time>2016-07-16T08:21:54Z</time>
      </trkpt>
      <trkpt lat="42.9624" lon="-7.71435">
        <ele>590.3</ele>
        <time>2016-07-16T08:22:03Z</time>
      </trkpt>
      <trkpt lat="42.96235" lon="-7.71446">
        <ele>590.6</ele>
        <time>2016-07-16T08:22:15Z</time>
      </trkpt>
      <trkpt lat="42.96234" lon="-7.7146">
        <ele>591</ele>
        <time>2016-07-16T08:22:24Z</time>
      </trkpt>
      <trkpt lat="42.96234" lon="-7.71473">
        <ele>591.3</ele>
        <time>2016-07-16T08:22:33Z</time>
      </trkpt>
      <trkpt lat="42.96234" lon="-7.71486">
        <ele>591.5</ele>
        <time>2016-07-16T08:22:42Z</time>
      </trkpt>
      <trkpt lat="42.96234" lon="-7.715">
        <ele>591.7</ele>
        <time>2016-07-16T08:22:50Z</time>
      </trkpt>
      <trkpt lat="42.96235" lon="-7.71513">
        <ele>592</ele>
        <time>2016-07-16T08:23:00Z</time>
      </trkpt>
      <trkpt lat="42.96235" lon="-7.71527">
        <ele>589.6</ele>
        <time>2016-07-16T08:23:09Z</time>
      </trkpt>
      <trkpt lat="42.96235" lon="-7.71539">
        <ele>592.2</ele>
        <time>2016-07-16T08:23:18Z</time>
      </trkpt>
      <trkpt lat="42.96235" lon="-7.71552">
        <ele>595.5</ele>
        <time>2016-07-16T08:23:27Z</time>
      </trkpt>
      <trkpt lat="42.96234" lon="-7.71565">
        <ele>595.8</ele>
        <time>2016-07-16T08:23:36Z</time>
      </trkpt>
      <trkpt lat="42.96234" lon="-7.71578">
        <ele>599.6</ele>
        <time>2016-07-16T08:23:45Z</time>
      </trkpt>
      <trkpt lat="42.9623" lon="-7.71589">
        <ele>598.4</ele>
        <time>2016-07-16T08:23:53Z</time>
      </trkpt>
      <trkpt lat="42.9623" lon="-7.71603">
        <ele>598.1</ele>
        <time>2016-07-16T08:24:03Z</time>
      </trkpt>
      <trkpt lat="42.96228" lon="-7.71616">
        <ele>597.3</ele>
        <time>2016-07-16T08:24:12Z</time>
      </trkpt>
      <trkpt lat="42.96227" lon="-7.7163">
        <ele>596.8</ele>
        <time>2016-07-16T08:24:21Z</time>
      </trkpt>
      <trkpt lat="42.96226" lon="-7.71643">
        <ele>596.6</ele>
        <time>2016-07-16T08:24:30Z</time>
      </trkpt>
      <trkpt lat="42.96225" lon="-7.71657">
        <ele>596.5</ele>
        <time>2016-07-16T08:24:39Z</time>
      </trkpt>
      <trkpt lat="42.96225" lon="-7.71669">
        <ele>596.4</ele>
        <time>2016-07-16T08:24:47Z</time>
      </trkpt>
      <trkpt lat="42.96224" lon="-7.71682">
        <ele>596.4</ele>
        <time>2016-07-16T08:24:55Z</time>
      </trkpt>
      <trkpt lat="42.96224" lon="-7.71694">
        <ele>596.3</ele>
        <time>2016-07-16T08:25:04Z</time>
      </trkpt>
      <trkpt lat="42.96223" lon="-7.71707">
        <ele>596.1</ele>
        <time>2016-07-16T08:25:12Z</time>
      </trkpt>
      <trkpt lat="42.96221" lon="-7.7172">
        <ele>596</ele>
        <time>2016-07-16T08:25:21Z</time>
      </trkpt>
      <trkpt lat="42.96219" lon="-7.71732">
        <ele>596.1</ele>
        <time>2016-07-16T08:25:34Z</time>
      </trkpt>
      <trkpt lat="42.96218" lon="-7.71745">
        <ele>596.2</ele>
        <time>2016-07-16T08:25:43Z</time>
      </trkpt>
      <trkpt lat="42.96216" lon="-7.71759">
        <ele>595.7</ele>
        <time>2016-07-16T08:25:53Z</time>
      </trkpt>
      <trkpt lat="42.96214" lon="-7.71772">
        <ele>595.9</ele>
        <time>2016-07-16T08:26:02Z</time>
      </trkpt>
      <trkpt lat="42.96212" lon="-7.71786">
        <ele>595.7</ele>
        <time>2016-07-16T08:26:11Z</time>
      </trkpt>
      <trkpt lat="42.96211" lon="-7.71798">
        <ele>595.6</ele>
        <time>2016-07-16T08:26:19Z</time>
      </trkpt>
      <trkpt lat="42.96209" lon="-7.71811">
        <ele>595.5</ele>
        <time>2016-07-16T08:26:27Z</time>
      </trkpt>
      <trkpt lat="42.96206" lon="-7.71823">
        <ele>595.7</ele>
        <time>2016-07-16T08:26:36Z</time>
      </trkpt>
      <trkpt lat="42.96203" lon="-7.71836">
        <ele>595.5</ele>
        <time>2016-07-16T08:26:46Z</time>
      </trkpt>
      <trkpt lat="42.96199" lon="-7.71847">
        <ele>595.5</ele>
        <time>2016-07-16T08:26:55Z</time>
      </trkpt>
      <trkpt lat="42.96193" lon="-7.71856">
        <ele>595.8</ele>
        <time>2016-07-16T08:27:17Z</time>
      </trkpt>
      <trkpt lat="42.96188" lon="-7.71867">
        <ele>595.8</ele>
        <time>2016-07-16T08:27:29Z</time>
      </trkpt>
      <trkpt lat="42.96185" lon="-7.71879">
        <ele>595.7</ele>
        <time>2016-07-16T08:27:39Z</time>
      </trkpt>
      <trkpt lat="42.96182" lon="-7.71891">
        <ele>595.5</ele>
        <time>2016-07-16T08:27:49Z</time>
      </trkpt>
      <trkpt lat="42.9618" lon="-7.71904">
        <ele>595.2</ele>
        <time>2016-07-16T08:27:57Z</time>
      </trkpt>
      <trkpt lat="42.96179" lon="-7.71917">
        <ele>595.3</ele>
        <time>2016-07-16T08:28:06Z</time>
      </trkpt>
      <trkpt lat="42.96177" lon="-7.71929">
        <ele>595.6</ele>
        <time>2016-07-16T08:28:14Z</time>
      </trkpt>
      <trkpt lat="42.96175" lon="-7.71942">
        <ele>595.7</ele>
        <time>2016-07-16T08:28:23Z</time>
      </trkpt>
      <trkpt lat="42.96173" lon="-7.71956">
        <ele>595.7</ele>
        <time>2016-07-16T08:28:32Z</time>
      </trkpt>
      <trkpt lat="42.96171" lon="-7.71969">
        <ele>595.8</ele>
        <time>2016-07-16T08:28:40Z</time>
      </trkpt>
      <trkpt lat="42.9617" lon="-7.71981">
        <ele>596</ele>
        <time>2016-07-16T08:28:49Z</time>
      </trkpt>
      <trkpt lat="42.96169" lon="-7.71994">
        <ele>596.3</ele>
        <time>2016-07-16T08:28:58Z</time>
      </trkpt>
      <trkpt lat="42.96169" lon="-7.72006">
        <ele>596.7</ele>
        <time>2016-07-16T08:29:06Z</time>
      </trkpt>
      <trkpt lat="42.96169" lon="-7.72019">
        <ele>596.7</ele>
        <time>2016-07-16T08:29:14Z</time>
      </trkpt>
      <trkpt lat="42.96169" lon="-7.72033">
        <ele>596.7</ele>
        <time>2016-07-16T08:29:22Z</time>
      </trkpt>
      <trkpt lat="42.96169" lon="-7.72045">
        <ele>596.9</ele>
        <time>2016-07-16T08:29:30Z</time>
      </trkpt>
      <trkpt lat="42.96171" lon="-7.72058">
        <ele>597</ele>
        <time>2016-07-16T08:29:38Z</time>
      </trkpt>
      <trkpt lat="42.96171" lon="-7.7207">
        <ele>597.1</ele>
        <time>2016-07-16T08:29:46Z</time>
      </trkpt>
      <trkpt lat="42.96171" lon="-7.72084">
        <ele>596.9</ele>
        <time>2016-07-16T08:29:55Z</time>
      </trkpt>
      <trkpt lat="42.96172" lon="-7.72097">
        <ele>597.3</ele>
        <time>2016-07-16T08:30:04Z</time>
      </trkpt>
      <trkpt lat="42.96169" lon="-7.7211">
        <ele>597.3</ele>
        <time>2016-07-16T08:30:12Z</time>
      </trkpt>
      <trkpt lat="42.96167" lon="-7.72124">
        <ele>597.3</ele>
        <time>2016-07-16T08:30:20Z</time>
      </trkpt>
      <trkpt lat="42.96163" lon="-7.72136">
        <ele>597.3</ele>
        <time>2016-07-16T08:30:28Z</time>
      </trkpt>
      <trkpt lat="42.96159" lon="-7.72148">
        <ele>597.2</ele>
        <time>2016-07-16T08:30:37Z</time>
      </trkpt>
      <trkpt lat="42.96156" lon="-7.72161">
        <ele>596.8</ele>
        <time>2016-07-16T08:30:46Z</time>
      </trkpt>
      <trkpt lat="42.96153" lon="-7.72174">
        <ele>596.3</ele>
        <time>2016-07-16T08:30:55Z</time>
      </trkpt>
      <trkpt lat="42.96151" lon="-7.72186">
        <ele>596.1</ele>
        <time>2016-07-16T08:31:03Z</time>
      </trkpt>
      <trkpt lat="42.96148" lon="-7.72199">
        <ele>595.9</ele>
        <time>2016-07-16T08:31:11Z</time>
      </trkpt>
      <trkpt lat="42.96145" lon="-7.7221">
        <ele>595.8</ele>
        <time>2016-07-16T08:31:18Z</time>
      </trkpt>
      <trkpt lat="42.96143" lon="-7.72224">
        <ele>595.7</ele>
        <time>2016-07-16T08:31:28Z</time>
      </trkpt>
      <trkpt lat="42.96141" lon="-7.72237">
        <ele>595.7</ele>
        <time>2016-07-16T08:31:37Z</time>
      </trkpt>
      <trkpt lat="42.9614" lon="-7.7225">
        <ele>595.9</ele>
        <time>2016-07-16T08:31:45Z</time>
      </trkpt>
      <trkpt lat="42.9614" lon="-7.72263">
        <ele>595.7</ele>
        <time>2016-07-16T08:31:54Z</time>
      </trkpt>
      <trkpt lat="42.9614" lon="-7.72275">
        <ele>595</ele>
        <time>2016-07-16T08:32:03Z</time>
      </trkpt>
      <trkpt lat="42.96141" lon="-7.72288">
        <ele>595.1</ele>
        <time>2016-07-16T08:32:11Z</time>
      </trkpt>
      <trkpt lat="42.9614" lon="-7.72301">
        <ele>595.1</ele>
        <time>2016-07-16T08:32:20Z</time>
      </trkpt>
      <trkpt lat="42.96139" lon="-7.72315">
        <ele>594.9</ele>
        <time>2016-07-16T08:32:28Z</time>
      </trkpt>
      <trkpt lat="42.96137" lon="-7.72327">
        <ele>594.5</ele>
        <time>2016-07-16T08:32:36Z</time>
      </trkpt>
      <trkpt lat="42.96132" lon="-7.72339">
        <ele>594.3</ele>
        <time>2016-07-16T08:32:44Z</time>
      </trkpt>
      <trkpt lat="42.96127" lon="-7.7235">
        <ele>594.1</ele>
        <time>2016-07-16T08:32:52Z</time>
      </trkpt>
      <trkpt lat="42.96121" lon="-7.72359">
        <ele>593.6</ele>
        <time>2016-07-16T08:32:59Z</time>
      </trkpt>
      <trkpt lat="42.96115" lon="-7.72368">
        <ele>593.2</ele>
        <time>2016-07-16T08:33:07Z</time>
      </trkpt>
      <trkpt lat="42.96107" lon="-7.72377">
        <ele>592.7</ele>
        <time>2016-07-16T08:33:17Z</time>
      </trkpt>
      <trkpt lat="42.96102" lon="-7.72387">
        <ele>592.3</ele>
        <time>2016-07-16T08:33:28Z</time>
      </trkpt>
      <trkpt lat="42.96096" lon="-7.72397">
        <ele>592.2</ele>
        <time>2016-07-16T08:33:36Z</time>
      </trkpt>
      <trkpt lat="42.96093" lon="-7.72409">
        <ele>592.2</ele>
        <time>2016-07-16T08:33:45Z</time>
      </trkpt>
      <trkpt lat="42.96091" lon="-7.72421">
        <ele>591.6</ele>
        <time>2016-07-16T08:33:54Z</time>
      </trkpt>
      <trkpt lat="42.96089" lon="-7.72434">
        <ele>591.6</ele>
        <time>2016-07-16T08:34:03Z</time>
      </trkpt>
      <trkpt lat="42.96086" lon="-7.72448">
        <ele>591.9</ele>
        <time>2016-07-16T08:34:12Z</time>
      </trkpt>
      <trkpt lat="42.96085" lon="-7.72461">
        <ele>592</ele>
        <time>2016-07-16T08:34:21Z</time>
      </trkpt>
      <trkpt lat="42.96084" lon="-7.72473">
        <ele>592.2</ele>
        <time>2016-07-16T08:34:29Z</time>
      </trkpt>
      <trkpt lat="42.96082" lon="-7.72486">
        <ele>592.2</ele>
        <time>2016-07-16T08:34:38Z</time>
      </trkpt>
      <trkpt lat="42.9608" lon="-7.72499">
        <ele>592.5</ele>
        <time>2016-07-16T08:34:47Z</time>
      </trkpt>
      <trkpt lat="42.96079" lon="-7.72511">
        <ele>592.7</ele>
        <time>2016-07-16T08:34:55Z</time>
      </trkpt>
      <trkpt lat="42.96079" lon="-7.72525">
        <ele>592.8</ele>
        <time>2016-07-16T08:35:03Z</time>
      </trkpt>
      <trkpt lat="42.96078" lon="-7.72538">
        <ele>593</ele>
        <time>2016-07-16T08:35:11Z</time>
      </trkpt>
      <trkpt lat="42.96077" lon="-7.72551">
        <ele>593.1</ele>
        <time>2016-07-16T08:35:19Z</time>
      </trkpt>
      <trkpt lat="42.96075" lon="-7.72563">
        <ele>593.7</ele>
        <time>2016-07-16T08:35:27Z</time>
      </trkpt>
      <trkpt lat="42.96073" lon="-7.72576">
        <ele>594.3</ele>
        <time>2016-07-16T08:35:35Z</time>
      </trkpt>
      <trkpt lat="42.9607" lon="-7.72588">
        <ele>594.6</ele>
        <time>2016-07-16T08:35:43Z</time>
      </trkpt>
      <trkpt lat="42.96068" lon="-7.72601">
        <ele>595.4</ele>
        <time>2016-07-16T08:35:53Z</time>
      </trkpt>
      <trkpt lat="42.96064" lon="-7.72612">
        <ele>595.9</ele>
        <time>2016-07-16T08:36:04Z</time>
      </trkpt>
      <trkpt lat="42.9606" lon="-7.72623">
        <ele>596.2</ele>
        <time>2016-07-16T08:36:13Z</time>
      </trkpt>
      <trkpt lat="42.96057" lon="-7.72635">
        <ele>596.8</ele>
        <time>2016-07-16T08:36:23Z</time>
      </trkpt>
      <trkpt lat="42.96053" lon="-7.72646">
        <ele>597.6</ele>
        <time>2016-07-16T08:36:33Z</time>
      </trkpt>
      <trkpt lat="42.9605" lon="-7.72658">
        <ele>598.6</ele>
        <time>2016-07-16T08:36:42Z</time>
      </trkpt>
      <trkpt lat="42.96046" lon="-7.72671">
        <ele>599.5</ele>
        <time>2016-07-16T08:36:51Z</time>
      </trkpt>
      <trkpt lat="42.96043" lon="-7.72683">
        <ele>600.2</ele>
        <time>2016-07-16T08:37:01Z</time>
      </trkpt>
      <trkpt lat="42.9604" lon="-7.72694">
        <ele>600.7</ele>
        <time>2016-07-16T08:37:11Z</time>
      </trkpt>
      <trkpt lat="42.96035" lon="-7.72706">
        <ele>601.1</ele>
        <time>2016-07-16T08:37:20Z</time>
      </trkpt>
      <trkpt lat="42.96032" lon="-7.72717">
        <ele>601.9</ele>
        <time>2016-07-16T08:37:29Z</time>
      </trkpt>
      <trkpt lat="42.96028" lon="-7.72729">
        <ele>602.8</ele>
        <time>2016-07-16T08:37:39Z</time>
      </trkpt>
      <trkpt lat="42.96024" lon="-7.7274">
        <ele>603.3</ele>
        <time>2016-07-16T08:37:48Z</time>
      </trkpt>
      <trkpt lat="42.96019" lon="-7.72752">
        <ele>603.8</ele>
        <time>2016-07-16T08:37:57Z</time>
      </trkpt>
      <trkpt lat="42.96017" lon="-7.72765">
        <ele>604.6</ele>
        <time>2016-07-16T08:38:07Z</time>
      </trkpt>
      <trkpt lat="42.96013" lon="-7.72778">
        <ele>605.2</ele>
        <time>2016-07-16T08:38:18Z</time>
      </trkpt>
      <trkpt lat="42.96011" lon="-7.72791">
        <ele>605.8</ele>
        <time>2016-07-16T08:38:27Z</time>
      </trkpt>
      <trkpt lat="42.96008" lon="-7.72805">
        <ele>606.2</ele>
        <time>2016-07-16T08:38:36Z</time>
      </trkpt>
      <trkpt lat="42.96006" lon="-7.72818">
        <ele>606.7</ele>
        <time>2016-07-16T08:38:45Z</time>
      </trkpt>
      <trkpt lat="42.96003" lon="-7.7283">
        <ele>607.2</ele>
        <time>2016-07-16T08:38:53Z</time>
      </trkpt>
      <trkpt lat="42.96001" lon="-7.72843">
        <ele>607.6</ele>
        <time>2016-07-16T08:39:01Z</time>
      </trkpt>
      <trkpt lat="42.95999" lon="-7.72856">
        <ele>607.8</ele>
        <time>2016-07-16T08:39:10Z</time>
      </trkpt>
      <trkpt lat="42.95996" lon="-7.72869">
        <ele>607.9</ele>
        <time>2016-07-16T08:39:19Z</time>
      </trkpt>
      <trkpt lat="42.95993" lon="-7.72882">
        <ele>608.3</ele>
        <time>2016-07-16T08:39:27Z</time>
      </trkpt>
      <trkpt lat="42.9599" lon="-7.72894">
        <ele>608.5</ele>
        <time>2016-07-16T08:39:35Z</time>
      </trkpt>
      <trkpt lat="42.95985" lon="-7.72906">
        <ele>608.7</ele>
        <time>2016-07-16T08:39:44Z</time>
      </trkpt>
      <trkpt lat="42.95981" lon="-7.72917">
        <ele>608.8</ele>
        <time>2016-07-16T08:39:52Z</time>
      </trkpt>
      <trkpt lat="42.95977" lon="-7.72929">
        <ele>609</ele>
        <time>2016-07-16T08:40:00Z</time>
      </trkpt>
      <trkpt lat="42.95973" lon="-7.7294">
        <ele>609.2</ele>
        <time>2016-07-16T08:40:08Z</time>
      </trkpt>
      <trkpt lat="42.95967" lon="-7.72952">
        <ele>609.5</ele>
        <time>2016-07-16T08:40:17Z</time>
      </trkpt>
      <trkpt lat="42.95962" lon="-7.72963">
        <ele>609.6</ele>
        <time>2016-07-16T08:40:26Z</time>
      </trkpt>
      <trkpt lat="42.95958" lon="-7.72974">
        <ele>609.4</ele>
        <time>2016-07-16T08:40:38Z</time>
      </trkpt>
      <trkpt lat="42.95953" lon="-7.72984">
        <ele>609.2</ele>
        <time>2016-07-16T08:40:47Z</time>
      </trkpt>
      <trkpt lat="42.9595" lon="-7.72996">
        <ele>608.9</ele>
        <time>2016-07-16T08:40:55Z</time>
      </trkpt>
      <trkpt lat="42.95944" lon="-7.73007">
        <ele>608.5</ele>
        <time>2016-07-16T08:41:04Z</time>
      </trkpt>
      <trkpt lat="42.95939" lon="-7.73018">
        <ele>608.1</ele>
        <time>2016-07-16T08:41:14Z</time>
      </trkpt>
      <trkpt lat="42.95934" lon="-7.73029">
        <ele>607.2</ele>
        <time>2016-07-16T08:41:24Z</time>
      </trkpt>
      <trkpt lat="42.95928" lon="-7.7304">
        <ele>606.6</ele>
        <time>2016-07-16T08:41:33Z</time>
      </trkpt>
      <trkpt lat="42.95924" lon="-7.73051">
        <ele>606</ele>
        <time>2016-07-16T08:41:43Z</time>
      </trkpt>
      <trkpt lat="42.95919" lon="-7.73062">
        <ele>605.6</ele>
        <time>2016-07-16T08:41:52Z</time>
      </trkpt>
      <trkpt lat="42.95914" lon="-7.73074">
        <ele>605.2</ele>
        <time>2016-07-16T08:42:01Z</time>
      </trkpt>
      <trkpt lat="42.9591" lon="-7.73086">
        <ele>604.2</ele>
        <time>2016-07-16T08:42:10Z</time>
      </trkpt>
      <trkpt lat="42.95906" lon="-7.73098">
        <ele>603.5</ele>
        <time>2016-07-16T08:42:17Z</time>
      </trkpt>
      <trkpt lat="42.95901" lon="-7.73111">
        <ele>603</ele>
        <time>2016-07-16T08:42:25Z</time>
      </trkpt>
      <trkpt lat="42.95897" lon="-7.73123">
        <ele>602.3</ele>
        <time>2016-07-16T08:42:34Z</time>
      </trkpt>
      <trkpt lat="42.95893" lon="-7.73134">
        <ele>601.9</ele>
        <time>2016-07-16T08:42:42Z</time>
      </trkpt>
      <trkpt lat="42.95888" lon="-7.73144">
        <ele>601.4</ele>
        <time>2016-07-16T08:42:51Z</time>
      </trkpt>
      <trkpt lat="42.95884" lon="-7.73156">
        <ele>600.7</ele>
        <time>2016-07-16T08:43:00Z</time>
      </trkpt>
      <trkpt lat="42.9588" lon="-7.73167">
        <ele>599.9</ele>
        <time>2016-07-16T08:43:11Z</time>
      </trkpt>
      <trkpt lat="42.95875" lon="-7.7318">
        <ele>599.6</ele>
        <time>2016-07-16T08:43:19Z</time>
      </trkpt>
      <trkpt lat="42.95873" lon="-7.73192">
        <ele>599.3</ele>
        <time>2016-07-16T08:43:29Z</time>
      </trkpt>
      <trkpt lat="42.9587" lon="-7.73204">
        <ele>598.6</ele>
        <time>2016-07-16T08:43:40Z</time>
      </trkpt>
      <trkpt lat="42.95866" lon="-7.73215">
        <ele>597.6</ele>
        <time>2016-07-16T08:43:52Z</time>
      </trkpt>
      <trkpt lat="42.95859" lon="-7.73225">
        <ele>596.4</ele>
        <time>2016-07-16T08:44:19Z</time>
      </trkpt>
      <trkpt lat="42.95861" lon="-7.73238">
        <ele>596.1</ele>
        <time>2016-07-16T08:44:48Z</time>
      </trkpt>
      <trkpt lat="42.95856" lon="-7.73249">
        <ele>595.5</ele>
        <time>2016-07-16T08:44:58Z</time>
      </trkpt>
      <trkpt lat="42.95851" lon="-7.7326">
        <ele>595.1</ele>
        <time>2016-07-16T08:45:07Z</time>
      </trkpt>
      <trkpt lat="42.95857" lon="-7.73269">
        <ele>593.8</ele>
        <time>2016-07-16T08:45:47Z</time>
      </trkpt>
      <trkpt lat="42.95861" lon="-7.73257">
        <ele>594</ele>
        <time>2016-07-16T08:46:29Z</time>
      </trkpt>
      <trkpt lat="42.95852" lon="-7.73262">
        <ele>594.5</ele>
        <time>2016-07-16T08:47:13Z</time>
      </trkpt>
      <trkpt lat="42.95845" lon="-7.73254">
        <ele>594.3</ele>
        <time>2016-07-16T08:47:47Z</time>
      </trkpt>
      <trkpt lat="42.95838" lon="-7.73265">
        <ele>594</ele>
        <time>2016-07-16T08:48:13Z</time>
      </trkpt>
      <trkpt lat="42.95838" lon="-7.73278">
        <ele>594.3</ele>
        <time>2016-07-16T08:49:28Z</time>
      </trkpt>
      <trkpt lat="42.95836" lon="-7.73291">
        <ele>594.2</ele>
        <time>2016-07-16T08:49:38Z</time>
      </trkpt>
      <trkpt lat="42.95833" lon="-7.73303">
        <ele>593.8</ele>
        <time>2016-07-16T08:49:46Z</time>
      </trkpt>
      <trkpt lat="42.9583" lon="-7.73315">
        <ele>593.5</ele>
        <time>2016-07-16T08:49:55Z</time>
      </trkpt>
      <trkpt lat="42.95826" lon="-7.73327">
        <ele>593.1</ele>
        <time>2016-07-16T08:50:05Z</time>
      </trkpt>
      <trkpt lat="42.95822" lon="-7.73338">
        <ele>592.4</ele>
        <time>2016-07-16T08:50:13Z</time>
      </trkpt>
      <trkpt lat="42.95817" lon="-7.73349">
        <ele>591</ele>
        <time>2016-07-16T08:50:24Z</time>
      </trkpt>
      <trkpt lat="42.95812" lon="-7.73359">
        <ele>590.5</ele>
        <time>2016-07-16T08:50:32Z</time>
      </trkpt>
      <trkpt lat="42.95808" lon="-7.73371">
        <ele>590.2</ele>
        <time>2016-07-16T08:50:41Z</time>
      </trkpt>
      <trkpt lat="42.95804" lon="-7.73382">
        <ele>589.4</ele>
        <time>2016-07-16T08:50:49Z</time>
      </trkpt>
      <trkpt lat="42.958" lon="-7.73394">
        <ele>589</ele>
        <time>2016-07-16T08:50:58Z</time>
      </trkpt>
      <trkpt lat="42.95796" lon="-7.73407">
        <ele>588.8</ele>
        <time>2016-07-16T08:51:07Z</time>
      </trkpt>
      <trkpt lat="42.95792" lon="-7.73419">
        <ele>588.5</ele>
        <time>2016-07-16T08:51:15Z</time>
      </trkpt>
      <trkpt lat="42.95789" lon="-7.73432">
        <ele>587.9</ele>
        <time>2016-07-16T08:51:24Z</time>
      </trkpt>
      <trkpt lat="42.95784" lon="-7.73443">
        <ele>587.3</ele>
        <time>2016-07-16T08:51:33Z</time>
      </trkpt>
      <trkpt lat="42.9578" lon="-7.73455">
        <ele>586.5</ele>
        <time>2016-07-16T08:51:42Z</time>
      </trkpt>
      <trkpt lat="42.95775" lon="-7.73467">
        <ele>585.9</ele>
        <time>2016-07-16T08:51:51Z</time>
      </trkpt>
      <trkpt lat="42.95771" lon="-7.73478">
        <ele>585.5</ele>
        <time>2016-07-16T08:51:59Z</time>
      </trkpt>
      <trkpt lat="42.95765" lon="-7.73488">
        <ele>585.4</ele>
        <time>2016-07-16T08:52:07Z</time>
      </trkpt>
      <trkpt lat="42.95761" lon="-7.73499">
        <ele>585.2</ele>
        <time>2016-07-16T08:52:17Z</time>
      </trkpt>
      <trkpt lat="42.95757" lon="-7.73511">
        <ele>584.2</ele>
        <time>2016-07-16T08:52:26Z</time>
      </trkpt>
      <trkpt lat="42.95753" lon="-7.73524">
        <ele>583.7</ele>
        <time>2016-07-16T08:52:36Z</time>
      </trkpt>
      <trkpt lat="42.95748" lon="-7.73536">
        <ele>583.5</ele>
        <time>2016-07-16T08:52:44Z</time>
      </trkpt>
      <trkpt lat="42.95744" lon="-7.73548">
        <ele>582.9</ele>
        <time>2016-07-16T08:52:52Z</time>
      </trkpt>
      <trkpt lat="42.9574" lon="-7.7356">
        <ele>582.6</ele>
        <time>2016-07-16T08:53:04Z</time>
      </trkpt>
      <trkpt lat="42.95735" lon="-7.73571">
        <ele>582.3</ele>
        <time>2016-07-16T08:53:12Z</time>
      </trkpt>
      <trkpt lat="42.95731" lon="-7.73584">
        <ele>582</ele>
        <time>2016-07-16T08:53:22Z</time>
      </trkpt>
      <trkpt lat="42.95728" lon="-7.73595">
        <ele>581.2</ele>
        <time>2016-07-16T08:53:33Z</time>
      </trkpt>
      <trkpt lat="42.95723" lon="-7.73606">
        <ele>581</ele>
        <time>2016-07-16T08:53:41Z</time>
      </trkpt>
      <trkpt lat="42.95718" lon="-7.73618">
        <ele>580.7</ele>
        <time>2016-07-16T08:53:50Z</time>
      </trkpt>
      <trkpt lat="42.95713" lon="-7.73629">
        <ele>580.2</ele>
        <time>2016-07-16T08:53:58Z</time>
      </trkpt>
      <trkpt lat="42.95705" lon="-7.73636">
        <ele>579.8</ele>
        <time>2016-07-16T08:54:06Z</time>
      </trkpt>
      <trkpt lat="42.95697" lon="-7.73643">
        <ele>579.6</ele>
        <time>2016-07-16T08:54:14Z</time>
      </trkpt>
      <trkpt lat="42.95688" lon="-7.73646">
        <ele>579.6</ele>
        <time>2016-07-16T08:54:22Z</time>
      </trkpt>
      <trkpt lat="42.95679" lon="-7.7365">
        <ele>579.3</ele>
        <time>2016-07-16T08:54:30Z</time>
      </trkpt>
      <trkpt lat="42.9567" lon="-7.73652">
        <ele>578.6</ele>
        <time>2016-07-16T08:54:38Z</time>
      </trkpt>
      <trkpt lat="42.95661" lon="-7.73655">
        <ele>578.7</ele>
        <time>2016-07-16T08:54:46Z</time>
      </trkpt>
      <trkpt lat="42.95652" lon="-7.73659">
        <ele>578.3</ele>
        <time>2016-07-16T08:54:55Z</time>
      </trkpt>
      <trkpt lat="42.95642" lon="-7.73664">
        <ele>578.6</ele>
        <time>2016-07-16T08:55:04Z</time>
      </trkpt>
      <trkpt lat="42.95634" lon="-7.73669">
        <ele>578.7</ele>
        <time>2016-07-16T08:55:12Z</time>
      </trkpt>
      <trkpt lat="42.95625" lon="-7.73676">
        <ele>578.9</ele>
        <time>2016-07-16T08:55:21Z</time>
      </trkpt>
      <trkpt lat="42.95618" lon="-7.73684">
        <ele>579.2</ele>
        <time>2016-07-16T08:55:31Z</time>
      </trkpt>
      <trkpt lat="42.9561" lon="-7.73691">
        <ele>579.6</ele>
        <time>2016-07-16T08:55:41Z</time>
      </trkpt>
      <trkpt lat="42.95601" lon="-7.73697">
        <ele>580.4</ele>
        <time>2016-07-16T08:55:51Z</time>
      </trkpt>
      <trkpt lat="42.95593" lon="-7.73701">
        <ele>581.1</ele>
        <time>2016-07-16T08:56:00Z</time>
      </trkpt>
      <trkpt lat="42.95583" lon="-7.73704">
        <ele>581.8</ele>
        <time>2016-07-16T08:56:12Z</time>
      </trkpt>
      <trkpt lat="42.95574" lon="-7.73707">
        <ele>582.2</ele>
        <time>2016-07-16T08:56:22Z</time>
      </trkpt>
      <trkpt lat="42.95565" lon="-7.73712">
        <ele>583</ele>
        <time>2016-07-16T08:56:30Z</time>
      </trkpt>
      <trkpt lat="42.95562" lon="-7.73724">
        <ele>584.2</ele>
        <time>2016-07-16T08:56:46Z</time>
      </trkpt>
      <trkpt lat="42.95563" lon="-7.73737">
        <ele>584.7</ele>
        <time>2016-07-16T08:56:57Z</time>
      </trkpt>
      <trkpt lat="42.95562" lon="-7.73749">
        <ele>585.3</ele>
        <time>2016-07-16T08:57:09Z</time>
      </trkpt>
      <trkpt lat="42.95554" lon="-7.73758">
        <ele>586</ele>
        <time>2016-07-16T08:57:22Z</time>
      </trkpt>
      <trkpt lat="42.95545" lon="-7.73758">
        <ele>587.4</ele>
        <time>2016-07-16T08:57:38Z</time>
      </trkpt>
      <trkpt lat="42.95539" lon="-7.73768">
        <ele>588.3</ele>
        <time>2016-07-16T08:59:28Z</time>
      </trkpt>
      <trkpt lat="42.95541" lon="-7.7378">
        <ele>588.2</ele>
        <time>2016-07-16T08:59:38Z</time>
      </trkpt>
      <trkpt lat="42.95542" lon="-7.73793">
        <ele>588.7</ele>
        <time>2016-07-16T08:59:49Z</time>
      </trkpt>
      <trkpt lat="42.9554" lon="-7.73806">
        <ele>590.4</ele>
        <time>2016-07-16T09:00:45Z</time>
      </trkpt>
      <trkpt lat="42.9554" lon="-7.73818">
        <ele>590.4</ele>
        <time>2016-07-16T09:01:05Z</time>
      </trkpt>
      <trkpt lat="42.95541" lon="-7.73831">
        <ele>590.7</ele>
        <time>2016-07-16T09:01:19Z</time>
      </trkpt>
      <trkpt lat="42.95536" lon="-7.73842">
        <ele>592.2</ele>
        <time>2016-07-16T09:03:22Z</time>
      </trkpt>
      <trkpt lat="42.9553" lon="-7.73852">
        <ele>592.1</ele>
        <time>2016-07-16T09:03:34Z</time>
      </trkpt>
      <trkpt lat="42.95524" lon="-7.73862">
        <ele>592.5</ele>
        <time>2016-07-16T09:03:44Z</time>
      </trkpt>
      <trkpt lat="42.95519" lon="-7.73873">
        <ele>592.8</ele>
        <time>2016-07-16T09:03:54Z</time>
      </trkpt>
      <trkpt lat="42.95511" lon="-7.73879">
        <ele>593.6</ele>
        <time>2016-07-16T09:04:06Z</time>
      </trkpt>
      <trkpt lat="42.95512" lon="-7.73891">
        <ele>595.1</ele>
        <time>2016-07-16T09:04:32Z</time>
      </trkpt>
      <trkpt lat="42.95515" lon="-7.73903">
        <ele>595</ele>
        <time>2016-07-16T09:04:43Z</time>
      </trkpt>
      <trkpt lat="42.95516" lon="-7.73916">
        <ele>595.1</ele>
        <time>2016-07-16T09:04:54Z</time>
      </trkpt>
      <trkpt lat="42.95517" lon="-7.73928">
        <ele>595.4</ele>
        <time>2016-07-16T09:05:03Z</time>
      </trkpt>
      <trkpt lat="42.95517" lon="-7.73942">
        <ele>595.7</ele>
        <time>2016-07-16T09:05:12Z</time>
      </trkpt>
      <trkpt lat="42.95517" lon="-7.73955">
        <ele>596.1</ele>
        <time>2016-07-16T09:05:20Z</time>
      </trkpt>
      <trkpt lat="42.95517" lon="-7.73968">
        <ele>596.6</ele>
        <time>2016-07-16T09:05:29Z</time>
      </trkpt>
      <trkpt lat="42.95518" lon="-7.7398">
        <ele>597</ele>
        <time>2016-07-16T09:05:39Z</time>
      </trkpt>
      <trkpt lat="42.95516" lon="-7.73993">
        <ele>598.3</ele>
        <time>2016-07-16T09:05:49Z</time>
      </trkpt>
      <trkpt lat="42.95512" lon="-7.74005">
        <ele>599.1</ele>
        <time>2016-07-16T09:05:59Z</time>
      </trkpt>
      <trkpt lat="42.95509" lon="-7.74017">
        <ele>599.4</ele>
        <time>2016-07-16T09:06:08Z</time>
      </trkpt>
      <trkpt lat="42.95505" lon="-7.74029">
        <ele>599.8</ele>
        <time>2016-07-16T09:06:16Z</time>
      </trkpt>
      <trkpt lat="42.95501" lon="-7.7404">
        <ele>600.3</ele>
        <time>2016-07-16T09:06:24Z</time>
      </trkpt>
      <trkpt lat="42.95497" lon="-7.74051">
        <ele>600.6</ele>
        <time>2016-07-16T09:06:32Z</time>
      </trkpt>
      <trkpt lat="42.95491" lon="-7.74061">
        <ele>600.9</ele>
        <time>2016-07-16T09:06:40Z</time>
      </trkpt>
      <trkpt lat="42.95483" lon="-7.74069">
        <ele>601.1</ele>
        <time>2016-07-16T09:06:49Z</time>
      </trkpt>
      <trkpt lat="42.95475" lon="-7.74077">
        <ele>601.5</ele>
        <time>2016-07-16T09:07:10Z</time>
      </trkpt>
      <trkpt lat="42.95467" lon="-7.74081">
        <ele>601.3</ele>
        <time>2016-07-16T09:07:20Z</time>
      </trkpt>
      <trkpt lat="42.9546" lon="-7.7409">
        <ele>599.3</ele>
        <time>2016-07-16T09:08:16Z</time>
      </trkpt>
      <trkpt lat="42.95454" lon="-7.74102">
        <ele>599.6</ele>
        <time>2016-07-16T09:08:24Z</time>
      </trkpt>
      <trkpt lat="42.95451" lon="-7.74114">
        <ele>599.9</ele>
        <time>2016-07-16T09:08:32Z</time>
      </trkpt>
      <trkpt lat="42.95447" lon="-7.74126">
        <ele>600.1</ele>
        <time>2016-07-16T09:08:40Z</time>
      </trkpt>
      <trkpt lat="42.95444" lon="-7.74138">
        <ele>600.5</ele>
        <time>2016-07-16T09:08:48Z</time>
      </trkpt>
      <trkpt lat="42.9544" lon="-7.74149">
        <ele>600.9</ele>
        <time>2016-07-16T09:08:56Z</time>
      </trkpt>
      <trkpt lat="42.95435" lon="-7.74161">
        <ele>601.7</ele>
        <time>2016-07-16T09:09:04Z</time>
      </trkpt>
      <trkpt lat="42.95431" lon="-7.74171">
        <ele>601.9</ele>
        <time>2016-07-16T09:09:11Z</time>
      </trkpt>
      <trkpt lat="42.95425" lon="-7.74181">
        <ele>602.5</ele>
        <time>2016-07-16T09:09:24Z</time>
      </trkpt>
      <trkpt lat="42.95418" lon="-7.7419">
        <ele>602.6</ele>
        <time>2016-07-16T09:09:31Z</time>
      </trkpt>
      <trkpt lat="42.9541" lon="-7.74198">
        <ele>603</ele>
        <time>2016-07-16T09:09:39Z</time>
      </trkpt>
      <trkpt lat="42.95403" lon="-7.74206">
        <ele>602.9</ele>
        <time>2016-07-16T09:09:46Z</time>
      </trkpt>
      <trkpt lat="42.95396" lon="-7.74216">
        <ele>602.9</ele>
        <time>2016-07-16T09:09:54Z</time>
      </trkpt>
      <trkpt lat="42.9539" lon="-7.74225">
        <ele>603.2</ele>
        <time>2016-07-16T09:10:02Z</time>
      </trkpt>
      <trkpt lat="42.95382" lon="-7.74234">
        <ele>603.5</ele>
        <time>2016-07-16T09:10:10Z</time>
      </trkpt>
      <trkpt lat="42.95376" lon="-7.74243">
        <ele>603.7</ele>
        <time>2016-07-16T09:10:18Z</time>
      </trkpt>
      <trkpt lat="42.95369" lon="-7.74251">
        <ele>604</ele>
        <time>2016-07-16T09:10:27Z</time>
      </trkpt>
      <trkpt lat="42.95362" lon="-7.74259">
        <ele>604.4</ele>
        <time>2016-07-16T09:10:36Z</time>
      </trkpt>
      <trkpt lat="42.95354" lon="-7.74267">
        <ele>604.8</ele>
        <time>2016-07-16T09:10:45Z</time>
      </trkpt>
      <trkpt lat="42.95347" lon="-7.74275">
        <ele>604.8</ele>
        <time>2016-07-16T09:10:54Z</time>
      </trkpt>
      <trkpt lat="42.9534" lon="-7.74284">
        <ele>604.7</ele>
        <time>2016-07-16T09:11:02Z</time>
      </trkpt>
      <trkpt lat="42.95333" lon="-7.74293">
        <ele>604.5</ele>
        <time>2016-07-16T09:11:10Z</time>
      </trkpt>
      <trkpt lat="42.95326" lon="-7.743">
        <ele>604.4</ele>
        <time>2016-07-16T09:11:18Z</time>
      </trkpt>
      <trkpt lat="42.9532" lon="-7.7431">
        <ele>604.4</ele>
        <time>2016-07-16T09:11:27Z</time>
      </trkpt>
      <trkpt lat="42.95313" lon="-7.74321">
        <ele>604</ele>
        <time>2016-07-16T09:11:37Z</time>
      </trkpt>
      <trkpt lat="42.95307" lon="-7.74332">
        <ele>603.4</ele>
        <time>2016-07-16T09:11:46Z</time>
      </trkpt>
      <trkpt lat="42.95301" lon="-7.74342">
        <ele>602.7</ele>
        <time>2016-07-16T09:11:55Z</time>
      </trkpt>
      <trkpt lat="42.95295" lon="-7.74351">
        <ele>602.4</ele>
        <time>2016-07-16T09:12:04Z</time>
      </trkpt>
      <trkpt lat="42.95288" lon="-7.74361">
        <ele>601.9</ele>
        <time>2016-07-16T09:12:13Z</time>
      </trkpt>
      <trkpt lat="42.95282" lon="-7.74371">
        <ele>601.6</ele>
        <time>2016-07-16T09:12:20Z</time>
      </trkpt>
      <trkpt lat="42.95275" lon="-7.7438">
        <ele>601.2</ele>
        <time>2016-07-16T09:12:28Z</time>
      </trkpt>
      <trkpt lat="42.95268" lon="-7.7439">
        <ele>600.9</ele>
        <time>2016-07-16T09:12:36Z</time>
      </trkpt>
      <trkpt lat="42.95261" lon="-7.74399">
        <ele>600.8</ele>
        <time>2016-07-16T09:12:44Z</time>
      </trkpt>
      <trkpt lat="42.95255" lon="-7.7441">
        <ele>600.7</ele>
        <time>2016-07-16T09:12:52Z</time>
      </trkpt>
      <trkpt lat="42.95249" lon="-7.7442">
        <ele>600.7</ele>
        <time>2016-07-16T09:13:01Z</time>
      </trkpt>
      <trkpt lat="42.95244" lon="-7.74432">
        <ele>601</ele>
        <time>2016-07-16T09:13:11Z</time>
      </trkpt>
      <trkpt lat="42.9524" lon="-7.74444">
        <ele>601</ele>
        <time>2016-07-16T09:13:21Z</time>
      </trkpt>
      <trkpt lat="42.95236" lon="-7.74455">
        <ele>600.9</ele>
        <time>2016-07-16T09:13:31Z</time>
      </trkpt>
      <trkpt lat="42.95232" lon="-7.74467">
        <ele>601.2</ele>
        <time>2016-07-16T09:13:42Z</time>
      </trkpt>
      <trkpt lat="42.95228" lon="-7.74478">
        <ele>601.1</ele>
        <time>2016-07-16T09:13:50Z</time>
      </trkpt>
      <trkpt lat="42.95223" lon="-7.7449">
        <ele>600.7</ele>
        <time>2016-07-16T09:13:59Z</time>
      </trkpt>
      <trkpt lat="42.95218" lon="-7.74501">
        <ele>600.8</ele>
        <time>2016-07-16T09:14:07Z</time>
      </trkpt>
      <trkpt lat="42.95213" lon="-7.74512">
        <ele>600.9</ele>
        <time>2016-07-16T09:14:15Z</time>
      </trkpt>
      <trkpt lat="42.95207" lon="-7.74523">
        <ele>601</ele>
        <time>2016-07-16T09:14:23Z</time>
      </trkpt>
      <trkpt lat="42.95202" lon="-7.74533">
        <ele>601</ele>
        <time>2016-07-16T09:14:33Z</time>
      </trkpt>
      <trkpt lat="42.95196" lon="-7.74544">
        <ele>601.2</ele>
        <time>2016-07-16T09:14:44Z</time>
      </trkpt>
      <trkpt lat="42.95193" lon="-7.74556">
        <ele>601.5</ele>
        <time>2016-07-16T09:14:52Z</time>
      </trkpt>
      <trkpt lat="42.95189" lon="-7.74568">
        <ele>602.2</ele>
        <time>2016-07-16T09:15:01Z</time>
      </trkpt>
      <trkpt lat="42.95186" lon="-7.7458">
        <ele>602.3</ele>
        <time>2016-07-16T09:15:10Z</time>
      </trkpt>
      <trkpt lat="42.95183" lon="-7.74594">
        <ele>602.3</ele>
        <time>2016-07-16T09:15:18Z</time>
      </trkpt>
      <trkpt lat="42.9518" lon="-7.74606">
        <ele>602.2</ele>
        <time>2016-07-16T09:15:25Z</time>
      </trkpt>
      <trkpt lat="42.9518" lon="-7.74619">
        <ele>602.3</ele>
        <time>2016-07-16T09:15:36Z</time>
      </trkpt>
      <trkpt lat="42.95175" lon="-7.7463">
        <ele>602.6</ele>
        <time>2016-07-16T09:15:45Z</time>
      </trkpt>
      <trkpt lat="42.95169" lon="-7.74641">
        <ele>603.1</ele>
        <time>2016-07-16T09:15:54Z</time>
      </trkpt>
      <trkpt lat="42.95161" lon="-7.74647">
        <ele>602.8</ele>
        <time>2016-07-16T09:16:04Z</time>
      </trkpt>
      <trkpt lat="42.95152" lon="-7.74652">
        <ele>602.7</ele>
        <time>2016-07-16T09:16:14Z</time>
      </trkpt>
      <trkpt lat="42.95144" lon="-7.74657">
        <ele>602.4</ele>
        <time>2016-07-16T09:16:22Z</time>
      </trkpt>
      <trkpt lat="42.95135" lon="-7.74664">
        <ele>602.1</ele>
        <time>2016-07-16T09:16:31Z</time>
      </trkpt>
      <trkpt lat="42.95128" lon="-7.74672">
        <ele>601.8</ele>
        <time>2016-07-16T09:16:39Z</time>
      </trkpt>
      <trkpt lat="42.95121" lon="-7.74681">
        <ele>601.4</ele>
        <time>2016-07-16T09:16:46Z</time>
      </trkpt>
      <trkpt lat="42.95114" lon="-7.7469">
        <ele>600.9</ele>
        <time>2016-07-16T09:16:54Z</time>
      </trkpt>
      <trkpt lat="42.95109" lon="-7.747">
        <ele>600.4</ele>
        <time>2016-07-16T09:17:03Z</time>
      </trkpt>
      <trkpt lat="42.95104" lon="-7.74711">
        <ele>599.9</ele>
        <time>2016-07-16T09:17:14Z</time>
      </trkpt>
      <trkpt lat="42.95097" lon="-7.7472">
        <ele>599.4</ele>
        <time>2016-07-16T09:17:22Z</time>
      </trkpt>
      <trkpt lat="42.95092" lon="-7.74731">
        <ele>599</ele>
        <time>2016-07-16T09:17:32Z</time>
      </trkpt>
      <trkpt lat="42.95086" lon="-7.74742">
        <ele>598.4</ele>
        <time>2016-07-16T09:17:42Z</time>
      </trkpt>
      <trkpt lat="42.95081" lon="-7.74753">
        <ele>598.3</ele>
        <time>2016-07-16T09:17:55Z</time>
      </trkpt>
      <trkpt lat="42.95076" lon="-7.74764">
        <ele>598.2</ele>
        <time>2016-07-16T09:18:05Z</time>
      </trkpt>
      <trkpt lat="42.95073" lon="-7.74777">
        <ele>597.8</ele>
        <time>2016-07-16T09:18:15Z</time>
      </trkpt>
      <trkpt lat="42.95072" lon="-7.74789">
        <ele>595.7</ele>
        <time>2016-07-16T09:18:23Z</time>
      </trkpt>
      <trkpt lat="42.95069" lon="-7.74802">
        <ele>592.4</ele>
        <time>2016-07-16T09:18:30Z</time>
      </trkpt>
      <trkpt lat="42.95067" lon="-7.74815">
        <ele>599.6</ele>
        <time>2016-07-16T09:18:39Z</time>
      </trkpt>
      <trkpt lat="42.95065" lon="-7.74827">
        <ele>602.2</ele>
        <time>2016-07-16T09:18:47Z</time>
      </trkpt>
      <trkpt lat="42.95061" lon="-7.74838">
        <ele>599</ele>
        <time>2016-07-16T09:19:25Z</time>
      </trkpt>
      <trkpt lat="42.95058" lon="-7.7485">
        <ele>598.2</ele>
        <time>2016-07-16T09:21:51Z</time>
      </trkpt>
      <trkpt lat="42.95054" lon="-7.74861">
        <ele>597.8</ele>
        <time>2016-07-16T09:22:05Z</time>
      </trkpt>
      <trkpt lat="42.95051" lon="-7.74873">
        <ele>596.1</ele>
        <time>2016-07-16T09:23:37Z</time>
      </trkpt>
      <trkpt lat="42.95048" lon="-7.74884">
        <ele>596.4</ele>
        <time>2016-07-16T09:23:46Z</time>
      </trkpt>
      <trkpt lat="42.95044" lon="-7.74897">
        <ele>596</ele>
        <time>2016-07-16T09:23:56Z</time>
      </trkpt>
      <trkpt lat="42.95044" lon="-7.74909">
        <ele>596</ele>
        <time>2016-07-16T09:24:05Z</time>
      </trkpt>
      <trkpt lat="42.95045" lon="-7.74922">
        <ele>596</ele>
        <time>2016-07-16T09:24:14Z</time>
      </trkpt>
      <trkpt lat="42.95047" lon="-7.74935">
        <ele>596</ele>
        <time>2016-07-16T09:24:26Z</time>
      </trkpt>
      <trkpt lat="42.95048" lon="-7.74948">
        <ele>596.4</ele>
        <time>2016-07-16T09:24:36Z</time>
      </trkpt>
      <trkpt lat="42.95051" lon="-7.74962">
        <ele>596.7</ele>
        <time>2016-07-16T09:24:47Z</time>
      </trkpt>
      <trkpt lat="42.95053" lon="-7.74975">
        <ele>597.5</ele>
        <time>2016-07-16T09:24:57Z</time>
      </trkpt>
      <trkpt lat="42.95054" lon="-7.74987">
        <ele>598</ele>
        <time>2016-07-16T09:25:06Z</time>
      </trkpt>
      <trkpt lat="42.95056" lon="-7.75">
        <ele>598.3</ele>
        <time>2016-07-16T09:25:15Z</time>
      </trkpt>
      <trkpt lat="42.95058" lon="-7.75012">
        <ele>598.3</ele>
        <time>2016-07-16T09:25:23Z</time>
      </trkpt>
      <trkpt lat="42.9506" lon="-7.75025">
        <ele>598.1</ele>
        <time>2016-07-16T09:25:34Z</time>
      </trkpt>
      <trkpt lat="42.95064" lon="-7.75037">
        <ele>597.8</ele>
        <time>2016-07-16T09:25:42Z</time>
      </trkpt>
      <trkpt lat="42.95067" lon="-7.75049">
        <ele>596.8</ele>
        <time>2016-07-16T09:25:50Z</time>
      </trkpt>
      <trkpt lat="42.95071" lon="-7.75061">
        <ele>596.1</ele>
        <time>2016-07-16T09:25:57Z</time>
      </trkpt>
      <trkpt lat="42.95075" lon="-7.75073">
        <ele>595.8</ele>
        <time>2016-07-16T09:26:04Z</time>
      </trkpt>
      <trkpt lat="42.95081" lon="-7.75083">
        <ele>595.1</ele>
        <time>2016-07-16T09:26:12Z</time>
      </trkpt>
      <trkpt lat="42.95088" lon="-7.75093">
        <ele>594.3</ele>
        <time>2016-07-16T09:26:20Z</time>
      </trkpt>
      <trkpt lat="42.95094" lon="-7.75103">
        <ele>593.4</ele>
        <time>2016-07-16T09:26:29Z</time>
      </trkpt>
      <trkpt lat="42.95101" lon="-7.75113">
        <ele>592.6</ele>
        <time>2016-07-16T09:26:38Z</time>
      </trkpt>
      <trkpt lat="42.95107" lon="-7.75123">
        <ele>592</ele>
        <time>2016-07-16T09:26:46Z</time>
      </trkpt>
      <trkpt lat="42.95112" lon="-7.75134">
        <ele>591.5</ele>
        <time>2016-07-16T09:26:54Z</time>
      </trkpt>
      <trkpt lat="42.95117" lon="-7.75144">
        <ele>591</ele>
        <time>2016-07-16T09:27:01Z</time>
      </trkpt>
      <trkpt lat="42.95123" lon="-7.75155">
        <ele>590.7</ele>
        <time>2016-07-16T09:27:09Z</time>
      </trkpt>
      <trkpt lat="42.95127" lon="-7.75166">
        <ele>590.4</ele>
        <time>2016-07-16T09:27:17Z</time>
      </trkpt>
      <trkpt lat="42.95132" lon="-7.75178">
        <ele>590.2</ele>
        <time>2016-07-16T09:27:26Z</time>
      </trkpt>
      <trkpt lat="42.9514" lon="-7.75186">
        <ele>589.6</ele>
        <time>2016-07-16T09:27:36Z</time>
      </trkpt>
      <trkpt lat="42.95148" lon="-7.75191">
        <ele>589.2</ele>
        <time>2016-07-16T09:27:46Z</time>
      </trkpt>
      <trkpt lat="42.95157" lon="-7.75196">
        <ele>588.1</ele>
        <time>2016-07-16T09:27:57Z</time>
      </trkpt>
      <trkpt lat="42.95166" lon="-7.752">
        <ele>587.3</ele>
        <time>2016-07-16T09:28:06Z</time>
      </trkpt>
      <trkpt lat="42.95175" lon="-7.75205">
        <ele>586.2</ele>
        <time>2016-07-16T09:28:16Z</time>
      </trkpt>
      <trkpt lat="42.95184" lon="-7.75209">
        <ele>585.2</ele>
        <time>2016-07-16T09:28:24Z</time>
      </trkpt>
      <trkpt lat="42.95193" lon="-7.75214">
        <ele>584.6</ele>
        <time>2016-07-16T09:28:32Z</time>
      </trkpt>
      <trkpt lat="42.95202" lon="-7.75217">
        <ele>584.2</ele>
        <time>2016-07-16T09:28:39Z</time>
      </trkpt>
      <trkpt lat="42.95211" lon="-7.75222">
        <ele>583.7</ele>
        <time>2016-07-16T09:28:46Z</time>
      </trkpt>
      <trkpt lat="42.9522" lon="-7.75227">
        <ele>583</ele>
        <time>2016-07-16T09:28:54Z</time>
      </trkpt>
      <trkpt lat="42.95229" lon="-7.75232">
        <ele>582.2</ele>
        <time>2016-07-16T09:29:04Z</time>
      </trkpt>
      <trkpt lat="42.95229" lon="-7.75245">
        <ele>581.7</ele>
        <time>2016-07-16T09:29:19Z</time>
      </trkpt>
      <trkpt lat="42.95227" lon="-7.75258">
        <ele>581</ele>
        <time>2016-07-16T09:29:31Z</time>
      </trkpt>
      <trkpt lat="42.95226" lon="-7.75271">
        <ele>580.9</ele>
        <time>2016-07-16T09:29:42Z</time>
      </trkpt>
      <trkpt lat="42.95223" lon="-7.75283">
        <ele>581.1</ele>
        <time>2016-07-16T09:29:55Z</time>
      </trkpt>
      <trkpt lat="42.95219" lon="-7.75295">
        <ele>581.6</ele>
        <time>2016-07-16T09:30:07Z</time>
      </trkpt>
      <trkpt lat="42.95214" lon="-7.75306">
        <ele>581.9</ele>
        <time>2016-07-16T09:30:17Z</time>
      </trkpt>
      <trkpt lat="42.95209" lon="-7.75318">
        <ele>582.3</ele>
        <time>2016-07-16T09:30:27Z</time>
      </trkpt>
      <trkpt lat="42.95203" lon="-7.75327">
        <ele>582.6</ele>
        <time>2016-07-16T09:30:36Z</time>
      </trkpt>
      <trkpt lat="42.95197" lon="-7.75336">
        <ele>582.8</ele>
        <time>2016-07-16T09:30:43Z</time>
      </trkpt>
      <trkpt lat="42.9519" lon="-7.75347">
        <ele>582.9</ele>
        <time>2016-07-16T09:30:51Z</time>
      </trkpt>
      <trkpt lat="42.95182" lon="-7.75355">
        <ele>583.4</ele>
        <time>2016-07-16T09:31:02Z</time>
      </trkpt>
      <trkpt lat="42.95173" lon="-7.75358">
        <ele>584.1</ele>
        <time>2016-07-16T09:31:11Z</time>
      </trkpt>
      <trkpt lat="42.95163" lon="-7.75361">
        <ele>584.5</ele>
        <time>2016-07-16T09:31:19Z</time>
      </trkpt>
      <trkpt lat="42.95154" lon="-7.75368">
        <ele>584.8</ele>
        <time>2016-07-16T09:31:28Z</time>
      </trkpt>
      <trkpt lat="42.95147" lon="-7.75375">
        <ele>584.9</ele>
        <time>2016-07-16T09:31:36Z</time>
      </trkpt>
      <trkpt lat="42.9514" lon="-7.75384">
        <ele>585.4</ele>
        <time>2016-07-16T09:31:45Z</time>
      </trkpt>
      <trkpt lat="42.95134" lon="-7.75395">
        <ele>585.6</ele>
        <time>2016-07-16T09:31:53Z</time>
      </trkpt>
      <trkpt lat="42.95129" lon="-7.75406">
        <ele>585.9</ele>
        <time>2016-07-16T09:32:01Z</time>
      </trkpt>
      <trkpt lat="42.95128" lon="-7.75419">
        <ele>586.6</ele>
        <time>2016-07-16T09:32:08Z</time>
      </trkpt>
      <trkpt lat="42.95127" lon="-7.75432">
        <ele>587.2</ele>
        <time>2016-07-16T09:32:15Z</time>
      </trkpt>
      <trkpt lat="42.9513" lon="-7.75444">
        <ele>587.5</ele>
        <time>2016-07-16T09:32:23Z</time>
      </trkpt>
      <trkpt lat="42.95135" lon="-7.75456">
        <ele>587.8</ele>
        <time>2016-07-16T09:32:32Z</time>
      </trkpt>
      <trkpt lat="42.9514" lon="-7.75467">
        <ele>588</ele>
        <time>2016-07-16T09:32:42Z</time>
      </trkpt>
      <trkpt lat="42.95146" lon="-7.75477">
        <ele>588.8</ele>
        <time>2016-07-16T09:32:52Z</time>
      </trkpt>
      <trkpt lat="42.95153" lon="-7.75487">
        <ele>590.4</ele>
        <time>2016-07-16T09:33:07Z</time>
      </trkpt>
      <trkpt lat="42.95162" lon="-7.75494">
        <ele>590.8</ele>
        <time>2016-07-16T09:33:18Z</time>
      </trkpt>
      <trkpt lat="42.95171" lon="-7.75497">
        <ele>594.2</ele>
        <time>2016-07-16T09:34:31Z</time>
      </trkpt>
      <trkpt lat="42.9518" lon="-7.75501">
        <ele>594.2</ele>
        <time>2016-07-16T09:34:41Z</time>
      </trkpt>
      <trkpt lat="42.95188" lon="-7.75506">
        <ele>594.3</ele>
        <time>2016-07-16T09:34:51Z</time>
      </trkpt>
      <trkpt lat="42.95197" lon="-7.75512">
        <ele>595.2</ele>
        <time>2016-07-16T09:35:01Z</time>
      </trkpt>
      <trkpt lat="42.95206" lon="-7.75517">
        <ele>596</ele>
        <time>2016-07-16T09:35:10Z</time>
      </trkpt>
      <trkpt lat="42.95216" lon="-7.75522">
        <ele>596.7</ele>
        <time>2016-07-16T09:35:19Z</time>
      </trkpt>
      <trkpt lat="42.95224" lon="-7.75526">
        <ele>597.6</ele>
        <time>2016-07-16T09:35:27Z</time>
      </trkpt>
      <trkpt lat="42.95234" lon="-7.75529">
        <ele>598.6</ele>
        <time>2016-07-16T09:35:37Z</time>
      </trkpt>
      <trkpt lat="42.95243" lon="-7.75534">
        <ele>599.3</ele>
        <time>2016-07-16T09:35:47Z</time>
      </trkpt>
      <trkpt lat="42.95252" lon="-7.75538">
        <ele>600.9</ele>
        <time>2016-07-16T09:35:57Z</time>
      </trkpt>
      <trkpt lat="42.95261" lon="-7.75539">
        <ele>602.2</ele>
        <time>2016-07-16T09:36:07Z</time>
      </trkpt>
      <trkpt lat="42.95271" lon="-7.75537">
        <ele>603.4</ele>
        <time>2016-07-16T09:36:16Z</time>
      </trkpt>
      <trkpt lat="42.95281" lon="-7.75536">
        <ele>604.6</ele>
        <time>2016-07-16T09:36:25Z</time>
      </trkpt>
      <trkpt lat="42.9529" lon="-7.75536">
        <ele>605.9</ele>
        <time>2016-07-16T09:36:34Z</time>
      </trkpt>
      <trkpt lat="42.953" lon="-7.75541">
        <ele>607.1</ele>
        <time>2016-07-16T09:36:43Z</time>
      </trkpt>
      <trkpt lat="42.95309" lon="-7.75544">
        <ele>609.3</ele>
        <time>2016-07-16T09:37:10Z</time>
      </trkpt>
      <trkpt lat="42.95316" lon="-7.75554">
        <ele>609.9</ele>
        <time>2016-07-16T09:37:52Z</time>
      </trkpt>
      <trkpt lat="42.95318" lon="-7.75567">
        <ele>610.1</ele>
        <time>2016-07-16T09:38:01Z</time>
      </trkpt>
      <trkpt lat="42.95321" lon="-7.75579">
        <ele>610.2</ele>
        <time>2016-07-16T09:38:11Z</time>
      </trkpt>
      <trkpt lat="42.95326" lon="-7.7559">
        <ele>610.4</ele>
        <time>2016-07-16T09:38:20Z</time>
      </trkpt>
      <trkpt lat="42.95331" lon="-7.756">
        <ele>610.5</ele>
        <time>2016-07-16T09:38:29Z</time>
      </trkpt>
      <trkpt lat="42.95333" lon="-7.75612">
        <ele>610.6</ele>
        <time>2016-07-16T09:38:39Z</time>
      </trkpt>
      <trkpt lat="42.95338" lon="-7.75623">
        <ele>611</ele>
        <time>2016-07-16T09:38:49Z</time>
      </trkpt>
      <trkpt lat="42.95341" lon="-7.75635">
        <ele>612.1</ele>
        <time>2016-07-16T09:38:58Z</time>
      </trkpt>
      <trkpt lat="42.95341" lon="-7.75648">
        <ele>612.8</ele>
        <time>2016-07-16T09:39:08Z</time>
      </trkpt>
      <trkpt lat="42.9534" lon="-7.7566">
        <ele>614.4</ele>
        <time>2016-07-16T09:39:22Z</time>
      </trkpt>
      <trkpt lat="42.95337" lon="-7.75672">
        <ele>615.8</ele>
        <time>2016-07-16T09:39:33Z</time>
      </trkpt>
      <trkpt lat="42.95333" lon="-7.75684">
        <ele>617.4</ele>
        <time>2016-07-16T09:39:45Z</time>
      </trkpt>
      <trkpt lat="42.95333" lon="-7.75697">
        <ele>618.5</ele>
        <time>2016-07-16T09:39:55Z</time>
      </trkpt>
      <trkpt lat="42.95332" lon="-7.75709">
        <ele>619.7</ele>
        <time>2016-07-16T09:40:06Z</time>
      </trkpt>
      <trkpt lat="42.95333" lon="-7.75722">
        <ele>621.3</ele>
        <time>2016-07-16T09:40:17Z</time>
      </trkpt>
      <trkpt lat="42.95334" lon="-7.75735">
        <ele>622.8</ele>
        <time>2016-07-16T09:40:30Z</time>
      </trkpt>
      <trkpt lat="42.95336" lon="-7.75747">
        <ele>623.7</ele>
        <time>2016-07-16T09:40:41Z</time>
      </trkpt>
      <trkpt lat="42.95338" lon="-7.75759">
        <ele>624.9</ele>
        <time>2016-07-16T09:40:51Z</time>
      </trkpt>
      <trkpt lat="42.95338" lon="-7.75772">
        <ele>626</ele>
        <time>2016-07-16T09:41:01Z</time>
      </trkpt>
      <trkpt lat="42.9534" lon="-7.75785">
        <ele>626.7</ele>
        <time>2016-07-16T09:41:10Z</time>
      </trkpt>
      <trkpt lat="42.95342" lon="-7.75797">
        <ele>627.7</ele>
        <time>2016-07-16T09:41:20Z</time>
      </trkpt>
      <trkpt lat="42.95343" lon="-7.7581">
        <ele>628.7</ele>
        <time>2016-07-16T09:41:30Z</time>
      </trkpt>
      <trkpt lat="42.95343" lon="-7.75823">
        <ele>629.6</ele>
        <time>2016-07-16T09:41:39Z</time>
      </trkpt>
      <trkpt lat="42.95342" lon="-7.75837">
        <ele>630.3</ele>
        <time>2016-07-16T09:41:49Z</time>
      </trkpt>
      <trkpt lat="42.95342" lon="-7.7585">
        <ele>630.9</ele>
        <time>2016-07-16T09:42:02Z</time>
      </trkpt>
      <trkpt lat="42.9534" lon="-7.75862">
        <ele>630.8</ele>
        <time>2016-07-16T09:42:12Z</time>
      </trkpt>
      <trkpt lat="42.95338" lon="-7.75874">
        <ele>630.8</ele>
        <time>2016-07-16T09:42:20Z</time>
      </trkpt>
      <trkpt lat="42.95337" lon="-7.75887">
        <ele>631</ele>
        <time>2016-07-16T09:42:28Z</time>
      </trkpt>
      <trkpt lat="42.95335" lon="-7.759">
        <ele>631</ele>
        <time>2016-07-16T09:42:36Z</time>
      </trkpt>
      <trkpt lat="42.95334" lon="-7.75913">
        <ele>626.7</ele>
        <time>2016-07-16T09:42:44Z</time>
      </trkpt>
      <trkpt lat="42.95331" lon="-7.75926">
        <ele>628.3</ele>
        <time>2016-07-16T09:42:53Z</time>
      </trkpt>
      <trkpt lat="42.95327" lon="-7.75938">
        <ele>627.6</ele>
        <time>2016-07-16T09:43:01Z</time>
      </trkpt>
      <trkpt lat="42.95325" lon="-7.75952">
        <ele>633.9</ele>
        <time>2016-07-16T09:43:10Z</time>
      </trkpt>
      <trkpt lat="42.95324" lon="-7.75965">
        <ele>631.3</ele>
        <time>2016-07-16T09:43:19Z</time>
      </trkpt>
      <trkpt lat="42.95324" lon="-7.75978">
        <ele>626.8</ele>
        <time>2016-07-16T09:43:27Z</time>
      </trkpt>
      <trkpt lat="42.95323" lon="-7.75991">
        <ele>621.7</ele>
        <time>2016-07-16T09:43:35Z</time>
      </trkpt>
      <trkpt lat="42.9532" lon="-7.76004">
        <ele>625.5</ele>
        <time>2016-07-16T09:43:45Z</time>
      </trkpt>
      <trkpt lat="42.95317" lon="-7.76016">
        <ele>623.1</ele>
        <time>2016-07-16T09:43:58Z</time>
      </trkpt>
      <trkpt lat="42.95315" lon="-7.76029">
        <ele>621.5</ele>
        <time>2016-07-16T09:44:08Z</time>
      </trkpt>
      <trkpt lat="42.95313" lon="-7.76041">
        <ele>621.9</ele>
        <time>2016-07-16T09:44:19Z</time>
      </trkpt>
      <trkpt lat="42.95308" lon="-7.76053">
        <ele>620.9</ele>
        <time>2016-07-16T09:44:28Z</time>
      </trkpt>
      <trkpt lat="42.95304" lon="-7.76064">
        <ele>620.6</ele>
        <time>2016-07-16T09:44:36Z</time>
      </trkpt>
      <trkpt lat="42.953" lon="-7.76077">
        <ele>620.2</ele>
        <time>2016-07-16T09:44:44Z</time>
      </trkpt>
      <trkpt lat="42.95297" lon="-7.76088">
        <ele>619.6</ele>
        <time>2016-07-16T09:44:52Z</time>
      </trkpt>
      <trkpt lat="42.95294" lon="-7.76101">
        <ele>619.1</ele>
        <time>2016-07-16T09:45:00Z</time>
      </trkpt>
      <trkpt lat="42.95292" lon="-7.76114">
        <ele>618.7</ele>
        <time>2016-07-16T09:45:09Z</time>
      </trkpt>
      <trkpt lat="42.9529" lon="-7.76126">
        <ele>617.5</ele>
        <time>2016-07-16T09:45:18Z</time>
      </trkpt>
      <trkpt lat="42.95288" lon="-7.76139">
        <ele>616.5</ele>
        <time>2016-07-16T09:45:27Z</time>
      </trkpt>
      <trkpt lat="42.95286" lon="-7.76153">
        <ele>615.2</ele>
        <time>2016-07-16T09:45:36Z</time>
      </trkpt>
      <trkpt lat="42.95286" lon="-7.76166">
        <ele>613.4</ele>
        <time>2016-07-16T09:45:52Z</time>
      </trkpt>
      <trkpt lat="42.95285" lon="-7.76178">
        <ele>612.6</ele>
        <time>2016-07-16T09:46:01Z</time>
      </trkpt>
      <trkpt lat="42.95283" lon="-7.7619">
        <ele>611.6</ele>
        <time>2016-07-16T09:46:10Z</time>
      </trkpt>
      <trkpt lat="42.95281" lon="-7.76203">
        <ele>610.4</ele>
        <time>2016-07-16T09:46:19Z</time>
      </trkpt>
      <trkpt lat="42.95278" lon="-7.76216">
        <ele>609.2</ele>
        <time>2016-07-16T09:46:28Z</time>
      </trkpt>
      <trkpt lat="42.95274" lon="-7.76229">
        <ele>608.1</ele>
        <time>2016-07-16T09:46:37Z</time>
      </trkpt>
      <trkpt lat="42.95271" lon="-7.76241">
        <ele>607.1</ele>
        <time>2016-07-16T09:46:46Z</time>
      </trkpt>
      <trkpt lat="42.95268" lon="-7.76254">
        <ele>606</ele>
        <time>2016-07-16T09:46:55Z</time>
      </trkpt>
      <trkpt lat="42.95265" lon="-7.76266">
        <ele>605.2</ele>
        <time>2016-07-16T09:47:04Z</time>
      </trkpt>
      <trkpt lat="42.95263" lon="-7.76279">
        <ele>604.3</ele>
        <time>2016-07-16T09:47:13Z</time>
      </trkpt>
      <trkpt lat="42.95259" lon="-7.76292">
        <ele>603.1</ele>
        <time>2016-07-16T09:47:22Z</time>
      </trkpt>
      <trkpt lat="42.95256" lon="-7.76305">
        <ele>602.2</ele>
        <time>2016-07-16T09:47:31Z</time>
      </trkpt>
      <trkpt lat="42.95253" lon="-7.76316">
        <ele>600.8</ele>
        <time>2016-07-16T09:47:39Z</time>
      </trkpt>
      <trkpt lat="42.95252" lon="-7.76329">
        <ele>598.8</ele>
        <time>2016-07-16T09:47:54Z</time>
      </trkpt>
      <trkpt lat="42.95251" lon="-7.76342">
        <ele>598.2</ele>
        <time>2016-07-16T09:48:04Z</time>
      </trkpt>
      <trkpt lat="42.95247" lon="-7.76354">
        <ele>597.5</ele>
        <time>2016-07-16T09:48:14Z</time>
      </trkpt>
      <trkpt lat="42.95242" lon="-7.76365">
        <ele>595.6</ele>
        <time>2016-07-16T09:48:23Z</time>
      </trkpt>
      <trkpt lat="42.95236" lon="-7.76375">
        <ele>594.6</ele>
        <time>2016-07-16T09:48:31Z</time>
      </trkpt>
      <trkpt lat="42.95233" lon="-7.76388">
        <ele>593.3</ele>
        <time>2016-07-16T09:48:41Z</time>
      </trkpt>
      <trkpt lat="42.95229" lon="-7.76399">
        <ele>591.1</ele>
        <time>2016-07-16T09:48:51Z</time>
      </trkpt>
      <trkpt lat="42.95224" lon="-7.76411">
        <ele>588.9</ele>
        <time>2016-07-16T09:49:02Z</time>
      </trkpt>
      <trkpt lat="42.95222" lon="-7.76423">
        <ele>587.5</ele>
        <time>2016-07-16T09:49:13Z</time>
      </trkpt>
      <trkpt lat="42.95219" lon="-7.76435">
        <ele>586.5</ele>
        <time>2016-07-16T09:49:25Z</time>
      </trkpt>
      <trkpt lat="42.95218" lon="-7.76447">
        <ele>583.1</ele>
        <time>2016-07-16T09:50:57Z</time>
      </trkpt>
      <trkpt lat="42.95213" lon="-7.76459">
        <ele>583</ele>
        <time>2016-07-16T09:51:08Z</time>
      </trkpt>
      <trkpt lat="42.95208" lon="-7.7647">
        <ele>581.7</ele>
        <time>2016-07-16T09:51:19Z</time>
      </trkpt>
      <trkpt lat="42.95203" lon="-7.76481">
        <ele>580.9</ele>
        <time>2016-07-16T09:51:29Z</time>
      </trkpt>
      <trkpt lat="42.95197" lon="-7.76492">
        <ele>579.8</ele>
        <time>2016-07-16T09:51:39Z</time>
      </trkpt>
      <trkpt lat="42.95191" lon="-7.76503">
        <ele>578.4</ele>
        <time>2016-07-16T09:51:49Z</time>
      </trkpt>
      <trkpt lat="42.95186" lon="-7.76513">
        <ele>577.3</ele>
        <time>2016-07-16T09:51:58Z</time>
      </trkpt>
      <trkpt lat="42.9518" lon="-7.76524">
        <ele>575.9</ele>
        <time>2016-07-16T09:52:07Z</time>
      </trkpt>
      <trkpt lat="42.95176" lon="-7.76535">
        <ele>574.2</ele>
        <time>2016-07-16T09:52:17Z</time>
      </trkpt>
      <trkpt lat="42.95171" lon="-7.76547">
        <ele>572.8</ele>
        <time>2016-07-16T09:52:27Z</time>
      </trkpt>
      <trkpt lat="42.95166" lon="-7.76558">
        <ele>571.3</ele>
        <time>2016-07-16T09:52:37Z</time>
      </trkpt>
      <trkpt lat="42.9516" lon="-7.76568">
        <ele>569.3</ele>
        <time>2016-07-16T09:52:51Z</time>
      </trkpt>
      <trkpt lat="42.95156" lon="-7.76579">
        <ele>568</ele>
        <time>2016-07-16T09:53:01Z</time>
      </trkpt>
      <trkpt lat="42.95151" lon="-7.7659">
        <ele>567.1</ele>
        <time>2016-07-16T09:53:11Z</time>
      </trkpt>
      <trkpt lat="42.95146" lon="-7.766">
        <ele>566</ele>
        <time>2016-07-16T09:53:20Z</time>
      </trkpt>
      <trkpt lat="42.9514" lon="-7.76611">
        <ele>564.2</ele>
        <time>2016-07-16T09:53:30Z</time>
      </trkpt>
      <trkpt lat="42.95134" lon="-7.76621">
        <ele>562.4</ele>
        <time>2016-07-16T09:53:39Z</time>
      </trkpt>
      <trkpt lat="42.95128" lon="-7.76631">
        <ele>560.8</ele>
        <time>2016-07-16T09:53:48Z</time>
      </trkpt>
      <trkpt lat="42.95121" lon="-7.7664">
        <ele>559.5</ele>
        <time>2016-07-16T09:53:57Z</time>
      </trkpt>
      <trkpt lat="42.95115" lon="-7.7665">
        <ele>558.4</ele>
        <time>2016-07-16T09:54:06Z</time>
      </trkpt>
      <trkpt lat="42.95109" lon="-7.76661">
        <ele>556.8</ele>
        <time>2016-07-16T09:54:16Z</time>
      </trkpt>
      <trkpt lat="42.95104" lon="-7.76672">
        <ele>555.4</ele>
        <time>2016-07-16T09:54:25Z</time>
      </trkpt>
      <trkpt lat="42.95099" lon="-7.76683">
        <ele>554</ele>
        <time>2016-07-16T09:54:35Z</time>
      </trkpt>
      <trkpt lat="42.95096" lon="-7.76696">
        <ele>552.2</ele>
        <time>2016-07-16T09:54:45Z</time>
      </trkpt>
      <trkpt lat="42.95096" lon="-7.7671">
        <ele>550.4</ele>
        <time>2016-07-16T09:54:55Z</time>
      </trkpt>
      <trkpt lat="42.951" lon="-7.76722">
        <ele>548.9</ele>
        <time>2016-07-16T09:55:03Z</time>
      </trkpt>
      <trkpt lat="42.95102" lon="-7.76734">
        <ele>547.7</ele>
        <time>2016-07-16T09:55:11Z</time>
      </trkpt>
      <trkpt lat="42.95105" lon="-7.76745">
        <ele>546.2</ele>
        <time>2016-07-16T09:55:20Z</time>
      </trkpt>
      <trkpt lat="42.95107" lon="-7.76757">
        <ele>544.9</ele>
        <time>2016-07-16T09:55:28Z</time>
      </trkpt>
      <trkpt lat="42.9511" lon="-7.7677">
        <ele>543.2</ele>
        <time>2016-07-16T09:55:38Z</time>
      </trkpt>
      <trkpt lat="42.9511" lon="-7.76783">
        <ele>541.7</ele>
        <time>2016-07-16T09:55:48Z</time>
      </trkpt>
      <trkpt lat="42.95109" lon="-7.76796">
        <ele>540.2</ele>
        <time>2016-07-16T09:55:57Z</time>
      </trkpt>
      <trkpt lat="42.95102" lon="-7.76804">
        <ele>538.8</ele>
        <time>2016-07-16T09:56:06Z</time>
      </trkpt>
      <trkpt lat="42.95092" lon="-7.76804">
        <ele>537.5</ele>
        <time>2016-07-16T09:56:17Z</time>
      </trkpt>
      <trkpt lat="42.95082" lon="-7.76808">
        <ele>536.3</ele>
        <time>2016-07-16T09:56:29Z</time>
      </trkpt>
      <trkpt lat="42.95073" lon="-7.76809">
        <ele>535.3</ele>
        <time>2016-07-16T09:56:37Z</time>
      </trkpt>
      <trkpt lat="42.95065" lon="-7.76814">
        <ele>534.5</ele>
        <time>2016-07-16T09:56:45Z</time>
      </trkpt>
      <trkpt lat="42.9506" lon="-7.76824">
        <ele>533</ele>
        <time>2016-07-16T09:56:55Z</time>
      </trkpt>
      <trkpt lat="42.95055" lon="-7.76835">
        <ele>531.9</ele>
        <time>2016-07-16T09:57:04Z</time>
      </trkpt>
      <trkpt lat="42.95054" lon="-7.76847">
        <ele>530.2</ele>
        <time>2016-07-16T09:57:15Z</time>
      </trkpt>
      <trkpt lat="42.95055" lon="-7.7686">
        <ele>529.5</ele>
        <time>2016-07-16T09:57:23Z</time>
      </trkpt>
      <trkpt lat="42.95057" lon="-7.76874">
        <ele>528.7</ele>
        <time>2016-07-16T09:57:32Z</time>
      </trkpt>
      <trkpt lat="42.95057" lon="-7.76887">
        <ele>527.9</ele>
        <time>2016-07-16T09:57:41Z</time>
      </trkpt>
      <trkpt lat="42.95058" lon="-7.769">
        <ele>527.1</ele>
        <time>2016-07-16T09:57:51Z</time>
      </trkpt>
      <trkpt lat="42.95065" lon="-7.7691">
        <ele>525.9</ele>
        <time>2016-07-16T09:58:05Z</time>
      </trkpt>
      <trkpt lat="42.95069" lon="-7.76921">
        <ele>523.9</ele>
        <time>2016-07-16T09:59:03Z</time>
      </trkpt>
      <trkpt lat="42.95077" lon="-7.76928">
        <ele>524.6</ele>
        <time>2016-07-16T09:59:22Z</time>
      </trkpt>
      <trkpt lat="42.95085" lon="-7.76932">
        <ele>524.4</ele>
        <time>2016-07-16T10:01:23Z</time>
      </trkpt>
      <trkpt lat="42.95077" lon="-7.76928">
        <ele>524.3</ele>
        <time>2016-07-16T10:01:52Z</time>
      </trkpt>
      <trkpt lat="42.9507" lon="-7.76919">
        <ele>524.6</ele>
        <time>2016-07-16T10:02:34Z</time>
      </trkpt>
      <trkpt lat="42.95064" lon="-7.76929">
        <ele>522.9</ele>
        <time>2016-07-16T10:04:09Z</time>
      </trkpt>
      <trkpt lat="42.95073" lon="-7.76933">
        <ele>524.9</ele>
        <time>2016-07-16T10:05:43Z</time>
      </trkpt>
      <trkpt lat="42.95068" lon="-7.76945">
        <ele>524.5</ele>
        <time>2016-07-16T10:06:13Z</time>
      </trkpt>
      <trkpt lat="42.95078" lon="-7.76943">
        <ele>524.7</ele>
        <time>2016-07-16T10:06:24Z</time>
      </trkpt>
      <trkpt lat="42.95085" lon="-7.76936">
        <ele>524.4</ele>
        <time>2016-07-16T10:06:32Z</time>
      </trkpt>
      <trkpt lat="42.9508" lon="-7.7692">
        <ele>524</ele>
        <time>2016-07-16T10:06:47Z</time>
      </trkpt>
      <trkpt lat="42.95072" lon="-7.76925">
        <ele>524.9</ele>
        <time>2016-07-16T10:08:44Z</time>
      </trkpt>
      <trkpt lat="42.95063" lon="-7.7692">
        <ele>524.5</ele>
        <time>2016-07-16T10:13:14Z</time>
      </trkpt>
      <trkpt lat="42.95057" lon="-7.76912">
        <ele>524.7</ele>
        <time>2016-07-16T10:14:56Z</time>
      </trkpt>
      <trkpt lat="42.95066" lon="-7.76911">
        <ele>524.7</ele>
        <time>2016-07-16T10:15:25Z</time>
      </trkpt>
      <trkpt lat="42.95075" lon="-7.76915">
        <ele>525.1</ele>
        <time>2016-07-16T10:15:49Z</time>
      </trkpt>
      <trkpt lat="42.95074" lon="-7.76928">
        <ele>526</ele>
        <time>2016-07-16T10:16:22Z</time>
      </trkpt>
      <trkpt lat="42.9508" lon="-7.76918">
        <ele>525.1</ele>
        <time>2016-07-16T10:18:06Z</time>
      </trkpt>
      <trkpt lat="42.95075" lon="-7.76907">
        <ele>524.8</ele>
        <time>2016-07-16T10:18:33Z</time>
      </trkpt>
      <trkpt lat="42.95078" lon="-7.7692">
        <ele>525.1</ele>
        <time>2016-07-16T10:19:03Z</time>
      </trkpt>
      <trkpt lat="42.95078" lon="-7.76933">
        <ele>525.1</ele>
        <time>2016-07-16T10:19:11Z</time>
      </trkpt>
      <trkpt lat="42.9508" lon="-7.76946">
        <ele>524.9</ele>
        <time>2016-07-16T10:19:19Z</time>
      </trkpt>
      <trkpt lat="42.95081" lon="-7.76959">
        <ele>524.7</ele>
        <time>2016-07-16T10:19:27Z</time>
      </trkpt>
      <trkpt lat="42.95082" lon="-7.76972">
        <ele>524.9</ele>
        <time>2016-07-16T10:19:35Z</time>
      </trkpt>
      <trkpt lat="42.95083" lon="-7.76984">
        <ele>524.9</ele>
        <time>2016-07-16T10:19:43Z</time>
      </trkpt>
      <trkpt lat="42.95084" lon="-7.76997">
        <ele>524.8</ele>
        <time>2016-07-16T10:19:52Z</time>
      </trkpt>
      <trkpt lat="42.95087" lon="-7.77009">
        <ele>524.7</ele>
        <time>2016-07-16T10:20:02Z</time>
      </trkpt>
      <trkpt lat="42.95089" lon="-7.77022">
        <ele>524.7</ele>
        <time>2016-07-16T10:20:12Z</time>
      </trkpt>
      <trkpt lat="42.9509" lon="-7.77035">
        <ele>524.4</ele>
        <time>2016-07-16T10:20:22Z</time>
      </trkpt>
      <trkpt lat="42.95091" lon="-7.77047">
        <ele>524.4</ele>
        <time>2016-07-16T10:20:33Z</time>
      </trkpt>
      <trkpt lat="42.95093" lon="-7.7706">
        <ele>524.8</ele>
        <time>2016-07-16T10:20:42Z</time>
      </trkpt>
      <trkpt lat="42.95094" lon="-7.77072">
        <ele>525</ele>
        <time>2016-07-16T10:20:52Z</time>
      </trkpt>
      <trkpt lat="42.95094" lon="-7.77085">
        <ele>525.4</ele>
        <time>2016-07-16T10:21:03Z</time>
      </trkpt>
      <trkpt lat="42.95095" lon="-7.77098">
        <ele>526.1</ele>
        <time>2016-07-16T10:21:13Z</time>
      </trkpt>
      <trkpt lat="42.95095" lon="-7.77111">
        <ele>526.9</ele>
        <time>2016-07-16T10:21:23Z</time>
      </trkpt>
      <trkpt lat="42.95096" lon="-7.77123">
        <ele>527.8</ele>
        <time>2016-07-16T10:21:33Z</time>
      </trkpt>
      <trkpt lat="42.95096" lon="-7.77137">
        <ele>529</ele>
        <time>2016-07-16T10:21:43Z</time>
      </trkpt>
      <trkpt lat="42.95097" lon="-7.7715">
        <ele>529.9</ele>
        <time>2016-07-16T10:21:53Z</time>
      </trkpt>
      <trkpt lat="42.951" lon="-7.77163">
        <ele>530.6</ele>
        <time>2016-07-16T10:22:01Z</time>
      </trkpt>
      <trkpt lat="42.951" lon="-7.77176">
        <ele>531.4</ele>
        <time>2016-07-16T10:22:09Z</time>
      </trkpt>
      <trkpt lat="42.95098" lon="-7.77189">
        <ele>532</ele>
        <time>2016-07-16T10:22:19Z</time>
      </trkpt>
      <trkpt lat="42.95099" lon="-7.77202">
        <ele>532.2</ele>
        <time>2016-07-16T10:22:27Z</time>
      </trkpt>
      <trkpt lat="42.95098" lon="-7.77215">
        <ele>532.4</ele>
        <time>2016-07-16T10:22:37Z</time>
      </trkpt>
      <trkpt lat="42.95096" lon="-7.77227">
        <ele>533.4</ele>
        <time>2016-07-16T10:22:50Z</time>
      </trkpt>
      <trkpt lat="42.95097" lon="-7.7724">
        <ele>533.7</ele>
        <time>2016-07-16T10:23:00Z</time>
      </trkpt>
      <trkpt lat="42.95096" lon="-7.77253">
        <ele>533.8</ele>
        <time>2016-07-16T10:23:09Z</time>
      </trkpt>
      <trkpt lat="42.95096" lon="-7.77265">
        <ele>534.2</ele>
        <time>2016-07-16T10:23:17Z</time>
      </trkpt>
      <trkpt lat="42.95095" lon="-7.77278">
        <ele>534.6</ele>
        <time>2016-07-16T10:23:26Z</time>
      </trkpt>
      <trkpt lat="42.95095" lon="-7.77292">
        <ele>534.8</ele>
        <time>2016-07-16T10:23:35Z</time>
      </trkpt>
      <trkpt lat="42.95094" lon="-7.77304">
        <ele>535.5</ele>
        <time>2016-07-16T10:23:44Z</time>
      </trkpt>
      <trkpt lat="42.95091" lon="-7.77316">
        <ele>536</ele>
        <time>2016-07-16T10:23:53Z</time>
      </trkpt>
      <trkpt lat="42.95088" lon="-7.77328">
        <ele>536.3</ele>
        <time>2016-07-16T10:24:02Z</time>
      </trkpt>
      <trkpt lat="42.95084" lon="-7.77339">
        <ele>537</ele>
        <time>2016-07-16T10:24:11Z</time>
      </trkpt>
      <trkpt lat="42.9508" lon="-7.77351">
        <ele>537.8</ele>
        <time>2016-07-16T10:24:20Z</time>
      </trkpt>
      <trkpt lat="42.95079" lon="-7.77364">
        <ele>538.7</ele>
        <time>2016-07-16T10:24:29Z</time>
      </trkpt>
      <trkpt lat="42.95078" lon="-7.77377">
        <ele>539.2</ele>
        <time>2016-07-16T10:24:39Z</time>
      </trkpt>
      <trkpt lat="42.95085" lon="-7.77386">
        <ele>539.1</ele>
        <time>2016-07-16T10:24:49Z</time>
      </trkpt>
      <trkpt lat="42.95093" lon="-7.77392">
        <ele>538.3</ele>
        <time>2016-07-16T10:24:59Z</time>
      </trkpt>
      <trkpt lat="42.95101" lon="-7.77398">
        <ele>537.8</ele>
        <time>2016-07-16T10:25:08Z</time>
      </trkpt>
      <trkpt lat="42.9511" lon="-7.77403">
        <ele>537.1</ele>
        <time>2016-07-16T10:25:17Z</time>
      </trkpt>
      <trkpt lat="42.95119" lon="-7.77408">
        <ele>536.3</ele>
        <time>2016-07-16T10:25:24Z</time>
      </trkpt>
      <trkpt lat="42.95127" lon="-7.77413">
        <ele>535.5</ele>
        <time>2016-07-16T10:25:32Z</time>
      </trkpt>
      <trkpt lat="42.95136" lon="-7.77419">
        <ele>534.1</ele>
        <time>2016-07-16T10:25:45Z</time>
      </trkpt>
      <trkpt lat="42.95145" lon="-7.77423">
        <ele>533.1</ele>
        <time>2016-07-16T10:25:54Z</time>
      </trkpt>
      <trkpt lat="42.95154" lon="-7.77427">
        <ele>532.4</ele>
        <time>2016-07-16T10:26:02Z</time>
      </trkpt>
      <trkpt lat="42.95163" lon="-7.77432">
        <ele>531.6</ele>
        <time>2016-07-16T10:26:10Z</time>
      </trkpt>
      <trkpt lat="42.95171" lon="-7.77438">
        <ele>530.8</ele>
        <time>2016-07-16T10:26:19Z</time>
      </trkpt>
      <trkpt lat="42.95179" lon="-7.77444">
        <ele>530.2</ele>
        <time>2016-07-16T10:26:27Z</time>
      </trkpt>
      <trkpt lat="42.95187" lon="-7.77449">
        <ele>529.5</ele>
        <time>2016-07-16T10:26:36Z</time>
      </trkpt>
      <trkpt lat="42.95195" lon="-7.77457">
        <ele>526.9</ele>
        <time>2016-07-16T10:27:03Z</time>
      </trkpt>
      <trkpt lat="42.95203" lon="-7.77463">
        <ele>526.2</ele>
        <time>2016-07-16T10:27:16Z</time>
      </trkpt>
      <trkpt lat="42.95204" lon="-7.77476">
        <ele>524.9</ele>
        <time>2016-07-16T10:27:30Z</time>
      </trkpt>
      <trkpt lat="42.95205" lon="-7.77488">
        <ele>524.3</ele>
        <time>2016-07-16T10:27:40Z</time>
      </trkpt>
      <trkpt lat="42.95204" lon="-7.77501">
        <ele>524</ele>
        <time>2016-07-16T10:27:49Z</time>
      </trkpt>
      <trkpt lat="42.95204" lon="-7.77514">
        <ele>523.8</ele>
        <time>2016-07-16T10:27:58Z</time>
      </trkpt>
      <trkpt lat="42.95203" lon="-7.77526">
        <ele>524</ele>
        <time>2016-07-16T10:28:08Z</time>
      </trkpt>
      <trkpt lat="42.95204" lon="-7.7754">
        <ele>524.2</ele>
        <time>2016-07-16T10:28:18Z</time>
      </trkpt>
      <trkpt lat="42.95208" lon="-7.77551">
        <ele>524.5</ele>
        <time>2016-07-16T10:28:27Z</time>
      </trkpt>
      <trkpt lat="42.95216" lon="-7.77558">
        <ele>524.7</ele>
        <time>2016-07-16T10:28:34Z</time>
      </trkpt>
      <trkpt lat="42.95223" lon="-7.77567">
        <ele>524.9</ele>
        <time>2016-07-16T10:28:41Z</time>
      </trkpt>
      <trkpt lat="42.95227" lon="-7.77579">
        <ele>525.3</ele>
        <time>2016-07-16T10:28:52Z</time>
      </trkpt>
      <trkpt lat="42.9523" lon="-7.77591">
        <ele>525.9</ele>
        <time>2016-07-16T10:29:02Z</time>
      </trkpt>
      <trkpt lat="42.9523" lon="-7.77604">
        <ele>526.4</ele>
        <time>2016-07-16T10:29:11Z</time>
      </trkpt>
      <trkpt lat="42.95231" lon="-7.77618">
        <ele>527.1</ele>
        <time>2016-07-16T10:29:20Z</time>
      </trkpt>
      <trkpt lat="42.95232" lon="-7.7763">
        <ele>527.7</ele>
        <time>2016-07-16T10:29:30Z</time>
      </trkpt>
      <trkpt lat="42.95234" lon="-7.77642">
        <ele>528.7</ele>
        <time>2016-07-16T10:29:39Z</time>
      </trkpt>
      <trkpt lat="42.95234" lon="-7.77655">
        <ele>530.2</ele>
        <time>2016-07-16T10:29:51Z</time>
      </trkpt>
      <trkpt lat="42.95232" lon="-7.77667">
        <ele>530.9</ele>
        <time>2016-07-16T10:30:00Z</time>
      </trkpt>
      <trkpt lat="42.95231" lon="-7.7768">
        <ele>532.9</ele>
        <time>2016-07-16T10:30:14Z</time>
      </trkpt>
      <trkpt lat="42.95236" lon="-7.77692">
        <ele>533.8</ele>
        <time>2016-07-16T10:30:25Z</time>
      </trkpt>
      <trkpt lat="42.9524" lon="-7.77703">
        <ele>534.6</ele>
        <time>2016-07-16T10:30:34Z</time>
      </trkpt>
      <trkpt lat="42.95241" lon="-7.77716">
        <ele>535.8</ele>
        <time>2016-07-16T10:30:47Z</time>
      </trkpt>
      <trkpt lat="42.95244" lon="-7.77729">
        <ele>536.4</ele>
        <time>2016-07-16T10:30:56Z</time>
      </trkpt>
      <trkpt lat="42.95244" lon="-7.77742">
        <ele>537.1</ele>
        <time>2016-07-16T10:31:06Z</time>
      </trkpt>
      <trkpt lat="42.95243" lon="-7.77755">
        <ele>537.9</ele>
        <time>2016-07-16T10:31:16Z</time>
      </trkpt>
      <trkpt lat="42.95241" lon="-7.77767">
        <ele>538.5</ele>
        <time>2016-07-16T10:31:25Z</time>
      </trkpt>
      <trkpt lat="42.9524" lon="-7.7778">
        <ele>539.1</ele>
        <time>2016-07-16T10:31:35Z</time>
      </trkpt>
      <trkpt lat="42.95239" lon="-7.77793">
        <ele>539.6</ele>
        <time>2016-07-16T10:31:46Z</time>
      </trkpt>
      <trkpt lat="42.95237" lon="-7.77807">
        <ele>540.4</ele>
        <time>2016-07-16T10:31:56Z</time>
      </trkpt>
      <trkpt lat="42.95234" lon="-7.77819">
        <ele>541.9</ele>
        <time>2016-07-16T10:32:06Z</time>
      </trkpt>
      <trkpt lat="42.95233" lon="-7.77832">
        <ele>542.8</ele>
        <time>2016-07-16T10:32:15Z</time>
      </trkpt>
      <trkpt lat="42.95232" lon="-7.77845">
        <ele>543.7</ele>
        <time>2016-07-16T10:32:25Z</time>
      </trkpt>
      <trkpt lat="42.95232" lon="-7.77858">
        <ele>544.7</ele>
        <time>2016-07-16T10:32:35Z</time>
      </trkpt>
      <trkpt lat="42.95231" lon="-7.77871">
        <ele>545.8</ele>
        <time>2016-07-16T10:32:46Z</time>
      </trkpt>
      <trkpt lat="42.9523" lon="-7.77884">
        <ele>547.5</ele>
        <time>2016-07-16T10:32:59Z</time>
      </trkpt>
      <trkpt lat="42.95226" lon="-7.77896">
        <ele>548.9</ele>
        <time>2016-07-16T10:33:10Z</time>
      </trkpt>
      <trkpt lat="42.95221" lon="-7.77906">
        <ele>549.8</ele>
        <time>2016-07-16T10:33:20Z</time>
      </trkpt>
      <trkpt lat="42.95215" lon="-7.77917">
        <ele>551.3</ele>
        <time>2016-07-16T10:33:30Z</time>
      </trkpt>
      <trkpt lat="42.95208" lon="-7.77925">
        <ele>552.4</ele>
        <time>2016-07-16T10:33:40Z</time>
      </trkpt>
      <trkpt lat="42.95203" lon="-7.77936">
        <ele>555.3</ele>
        <time>2016-07-16T10:34:15Z</time>
      </trkpt>
      <trkpt lat="42.952" lon="-7.77948">
        <ele>555.9</ele>
        <time>2016-07-16T10:34:24Z</time>
      </trkpt>
      <trkpt lat="42.95197" lon="-7.77961">
        <ele>556.6</ele>
        <time>2016-07-16T10:34:33Z</time>
      </trkpt>
      <trkpt lat="42.95196" lon="-7.77974">
        <ele>557.2</ele>
        <time>2016-07-16T10:34:42Z</time>
      </trkpt>
      <trkpt lat="42.95194" lon="-7.77986">
        <ele>557.8</ele>
        <time>2016-07-16T10:34:51Z</time>
      </trkpt>
      <trkpt lat="42.95194" lon="-7.77999">
        <ele>558.4</ele>
        <time>2016-07-16T10:35:00Z</time>
      </trkpt>
      <trkpt lat="42.95193" lon="-7.78012">
        <ele>559.3</ele>
        <time>2016-07-16T10:35:11Z</time>
      </trkpt>
      <trkpt lat="42.95195" lon="-7.78025">
        <ele>560.4</ele>
        <time>2016-07-16T10:35:23Z</time>
      </trkpt>
      <trkpt lat="42.95195" lon="-7.78039">
        <ele>561.4</ele>
        <time>2016-07-16T10:35:34Z</time>
      </trkpt>
      <trkpt lat="42.95197" lon="-7.78052">
        <ele>563.6</ele>
        <time>2016-07-16T10:35:48Z</time>
      </trkpt>
      <trkpt lat="42.95202" lon="-7.78063">
        <ele>564.6</ele>
        <time>2016-07-16T10:35:58Z</time>
      </trkpt>
      <trkpt lat="42.95208" lon="-7.78073">
        <ele>565.7</ele>
        <time>2016-07-16T10:36:07Z</time>
      </trkpt>
      <trkpt lat="42.95215" lon="-7.78082">
        <ele>566.6</ele>
        <time>2016-07-16T10:36:16Z</time>
      </trkpt>
      <trkpt lat="42.95222" lon="-7.7809">
        <ele>568</ele>
        <time>2016-07-16T10:36:26Z</time>
      </trkpt>
      <trkpt lat="42.95229" lon="-7.78098">
        <ele>568.9</ele>
        <time>2016-07-16T10:36:36Z</time>
      </trkpt>
      <trkpt lat="42.95236" lon="-7.78106">
        <ele>570.1</ele>
        <time>2016-07-16T10:36:46Z</time>
      </trkpt>
      <trkpt lat="42.95244" lon="-7.78113">
        <ele>571.2</ele>
        <time>2016-07-16T10:36:57Z</time>
      </trkpt>
      <trkpt lat="42.95252" lon="-7.7812">
        <ele>572.6</ele>
        <time>2016-07-16T10:37:07Z</time>
      </trkpt>
      <trkpt lat="42.95261" lon="-7.78126">
        <ele>573.7</ele>
        <time>2016-07-16T10:37:16Z</time>
      </trkpt>
      <trkpt lat="42.95269" lon="-7.78132">
        <ele>574.8</ele>
        <time>2016-07-16T10:37:27Z</time>
      </trkpt>
      <trkpt lat="42.95277" lon="-7.78138">
        <ele>575.7</ele>
        <time>2016-07-16T10:37:38Z</time>
      </trkpt>
      <trkpt lat="42.95285" lon="-7.78145">
        <ele>576.9</ele>
        <time>2016-07-16T10:37:48Z</time>
      </trkpt>
      <trkpt lat="42.95293" lon="-7.78151">
        <ele>578</ele>
        <time>2016-07-16T10:37:58Z</time>
      </trkpt>
      <trkpt lat="42.95301" lon="-7.78158">
        <ele>579.7</ele>
        <time>2016-07-16T10:38:09Z</time>
      </trkpt>
      <trkpt lat="42.95309" lon="-7.78166">
        <ele>581.1</ele>
        <time>2016-07-16T10:38:21Z</time>
      </trkpt>
      <trkpt lat="42.95316" lon="-7.78173">
        <ele>582.3</ele>
        <time>2016-07-16T10:38:32Z</time>
      </trkpt>
      <trkpt lat="42.95324" lon="-7.7818">
        <ele>583.2</ele>
        <time>2016-07-16T10:38:43Z</time>
      </trkpt>
      <trkpt lat="42.95332" lon="-7.78187">
        <ele>584.9</ele>
        <time>2016-07-16T10:38:54Z</time>
      </trkpt>
      <trkpt lat="42.9534" lon="-7.78196">
        <ele>586.3</ele>
        <time>2016-07-16T10:39:05Z</time>
      </trkpt>
      <trkpt lat="42.95347" lon="-7.78205">
        <ele>587.2</ele>
        <time>2016-07-16T10:39:14Z</time>
      </trkpt>
      <trkpt lat="42.95347" lon="-7.78218">
        <ele>588.5</ele>
        <time>2016-07-16T10:39:24Z</time>
      </trkpt>
      <trkpt lat="42.95339" lon="-7.78224">
        <ele>591.1</ele>
        <time>2016-07-16T10:39:40Z</time>
      </trkpt>
      <trkpt lat="42.95331" lon="-7.78231">
        <ele>592.1</ele>
        <time>2016-07-16T10:39:51Z</time>
      </trkpt>
      <trkpt lat="42.95323" lon="-7.78236">
        <ele>593.6</ele>
        <time>2016-07-16T10:40:32Z</time>
      </trkpt>
      <trkpt lat="42.95315" lon="-7.78244">
        <ele>593.8</ele>
        <time>2016-07-16T10:40:43Z</time>
      </trkpt>
      <trkpt lat="42.95306" lon="-7.78249">
        <ele>593.6</ele>
        <time>2016-07-16T10:40:55Z</time>
      </trkpt>
      <trkpt lat="42.95298" lon="-7.78254">
        <ele>593.4</ele>
        <time>2016-07-16T10:41:05Z</time>
      </trkpt>
      <trkpt lat="42.9529" lon="-7.78261">
        <ele>593.6</ele>
        <time>2016-07-16T10:41:14Z</time>
      </trkpt>
      <trkpt lat="42.95285" lon="-7.78272">
        <ele>594</ele>
        <time>2016-07-16T10:41:23Z</time>
      </trkpt>
      <trkpt lat="42.95288" lon="-7.78285">
        <ele>594.4</ele>
        <time>2016-07-16T10:41:41Z</time>
      </trkpt>
      <trkpt lat="42.95282" lon="-7.78295">
        <ele>594.1</ele>
        <time>2016-07-16T10:42:55Z</time>
      </trkpt>
      <trkpt lat="42.95285" lon="-7.78308">
        <ele>594</ele>
        <time>2016-07-16T10:43:04Z</time>
      </trkpt>
      <trkpt lat="42.95289" lon="-7.7832">
        <ele>594</ele>
        <time>2016-07-16T10:43:12Z</time>
      </trkpt>
      <trkpt lat="42.95295" lon="-7.78331">
        <ele>593.8</ele>
        <time>2016-07-16T10:43:20Z</time>
      </trkpt>
      <trkpt lat="42.95299" lon="-7.78343">
        <ele>593.6</ele>
        <time>2016-07-16T10:43:28Z</time>
      </trkpt>
      <trkpt lat="42.95305" lon="-7.78353">
        <ele>593.7</ele>
        <time>2016-07-16T10:43:36Z</time>
      </trkpt>
      <trkpt lat="42.9531" lon="-7.78364">
        <ele>593.5</ele>
        <time>2016-07-16T10:43:44Z</time>
      </trkpt>
      <trkpt lat="42.95316" lon="-7.78376">
        <ele>593.4</ele>
        <time>2016-07-16T10:43:52Z</time>
      </trkpt>
      <trkpt lat="42.9532" lon="-7.78388">
        <ele>593.2</ele>
        <time>2016-07-16T10:44:01Z</time>
      </trkpt>
      <trkpt lat="42.95324" lon="-7.78399">
        <ele>593</ele>
        <time>2016-07-16T10:44:09Z</time>
      </trkpt>
      <trkpt lat="42.95329" lon="-7.7841">
        <ele>592.8</ele>
        <time>2016-07-16T10:44:17Z</time>
      </trkpt>
      <trkpt lat="42.95335" lon="-7.78422">
        <ele>592.7</ele>
        <time>2016-07-16T10:44:25Z</time>
      </trkpt>
      <trkpt lat="42.9534" lon="-7.78432">
        <ele>592.6</ele>
        <time>2016-07-16T10:44:33Z</time>
      </trkpt>
      <trkpt lat="42.95345" lon="-7.78443">
        <ele>592.3</ele>
        <time>2016-07-16T10:44:41Z</time>
      </trkpt>
      <trkpt lat="42.9535" lon="-7.78454">
        <ele>592.1</ele>
        <time>2016-07-16T10:44:49Z</time>
      </trkpt>
      <trkpt lat="42.95354" lon="-7.78465">
        <ele>591.7</ele>
        <time>2016-07-16T10:44:57Z</time>
      </trkpt>
      <trkpt lat="42.95359" lon="-7.78476">
        <ele>591.2</ele>
        <time>2016-07-16T10:45:05Z</time>
      </trkpt>
      <trkpt lat="42.95363" lon="-7.78488">
        <ele>590.5</ele>
        <time>2016-07-16T10:45:14Z</time>
      </trkpt>
      <trkpt lat="42.95367" lon="-7.785">
        <ele>590.1</ele>
        <time>2016-07-16T10:45:22Z</time>
      </trkpt>
      <trkpt lat="42.95371" lon="-7.78512">
        <ele>589.7</ele>
        <time>2016-07-16T10:45:30Z</time>
      </trkpt>
      <trkpt lat="42.95373" lon="-7.78525">
        <ele>588.9</ele>
        <time>2016-07-16T10:45:38Z</time>
      </trkpt>
      <trkpt lat="42.95376" lon="-7.78538">
        <ele>588.2</ele>
        <time>2016-07-16T10:45:46Z</time>
      </trkpt>
      <trkpt lat="42.95377" lon="-7.78551">
        <ele>587.6</ele>
        <time>2016-07-16T10:45:54Z</time>
      </trkpt>
      <trkpt lat="42.95378" lon="-7.78564">
        <ele>586.7</ele>
        <time>2016-07-16T10:46:02Z</time>
      </trkpt>
      <trkpt lat="42.95383" lon="-7.78575">
        <ele>586</ele>
        <time>2016-07-16T10:46:10Z</time>
      </trkpt>
      <trkpt lat="42.95387" lon="-7.78587">
        <ele>585.3</ele>
        <time>2016-07-16T10:46:19Z</time>
      </trkpt>
      <trkpt lat="42.95391" lon="-7.78599">
        <ele>584.8</ele>
        <time>2016-07-16T10:46:28Z</time>
      </trkpt>
      <trkpt lat="42.95394" lon="-7.78612">
        <ele>583.9</ele>
        <time>2016-07-16T10:46:37Z</time>
      </trkpt>
      <trkpt lat="42.95392" lon="-7.78625">
        <ele>581.9</ele>
        <time>2016-07-16T10:46:52Z</time>
      </trkpt>
      <trkpt lat="42.95386" lon="-7.78634">
        <ele>581</ele>
        <time>2016-07-16T10:47:01Z</time>
      </trkpt>
      <trkpt lat="42.95378" lon="-7.78641">
        <ele>580.1</ele>
        <time>2016-07-16T10:47:10Z</time>
      </trkpt>
      <trkpt lat="42.9537" lon="-7.78648">
        <ele>579</ele>
        <time>2016-07-16T10:47:18Z</time>
      </trkpt>
      <trkpt lat="42.95362" lon="-7.78654">
        <ele>578</ele>
        <time>2016-07-16T10:47:26Z</time>
      </trkpt>
      <trkpt lat="42.95353" lon="-7.78658">
        <ele>576.4</ele>
        <time>2016-07-16T10:47:35Z</time>
      </trkpt>
      <trkpt lat="42.95344" lon="-7.78664">
        <ele>575</ele>
        <time>2016-07-16T10:47:43Z</time>
      </trkpt>
      <trkpt lat="42.95335" lon="-7.78669">
        <ele>573.1</ele>
        <time>2016-07-16T10:47:53Z</time>
      </trkpt>
      <trkpt lat="42.95329" lon="-7.78678">
        <ele>570.7</ele>
        <time>2016-07-16T10:48:02Z</time>
      </trkpt>
      <trkpt lat="42.95329" lon="-7.7869">
        <ele>568.7</ele>
        <time>2016-07-16T10:48:12Z</time>
      </trkpt>
      <trkpt lat="42.95331" lon="-7.78702">
        <ele>566.4</ele>
        <time>2016-07-16T10:48:20Z</time>
      </trkpt>
      <trkpt lat="42.95333" lon="-7.78714">
        <ele>557.9</ele>
        <time>2016-07-16T10:48:27Z</time>
      </trkpt>
      <trkpt lat="42.95335" lon="-7.78727">
        <ele>558.2</ele>
        <time>2016-07-16T10:48:36Z</time>
      </trkpt>
      <trkpt lat="42.95333" lon="-7.7874">
        <ele>562.7</ele>
        <time>2016-07-16T10:48:42Z</time>
      </trkpt>
      <trkpt lat="42.95332" lon="-7.78753">
        <ele>568.1</ele>
        <time>2016-07-16T10:48:50Z</time>
      </trkpt>
      <trkpt lat="42.95332" lon="-7.78765">
        <ele>568.3</ele>
        <time>2016-07-16T10:48:59Z</time>
      </trkpt>
      <trkpt lat="42.95332" lon="-7.78779">
        <ele>564.1</ele>
        <time>2016-07-16T10:49:08Z</time>
      </trkpt>
      <trkpt lat="42.95332" lon="-7.78792">
        <ele>558.6</ele>
        <time>2016-07-16T10:49:17Z</time>
      </trkpt>
      <trkpt lat="42.95331" lon="-7.78806">
        <ele>556.8</ele>
        <time>2016-07-16T10:49:26Z</time>
      </trkpt>
      <trkpt lat="42.95331" lon="-7.78818">
        <ele>554.7</ele>
        <time>2016-07-16T10:49:37Z</time>
      </trkpt>
      <trkpt lat="42.95329" lon="-7.78831">
        <ele>553.7</ele>
        <time>2016-07-16T10:49:50Z</time>
      </trkpt>
      <trkpt lat="42.95323" lon="-7.78843">
        <ele>552.7</ele>
        <time>2016-07-16T10:49:58Z</time>
      </trkpt>
      <trkpt lat="42.95319" lon="-7.78855">
        <ele>552</ele>
        <time>2016-07-16T10:50:05Z</time>
      </trkpt>
      <trkpt lat="42.95314" lon="-7.78866">
        <ele>551.3</ele>
        <time>2016-07-16T10:50:14Z</time>
      </trkpt>
      <trkpt lat="42.9531" lon="-7.78877">
        <ele>550.7</ele>
        <time>2016-07-16T10:50:23Z</time>
      </trkpt>
      <trkpt lat="42.95307" lon="-7.7889">
        <ele>550.1</ele>
        <time>2016-07-16T10:50:32Z</time>
      </trkpt>
      <trkpt lat="42.953" lon="-7.78897">
        <ele>549.1</ele>
        <time>2016-07-16T10:50:42Z</time>
      </trkpt>
      <trkpt lat="42.95292" lon="-7.78906">
        <ele>548.2</ele>
        <time>2016-07-16T10:50:52Z</time>
      </trkpt>
      <trkpt lat="42.95284" lon="-7.78912">
        <ele>547.3</ele>
        <time>2016-07-16T10:51:03Z</time>
      </trkpt>
      <trkpt lat="42.95276" lon="-7.78917">
        <ele>545.7</ele>
        <time>2016-07-16T10:51:17Z</time>
      </trkpt>
      <trkpt lat="42.95267" lon="-7.78921">
        <ele>544.6</ele>
        <time>2016-07-16T10:51:29Z</time>
      </trkpt>
      <trkpt lat="42.95258" lon="-7.78928">
        <ele>543.8</ele>
        <time>2016-07-16T10:51:39Z</time>
      </trkpt>
      <trkpt lat="42.9525" lon="-7.78933">
        <ele>542.7</ele>
        <time>2016-07-16T10:51:50Z</time>
      </trkpt>
      <trkpt lat="42.9524" lon="-7.78936">
        <ele>541.3</ele>
        <time>2016-07-16T10:52:02Z</time>
      </trkpt>
      <trkpt lat="42.9523" lon="-7.78936">
        <ele>540.8</ele>
        <time>2016-07-16T10:52:11Z</time>
      </trkpt>
      <trkpt lat="42.95222" lon="-7.78939">
        <ele>540.2</ele>
        <time>2016-07-16T10:52:22Z</time>
      </trkpt>
      <trkpt lat="42.95212" lon="-7.78942">
        <ele>539.6</ele>
        <time>2016-07-16T10:52:32Z</time>
      </trkpt>
      <trkpt lat="42.95203" lon="-7.78944">
        <ele>539.2</ele>
        <time>2016-07-16T10:52:40Z</time>
      </trkpt>
      <trkpt lat="42.95194" lon="-7.78946">
        <ele>538.8</ele>
        <time>2016-07-16T10:52:47Z</time>
      </trkpt>
      <trkpt lat="42.95184" lon="-7.78949">
        <ele>538.7</ele>
        <time>2016-07-16T10:52:55Z</time>
      </trkpt>
      <trkpt lat="42.95177" lon="-7.78957">
        <ele>538.9</ele>
        <time>2016-07-16T10:53:03Z</time>
      </trkpt>
      <trkpt lat="42.95171" lon="-7.78968">
        <ele>539.5</ele>
        <time>2016-07-16T10:53:12Z</time>
      </trkpt>
      <trkpt lat="42.95167" lon="-7.7898">
        <ele>540.1</ele>
        <time>2016-07-16T10:53:21Z</time>
      </trkpt>
      <trkpt lat="42.95164" lon="-7.78992">
        <ele>540.3</ele>
        <time>2016-07-16T10:53:31Z</time>
      </trkpt>
      <trkpt lat="42.95161" lon="-7.79004">
        <ele>540.8</ele>
        <time>2016-07-16T10:53:39Z</time>
      </trkpt>
      <trkpt lat="42.95159" lon="-7.79016">
        <ele>541.8</ele>
        <time>2016-07-16T10:53:48Z</time>
      </trkpt>
      <trkpt lat="42.95154" lon="-7.79028">
        <ele>542.4</ele>
        <time>2016-07-16T10:53:57Z</time>
      </trkpt>
      <trkpt lat="42.95149" lon="-7.79039">
        <ele>542.8</ele>
        <time>2016-07-16T10:54:06Z</time>
      </trkpt>
      <trkpt lat="42.95147" lon="-7.79051">
        <ele>542.9</ele>
        <time>2016-07-16T10:54:14Z</time>
      </trkpt>
      <trkpt lat="42.95145" lon="-7.79063">
        <ele>543.6</ele>
        <time>2016-07-16T10:54:22Z</time>
      </trkpt>
      <trkpt lat="42.95141" lon="-7.79074">
        <ele>544.2</ele>
        <time>2016-07-16T10:54:30Z</time>
      </trkpt>
      <trkpt lat="42.95138" lon="-7.79088">
        <ele>544.5</ele>
        <time>2016-07-16T10:54:39Z</time>
      </trkpt>
      <trkpt lat="42.95138" lon="-7.79101">
        <ele>544.8</ele>
        <time>2016-07-16T10:54:48Z</time>
      </trkpt>
      <trkpt lat="42.95135" lon="-7.79113">
        <ele>546.2</ele>
        <time>2016-07-16T10:55:06Z</time>
      </trkpt>
      <trkpt lat="42.95137" lon="-7.79126">
        <ele>546.7</ele>
        <time>2016-07-16T10:55:15Z</time>
      </trkpt>
      <trkpt lat="42.95139" lon="-7.79139">
        <ele>547.3</ele>
        <time>2016-07-16T10:55:25Z</time>
      </trkpt>
      <trkpt lat="42.95141" lon="-7.79152">
        <ele>548.2</ele>
        <time>2016-07-16T10:55:35Z</time>
      </trkpt>
      <trkpt lat="42.95143" lon="-7.79164">
        <ele>549.3</ele>
        <time>2016-07-16T10:55:44Z</time>
      </trkpt>
      <trkpt lat="42.95145" lon="-7.79176">
        <ele>550.9</ele>
        <time>2016-07-16T10:56:03Z</time>
      </trkpt>
      <trkpt lat="42.95149" lon="-7.79187">
        <ele>551.7</ele>
        <time>2016-07-16T10:56:15Z</time>
      </trkpt>
      <trkpt lat="42.95153" lon="-7.79199">
        <ele>552</ele>
        <time>2016-07-16T10:56:25Z</time>
      </trkpt>
      <trkpt lat="42.95154" lon="-7.79211">
        <ele>552.6</ele>
        <time>2016-07-16T10:56:36Z</time>
      </trkpt>
      <trkpt lat="42.95156" lon="-7.79225">
        <ele>553.2</ele>
        <time>2016-07-16T10:56:46Z</time>
      </trkpt>
      <trkpt lat="42.95157" lon="-7.79237">
        <ele>554</ele>
        <time>2016-07-16T10:56:56Z</time>
      </trkpt>
      <trkpt lat="42.95161" lon="-7.79249">
        <ele>554.6</ele>
        <time>2016-07-16T10:57:04Z</time>
      </trkpt>
      <trkpt lat="42.95162" lon="-7.79262">
        <ele>555.1</ele>
        <time>2016-07-16T10:57:13Z</time>
      </trkpt>
      <trkpt lat="42.95165" lon="-7.79275">
        <ele>555.9</ele>
        <time>2016-07-16T10:57:22Z</time>
      </trkpt>
      <trkpt lat="42.95167" lon="-7.79287">
        <ele>556.8</ele>
        <time>2016-07-16T10:57:31Z</time>
      </trkpt>
      <trkpt lat="42.9517" lon="-7.79299">
        <ele>558.1</ele>
        <time>2016-07-16T10:57:48Z</time>
      </trkpt>
      <trkpt lat="42.95171" lon="-7.79312">
        <ele>558.4</ele>
        <time>2016-07-16T10:57:57Z</time>
      </trkpt>
      <trkpt lat="42.9517" lon="-7.79324">
        <ele>558.6</ele>
        <time>2016-07-16T10:58:09Z</time>
      </trkpt>
      <trkpt lat="42.9517" lon="-7.79337">
        <ele>559.1</ele>
        <time>2016-07-16T10:58:18Z</time>
      </trkpt>
      <trkpt lat="42.95169" lon="-7.7935">
        <ele>559.5</ele>
        <time>2016-07-16T10:58:27Z</time>
      </trkpt>
      <trkpt lat="42.95166" lon="-7.79362">
        <ele>559.9</ele>
        <time>2016-07-16T10:58:35Z</time>
      </trkpt>
      <trkpt lat="42.95163" lon="-7.79373">
        <ele>560.3</ele>
        <time>2016-07-16T10:58:43Z</time>
      </trkpt>
      <trkpt lat="42.95162" lon="-7.79386">
        <ele>560.6</ele>
        <time>2016-07-16T10:58:52Z</time>
      </trkpt>
      <trkpt lat="42.95162" lon="-7.79399">
        <ele>560.8</ele>
        <time>2016-07-16T10:59:01Z</time>
      </trkpt>
      <trkpt lat="42.95161" lon="-7.79412">
        <ele>560.9</ele>
        <time>2016-07-16T10:59:10Z</time>
      </trkpt>
      <trkpt lat="42.95158" lon="-7.79424">
        <ele>561.5</ele>
        <time>2016-07-16T10:59:19Z</time>
      </trkpt>
      <trkpt lat="42.95156" lon="-7.79436">
        <ele>562</ele>
        <time>2016-07-16T10:59:29Z</time>
      </trkpt>
      <trkpt lat="42.95153" lon="-7.79448">
        <ele>562.4</ele>
        <time>2016-07-16T10:59:38Z</time>
      </trkpt>
      <trkpt lat="42.95149" lon="-7.7946">
        <ele>562.7</ele>
        <time>2016-07-16T10:59:48Z</time>
      </trkpt>
      <trkpt lat="42.95148" lon="-7.79473">
        <ele>563.2</ele>
        <time>2016-07-16T10:59:57Z</time>
      </trkpt>
      <trkpt lat="42.95147" lon="-7.79485">
        <ele>563.8</ele>
        <time>2016-07-16T11:00:06Z</time>
      </trkpt>
      <trkpt lat="42.95146" lon="-7.79498">
        <ele>565</ele>
        <time>2016-07-16T11:00:16Z</time>
      </trkpt>
      <trkpt lat="42.95145" lon="-7.79511">
        <ele>565.6</ele>
        <time>2016-07-16T11:00:25Z</time>
      </trkpt>
      <trkpt lat="42.95146" lon="-7.79525">
        <ele>566</ele>
        <time>2016-07-16T11:00:34Z</time>
      </trkpt>
      <trkpt lat="42.95147" lon="-7.79538">
        <ele>566.4</ele>
        <time>2016-07-16T11:00:44Z</time>
      </trkpt>
      <trkpt lat="42.95149" lon="-7.7955">
        <ele>566.9</ele>
        <time>2016-07-16T11:00:53Z</time>
      </trkpt>
      <trkpt lat="42.95149" lon="-7.79563">
        <ele>568</ele>
        <time>2016-07-16T11:01:05Z</time>
      </trkpt>
      <trkpt lat="42.95149" lon="-7.79576">
        <ele>569.5</ele>
        <time>2016-07-16T11:01:15Z</time>
      </trkpt>
      <trkpt lat="42.95149" lon="-7.79589">
        <ele>570.6</ele>
        <time>2016-07-16T11:01:24Z</time>
      </trkpt>
      <trkpt lat="42.9515" lon="-7.79602">
        <ele>571.1</ele>
        <time>2016-07-16T11:01:32Z</time>
      </trkpt>
      <trkpt lat="42.95155" lon="-7.79612">
        <ele>571.7</ele>
        <time>2016-07-16T11:01:39Z</time>
      </trkpt>
      <trkpt lat="42.95157" lon="-7.79624">
        <ele>572.5</ele>
        <time>2016-07-16T11:01:49Z</time>
      </trkpt>
      <trkpt lat="42.95158" lon="-7.79637">
        <ele>573.1</ele>
        <time>2016-07-16T11:01:57Z</time>
      </trkpt>
      <trkpt lat="42.95156" lon="-7.7965">
        <ele>574</ele>
        <time>2016-07-16T11:02:05Z</time>
      </trkpt>
      <trkpt lat="42.95154" lon="-7.79663">
        <ele>575.2</ele>
        <time>2016-07-16T11:02:19Z</time>
      </trkpt>
      <trkpt lat="42.95153" lon="-7.79675">
        <ele>575.5</ele>
        <time>2016-07-16T11:02:28Z</time>
      </trkpt>
      <trkpt lat="42.95151" lon="-7.79688">
        <ele>575.8</ele>
        <time>2016-07-16T11:02:38Z</time>
      </trkpt>
      <trkpt lat="42.95151" lon="-7.79701">
        <ele>576.4</ele>
        <time>2016-07-16T11:02:47Z</time>
      </trkpt>
      <trkpt lat="42.95151" lon="-7.79713">
        <ele>577.1</ele>
        <time>2016-07-16T11:02:56Z</time>
      </trkpt>
      <trkpt lat="42.95151" lon="-7.79726">
        <ele>577.5</ele>
        <time>2016-07-16T11:03:05Z</time>
      </trkpt>
      <trkpt lat="42.9515" lon="-7.79739">
        <ele>578</ele>
        <time>2016-07-16T11:03:14Z</time>
      </trkpt>
      <trkpt lat="42.95148" lon="-7.79752">
        <ele>578.5</ele>
        <time>2016-07-16T11:03:27Z</time>
      </trkpt>
      <trkpt lat="42.95149" lon="-7.79765">
        <ele>578.8</ele>
        <time>2016-07-16T11:03:35Z</time>
      </trkpt>
      <trkpt lat="42.9515" lon="-7.79778">
        <ele>579.2</ele>
        <time>2016-07-16T11:03:43Z</time>
      </trkpt>
      <trkpt lat="42.95152" lon="-7.79791">
        <ele>579.6</ele>
        <time>2016-07-16T11:03:51Z</time>
      </trkpt>
      <trkpt lat="42.95151" lon="-7.79803">
        <ele>580.1</ele>
        <time>2016-07-16T11:04:02Z</time>
      </trkpt>
      <trkpt lat="42.95151" lon="-7.79816">
        <ele>580.3</ele>
        <time>2016-07-16T11:04:11Z</time>
      </trkpt>
      <trkpt lat="42.9515" lon="-7.7983">
        <ele>580.5</ele>
        <time>2016-07-16T11:04:21Z</time>
      </trkpt>
      <trkpt lat="42.9515" lon="-7.79843">
        <ele>580.5</ele>
        <time>2016-07-16T11:04:30Z</time>
      </trkpt>
      <trkpt lat="42.9515" lon="-7.79855">
        <ele>580.5</ele>
        <time>2016-07-16T11:04:38Z</time>
      </trkpt>
      <trkpt lat="42.95151" lon="-7.79868">
        <ele>580.7</ele>
        <time>2016-07-16T11:04:46Z</time>
      </trkpt>
      <trkpt lat="42.95151" lon="-7.79882">
        <ele>581</ele>
        <time>2016-07-16T11:04:55Z</time>
      </trkpt>
      <trkpt lat="42.95151" lon="-7.79894">
        <ele>581.2</ele>
        <time>2016-07-16T11:05:12Z</time>
      </trkpt>
      <trkpt lat="42.95152" lon="-7.79907">
        <ele>581.3</ele>
        <time>2016-07-16T11:05:22Z</time>
      </trkpt>
      <trkpt lat="42.9515" lon="-7.7992">
        <ele>581.4</ele>
        <time>2016-07-16T11:05:31Z</time>
      </trkpt>
      <trkpt lat="42.9515" lon="-7.79933">
        <ele>581.6</ele>
        <time>2016-07-16T11:05:40Z</time>
      </trkpt>
      <trkpt lat="42.95149" lon="-7.79946">
        <ele>581.7</ele>
        <time>2016-07-16T11:05:50Z</time>
      </trkpt>
      <trkpt lat="42.95148" lon="-7.79959">
        <ele>582</ele>
        <time>2016-07-16T11:06:00Z</time>
      </trkpt>
      <trkpt lat="42.95148" lon="-7.79971">
        <ele>582.5</ele>
        <time>2016-07-16T11:06:09Z</time>
      </trkpt>
      <trkpt lat="42.95147" lon="-7.79984">
        <ele>582.9</ele>
        <time>2016-07-16T11:06:18Z</time>
      </trkpt>
      <trkpt lat="42.95147" lon="-7.79997">
        <ele>583.1</ele>
        <time>2016-07-16T11:06:28Z</time>
      </trkpt>
      <trkpt lat="42.95149" lon="-7.80009">
        <ele>583.2</ele>
        <time>2016-07-16T11:06:36Z</time>
      </trkpt>
      <trkpt lat="42.95148" lon="-7.80021">
        <ele>583.3</ele>
        <time>2016-07-16T11:06:44Z</time>
      </trkpt>
      <trkpt lat="42.95148" lon="-7.80035">
        <ele>583.5</ele>
        <time>2016-07-16T11:06:54Z</time>
      </trkpt>
      <trkpt lat="42.95147" lon="-7.80049">
        <ele>584</ele>
        <time>2016-07-16T11:07:05Z</time>
      </trkpt>
      <trkpt lat="42.95147" lon="-7.80061">
        <ele>584.5</ele>
        <time>2016-07-16T11:07:13Z</time>
      </trkpt>
      <trkpt lat="42.95146" lon="-7.80074">
        <ele>585</ele>
        <time>2016-07-16T11:07:22Z</time>
      </trkpt>
      <trkpt lat="42.95145" lon="-7.80088">
        <ele>585.3</ele>
        <time>2016-07-16T11:07:30Z</time>
      </trkpt>
      <trkpt lat="42.95144" lon="-7.80101">
        <ele>585.7</ele>
        <time>2016-07-16T11:07:37Z</time>
      </trkpt>
      <trkpt lat="42.95144" lon="-7.80114">
        <ele>586</ele>
        <time>2016-07-16T11:07:44Z</time>
      </trkpt>
      <trkpt lat="42.95143" lon="-7.80126">
        <ele>586.1</ele>
        <time>2016-07-16T11:07:55Z</time>
      </trkpt>
      <trkpt lat="42.95141" lon="-7.8014">
        <ele>586.2</ele>
        <time>2016-07-16T11:08:04Z</time>
      </trkpt>
      <trkpt lat="42.95138" lon="-7.80152">
        <ele>585.7</ele>
        <time>2016-07-16T11:08:12Z</time>
      </trkpt>
      <trkpt lat="42.95134" lon="-7.80164">
        <ele>585.4</ele>
        <time>2016-07-16T11:08:20Z</time>
      </trkpt>
      <trkpt lat="42.95129" lon="-7.80176">
        <ele>585.1</ele>
        <time>2016-07-16T11:08:30Z</time>
      </trkpt>
      <trkpt lat="42.95124" lon="-7.80187">
        <ele>584.8</ele>
        <time>2016-07-16T11:08:39Z</time>
      </trkpt>
      <trkpt lat="42.95119" lon="-7.80197">
        <ele>584.5</ele>
        <time>2016-07-16T11:08:48Z</time>
      </trkpt>
      <trkpt lat="42.95114" lon="-7.80209">
        <ele>584.3</ele>
        <time>2016-07-16T11:09:05Z</time>
      </trkpt>
      <trkpt lat="42.95109" lon="-7.80219">
        <ele>583.7</ele>
        <time>2016-07-16T11:09:13Z</time>
      </trkpt>
      <trkpt lat="42.95103" lon="-7.8023">
        <ele>583.2</ele>
        <time>2016-07-16T11:09:23Z</time>
      </trkpt>
      <trkpt lat="42.95098" lon="-7.80241">
        <ele>583</ele>
        <time>2016-07-16T11:09:34Z</time>
      </trkpt>
      <trkpt lat="42.95094" lon="-7.80253">
        <ele>583</ele>
        <time>2016-07-16T11:09:43Z</time>
      </trkpt>
      <trkpt lat="42.9509" lon="-7.80264">
        <ele>582.7</ele>
        <time>2016-07-16T11:09:51Z</time>
      </trkpt>
      <trkpt lat="42.95085" lon="-7.80275">
        <ele>582.4</ele>
        <time>2016-07-16T11:09:59Z</time>
      </trkpt>
      <trkpt lat="42.9508" lon="-7.80287">
        <ele>582.3</ele>
        <time>2016-07-16T11:10:08Z</time>
      </trkpt>
      <trkpt lat="42.95077" lon="-7.80299">
        <ele>581.9</ele>
        <time>2016-07-16T11:10:16Z</time>
      </trkpt>
      <trkpt lat="42.95074" lon="-7.80312">
        <ele>581.6</ele>
        <time>2016-07-16T11:10:24Z</time>
      </trkpt>
      <trkpt lat="42.95071" lon="-7.80325">
        <ele>581.5</ele>
        <time>2016-07-16T11:10:32Z</time>
      </trkpt>
      <trkpt lat="42.95069" lon="-7.80336">
        <ele>581.5</ele>
        <time>2016-07-16T11:10:40Z</time>
      </trkpt>
      <trkpt lat="42.95067" lon="-7.8035">
        <ele>581.1</ele>
        <time>2016-07-16T11:10:48Z</time>
      </trkpt>
      <trkpt lat="42.95066" lon="-7.80362">
        <ele>580.6</ele>
        <time>2016-07-16T11:10:56Z</time>
      </trkpt>
      <trkpt lat="42.95066" lon="-7.80375">
        <ele>580.1</ele>
        <time>2016-07-16T11:11:04Z</time>
      </trkpt>
      <trkpt lat="42.95066" lon="-7.80389">
        <ele>579.7</ele>
        <time>2016-07-16T11:11:12Z</time>
      </trkpt>
      <trkpt lat="42.95066" lon="-7.80401">
        <ele>579</ele>
        <time>2016-07-16T11:11:21Z</time>
      </trkpt>
      <trkpt lat="42.95068" lon="-7.80414">
        <ele>578.4</ele>
        <time>2016-07-16T11:11:29Z</time>
      </trkpt>
      <trkpt lat="42.95071" lon="-7.80426">
        <ele>578</ele>
        <time>2016-07-16T11:11:36Z</time>
      </trkpt>
      <trkpt lat="42.95074" lon="-7.80439">
        <ele>577.8</ele>
        <time>2016-07-16T11:11:43Z</time>
      </trkpt>
      <trkpt lat="42.95076" lon="-7.80451">
        <ele>577.8</ele>
        <time>2016-07-16T11:11:50Z</time>
      </trkpt>
      <trkpt lat="42.95078" lon="-7.80464">
        <ele>577.8</ele>
        <time>2016-07-16T11:11:57Z</time>
      </trkpt>
      <trkpt lat="42.95078" lon="-7.80476">
        <ele>577.5</ele>
        <time>2016-07-16T11:12:10Z</time>
      </trkpt>
      <trkpt lat="42.95077" lon="-7.80489">
        <ele>577.7</ele>
        <time>2016-07-16T11:12:20Z</time>
      </trkpt>
      <trkpt lat="42.95077" lon="-7.80502">
        <ele>577.8</ele>
        <time>2016-07-16T11:12:30Z</time>
      </trkpt>
      <trkpt lat="42.95075" lon="-7.80515">
        <ele>577.7</ele>
        <time>2016-07-16T11:12:39Z</time>
      </trkpt>
      <trkpt lat="42.95072" lon="-7.80526">
        <ele>578.1</ele>
        <time>2016-07-16T11:12:49Z</time>
      </trkpt>
      <trkpt lat="42.95069" lon="-7.80539">
        <ele>578.5</ele>
        <time>2016-07-16T11:12:59Z</time>
      </trkpt>
      <trkpt lat="42.95065" lon="-7.80551">
        <ele>578.8</ele>
        <time>2016-07-16T11:13:09Z</time>
      </trkpt>
      <trkpt lat="42.95061" lon="-7.80562">
        <ele>579.2</ele>
        <time>2016-07-16T11:13:18Z</time>
      </trkpt>
      <trkpt lat="42.95057" lon="-7.80573">
        <ele>579.7</ele>
        <time>2016-07-16T11:13:26Z</time>
      </trkpt>
      <trkpt lat="42.95054" lon="-7.80587">
        <ele>579.8</ele>
        <time>2016-07-16T11:13:34Z</time>
      </trkpt>
      <trkpt lat="42.95057" lon="-7.80598">
        <ele>580</ele>
        <time>2016-07-16T11:13:40Z</time>
      </trkpt>
      <trkpt lat="42.9506" lon="-7.80612">
        <ele>580.3</ele>
        <time>2016-07-16T11:13:48Z</time>
      </trkpt>
      <trkpt lat="42.95063" lon="-7.80625">
        <ele>580.5</ele>
        <time>2016-07-16T11:13:56Z</time>
      </trkpt>
      <trkpt lat="42.95066" lon="-7.80637">
        <ele>580.7</ele>
        <time>2016-07-16T11:14:04Z</time>
      </trkpt>
      <trkpt lat="42.9507" lon="-7.80649">
        <ele>580.9</ele>
        <time>2016-07-16T11:14:12Z</time>
      </trkpt>
      <trkpt lat="42.95075" lon="-7.8066">
        <ele>581.1</ele>
        <time>2016-07-16T11:14:20Z</time>
      </trkpt>
      <trkpt lat="42.95079" lon="-7.80672">
        <ele>581.5</ele>
        <time>2016-07-16T11:14:29Z</time>
      </trkpt>
      <trkpt lat="42.95084" lon="-7.80683">
        <ele>581.7</ele>
        <time>2016-07-16T11:14:37Z</time>
      </trkpt>
      <trkpt lat="42.95088" lon="-7.80694">
        <ele>582.1</ele>
        <time>2016-07-16T11:14:45Z</time>
      </trkpt>
      <trkpt lat="42.95092" lon="-7.80705">
        <ele>582.3</ele>
        <time>2016-07-16T11:14:53Z</time>
      </trkpt>
      <trkpt lat="42.95096" lon="-7.80717">
        <ele>582.4</ele>
        <time>2016-07-16T11:15:01Z</time>
      </trkpt>
      <trkpt lat="42.951" lon="-7.80728">
        <ele>582.4</ele>
        <time>2016-07-16T11:15:09Z</time>
      </trkpt>
      <trkpt lat="42.95104" lon="-7.80739">
        <ele>582.3</ele>
        <time>2016-07-16T11:15:17Z</time>
      </trkpt>
      <trkpt lat="42.95109" lon="-7.80751">
        <ele>582.3</ele>
        <time>2016-07-16T11:15:26Z</time>
      </trkpt>
      <trkpt lat="42.95113" lon="-7.80763">
        <ele>582.3</ele>
        <time>2016-07-16T11:15:35Z</time>
      </trkpt>
      <trkpt lat="42.95119" lon="-7.80773">
        <ele>582.5</ele>
        <time>2016-07-16T11:15:44Z</time>
      </trkpt>
      <trkpt lat="42.95125" lon="-7.80782">
        <ele>582.7</ele>
        <time>2016-07-16T11:15:53Z</time>
      </trkpt>
      <trkpt lat="42.95131" lon="-7.80792">
        <ele>582.8</ele>
        <time>2016-07-16T11:16:02Z</time>
      </trkpt>
      <trkpt lat="42.95134" lon="-7.80805">
        <ele>583</ele>
        <time>2016-07-16T11:16:11Z</time>
      </trkpt>
      <trkpt lat="42.95139" lon="-7.80817">
        <ele>583.6</ele>
        <time>2016-07-16T11:16:20Z</time>
      </trkpt>
      <trkpt lat="42.95142" lon="-7.80828">
        <ele>583.9</ele>
        <time>2016-07-16T11:16:30Z</time>
      </trkpt>
      <trkpt lat="42.95146" lon="-7.8084">
        <ele>584.7</ele>
        <time>2016-07-16T11:17:09Z</time>
      </trkpt>
      <trkpt lat="42.95143" lon="-7.80853">
        <ele>584.5</ele>
        <time>2016-07-16T11:17:19Z</time>
      </trkpt>
      <trkpt lat="42.9514" lon="-7.80865">
        <ele>584.3</ele>
        <time>2016-07-16T11:17:27Z</time>
      </trkpt>
      <trkpt lat="42.95138" lon="-7.80878">
        <ele>584</ele>
        <time>2016-07-16T11:17:36Z</time>
      </trkpt>
      <trkpt lat="42.95137" lon="-7.80892">
        <ele>583.9</ele>
        <time>2016-07-16T11:17:44Z</time>
      </trkpt>
      <trkpt lat="42.95137" lon="-7.80904">
        <ele>583.7</ele>
        <time>2016-07-16T11:17:57Z</time>
      </trkpt>
      <trkpt lat="42.95134" lon="-7.80916">
        <ele>583.3</ele>
        <time>2016-07-16T11:18:06Z</time>
      </trkpt>
      <trkpt lat="42.95132" lon="-7.8093">
        <ele>583</ele>
        <time>2016-07-16T11:18:13Z</time>
      </trkpt>
      <trkpt lat="42.9513" lon="-7.80942">
        <ele>582.8</ele>
        <time>2016-07-16T11:18:20Z</time>
      </trkpt>
      <trkpt lat="42.95129" lon="-7.80954">
        <ele>582.6</ele>
        <time>2016-07-16T11:18:27Z</time>
      </trkpt>
      <trkpt lat="42.95128" lon="-7.80967">
        <ele>582.4</ele>
        <time>2016-07-16T11:18:34Z</time>
      </trkpt>
      <trkpt lat="42.95127" lon="-7.80981">
        <ele>582.2</ele>
        <time>2016-07-16T11:18:42Z</time>
      </trkpt>
      <trkpt lat="42.95124" lon="-7.80993">
        <ele>581.6</ele>
        <time>2016-07-16T11:18:49Z</time>
      </trkpt>
      <trkpt lat="42.95122" lon="-7.81006">
        <ele>581.1</ele>
        <time>2016-07-16T11:18:57Z</time>
      </trkpt>
      <trkpt lat="42.9512" lon="-7.8102">
        <ele>580.7</ele>
        <time>2016-07-16T11:19:05Z</time>
      </trkpt>
      <trkpt lat="42.95119" lon="-7.81033">
        <ele>580.4</ele>
        <time>2016-07-16T11:19:12Z</time>
      </trkpt>
      <trkpt lat="42.95117" lon="-7.81046">
        <ele>579.9</ele>
        <time>2016-07-16T11:19:20Z</time>
      </trkpt>
      <trkpt lat="42.95116" lon="-7.81058">
        <ele>579.6</ele>
        <time>2016-07-16T11:19:27Z</time>
      </trkpt>
      <trkpt lat="42.95115" lon="-7.81072">
        <ele>579.2</ele>
        <time>2016-07-16T11:19:38Z</time>
      </trkpt>
      <trkpt lat="42.95114" lon="-7.81084">
        <ele>578.7</ele>
        <time>2016-07-16T11:19:46Z</time>
      </trkpt>
      <trkpt lat="42.95113" lon="-7.81096">
        <ele>577.9</ele>
        <time>2016-07-16T11:19:54Z</time>
      </trkpt>
      <trkpt lat="42.95112" lon="-7.81109">
        <ele>577.1</ele>
        <time>2016-07-16T11:20:02Z</time>
      </trkpt>
      <trkpt lat="42.95112" lon="-7.81123">
        <ele>576.4</ele>
        <time>2016-07-16T11:20:10Z</time>
      </trkpt>
      <trkpt lat="42.95111" lon="-7.81136">
        <ele>575.8</ele>
        <time>2016-07-16T11:20:18Z</time>
      </trkpt>
      <trkpt lat="42.95109" lon="-7.81149">
        <ele>575.4</ele>
        <time>2016-07-16T11:20:26Z</time>
      </trkpt>
      <trkpt lat="42.95108" lon="-7.81162">
        <ele>575.1</ele>
        <time>2016-07-16T11:20:34Z</time>
      </trkpt>
      <trkpt lat="42.95106" lon="-7.81176">
        <ele>574.3</ele>
        <time>2016-07-16T11:20:43Z</time>
      </trkpt>
      <trkpt lat="42.95105" lon="-7.81189">
        <ele>573.7</ele>
        <time>2016-07-16T11:20:51Z</time>
      </trkpt>
      <trkpt lat="42.95105" lon="-7.81202">
        <ele>573</ele>
        <time>2016-07-16T11:21:00Z</time>
      </trkpt>
      <trkpt lat="42.95103" lon="-7.81216">
        <ele>572.5</ele>
        <time>2016-07-16T11:21:09Z</time>
      </trkpt>
      <trkpt lat="42.95101" lon="-7.81229">
        <ele>571.5</ele>
        <time>2016-07-16T11:21:17Z</time>
      </trkpt>
      <trkpt lat="42.95099" lon="-7.81242">
        <ele>570.8</ele>
        <time>2016-07-16T11:21:26Z</time>
      </trkpt>
      <trkpt lat="42.951" lon="-7.81255">
        <ele>570.2</ele>
        <time>2016-07-16T11:21:35Z</time>
      </trkpt>
      <trkpt lat="42.951" lon="-7.81267">
        <ele>569.6</ele>
        <time>2016-07-16T11:21:44Z</time>
      </trkpt>
      <trkpt lat="42.951" lon="-7.81279">
        <ele>569.2</ele>
        <time>2016-07-16T11:21:53Z</time>
      </trkpt>
      <trkpt lat="42.95098" lon="-7.81292">
        <ele>568.9</ele>
        <time>2016-07-16T11:22:02Z</time>
      </trkpt>
      <trkpt lat="42.95097" lon="-7.81304">
        <ele>568.5</ele>
        <time>2016-07-16T11:22:10Z</time>
      </trkpt>
      <trkpt lat="42.95095" lon="-7.81318">
        <ele>567.8</ele>
        <time>2016-07-16T11:22:18Z</time>
      </trkpt>
      <trkpt lat="42.95091" lon="-7.81329">
        <ele>567.4</ele>
        <time>2016-07-16T11:22:25Z</time>
      </trkpt>
      <trkpt lat="42.95089" lon="-7.81342">
        <ele>566.9</ele>
        <time>2016-07-16T11:22:34Z</time>
      </trkpt>
      <trkpt lat="42.95088" lon="-7.81355">
        <ele>566.6</ele>
        <time>2016-07-16T11:22:45Z</time>
      </trkpt>
      <trkpt lat="42.95087" lon="-7.81367">
        <ele>566.1</ele>
        <time>2016-07-16T11:22:53Z</time>
      </trkpt>
      <trkpt lat="42.95085" lon="-7.8138">
        <ele>565.4</ele>
        <time>2016-07-16T11:23:01Z</time>
      </trkpt>
      <trkpt lat="42.95082" lon="-7.81393">
        <ele>565</ele>
        <time>2016-07-16T11:23:09Z</time>
      </trkpt>
      <trkpt lat="42.95078" lon="-7.81405">
        <ele>564.3</ele>
        <time>2016-07-16T11:23:17Z</time>
      </trkpt>
      <trkpt lat="42.95075" lon="-7.81417">
        <ele>563.8</ele>
        <time>2016-07-16T11:23:25Z</time>
      </trkpt>
      <trkpt lat="42.95071" lon="-7.81429">
        <ele>563.2</ele>
        <time>2016-07-16T11:23:34Z</time>
      </trkpt>
      <trkpt lat="42.95066" lon="-7.8144">
        <ele>562.9</ele>
        <time>2016-07-16T11:23:42Z</time>
      </trkpt>
      <trkpt lat="42.95062" lon="-7.81451">
        <ele>562.6</ele>
        <time>2016-07-16T11:23:50Z</time>
      </trkpt>
      <trkpt lat="42.95057" lon="-7.81463">
        <ele>562.4</ele>
        <time>2016-07-16T11:23:58Z</time>
      </trkpt>
      <trkpt lat="42.95053" lon="-7.81474">
        <ele>562.1</ele>
        <time>2016-07-16T11:24:06Z</time>
      </trkpt>
      <trkpt lat="42.95048" lon="-7.81485">
        <ele>561.7</ele>
        <time>2016-07-16T11:24:14Z</time>
      </trkpt>
      <trkpt lat="42.95043" lon="-7.81497">
        <ele>561.5</ele>
        <time>2016-07-16T11:24:22Z</time>
      </trkpt>
      <trkpt lat="42.95038" lon="-7.81508">
        <ele>561.4</ele>
        <time>2016-07-16T11:24:30Z</time>
      </trkpt>
      <trkpt lat="42.95033" lon="-7.8152">
        <ele>561</ele>
        <time>2016-07-16T11:24:39Z</time>
      </trkpt>
      <trkpt lat="42.95029" lon="-7.81532">
        <ele>560.9</ele>
        <time>2016-07-16T11:24:51Z</time>
      </trkpt>
      <trkpt lat="42.95024" lon="-7.81543">
        <ele>560.9</ele>
        <time>2016-07-16T11:24:59Z</time>
      </trkpt>
      <trkpt lat="42.9502" lon="-7.81553">
        <ele>561</ele>
        <time>2016-07-16T11:25:07Z</time>
      </trkpt>
      <trkpt lat="42.95016" lon="-7.81565">
        <ele>560.8</ele>
        <time>2016-07-16T11:25:15Z</time>
      </trkpt>
      <trkpt lat="42.95011" lon="-7.81577">
        <ele>560.7</ele>
        <time>2016-07-16T11:25:23Z</time>
      </trkpt>
      <trkpt lat="42.95004" lon="-7.81586">
        <ele>560.6</ele>
        <time>2016-07-16T11:25:31Z</time>
      </trkpt>
      <trkpt lat="42.94998" lon="-7.81595">
        <ele>560.7</ele>
        <time>2016-07-16T11:25:39Z</time>
      </trkpt>
      <trkpt lat="42.9499" lon="-7.81602">
        <ele>560.8</ele>
        <time>2016-07-16T11:25:48Z</time>
      </trkpt>
      <trkpt lat="42.94983" lon="-7.81611">
        <ele>560.9</ele>
        <time>2016-07-16T11:25:57Z</time>
      </trkpt>
      <trkpt lat="42.94977" lon="-7.81622">
        <ele>561.2</ele>
        <time>2016-07-16T11:26:11Z</time>
      </trkpt>
      <trkpt lat="42.94971" lon="-7.81632">
        <ele>560.8</ele>
        <time>2016-07-16T11:26:20Z</time>
      </trkpt>
      <trkpt lat="42.94967" lon="-7.81644">
        <ele>560.6</ele>
        <time>2016-07-16T11:26:30Z</time>
      </trkpt>
      <trkpt lat="42.94969" lon="-7.81656">
        <ele>560.5</ele>
        <time>2016-07-16T11:26:40Z</time>
      </trkpt>
      <trkpt lat="42.94974" lon="-7.81668">
        <ele>560.7</ele>
        <time>2016-07-16T11:26:51Z</time>
      </trkpt>
      <trkpt lat="42.94968" lon="-7.81677">
        <ele>560.8</ele>
        <time>2016-07-16T11:27:41Z</time>
      </trkpt>
      <trkpt lat="42.94971" lon="-7.81688">
        <ele>562</ele>
        <time>2016-07-16T11:28:05Z</time>
      </trkpt>
      <trkpt lat="42.9496" lon="-7.81693">
        <ele>560</ele>
        <time>2016-07-16T11:29:04Z</time>
      </trkpt>
      <trkpt lat="42.94965" lon="-7.81705">
        <ele>560</ele>
        <time>2016-07-16T11:29:13Z</time>
      </trkpt>
      <trkpt lat="42.94968" lon="-7.81663">
        <ele>561</ele>
        <time>2016-07-16T11:30:13Z</time>
      </trkpt>
      <trkpt lat="42.94974" lon="-7.81678">
        <ele>561</ele>
        <time>2016-07-16T11:30:21Z</time>
      </trkpt>
      <trkpt lat="42.94974" lon="-7.81692">
        <ele>560</ele>
        <time>2016-07-16T11:30:46Z</time>
      </trkpt>
      <trkpt lat="42.94982" lon="-7.81684">
        <ele>561.8</ele>
        <time>2016-07-16T11:30:55Z</time>
      </trkpt>
      <trkpt lat="42.94972" lon="-7.81685">
        <ele>562.2</ele>
        <time>2016-07-16T11:31:04Z</time>
      </trkpt>
      <trkpt lat="42.94965" lon="-7.81674">
        <ele>561</ele>
        <time>2016-07-16T11:31:51Z</time>
      </trkpt>
      <trkpt lat="42.94981" lon="-7.81659">
        <ele>561</ele>
        <time>2016-07-16T11:32:00Z</time>
      </trkpt>
      <trkpt lat="42.94995" lon="-7.81668">
        <ele>562</ele>
        <time>2016-07-16T11:32:07Z</time>
      </trkpt>
      <trkpt lat="42.94986" lon="-7.81673">
        <ele>562</ele>
        <time>2016-07-16T11:32:15Z</time>
      </trkpt>
      <trkpt lat="42.94972" lon="-7.81681">
        <ele>562</ele>
        <time>2016-07-16T11:32:41Z</time>
      </trkpt>
      <trkpt lat="42.94998" lon="-7.81692">
        <ele>562</ele>
        <time>2016-07-16T11:33:02Z</time>
      </trkpt>
      <trkpt lat="42.94995" lon="-7.8168">
        <ele>562</ele>
        <time>2016-07-16T11:33:38Z</time>
      </trkpt>
      <trkpt lat="42.94984" lon="-7.81679">
        <ele>562</ele>
        <time>2016-07-16T11:34:00Z</time>
      </trkpt>
      <trkpt lat="42.94993" lon="-7.81687">
        <ele>562</ele>
        <time>2016-07-16T11:34:42Z</time>
      </trkpt>
      <trkpt lat="42.94995" lon="-7.81707">
        <ele>562</ele>
        <time>2016-07-16T11:34:49Z</time>
      </trkpt>
      <trkpt lat="42.94985" lon="-7.81699">
        <ele>562</ele>
        <time>2016-07-16T11:34:57Z</time>
      </trkpt>
      <trkpt lat="42.94962" lon="-7.81667">
        <ele>562</ele>
        <time>2016-07-16T11:35:04Z</time>
      </trkpt>
      <trkpt lat="42.94971" lon="-7.81674">
        <ele>562.1</ele>
        <time>2016-07-16T11:35:13Z</time>
      </trkpt>
      <trkpt lat="42.9498" lon="-7.81677">
        <ele>562.1</ele>
        <time>2016-07-16T11:35:21Z</time>
      </trkpt>
      <trkpt lat="42.94984" lon="-7.81666">
        <ele>562</ele>
        <time>2016-07-16T11:35:57Z</time>
      </trkpt>
      <trkpt lat="42.94975" lon="-7.81672">
        <ele>562.7</ele>
        <time>2016-07-16T11:36:32Z</time>
      </trkpt>
      <trkpt lat="42.94966" lon="-7.81679">
        <ele>562</ele>
        <time>2016-07-16T11:36:53Z</time>
      </trkpt>
      <trkpt lat="42.94959" lon="-7.8169">
        <ele>562</ele>
        <time>2016-07-16T11:37:40Z</time>
      </trkpt>
      <trkpt lat="42.94969" lon="-7.81684">
        <ele>562</ele>
        <time>2016-07-16T11:38:12Z</time>
      </trkpt>
      <trkpt lat="42.94968" lon="-7.81712">
        <ele>562</ele>
        <time>2016-07-16T11:39:45Z</time>
      </trkpt>
      <trkpt lat="42.94953" lon="-7.81713">
        <ele>562</ele>
        <time>2016-07-16T11:40:07Z</time>
      </trkpt>
      <trkpt lat="42.94974" lon="-7.81689">
        <ele>562</ele>
        <time>2016-07-16T11:40:39Z</time>
      </trkpt>
      <trkpt lat="42.94988" lon="-7.81678">
        <ele>563.7</ele>
        <time>2016-07-16T11:41:25Z</time>
      </trkpt>
      <trkpt lat="42.94978" lon="-7.81677">
        <ele>563.6</ele>
        <time>2016-07-16T11:41:33Z</time>
      </trkpt>
      <trkpt lat="42.9497" lon="-7.81673">
        <ele>563.5</ele>
        <time>2016-07-16T11:41:39Z</time>
      </trkpt>
      <trkpt lat="42.94961" lon="-7.81673">
        <ele>563.3</ele>
        <time>2016-07-16T11:41:50Z</time>
      </trkpt>
      <trkpt lat="42.94969" lon="-7.8167">
        <ele>562</ele>
        <time>2016-07-16T11:42:20Z</time>
      </trkpt>
      <trkpt lat="42.94973" lon="-7.81657">
        <ele>562</ele>
        <time>2016-07-16T11:42:28Z</time>
      </trkpt>
      <trkpt lat="42.94984" lon="-7.81656">
        <ele>562</ele>
        <time>2016-07-16T11:42:34Z</time>
      </trkpt>
      <trkpt lat="42.94942" lon="-7.81663">
        <ele>562</ele>
        <time>2016-07-16T11:42:50Z</time>
      </trkpt>
      <trkpt lat="42.94921" lon="-7.81689">
        <ele>563.1</ele>
        <time>2016-07-16T11:42:57Z</time>
      </trkpt>
      <trkpt lat="42.94932" lon="-7.81689">
        <ele>563.1</ele>
        <time>2016-07-16T11:43:00Z</time>
      </trkpt>
      <trkpt lat="42.94941" lon="-7.81692">
        <ele>563.1</ele>
        <time>2016-07-16T11:43:07Z</time>
      </trkpt>
      <trkpt lat="42.94942" lon="-7.8168">
        <ele>562.7</ele>
        <time>2016-07-16T11:43:23Z</time>
      </trkpt>
      <trkpt lat="42.94947" lon="-7.8169">
        <ele>562</ele>
        <time>2016-07-16T11:43:48Z</time>
      </trkpt>
      <trkpt lat="42.94957" lon="-7.81684">
        <ele>561</ele>
        <time>2016-07-16T11:44:07Z</time>
      </trkpt>
      <trkpt lat="42.94947" lon="-7.81733">
        <ele>562</ele>
        <time>2016-07-16T11:44:33Z</time>
      </trkpt>
      <trkpt lat="42.94935" lon="-7.81758">
        <ele>562.8</ele>
        <time>2016-07-16T11:44:39Z</time>
      </trkpt>
      <trkpt lat="42.94933" lon="-7.81696">
        <ele>563</ele>
        <time>2016-07-16T11:44:46Z</time>
      </trkpt>
      <trkpt lat="42.94955" lon="-7.81644">
        <ele>562</ele>
        <time>2016-07-16T11:45:14Z</time>
      </trkpt>
      <trkpt lat="42.94955" lon="-7.81644">
        <ele>562</ele>
        <time>2016-07-16T11:45:14Z</time>
      </trkpt>
      <trkpt lat="42.94955" lon="-7.81644">
        <ele>562</ele>
        <time>2016-07-16T11:45:14Z</time>
      </trkpt>
    </trkseg>
  </trk>
</gpx>